# Wetter Temperatur Luftdruck Luftfeuchtigkeit Sichtweite Windgeschwindigkeit Windrichtung Zeit
1 Clear 12 1014 62 16093 2.1 210 10:40 08.04.2020
2 Clear 12 1015 58 16093 2.6 240 10:21 08.04.2020
3 Clear 12 1015 58 16093 2.6 240 09:59 08.04.2020
4 Clear 12 1015 58 16093 2.6 240 09:41 08.04.2020
5 Clear 12 1015 62 16093 2.1 200 09:19 08.04.2020
6 Clear 12 1015 62 16093 2.1 200 08:57 08.04.2020
7 Clear 13 1015 62 16093 2.1 200 08:38 08.04.2020
8 Clear 13 1015 58 16093 1.42 5 08:20 08.04.2020
9 Clear 13 1015 58 16093 1.42 5 07:42 08.04.2020
10 Clear 13 1015 55 16093 1.5 300 07:21 08.04.2020
11 Clear 14 1015 55 16093 1.5 300 06:28 08.04.2020
12 Clouds 16 1014 51 16093 2.6 350 04:55 08.04.2020
13 Clouds 17 1015 45 16093 4.1 360 02:50 08.04.2020
14 Rain 17 1016 55 16093 5.1 350 02:21 08.04.2020
15 Rain 17 1016 55 16093 5.1 350 01:56 08.04.2020
16 Rain 17 1016 55 16093 5.1 350 01:28 08.04.2020
17 Rain 16 1017 67 16093 6.2 340 00:45 08.04.2020
18 Rain 16 1017 67 16093 6.2 340 00:25 08.04.2020
19 Rain 15 1018 76 16093 4.1 280 23:41 07.04.2020
20 Rain 15 1018 67 16093 3.1 290 23:23 07.04.2020
21 Rain 16 1018 67 16093 3.1 290 22:59 07.04.2020
22 Rain 16 1018 67 16093 3.1 290 22:40 07.04.2020
23 Rain 15 1018 48 16093 2.6 350 22:21 07.04.2020
24 Clouds 16 1018 48 16093 2.6 350 22:00 07.04.2020
25 Clouds 17 1018 48 16093 2.6 350 21:41 07.04.2020
26 Clouds 16 1018 48 16093 2.6 350 21:21 07.04.2020
27 Clouds 16 1018 48 16093 2.6 350 21:21 07.04.2020
28 Clouds 16 1018 48 16093 3.6 350 20:58 07.04.2020
29 Clouds 16 1018 48 16093 3.6 350 20:39 07.04.2020
30 Clouds 16 1018 51 16093 2.1 20 20:20 07.04.2020
31 Clouds 16 1018 51 16093 2.1 20 19:57 07.04.2020
32 Clouds 16 1018 51 16093 2.1 20 19:37 07.04.2020
33 Clouds 15 1018 51 16093 2.1 20 19:19 07.04.2020
34 Clouds 15 1018 51 16093 2.1 20 19:19 07.04.2020
35 Clouds 14 1018 58 16093 3.1 350 18:57 07.04.2020
36 Clouds 14 1018 58 16093 3.1 350 18:38 07.04.2020
37 Clouds 14 1018 58 16093 3.1 350 18:19 07.04.2020
38 Clouds 13 1018 66 16093 5.1 350 17:44 07.04.2020
39 Clouds 12 1018 66 16093 5.1 350 17:21 07.04.2020
40 Clouds 12 1017 66 16093 2.1 20 16:47 07.04.2020
41 Clouds 12 1017 66 16093 2.1 20 16:47 07.04.2020
42 Clouds 11 1017 66 16093 2.1 20 16:28 07.04.2020
43 Clouds 11 1016 66 16093 1.5 10 15:57 07.04.2020
44 Clouds 11 1016 66 16093 1.5 10 15:38 07.04.2020
45 Clouds 11 1016 66 16093 1.5 10 15:20 07.04.2020
46 Clouds 11 1016 62 16093 1.5 10 14:41 07.04.2020
47 Rain 11 1015 62 16093 2.1 320 14:22 07.04.2020
48 Rain 11 1015 62 16093 2.1 320 13:57 07.04.2020
49 Rain 11 1015 62 16093 2.1 320 13:37 07.04.2020
50 Clouds 11 1015 62 16093 4.1 320 13:18 07.04.2020
51 Clouds 11 1015 62 16093 4.1 320 12:55 07.04.2020
52 Clouds 12 1015 62 16093 4.1 320 12:36 07.04.2020
53 Clouds 12 1015 62 16093 4.1 320 12:36 07.04.2020
54 Clouds 12 1016 62 16093 1.24 226 12:18 07.04.2020
55 Clouds 12 1016 62 16093 1.24 226 11:42 07.04.2020
56 Clouds 12 1016 66 16093 1.5 340 11:24 07.04.2020
57 Clouds 12 1016 66 16093 1.5 340 10:58 07.04.2020
58 Clouds 12 1016 66 16093 1.5 340 10:37 07.04.2020
59 Rain 12 1015 66 16093 2.6 10 10:19 07.04.2020
60 Rain 12 1015 66 16093 2.6 10 09:45 07.04.2020
61 Clouds 12 1015 71 16093 4.1 310 09:18 07.04.2020
62 Clouds 12 1015 71 16093 4.1 310 08:55 07.04.2020
63 Clouds 12 1015 71 16093 4.1 310 08:36 07.04.2020
64 Rain 12 1014 76 16093 2.6 20 08:18 07.04.2020
65 Rain 12 1014 76 16093 2.6 20 07:40 07.04.2020
66 Rain 13 1014 67 16093 3.6 310 07:21 07.04.2020
67 Rain 13 1014 67 16093 3.6 310 06:51 07.04.2020
68 Rain 13 1013 42 16093 2.6 290 06:21 07.04.2020
69 Rain 14 1013 42 16093 2.6 290 05:38 07.04.2020
70 Rain 16 1012 42 16093 4.6 280 04:46 07.04.2020
71 Rain 17 1011 36 16093 7.7 270 03:26 07.04.2020
72 Clouds 18 1010 29 16093 6.2 210 02:54 07.04.2020
73 Clouds 18 1010 28 16093 4.6 200 01:48 07.04.2020
74 Clouds 18 1010 28 16093 4.6 200 01:25 07.04.2020
75 Clouds 18 1011 32 16093 3.6 160 00:29 07.04.2020
76 Clouds 18 1011 32 16093 3.6 160 00:29 07.04.2020
77 Clouds 18 1011 34 16093 4.6 140 23:55 06.04.2020
78 Clouds 18 1011 34 16093 4.6 140 23:36 06.04.2020
79 Clouds 17 1011 34 16093 3.6 170 23:18 06.04.2020
80 Clouds 17 1011 34 16093 3.6 170 22:39 06.04.2020
81 Clouds 17 1011 33 16093 4.1 140 22:21 06.04.2020
82 Clouds 17 1011 33 16093 4.1 140 21:57 06.04.2020
83 Clouds 17 1011 33 16093 4.1 140 21:38 06.04.2020
84 Clouds 17 1011 33 16093 5.7 170 21:18 06.04.2020
85 Clouds 17 1011 33 16093 5.7 170 20:55 06.04.2020
86 Clouds 16 1011 33 16093 5.7 170 20:37 06.04.2020
87 Clouds 16 1011 36 16093 3.1 0 20:18 06.04.2020
88 Clouds 16 1011 36 16093 3.1 0 19:41 06.04.2020
89 Clouds 16 1010 38 16093 4.6 200 19:22 06.04.2020
90 Clouds 15 1010 38 16093 4.6 200 18:58 06.04.2020
91 Clouds 15 1010 38 16093 4.6 200 18:39 06.04.2020
92 Clouds 14 1010 44 16093 3.6 170 18:20 06.04.2020
93 Clouds 14 1010 44 16093 3.6 170 17:42 06.04.2020
94 Clouds 14 1009 44 16093 2.6 180 17:20 06.04.2020
95 Clouds 13 1009 44 16093 2.6 180 16:50 06.04.2020
96 Clouds 13 1009 44 16093 2.6 180 16:31 06.04.2020
97 Clouds 13 1008 39 16093 4.1 212 15:41 06.04.2020
98 Clouds 14 1007 38 16093 3.6 200 14:00 06.04.2020
99 Clouds 14 1007 38 16093 3.6 200 14:00 06.04.2020
100 Clouds 14 1007 38 16093 3.6 200 13:40 06.04.2020
101 Clouds 14 1007 38 16093 3.6 200 13:40 06.04.2020
102 Clouds 14 1007 38 16093 3.6 200 13:20 06.04.2020
103 Clouds 14 1007 38 16093 3.6 200 13:20 06.04.2020
104 Clouds 14 1007 38 16093 3.6 200 13:20 06.04.2020
105 Clouds 14 1007 38 16093 3.6 200 13:20 06.04.2020
106 Clouds 14 1006 41 16093 3.1 180 12:23 06.04.2020
107 Clouds 14 1006 41 16093 3.1 180 12:22 06.04.2020
108 Clouds 14 1007 41 16093 4.1 200 11:55 06.04.2020
109 Clouds 15 1007 41 16093 4.1 200 11:33 06.04.2020
110 Clouds 15 1007 41 16093 4.1 200 11:33 06.04.2020
111 Clouds 15 1007 41 16093 4.1 200 11:33 06.04.2020
112 Clouds 15 1007 41 16093 4.1 200 11:33 06.04.2020
113 Clouds 15 1007 41 16093 4.1 200 11:33 06.04.2020
114 Clouds 15 1007 41 16093 3.1 200 10:52 06.04.2020
115 Clouds 15 1007 41 16093 3.1 200 10:52 06.04.2020
116 Clouds 15 1007 41 16093 3.1 200 10:52 06.04.2020
117 Clouds 15 1007 41 16093 3.1 200 10:22 06.04.2020
118 Clouds 16 1007 39 16093 3.1 180 09:47 06.04.2020
119 Clouds 16 1007 39 16093 3.1 180 09:22 06.04.2020
120 Clouds 16 1006 36 16093 4.6 200 08:55 06.04.2020
121 Clouds 16 1006 36 16093 4.6 200 08:31 06.04.2020
122 Clouds 17 1006 39 16093 5.7 240 07:39 06.04.2020
123 Clouds 18 1005 26 16093 7.7 180 06:47 06.04.2020
124 Clouds 19 1005 26 16093 7.7 180 06:24 06.04.2020
125 Clouds 20 1004 21 16093 7.7 190 04:20 06.04.2020
126 Clouds 22 1004 20 16093 8.2 260 02:59 06.04.2020
127 Clouds 22 1004 20 16093 8.2 260 02:36 06.04.2020
128 Clouds 22 1004 23 16093 4.6 230 01:28 06.04.2020
129 Clouds 23 1005 20 16093 5.7 200 00:46 06.04.2020
130 Clouds 22 1005 20 16093 5.7 200 00:23 06.04.2020
131 Clouds 22 1006 24 16093 5.1 230 23:44 05.04.2020
132 Clouds 22 1006 24 16093 5.1 230 23:26 05.04.2020
133 Clouds 22 1007 21 16093 6.2 220 22:55 05.04.2020
134 Clouds 22 1007 21 16093 6.2 220 22:37 05.04.2020
135 Clouds 21 1007 21 16093 6.2 220 22:18 05.04.2020
136 Clouds 21 1008 26 16093 7.7 200 21:46 05.04.2020
137 Clouds 21 1008 26 16093 7.7 200 21:25 05.04.2020
138 Clouds 19 1008 32 16093 8.2 200 20:47 05.04.2020
139 Clouds 19 1008 32 16093 8.2 200 20:19 05.04.2020
140 Clouds 19 1008 32 16093 8.2 200 20:19 05.04.2020
141 Clouds 19 1008 32 16093 8.2 200 20:19 05.04.2020
142 Clouds 19 1008 32 16093 8.2 200 20:19 05.04.2020
143 Clouds 19 1008 32 16093 8.2 200 20:19 05.04.2020
144 Clouds 19 1008 36 16093 5.7 190 19:38 05.04.2020
145 Clouds 18 1008 36 16093 5.7 190 19:20 05.04.2020
146 Clouds 17 1008 39 16093 5.7 180 18:44 05.04.2020
147 Clouds 17 1008 39 16093 5.7 180 18:44 05.04.2020
148 Clouds 17 1008 39 16093 5.7 180 18:44 05.04.2020
149 Clouds 17 1008 39 16093 5.7 180 18:44 05.04.2020
150 Clouds 16 1007 44 16093 7.7 190 17:52 05.04.2020
151 Clouds 16 1007 44 16093 7.7 190 17:52 05.04.2020
152 Clouds 16 1007 44 16093 7.7 190 17:52 05.04.2020
153 Clouds 16 1007 44 16093 7.7 190 17:52 05.04.2020
154 Clouds 15 1007 44 16093 7.7 190 17:26 05.04.2020
155 Clouds 15 1007 44 16093 7.7 190 17:25 05.04.2020
156 Clouds 15 1007 44 16093 7.7 190 17:25 05.04.2020
157 Clouds 15 1007 44 16093 7.7 190 17:25 05.04.2020
158 Clouds 15 1007 47 16093 5.1 170 17:02 05.04.2020
159 Clouds 15 1007 47 16093 5.1 170 17:02 05.04.2020
160 Clouds 15 1007 47 16093 5.1 170 17:02 05.04.2020
161 Clouds 14 1007 47 16093 5.1 170 16:56 05.04.2020
162 Clouds 15 1007 47 16093 5.1 170 16:56 05.04.2020
163 Clouds 14 1007 47 16093 5.1 170 16:20 05.04.2020
164 Clouds 14 1006 47 16093 3.6 190 15:52 05.04.2020
165 Clouds 14 1006 47 16093 3.6 190 15:32 05.04.2020
166 Clouds 14 1005 44 16093 6.2 190 14:50 05.04.2020
167 Clouds 14 1005 44 16093 6.2 190 14:25 05.04.2020
168 Clouds 14 1005 44 16093 6.2 190 14:25 05.04.2020
169 Clouds 14 1005 44 16093 8.2 180 13:43 05.04.2020
170 Clouds 15 1005 38 16093 6.2 190 12:49 05.04.2020
171 Clouds 15 1005 38 16093 6.2 190 12:49 05.04.2020
172 Clouds 15 1005 38 16093 7.2 180 11:41 05.04.2020
173 Clouds 15 1005 38 16093 7.2 180 11:21 05.04.2020
174 Clouds 16 1006 33 16093 7.2 180 10:57 05.04.2020
175 Clouds 16 1006 33 16093 7.2 180 10:38 05.04.2020
176 Clouds 16 1006 33 16093 7.2 180 10:38 05.04.2020
177 Clouds 16 1006 33 16093 7.2 180 10:38 05.04.2020
178 Clouds 16 1006 33 16093 7.2 180 10:18 05.04.2020
179 Clouds 17 1006 31 16093 2.6 180 09:42 05.04.2020
180 Clouds 17 1006 31 16093 2.6 180 09:23 05.04.2020
181 Clouds 17 1006 31 16093 2.6 180 09:23 05.04.2020
182 Clouds 17 1006 31 16093 2.6 180 09:23 05.04.2020
183 Clouds 17 1006 31 16093 2.6 180 09:22 05.04.2020
184 Clouds 17 1006 31 16093 2.6 180 09:22 05.04.2020
185 Clouds 18 1005 24 16093 5.7 200 07:41 05.04.2020
186 Clouds 21 1004 19 16093 5.7 210 04:36 05.04.2020
187 Clouds 22 1004 16 16093 6.7 240 03:32 05.04.2020
188 Clouds 23 1004 14 16093 6.2 220 02:51 05.04.2020
189 Clouds 24 1005 14 16093 6.2 240 01:48 05.04.2020
190 Clouds 24 1005 14 16093 6.2 240 01:28 05.04.2020
191 Clouds 24 1006 12 16093 6.7 190 00:44 05.04.2020
192 Clouds 24 1006 12 16093 6.7 190 00:21 05.04.2020
193 Clouds 23 1007 16 16093 2.6 230 23:54 04.04.2020
194 Clouds 23 1007 16 16093 2.6 230 23:36 04.04.2020
195 Clouds 23 1007 16 16093 2.6 230 23:18 04.04.2020
196 Clouds 22 1008 17 16093 2.6 0 22:40 04.04.2020
197 Clouds 22 1008 17 16093 2.6 0 22:21 04.04.2020
198 Clear 21 1009 18 16093 1.5 0 21:58 04.04.2020
199 Clear 21 1009 18 16093 1.5 0 21:39 04.04.2020
200 Clear 20 1009 18 16093 1.5 0 21:19 04.04.2020
201 Clear 19 1009 17 16093 2.6 0 20:58 04.04.2020
202 Clear 19 1009 17 16093 2.6 0 20:39 04.04.2020
203 Clear 19 1009 17 16093 2.6 0 20:21 04.04.2020
204 Clear 18 1010 23 16093 2.1 0 19:57 04.04.2020
205 Clear 18 1010 23 16093 2.1 0 19:37 04.04.2020
206 Clear 17 1010 23 16093 2.1 0 19:19 04.04.2020
207 Clear 17 1010 23 16093 2.1 0 19:19 04.04.2020
208 Clear 17 1009 25 16093 3.56 182 18:55 04.04.2020
209 Clear 16 1009 25 16093 3.56 182 18:37 04.04.2020
210 Clear 15 1009 25 16093 1.71 206 18:18 04.04.2020
211 Clear 14 1009 30 16093 2.1 200 17:41 04.04.2020
212 Clear 13 1009 30 16093 2.1 200 17:20 04.04.2020
213 Clear 13 1009 32 16093 3.1 260 16:56 04.04.2020
214 Clear 12 1009 32 16093 3.1 260 16:38 04.04.2020
215 Clear 11 1009 32 16093 3.1 260 16:19 04.04.2020
216 Clear 11 1008 32 16093 2.6 200 15:41 04.04.2020
217 Clear 11 1008 32 16093 2.6 200 15:23 04.04.2020
218 Clear 11 1008 32 16093 1.5 200 14:57 04.04.2020
219 Clear 11 1008 32 16093 1.5 200 14:39 04.04.2020
220 Clear 11 1008 32 16093 1.5 200 14:21 04.04.2020
221 Clear 11 1008 30 16093 1.68 215 13:55 04.04.2020
222 Clear 12 1008 30 16093 1.68 215 13:37 04.04.2020
223 Clear 12 1008 30 16093 1.68 215 13:18 04.04.2020
224 Clear 12 1008 30 16093 1.68 215 13:18 04.04.2020
225 Clear 12 1008 30 16093 2.1 230 12:44 04.04.2020
226 Clear 12 1008 30 16093 2.1 230 12:23 04.04.2020
227 Clear 12 1008 30 16093 2.1 230 12:23 04.04.2020
228 Clear 12 1008 30 16093 2.1 190 11:55 04.04.2020
229 Clear 13 1008 30 16093 2.1 190 11:37 04.04.2020
230 Clear 13 1008 30 16093 2.1 190 11:18 04.04.2020
231 Clear 13 1009 28 16093 2.6 200 10:55 04.04.2020
232 Clear 13 1009 28 16093 2.6 200 10:37 04.04.2020
233 Clear 13 1009 28 16093 2.6 200 10:18 04.04.2020
234 Clear 14 1009 26 16093 2.1 220 09:54 04.04.2020
235 Clear 14 1009 26 16093 2.1 220 09:36 04.04.2020
236 Clear 14 1009 26 16093 2.1 220 09:18 04.04.2020
237 Clear 14 1009 25 16093 1.5 220 08:38 04.04.2020
238 Clear 14 1009 25 16093 1.5 220 08:19 04.04.2020
239 Clear 15 1009 18 16093 1.5 60 07:41 04.04.2020
240 Clear 15 1009 18 16093 1.5 60 07:23 04.04.2020
241 Clouds 16 1009 17 16093 2.6 10 06:46 04.04.2020
242 Clouds 17 1009 17 16093 2.6 10 06:18 04.04.2020
243 Clouds 17 1008 16 16093 3.1 60 05:41 04.04.2020
244 Clouds 18 1008 16 16093 3.1 60 05:22 04.04.2020
245 Clouds 19 1008 14 16093 5.7 70 04:25 04.04.2020
246 Clouds 20 1008 13 16093 3.6 90 03:47 04.04.2020
247 Clouds 22 1008 12 16093 4.6 70 02:49 04.04.2020
248 Clouds 21 1008 12 16093 4.6 70 02:30 04.04.2020
249 Clouds 21 1009 11 16093 3.6 60 01:51 04.04.2020
250 Clouds 21 1009 11 16093 3.6 60 01:22 04.04.2020
251 Clouds 21 1010 12 16093 1.5 0 00:47 04.04.2020
252 Clouds 21 1010 12 16093 1.5 0 00:27 04.04.2020
253 Clouds 20 1011 11 16093 3.1 80 23:39 03.04.2020
254 Clouds 20 1011 11 16093 3.1 80 23:39 03.04.2020
255 Clouds 20 1011 11 16093 3.1 80 23:21 03.04.2020
256 Clouds 19 1012 14 16093 0.57 132 22:56 03.04.2020
257 Clouds 19 1012 14 16093 0.57 132 22:38 03.04.2020
258 Clouds 19 1012 14 16093 0.57 132 22:18 03.04.2020
259 Clouds 19 1013 15 16093 2.1 90 21:43 03.04.2020
260 Clouds 18 1013 15 16093 2.1 90 21:23 03.04.2020
261 Clouds 17 1014 14 16093 3.6 50 20:56 03.04.2020
262 Clouds 17 1014 14 16093 3.6 50 20:37 03.04.2020
263 Clouds 17 1014 14 16093 3.6 50 20:19 03.04.2020
264 Clouds 16 1015 17 16093 3.1 60 19:56 03.04.2020
265 Clouds 16 1015 17 16093 3.1 60 19:37 03.04.2020
266 Clouds 16 1015 17 16093 3.1 60 19:19 03.04.2020
267 Clouds 15 1015 19 16093 3.1 50 18:58 03.04.2020
268 Clouds 15 1015 19 16093 3.1 50 18:40 03.04.2020
269 Clouds 14 1015 19 16093 3.1 50 18:22 03.04.2020
270 Clouds 13 1015 20 16093 2.6 30 17:43 03.04.2020
271 Clouds 12 1015 20 16093 2.6 30 17:21 03.04.2020
272 Clouds 12 1015 20 16093 2.6 30 17:21 03.04.2020
273 Clouds 11 1014 23 16093 2.1 350 16:58 03.04.2020
274 Clouds 10 1014 23 16093 2.1 350 16:40 03.04.2020
275 Clouds 10 1014 23 16093 2.1 350 16:21 03.04.2020
276 Clear 9 1014 25 16093 1.5 10 15:57 03.04.2020
277 Clear 9 1014 25 16093 1.5 10 15:38 03.04.2020
278 Clear 9 1014 25 16093 1.5 10 15:19 03.04.2020
279 Clear 8 1013 49 16093 1.88 30 14:41 03.04.2020
280 Clear 8 1013 49 16093 1.88 30 14:41 03.04.2020
281 Clear 10 1013 20 16093 3.6 10 14:22 03.04.2020
282 Clear 10 1013 20 16093 3.6 10 13:57 03.04.2020
283 Clear 10 1013 20 16093 3.6 10 13:38 03.04.2020
284 Clear 10 1013 20 16093 3.6 10 13:20 03.04.2020
285 Clear 11 1013 20 16093 4.1 30 12:43 03.04.2020
286 Clear 11 1013 20 16093 4.1 30 12:20 03.04.2020
287 Clear 11 1013 26 16093 1.47 29 11:56 03.04.2020
288 Clear 11 1013 20 16093 4.1 40 11:37 03.04.2020
289 Clear 11 1013 20 16093 4.1 40 11:18 03.04.2020
290 Clear 12 1013 28 16093 1.5 200 10:58 03.04.2020
291 Clear 12 1013 28 16093 1.5 200 10:38 03.04.2020
292 Clear 12 1013 28 16093 1.5 200 10:20 03.04.2020
293 Clear 12 1013 28 16093 3.1 280 09:57 03.04.2020
294 Clear 12 1013 28 16093 3.1 280 09:39 03.04.2020
295 Clear 12 1013 28 16093 3.1 280 09:21 03.04.2020
296 Clear 12 1013 24 16093 2.1 300 08:55 03.04.2020
297 Clear 12 1013 24 16093 2.1 300 08:36 03.04.2020
298 Clear 13 1013 24 16093 2.1 300 08:18 03.04.2020
299 Clear 14 1013 20 16093 2.6 70 07:41 03.04.2020
300 Clear 14 1013 20 16093 2.6 70 07:23 03.04.2020
301 Clear 15 1013 17 16093 2.6 70 06:38 03.04.2020
302 Clear 15 1013 17 16093 3.6 80 06:20 03.04.2020
303 Clear 16 1012 17 16093 4.6 80 05:34 03.04.2020
304 Clouds 19 1011 14 16093 2.6 40 03:40 03.04.2020
305 Clouds 20 1012 15 16093 2.46 18 02:53 03.04.2020
306 Clouds 20 1012 15 16093 3.1 330 01:36 03.04.2020
307 Clouds 20 1012 15 16093 3.1 330 01:18 03.04.2020
308 Clouds 20 1012 15 16093 2.89 21 00:34 03.04.2020
309 Clouds 20 1013 15 16093 4.6 350 23:57 02.04.2020
310 Clouds 20 1013 15 16093 4.6 350 23:39 02.04.2020
311 Clouds 20 1013 15 16093 4.6 350 23:19 02.04.2020
312 Clouds 20 1013 15 16093 4.6 350 23:19 02.04.2020
313 Clouds 19 1013 15 16093 5.1 360 22:43 02.04.2020
314 Clouds 19 1013 15 16093 5.1 360 22:25 02.04.2020
315 Clouds 19 1013 16 16093 7.2 20 21:59 02.04.2020
316 Clouds 19 1013 16 16093 7.2 20 21:59 02.04.2020
317 Clouds 18 1013 16 16093 7.2 20 21:37 02.04.2020
318 Clouds 18 1013 16 16093 7.2 20 21:19 02.04.2020
319 Clouds 18 1014 17 16093 9.3 20 20:55 02.04.2020
320 Clouds 18 1014 17 16093 9.3 20 20:37 02.04.2020
321 Clouds 17 1014 17 16093 9.3 20 20:18 02.04.2020
322 Clouds 17 1013 18 16093 7.7 360 19:42 02.04.2020
323 Clouds 16 1013 18 16093 7.7 360 19:20 02.04.2020
324 Clear 16 1012 21 16093 9.3 360 18:56 02.04.2020
325 Clear 16 1012 21 16093 9.3 360 18:38 02.04.2020
326 Clear 15 1012 21 16093 9.3 360 18:19 02.04.2020
327 Clear 15 1011 21 16093 8.7 360 17:44 02.04.2020
328 Clear 14 1011 21 16093 8.7 360 17:26 02.04.2020
329 Clear 14 1010 21 16093 5.7 30 16:59 02.04.2020
330 Clear 14 1010 21 16093 5.7 30 16:40 02.04.2020
331 Clear 14 1010 21 16093 5.7 30 16:22 02.04.2020
332 Clear 14 1008 38 16093 3.1 150 15:57 02.04.2020
333 Clear 14 1008 38 16093 3.1 150 15:39 02.04.2020
334 Clear 14 1008 38 16093 3.1 150 15:19 02.04.2020
335 Clear 14 1007 30 16093 3.1 200 14:57 02.04.2020
336 Clear 14 1007 30 16093 3.1 200 14:38 02.04.2020
337 Clear 14 1007 28 16093 3.1 200 14:18 02.04.2020
338 Clear 15 1006 31 16093 2.6 210 13:55 02.04.2020
339 Clear 15 1006 31 16093 2.6 210 13:37 02.04.2020
340 Clear 15 1006 31 16093 2.6 210 13:18 02.04.2020
341 Clear 16 1005 27 16093 4.6 220 12:45 02.04.2020
342 Clear 16 1005 27 16093 4.6 220 12:45 02.04.2020
343 Clear 16 1005 27 16093 4.6 220 12:45 02.04.2020
344 Clear 16 1005 27 16093 4.6 220 12:20 02.04.2020
345 Clear 16 1005 27 16093 4.1 210 11:58 02.04.2020
346 Clear 16 1005 27 16093 4.1 210 11:58 02.04.2020
347 Clear 16 1005 27 16093 4.1 210 11:39 02.04.2020
348 Clear 16 1005 27 16093 4.1 210 11:20 02.04.2020
349 Clear 17 1003 25 16093 6.7 210 10:56 02.04.2020
350 Clear 17 1003 25 16093 6.7 210 10:38 02.04.2020
351 Clear 17 1003 24 16093 7.2 210 10:20 02.04.2020
352 Clear 17 1003 24 16093 7.2 210 09:58 02.04.2020
353 Clear 17 1003 24 16093 7.2 210 09:58 02.04.2020
354 Clear 18 1003 24 16093 7.2 210 09:40 02.04.2020
355 Clear 18 1003 24 16093 7.2 210 09:20 02.04.2020
356 Clear 19 1003 21 16093 5.1 210 08:47 02.04.2020
357 Clear 19 1003 21 16093 5.1 210 08:28 02.04.2020
358 Clear 19 1003 18 16093 8.7 220 07:54 02.04.2020
359 Clear 20 1003 18 16093 8.7 220 07:36 02.04.2020
360 Clear 20 1003 18 16093 8.7 220 07:18 02.04.2020
361 Clear 21 1002 17 16093 8.7 220 06:23 02.04.2020
362 Clear 22 1002 16 16093 6.7 220 05:46 02.04.2020
363 Clear 22 1002 16 16093 6.7 220 05:46 02.04.2020
364 Clear 22 1002 16 16093 6.7 220 05:46 02.04.2020
365 Clouds 23 1002 14 16093 6.2 210 04:55 02.04.2020
366 Clouds 26 1003 18 16093 5.7 220 02:19 02.04.2020
367 Clouds 26 1004 18 16093 4.1 210 00:59 02.04.2020
368 Clouds 26 1004 18 16093 4.1 210 00:38 02.04.2020
369 Clouds 26 1004 18 16093 4.1 210 00:19 02.04.2020
370 Clouds 26 1005 19 16093 5.1 180 23:38 01.04.2020
371 Clouds 26 1005 19 16093 5.1 180 23:19 01.04.2020
372 Clouds 24 1006 23 16093 2.6 60 22:56 01.04.2020
373 Clouds 24 1006 23 16093 2.6 60 22:37 01.04.2020
374 Clouds 24 1006 23 16093 2.6 60 22:19 01.04.2020
375 Clouds 23 1007 26 16093 2.1 80 21:39 01.04.2020
376 Clouds 22 1007 26 16093 2.1 80 21:19 01.04.2020
377 Clouds 22 1008 28 16093 3.6 70 20:56 01.04.2020
378 Clouds 21 1008 28 16093 3.6 70 20:38 01.04.2020
379 Clouds 21 1008 28 16093 3.6 70 20:19 01.04.2020
380 Clouds 20 1009 29 16093 1.5 360 19:55 01.04.2020
381 Clouds 20 1009 29 16093 1.5 360 19:37 01.04.2020
382 Clouds 20 1009 29 16093 1.5 360 19:19 01.04.2020
383 Clouds 19 1009 31 16093 3.34 211 18:41 01.04.2020
384 Clouds 18 1009 31 16093 3.34 211 18:21 01.04.2020
385 Clouds 16 1009 38 16093 1.5 270 17:56 01.04.2020
386 Clouds 16 1009 38 16093 1.5 270 17:37 01.04.2020
387 Clouds 15 1009 38 16093 1.5 270 17:18 01.04.2020
388 Clouds 14 1008 47 16093 2.1 210 16:56 01.04.2020
389 Clouds 13 1008 47 16093 2.1 210 16:38 01.04.2020
390 Clouds 12 1008 47 16093 2.1 210 16:20 01.04.2020
391 Clouds 12 1008 41 16093 2.37 215 15:42 01.04.2020
392 Clouds 12 1008 41 16093 2.37 215 15:22 01.04.2020
393 Clouds 12 1008 38 16093 2.1 240 14:59 01.04.2020
394 Clouds 13 1008 38 16093 2.1 240 14:39 01.04.2020
395 Clouds 13 1008 38 16093 2.1 240 14:21 01.04.2020
396 Clouds 13 1008 41 16093 2.6 290 13:59 01.04.2020
397 Clouds 13 1008 41 16093 2.6 290 13:38 01.04.2020
398 Clouds 13 1008 41 16093 2.6 290 13:20 01.04.2020
399 Clouds 14 1009 38 16093 2.6 300 12:57 01.04.2020
400 Clouds 14 1009 38 16093 2.6 300 12:37 01.04.2020
401 Clouds 14 1009 38 16093 2.6 300 12:18 01.04.2020
402 Clouds 14 1009 38 16093 2.6 300 12:18 01.04.2020
403 Clouds 14 1009 36 16093 2.1 260 11:56 01.04.2020
404 Clouds 15 1009 36 16093 2.1 260 11:37 01.04.2020
405 Clouds 15 1009 36 16093 2.1 260 11:18 01.04.2020
406 Clouds 16 1009 33 16093 2.1 270 10:38 01.04.2020
407 Clouds 16 1009 33 16093 2.1 270 10:20 01.04.2020
408 Clouds 16 1010 31 16093 2.1 220 09:58 01.04.2020
409 Clouds 17 1010 31 16093 2.1 220 09:39 01.04.2020
410 Clouds 17 1010 27 16093 2.1 220 09:19 01.04.2020
411 Clouds 17 1011 25 16093 2.1 210 08:43 01.04.2020
412 Clouds 17 1011 25 16093 2.1 210 08:18 01.04.2020
413 Clouds 18 1011 25 16093 3.6 200 07:48 01.04.2020
414 Clouds 18 1011 25 16093 3.6 200 07:22 01.04.2020
415 Clouds 19 1011 26 16093 3.1 170 06:59 01.04.2020
416 Clouds 19 1011 26 16093 3.1 170 06:38 01.04.2020
417 Clouds 19 1011 26 16093 3.1 170 06:20 01.04.2020
418 Clouds 21 1012 23 16093 2.1 80 04:38 01.04.2020
419 Clouds 23 1012 22 16093 4.1 80 03:35 01.04.2020
420 Clouds 23 1013 16 16093 3.1 110 02:59 01.04.2020
421 Clouds 24 1013 16 16093 3.1 110 02:23 01.04.2020
422 Clouds 24 1014 17 16093 2.6 30 01:43 01.04.2020
423 Clouds 23 1014 17 16093 2.6 30 01:23 01.04.2020
424 Clouds 23 1015 17 16093 2.1 0 00:46 01.04.2020
425 Clouds 23 1015 17 16093 2.1 0 00:46 01.04.2020
426 Clouds 23 1015 17 16093 2.1 0 00:21 01.04.2020
427 Clouds 22 1017 19 16093 2.6 10 23:49 31.03.2020
428 Clouds 22 1017 19 16093 2.6 10 23:28 31.03.2020
429 Clouds 22 1017 19 16093 2.6 10 22:59 31.03.2020
430 Clouds 22 1018 21 16093 3.1 0 22:38 31.03.2020
431 Clouds 22 1018 21 16093 3.1 0 22:20 31.03.2020
432 Clouds 21 1018 21 16093 3.1 0 21:57 31.03.2020
433 Clouds 21 1019 24 16093 3.1 90 21:39 31.03.2020
434 Clouds 20 1019 24 16093 3.1 90 21:20 31.03.2020
435 Clouds 19 1019 24 16093 3.1 90 20:56 31.03.2020
436 Clouds 19 1020 20 16093 0.72 87 20:37 31.03.2020
437 Clouds 19 1021 20 16093 0.72 87 20:18 31.03.2020
438 Clouds 19 1021 20 16093 0.72 87 20:18 31.03.2020
439 Clouds 18 1021 20 16093 0.72 87 19:54 31.03.2020
440 Clouds 18 1021 20 16093 0.72 87 19:36 31.03.2020
441 Clouds 18 1021 20 16093 0.72 87 19:18 31.03.2020
442 Clouds 16 1021 36 16093 0.72 87 18:41 31.03.2020
443 Clouds 16 1021 36 16093 0.32 56 18:19 31.03.2020
444 Clouds 15 1021 36 16093 0.32 56 17:56 31.03.2020
445 Clouds 14 1021 43 16093 1.5 180 17:37 31.03.2020
446 Clouds 13 1021 43 16093 1.5 180 17:19 31.03.2020
447 Clouds 11 1020 50 16093 2.1 220 16:41 31.03.2020
448 Clouds 10 1020 50 16093 2.1 220 16:20 31.03.2020
449 Clouds 10 1020 50 16093 2.1 210 15:59 31.03.2020
450 Clouds 10 1020 50 16093 2.1 210 15:41 31.03.2020
451 Clouds 10 1020 50 16093 2.1 210 15:23 31.03.2020
452 Clouds 10 1020 50 16093 2.1 220 14:59 31.03.2020
453 Clouds 10 1020 50 16093 2.1 220 14:40 31.03.2020
454 Clouds 10 1020 50 16093 2.1 220 14:21 31.03.2020
455 Clouds 10 1020 46 16093 2.1 200 13:54 31.03.2020
456 Clouds 11 1020 46 16093 2.1 200 13:36 31.03.2020
457 Clouds 11 1020 46 16093 2.1 200 13:18 31.03.2020
458 Clouds 11 1020 46 16093 2.1 270 12:42 31.03.2020
459 Clouds 11 1020 46 16093 2.1 270 12:20 31.03.2020
460 Clear 11 1021 43 16093 1.5 250 11:55 31.03.2020
461 Clear 11 1021 43 16093 1.5 250 11:36 31.03.2020
462 Clear 11 1021 43 16093 1.5 250 11:18 31.03.2020
463 Clear 12 1021 43 16093 1.5 240 10:54 31.03.2020
464 Clear 12 1021 43 16093 1.5 240 10:36 31.03.2020
465 Clear 12 1021 43 16093 1.5 240 10:18 31.03.2020
466 Clear 12 1021 41 16093 2.1 270 09:42 31.03.2020
467 Clear 13 1021 41 16093 2.1 270 09:24 31.03.2020
468 Clear 13 1021 26 16093 3.1 290 08:57 31.03.2020
469 Clear 13 1021 26 16093 3.1 290 08:39 31.03.2020
470 Clear 14 1021 26 16093 3.1 290 08:19 31.03.2020
471 Clear 14 1021 26 16093 3.1 290 08:19 31.03.2020
472 Clear 14 1021 26 16093 3.1 290 08:19 31.03.2020
473 Clear 14 1021 29 16093 1.04 171 07:56 31.03.2020
474 Clear 15 1021 29 16093 1.04 171 07:37 31.03.2020
475 Clear 15 1021 29 16093 1.04 171 07:18 31.03.2020
476 Clear 16 1021 27 16093 2.6 100 06:45 31.03.2020
477 Clear 16 1021 27 16093 2.6 100 06:18 31.03.2020
478 Clear 17 1020 27 16093 4.1 80 05:39 31.03.2020
479 Clear 20 1020 22 16093 4.1 80 03:34 31.03.2020
480 Clouds 21 1021 19 16093 3.1 50 01:54 31.03.2020
481 Clouds 21 1021 19 16093 3.1 50 01:34 31.03.2020
482 Clouds 21 1021 21 16093 2.1 0 00:46 31.03.2020
483 Clouds 20 1021 21 16093 2.1 0 00:25 31.03.2020
484 Clouds 19 1022 21 16093 3.1 0 23:41 30.03.2020
485 Clouds 19 1022 21 16093 3.1 0 23:20 30.03.2020
486 Clouds 19 1023 21 16093 2.6 30 22:58 30.03.2020
487 Clouds 19 1023 21 16093 2.6 30 22:39 30.03.2020
488 Clouds 19 1023 21 16093 2.6 30 22:39 30.03.2020
489 Clouds 19 1023 21 16093 2.6 30 22:20 30.03.2020
490 Clouds 18 1024 33 16093 2.1 130 21:58 30.03.2020
491 Clouds 18 1024 33 16093 2.1 130 21:39 30.03.2020
492 Clouds 17 1024 33 16093 2.1 130 21:21 30.03.2020
493 Clouds 17 1024 38 16093 0.28 252 20:59 30.03.2020
494 Clouds 17 1024 38 16093 0.28 252 20:39 30.03.2020
495 Clouds 16 1024 38 16093 0.28 252 20:20 30.03.2020
496 Clear 15 1023 41 16093 0.28 252 19:57 30.03.2020
497 Clear 16 1023 41 16093 0.28 252 19:39 30.03.2020
498 Clear 15 1023 41 16093 0.28 252 19:20 30.03.2020
499 Clear 14 1023 44 16093 2.1 50 18:43 30.03.2020
500 Clear 14 1023 44 16093 2.1 50 18:25 30.03.2020
501 Clear 13 1023 53 16093 1.5 250 17:58 30.03.2020
502 Clear 12 1023 53 16093 1.5 250 17:39 30.03.2020
503 Clear 12 1023 53 16093 1.5 250 17:39 30.03.2020
504 Clear 12 1023 53 16093 1.5 250 17:20 30.03.2020
505 Clear 10 1022 57 16093 2.6 190 16:58 30.03.2020
506 Clear 10 1022 57 16093 2.6 190 16:39 30.03.2020
507 Clear 9 1022 57 16093 2.6 190 16:20 30.03.2020
508 Clear 9 1022 57 16093 2.6 190 16:20 30.03.2020
509 Clear 8 1021 61 16093 2.6 210 15:56 30.03.2020
510 Clear 8 1021 61 16093 2.6 210 15:38 30.03.2020
511 Clear 8 1021 61 16093 2.6 210 15:38 30.03.2020
512 Clear 8 1021 61 16093 2.6 210 15:20 30.03.2020
513 Clear 8 1020 57 16093 3.1 190 14:56 30.03.2020
514 Clear 9 1020 57 16093 3.1 190 14:37 30.03.2020
515 Clear 9 1020 57 16093 3.1 190 14:18 30.03.2020
516 Clear 9 1019 53 16093 1.5 160 13:55 30.03.2020
517 Clear 9 1019 53 16093 1.5 160 13:37 30.03.2020
518 Clear 9 1019 53 16093 1.5 160 13:19 30.03.2020
519 Clear 10 1018 53 16093 2.1 210 12:44 30.03.2020
520 Clear 9 1018 53 16093 2.1 210 12:21 30.03.2020
521 Clear 9 1018 53 16093 3.1 200 11:57 30.03.2020
522 Clear 9 1018 53 16093 3.1 200 11:39 30.03.2020
523 Clear 9 1018 53 16093 3.1 200 11:21 30.03.2020
524 Clouds 10 1018 54 16093 2.25 298 10:41 30.03.2020
525 Clouds 10 1018 54 16093 2.25 298 10:23 30.03.2020
526 Clouds 11 1018 54 16093 1.5 200 09:59 30.03.2020
527 Clouds 11 1018 54 16093 1.5 200 09:40 30.03.2020
528 Clouds 10 1018 54 16093 1.5 200 09:19 30.03.2020
529 Clouds 11 1017 50 16093 3.87 315 08:44 30.03.2020
530 Clouds 11 1017 50 16093 3.87 315 08:23 30.03.2020
531 Clouds 11 1017 50 16093 3.87 315 07:55 30.03.2020
532 Clouds 11 1017 50 16093 3.87 315 07:37 30.03.2020
533 Clouds 12 1016 44 16093 1.5 180 06:59 30.03.2020
534 Clouds 12 1016 44 16093 1.5 180 06:34 30.03.2020
535 Clouds 13 1015 47 16093 4.1 350 05:59 30.03.2020
536 Clouds 13 1015 47 16093 4.1 350 05:34 30.03.2020
537 Clouds 13 1014 47 16093 5.1 320 04:26 30.03.2020
538 Rain 14 1014 41 16093 8.7 350 03:45 30.03.2020
539 Rain 15 1013 33 16093 9.3 350 02:43 30.03.2020
540 Clouds 17 1013 22 16093 2.6 0 01:52 30.03.2020
541 Clouds 18 1014 22 16093 6.2 240 00:56 30.03.2020
542 Clouds 18 1014 22 16093 6.2 240 00:25 30.03.2020
543 Clouds 17 1015 23 16093 3.6 280 23:43 29.03.2020
544 Clouds 17 1015 23 16093 3.6 280 23:24 29.03.2020
545 Clouds 17 1015 27 16093 2.1 0 22:59 29.03.2020
546 Clouds 17 1015 27 16093 2.1 0 22:39 29.03.2020
547 Clouds 17 1015 27 16093 2.1 0 22:19 29.03.2020
548 Clouds 17 1016 23 16093 1.5 0 21:58 29.03.2020
549 Clouds 17 1016 23 16093 1.5 0 21:37 29.03.2020
550 Clouds 16 1016 23 16093 1.5 0 21:18 29.03.2020
551 Clouds 16 1017 26 16093 1.5 60 20:55 29.03.2020
552 Clouds 16 1017 26 16093 1.5 60 20:37 29.03.2020
553 Clouds 16 1017 26 16093 1.5 60 20:37 29.03.2020
554 Clouds 16 1017 30 16093 1.5 0 20:18 29.03.2020
555 Clouds 15 1017 30 16093 1.5 0 19:43 29.03.2020
556 Clouds 15 1017 30 16093 1.5 0 19:24 29.03.2020
557 Clouds 15 1017 30 16093 1.5 0 18:58 29.03.2020
558 Clouds 14 1016 30 16093 2.57 202 18:40 29.03.2020
559 Clouds 14 1016 30 16093 2.57 202 18:21 29.03.2020
560 Clouds 14 1016 30 16093 1.33 162 17:59 29.03.2020
561 Clouds 14 1016 33 16093 2.6 120 17:41 29.03.2020
562 Clouds 13 1016 33 16093 2.6 120 17:22 29.03.2020
563 Clouds 13 1016 30 16093 1.33 162 16:58 29.03.2020
564 Clouds 12 1016 30 16093 1.33 162 16:39 29.03.2020
565 Clouds 12 1016 30 16093 1.33 162 16:21 29.03.2020
566 Clouds 12 1016 30 16093 1.5 180 15:58 29.03.2020
567 Clouds 12 1016 30 16093 1.5 180 15:39 29.03.2020
568 Clouds 12 1016 30 16093 1.5 180 15:19 29.03.2020
569 Clouds 12 1015 35 16093 1.5 197 14:55 29.03.2020
570 Clouds 12 1015 35 16093 1.5 197 14:36 29.03.2020
571 Clouds 12 1015 35 16093 1.5 197 14:36 29.03.2020
572 Clouds 12 1015 35 16093 1.5 197 14:18 29.03.2020
573 Clouds 12 1015 32 16093 1.7 194 13:42 29.03.2020
574 Clouds 12 1015 32 16093 1.7 194 13:22 29.03.2020
575 Clouds 12 1016 40 16093 1.5 340 12:58 29.03.2020
576 Clouds 12 1016 32 16093 1.7 194 12:39 29.03.2020
577 Clouds 12 1016 22 16093 2.6 190 12:19 29.03.2020
578 Clouds 13 1016 22 16093 2.6 190 11:59 29.03.2020
579 Clouds 12 1016 22 16093 2.6 190 11:38 29.03.2020
580 Clouds 13 1016 22 16093 2.6 190 11:19 29.03.2020
581 Clouds 12 1016 26 16093 1.73 190 10:39 29.03.2020
582 Clouds 12 1016 26 16093 1.73 190 10:39 29.03.2020
583 Clouds 13 1016 26 16093 1.73 190 10:21 29.03.2020
584 Clouds 13 1017 26 16093 1.5 250 09:56 29.03.2020
585 Clouds 13 1017 26 16093 1.5 250 09:38 29.03.2020
586 Clouds 13 1017 26 16093 1.5 250 09:18 29.03.2020
587 Clouds 13 1017 24 16093 2.1 190 08:43 29.03.2020
588 Clouds 13 1017 24 16093 2.1 190 08:25 29.03.2020
589 Clouds 14 1017 21 16093 2.1 190 07:47 29.03.2020
590 Clouds 14 1017 21 16093 2.1 190 07:47 29.03.2020
591 Clouds 14 1017 21 16093 2.1 190 07:23 29.03.2020
592 Clouds 14 1016 21 16093 2.6 150 06:40 29.03.2020
593 Clouds 16 1016 20 16093 3.6 120 04:56 29.03.2020
594 Clouds 17 1016 17 16093 5.7 140 03:41 29.03.2020
595 Clouds 17 1016 17 16093 5.7 140 03:20 29.03.2020
596 Clouds 17 1016 18 16093 2.6 0 01:43 29.03.2020
597 Clouds 17 1016 18 16093 2.6 0 01:22 29.03.2020
598 Clouds 18 1017 19 16093 5.7 50 00:45 29.03.2020
599 Clouds 18 1017 19 16093 5.7 50 00:27 29.03.2020
600 Clouds 17 1018 18 16093 2.6 90 23:41 28.03.2020
601 Clouds 18 1018 18 16093 2.6 90 23:22 28.03.2020
602 Clouds 17 1019 20 16093 5.1 70 22:46 28.03.2020
603 Clouds 17 1019 20 16093 5.1 70 22:23 28.03.2020
604 Clouds 17 1020 20 16093 2.6 0 21:59 28.03.2020
605 Clouds 17 1020 20 16093 2.6 0 21:40 28.03.2020
606 Clouds 17 1020 20 16093 2.6 0 21:21 28.03.2020
607 Clouds 16 1021 21 16093 1.5 0 20:57 28.03.2020
608 Clouds 16 1021 21 16093 1.5 0 20:38 28.03.2020
609 Clouds 15 1021 21 16093 1.5 0 20:20 28.03.2020
610 Clouds 15 1021 24 16093 3.1 60 19:55 28.03.2020
611 Clouds 14 1021 24 16093 3.1 60 19:36 28.03.2020
612 Clouds 14 1021 24 16093 3.1 60 19:18 28.03.2020
613 Clouds 13 1021 28 16093 2.13 174 18:42 28.03.2020
614 Clouds 13 1021 28 16093 2.13 174 18:21 28.03.2020
615 Clouds 12 1021 30 16093 1.5 340 17:43 28.03.2020
616 Clouds 11 1021 30 16093 1.5 340 17:24 28.03.2020
617 Clouds 11 1021 30 16093 1.5 340 16:59 28.03.2020
618 Clouds 11 1021 30 16093 1.5 340 16:59 28.03.2020
619 Clouds 10 1021 34 16093 1.27 209 16:40 28.03.2020
620 Clouds 9 1021 34 16093 1.27 209 16:19 28.03.2020
621 Clouds 8 1020 39 16093 1.27 209 15:55 28.03.2020
622 Clouds 7 1020 39 16093 1.27 209 15:37 28.03.2020
623 Clouds 7 1020 39 16093 1.27 209 15:18 28.03.2020
624 Clear 7 1019 39 16093 1.27 209 14:41 28.03.2020
625 Clear 6 1019 39 16093 1.27 209 14:21 28.03.2020
626 Clear 6 1019 39 16093 1.27 209 14:21 28.03.2020
627 Clear 7 1019 36 16093 1.91 225 13:43 28.03.2020
628 Clear 7 1019 36 16093 1.91 225 13:24 28.03.2020
629 Clear 7 1019 31 16093 3.1 200 12:43 28.03.2020
630 Clear 7 1019 31 16093 3.1 200 12:24 28.03.2020
631 Clear 7 1019 27 16093 2.1 210 11:59 28.03.2020
632 Clear 8 1019 27 16093 2.1 210 11:41 28.03.2020
633 Clear 8 1019 27 16093 2.1 210 11:20 28.03.2020
634 Clear 8 1018 25 16093 2.6 180 10:40 28.03.2020
635 Clear 8 1018 25 16093 2.6 180 10:22 28.03.2020
636 Clear 9 1018 23 16093 3.1 210 09:43 28.03.2020
637 Clear 9 1018 23 16093 3.1 210 09:24 28.03.2020
638 Clear 9 1018 23 16093 2.6 200 08:59 28.03.2020
639 Clear 9 1018 23 16093 2.6 200 08:41 28.03.2020
640 Clear 9 1018 23 16093 2.6 200 08:22 28.03.2020
641 Clear 10 1018 22 16093 3.1 200 07:46 28.03.2020
642 Clear 10 1018 22 16093 3.1 200 07:28 28.03.2020
643 Clear 11 1017 19 16093 3.1 220 06:36 28.03.2020
644 Clear 11 1017 16 16093 4.6 260 05:54 28.03.2020
645 Clear 12 1017 16 16093 4.6 260 05:21 28.03.2020
646 Clear 12 1016 16 16093 3.1 260 04:42 28.03.2020
647 Clouds 13 1015 15 16093 5.1 350 03:54 28.03.2020
648 Clouds 15 1015 14 16093 2.1 300 02:25 28.03.2020
649 Clouds 15 1014 14 16093 1.5 0 01:41 28.03.2020
650 Clouds 15 1014 14 16093 1.5 0 01:18 28.03.2020
651 Clouds 15 1014 12 16093 4.1 10 00:37 28.03.2020
652 Clouds 15 1014 12 16093 4.1 10 23:57 27.03.2020
653 Clouds 15 1014 11 16093 4.6 360 23:39 27.03.2020
654 Clouds 15 1014 11 16093 4.6 360 23:21 27.03.2020
655 Clouds 15 1014 11 16093 3.1 0 22:56 27.03.2020
656 Rain 15 1015 19 16093 3.1 0 22:37 27.03.2020
657 Rain 15 1015 19 16093 3.1 0 22:37 27.03.2020
658 Rain 15 1015 19 16093 3.1 0 22:19 27.03.2020
659 Rain 14 1015 15 16093 7.2 350 21:44 27.03.2020
660 Rain 14 1015 15 16093 7.2 350 21:25 27.03.2020
661 Rain 14 1015 15 16093 7.2 350 21:25 27.03.2020
662 Rain 14 1015 18 16093 10.3 350 20:59 27.03.2020
663 Rain 14 1015 18 16093 10.3 350 20:41 27.03.2020
664 Rain 13 1015 18 16093 10.3 350 20:20 27.03.2020
665 Clouds 13 1015 22 16093 9.3 360 19:58 27.03.2020
666 Clouds 12 1015 22 16093 9.3 360 19:39 27.03.2020
667 Clouds 12 1015 22 16093 9.3 360 19:20 27.03.2020
668 Clouds 11 1014 43 16093 3.6 60 18:44 27.03.2020
669 Clouds 11 1014 43 16093 3.6 60 18:25 27.03.2020
670 Clouds 10 1014 49 16093 4.6 350 17:58 27.03.2020
671 Clouds 9 1014 49 16093 4.6 350 17:39 27.03.2020
672 Clouds 8 1014 49 16093 4.6 350 17:19 27.03.2020
673 Clouds 8 1013 48 16093 2.6 350 16:44 27.03.2020
674 Clouds 8 1013 48 16093 2.6 350 16:25 27.03.2020
675 Clouds 8 1013 48 16093 2.6 350 16:25 27.03.2020
676 Clouds 7 1012 65 16093 2.1 290 15:56 27.03.2020
677 Clouds 6 1012 65 16093 2.1 290 15:38 27.03.2020
678 Clouds 6 1012 65 16093 2.1 290 15:19 27.03.2020
679 Rain 6 1011 70 16093 2.1 200 14:43 27.03.2020
680 Rain 6 1011 70 16093 2.1 200 14:24 27.03.2020
681 Rain 6 1011 65 16093 3.6 240 13:55 27.03.2020
682 Rain 6 1011 65 16093 3.6 240 13:36 27.03.2020
683 Rain 6 1011 65 16093 3.6 240 13:18 27.03.2020
684 Rain 6 1011 65 16093 3.6 240 13:18 27.03.2020
685 Rain 7 1011 48 16093 3.6 310 12:43 27.03.2020
686 Rain 7 1011 48 16093 3.6 310 12:19 27.03.2020
687 Rain 7 1011 61 16093 6.7 340 11:55 27.03.2020
688 Rain 7 1011 61 16093 6.7 340 11:36 27.03.2020
689 Rain 7 1011 61 16093 6.7 340 11:18 27.03.2020
690 Clouds 7 1011 61 16093 2.1 30 10:42 27.03.2020
691 Clouds 7 1011 61 16093 2.1 30 10:22 27.03.2020
692 Clouds 7 1011 61 16093 2.1 30 10:22 27.03.2020
693 Clouds 7 1011 45 16093 5.7 320 09:59 27.03.2020
694 Clouds 7 1011 45 16093 5.7 320 09:41 27.03.2020
695 Clouds 7 1011 45 16093 5.7 320 09:22 27.03.2020
696 Clouds 8 1011 45 16093 5.1 330 08:59 27.03.2020
697 Clouds 8 1011 45 16093 5.1 330 08:40 27.03.2020
698 Clouds 8 1011 45 16093 5.1 330 08:22 27.03.2020
699 Clouds 8 1011 49 16093 5.7 350 07:57 27.03.2020
700 Clouds 8 1011 49 16093 5.7 350 07:57 27.03.2020
701 Clouds 8 1011 49 16093 5.7 350 07:38 27.03.2020
702 Clouds 9 1011 49 16093 5.7 350 07:20 27.03.2020
703 Rain 9 1011 46 16093 5.1 340 06:39 27.03.2020
704 Rain 10 1011 43 16093 3.6 320 05:45 27.03.2020
705 Rain 12 1009 28 16093 7.7 300 03:26 27.03.2020
706 Rain 15 1008 18 16093 5.7 200 01:55 27.03.2020
707 Rain 15 1008 19 16093 4.1 170 01:18 27.03.2020
708 Rain 15 1008 19 16093 4.1 170 00:38 27.03.2020
709 Rain 15 1008 19 16093 4.1 170 00:19 27.03.2020
710 Clouds 15 1009 21 16093 4.1 240 23:37 26.03.2020
711 Clouds 16 1009 21 16093 4.1 240 23:18 26.03.2020
712 Clouds 16 1009 21 16093 4.1 240 22:56 26.03.2020
713 Clouds 15 1010 26 16093 2.1 0 22:36 26.03.2020
714 Clouds 15 1010 26 16093 2.1 0 22:18 26.03.2020
715 Rain 14 1011 24 16093 2.1 0 21:40 26.03.2020
716 Rain 14 1011 24 16093 2.1 0 21:21 26.03.2020
717 Rain 14 1011 24 16093 2.1 0 21:21 26.03.2020
718 Clouds 14 1012 28 16093 4.1 110 20:58 26.03.2020
719 Clouds 14 1012 28 16093 4.1 110 20:39 26.03.2020
720 Clouds 13 1012 28 16093 4.1 110 20:21 26.03.2020
721 Clouds 13 1012 26 16093 3.6 190 19:58 26.03.2020
722 Clouds 13 1012 26 16093 3.6 190 19:39 26.03.2020
723 Clouds 13 1012 26 16093 3.6 190 19:20 26.03.2020
724 Clouds 12 1012 32 16093 4.6 170 18:58 26.03.2020
725 Clouds 12 1012 32 16093 4.6 170 18:39 26.03.2020
726 Clouds 12 1012 32 16093 4.6 170 18:21 26.03.2020
727 Clouds 11 1012 32 16093 4.6 210 17:44 26.03.2020
728 Clouds 10 1012 32 16093 4.6 210 17:19 26.03.2020
729 Clouds 10 1012 32 16093 4.6 210 16:55 26.03.2020
730 Clouds 10 1012 32 16093 4.6 210 16:55 26.03.2020
731 Clouds 9 1011 39 16093 7.7 230 16:37 26.03.2020
732 Clouds 9 1011 39 16093 7.7 230 16:18 26.03.2020
733 Clouds 8 1010 42 16093 5.7 200 15:41 26.03.2020
734 Clouds 8 1010 42 16093 5.7 200 15:22 26.03.2020
735 Clouds 7 1010 42 16093 5.7 220 14:58 26.03.2020
736 Clouds 7 1010 42 16093 5.7 220 14:39 26.03.2020
737 Clouds 7 1010 42 16093 5.7 220 14:19 26.03.2020
738 Clouds 8 1010 42 16093 4.1 180 13:44 26.03.2020
739 Clouds 8 1010 42 16093 4.1 180 13:24 26.03.2020
740 Clouds 8 1009 45 16093 5.7 200 12:58 26.03.2020
741 Clouds 8 1009 45 16093 5.7 200 12:38 26.03.2020
742 Clouds 9 1009 45 16093 5.7 200 12:20 26.03.2020
743 Clouds 9 1009 43 16093 5.1 210 11:45 26.03.2020
744 Clouds 9 1009 43 16093 5.1 210 11:22 26.03.2020
745 Clouds 10 1010 43 16093 3.6 220 10:56 26.03.2020
746 Clouds 10 1010 43 16093 3.6 220 10:37 26.03.2020
747 Clouds 10 1010 43 16093 3.6 220 10:19 26.03.2020
748 Clouds 10 1010 39 16093 4.6 220 09:44 26.03.2020
749 Clouds 11 1010 39 16093 4.6 220 09:20 26.03.2020
750 Clouds 11 1009 46 16093 8.2 230 08:55 26.03.2020
751 Clouds 11 1009 46 16093 8.2 230 08:55 26.03.2020
752 Clouds 11 1009 46 16093 8.2 230 08:37 26.03.2020
753 Clouds 11 1009 46 16093 8.2 230 08:18 26.03.2020
754 Clouds 12 1009 39 16093 7.2 220 07:43 26.03.2020
755 Clouds 12 1009 39 16093 7.2 220 07:21 26.03.2020
756 Clouds 13 1009 35 16093 4.1 220 06:48 26.03.2020
757 Clouds 13 1009 35 16093 3.1 220 05:57 26.03.2020
758 Clouds 14 1008 29 16093 7.2 230 04:25 26.03.2020
759 Clouds 15 1008 29 16093 6.2 230 03:41 26.03.2020
760 Clouds 16 1008 23 16093 7.2 230 02:54 26.03.2020
761 Clouds 18 1008 22 16093 9.3 230 01:50 26.03.2020
762 Clouds 19 1008 19 16093 6.7 240 00:52 26.03.2020
763 Clouds 19 1008 19 16093 6.7 240 23:59 25.03.2020
764 Clouds 19 1009 16 16093 8.2 230 23:40 25.03.2020
765 Clouds 19 1009 16 16093 8.2 230 23:20 25.03.2020
766 Clouds 19 1011 15 16093 8.7 240 22:40 25.03.2020
767 Clouds 19 1011 15 16093 8.7 240 22:21 25.03.2020
768 Clouds 18 1011 17 16093 8.2 210 21:56 25.03.2020
769 Clouds 18 1011 17 16093 8.2 210 21:37 25.03.2020
770 Clouds 18 1011 17 16093 8.2 210 21:19 25.03.2020
771 Clouds 18 1011 17 16093 8.2 210 21:19 25.03.2020
772 Clouds 17 1012 18 16093 6.2 210 20:54 25.03.2020
773 Clouds 17 1012 18 16093 6.2 210 20:36 25.03.2020
774 Clouds 17 1012 18 16093 6.2 210 20:18 25.03.2020
775 Clouds 17 1013 18 16093 5.1 210 19:42 25.03.2020
776 Clouds 17 1013 18 16093 5.1 210 19:22 25.03.2020
777 Clouds 16 1013 18 16093 5.1 210 18:56 25.03.2020
778 Clouds 16 1013 31 16093 5.1 180 18:37 25.03.2020
779 Clouds 15 1013 31 16093 5.1 180 18:19 25.03.2020
780 Clouds 15 1013 31 16093 5.1 180 17:54 25.03.2020
781 Clouds 14 1013 30 16093 3.1 190 17:36 25.03.2020
782 Clouds 14 1013 30 16093 3.1 190 17:18 25.03.2020
783 Clouds 12 1013 39 16093 3.6 190 16:43 25.03.2020
784 Clouds 12 1013 39 16093 3.6 190 16:22 25.03.2020
785 Clouds 12 1012 39 16093 5.1 160 15:57 25.03.2020
786 Clouds 11 1012 39 16093 5.1 160 15:38 25.03.2020
787 Clouds 11 1012 39 16093 5.1 160 15:19 25.03.2020
788 Clouds 11 1012 39 16093 5.7 170 14:41 25.03.2020
789 Clouds 11 1012 39 16093 5.7 170 14:21 25.03.2020
790 Clouds 12 1012 35 16093 3.6 190 13:46 25.03.2020
791 Clouds 12 1012 35 16093 3.6 190 13:26 25.03.2020
792 Clouds 12 1011 37 16093 7.7 230 12:57 25.03.2020
793 Clouds 12 1011 37 16093 7.7 230 12:37 25.03.2020
794 Clouds 12 1012 35 16093 6.7 200 12:18 25.03.2020
795 Clouds 13 1012 35 16093 6.7 200 11:43 25.03.2020
796 Clouds 13 1012 35 16093 6.7 200 11:21 25.03.2020
797 Clouds 13 1012 35 16093 6.7 200 11:21 25.03.2020
798 Clouds 13 1013 40 16093 5.7 200 10:59 25.03.2020
799 Clouds 13 1013 40 16093 5.7 200 10:40 25.03.2020
800 Clouds 13 1013 40 16093 5.7 200 10:19 25.03.2020
801 Clouds 13 1013 40 16093 5.7 200 10:19 25.03.2020
802 Clouds 13 1013 41 16093 8.2 220 09:59 25.03.2020
803 Clouds 13 1013 41 16093 8.2 220 09:40 25.03.2020
804 Clouds 13 1013 41 16093 8.2 220 09:21 25.03.2020
805 Clouds 14 1013 41 16093 10.8 230 08:43 25.03.2020
806 Clouds 14 1013 41 16093 10.8 230 08:25 25.03.2020
807 Clouds 15 1013 38 16093 8.7 220 07:59 25.03.2020
808 Clouds 15 1013 38 16093 8.7 220 07:39 25.03.2020
809 Clouds 15 1013 38 16093 8.7 220 07:39 25.03.2020
810 Clouds 15 1013 38 16093 8.7 220 07:19 25.03.2020
811 Clouds 15 1014 38 16093 5.7 230 06:45 25.03.2020
812 Clouds 15 1014 38 16093 5.7 230 06:25 25.03.2020
813 Clouds 16 1013 36 16093 5.1 230 05:48 25.03.2020
814 Clouds 17 1013 31 16093 5.7 200 04:46 25.03.2020
815 Clouds 17 1013 25 16093 6.2 200 03:58 25.03.2020
816 Clouds 17 1013 25 16093 6.2 200 03:34 25.03.2020
817 Clouds 19 1013 26 16093 7.2 210 01:41 25.03.2020
818 Clouds 19 1013 26 16093 7.2 210 01:41 25.03.2020
819 Clouds 19 1013 26 16093 7.2 210 01:41 25.03.2020
820 Clouds 19 1013 26 16093 7.2 210 01:41 25.03.2020
821 Clouds 20 1014 23 16093 8.7 230 00:58 25.03.2020
822 Clouds 20 1014 23 16093 8.7 230 00:40 25.03.2020
823 Clouds 20 1015 22 16093 7.7 220 00:18 25.03.2020
824 Clouds 20 1015 22 16093 7.7 220 23:40 24.03.2020
825 Clouds 20 1015 22 16093 7.7 220 23:21 24.03.2020
826 Clouds 20 1015 22 16093 7.7 220 22:55 24.03.2020
827 Clouds 20 1015 22 16093 7.7 200 22:36 24.03.2020
828 Clouds 20 1015 22 16093 7.7 200 22:18 24.03.2020
829 Clouds 19 1016 32 16093 6.7 180 21:43 24.03.2020
830 Clouds 20 1016 32 16093 6.7 180 21:19 24.03.2020
831 Clouds 19 1018 36 16093 7.7 190 20:59 24.03.2020
832 Clouds 18 1018 36 16093 7.7 190 20:41 24.03.2020
833 Clouds 18 1018 36 16093 7.7 190 20:23 24.03.2020
834 Clouds 17 1018 36 16093 6.7 200 19:48 24.03.2020
835 Clouds 17 1018 36 16093 6.7 200 19:48 24.03.2020
836 Clouds 17 1018 36 16093 6.7 200 19:24 24.03.2020
837 Clouds 16 1018 44 16093 6.7 170 18:59 24.03.2020
838 Clouds 16 1018 44 16093 6.7 170 18:40 24.03.2020
839 Clouds 16 1018 44 16093 6.7 170 18:40 24.03.2020
840 -273 0 0 0 0 0 18:20 24.03.2020
841 Clouds 14 1018 44 16093 6.7 170 17:58 24.03.2020
842 Clouds 14 1018 50 16093 4.1 160 17:40 24.03.2020
843 Clouds 13 1018 50 16093 4.1 160 17:22 24.03.2020
844 Clouds 12 1018 50 16093 4.1 160 16:57 24.03.2020
845 Clear 12 1018 62 16093 5.56 195 16:38 24.03.2020
846 Clear 11 1018 54 16093 3.6 190 16:20 24.03.2020
847 Clear 10 1018 81 16093 5.56 195 15:44 24.03.2020
848 Clear 10 1018 81 16093 5.56 195 15:25 24.03.2020
849 Clear 9 1018 75 16093 1.5 340 14:57 24.03.2020
850 Clear 9 1017 57 16093 6.7 200 14:37 24.03.2020
851 Clear 10 1017 57 16093 6.7 200 14:18 24.03.2020
852 Clear 11 1017 54 16093 4.6 170 13:41 24.03.2020
853 Clear 11 1017 54 16093 4.6 170 13:22 24.03.2020
854 Clear 11 1017 54 16093 4.6 170 12:45 24.03.2020
855 Clear 11 1017 54 16093 4.6 170 12:27 24.03.2020
856 Clear 11 1017 50 16093 5.1 180 11:57 24.03.2020
857 Clear 11 1017 50 16093 5.1 180 11:38 24.03.2020
858 Clear 11 1018 54 16093 3.6 130 11:18 24.03.2020
859 Clear 11 1018 61 16093 4.62 211 10:42 24.03.2020
860 Clear 11 1017 50 16093 6.7 200 10:19 24.03.2020
861 Clear 11 1017 50 16093 6.7 200 10:19 24.03.2020
862 Clear 11 1018 66 16093 4.62 211 09:48 24.03.2020
863 Clear 11 1018 66 16093 4.62 211 09:27 24.03.2020
864 Clear 12 1018 66 16093 4.62 211 08:58 24.03.2020
865 Clear 12 1018 76 16093 4.62 211 08:38 24.03.2020
866 Clear 12 1018 47 16093 3.1 190 08:20 24.03.2020
867 Clear 12 1018 62 16093 1.5 290 07:45 24.03.2020
868 Clouds 12 1018 41 16093 2.6 210 07:22 24.03.2020
869 Clear 12 1018 71 16093 3.1 310 06:42 24.03.2020
870 Clear 13 1018 62 16093 3.1 30 06:21 24.03.2020
871 Clear 14 1017 50 16093 4.26 250 04:53 24.03.2020
872 Clear 16 1016 51 16093 2.1 180 03:43 24.03.2020
873 Clear 17 1016 41 16093 3.6 190 02:45 24.03.2020
874 Clouds 18 1016 34 16093 5.7 230 01:22 24.03.2020
875 Clouds 18 1016 36 16093 6.2 210 00:41 24.03.2020
876 Clouds 18 1015 29 16093 5.7 290 00:22 24.03.2020
877 Clouds 18 1016 34 16093 5.1 210 23:38 23.03.2020
878 Clouds 18 1015 29 16093 2.1 220 23:19 23.03.2020
879 Clouds 18 1016 29 16093 7.7 260 22:45 23.03.2020
880 Clouds 18 1016 29 16093 7.7 260 22:23 23.03.2020
881 Clouds 17 1016 36 16093 8.7 240 21:55 23.03.2020
882 Clear 17 1016 42 16093 7.7 230 21:37 23.03.2020
883 Clear 17 1016 42 16093 7.7 230 21:37 23.03.2020
884 Clear 17 1016 42 16093 7.7 230 21:37 23.03.2020
885 Clouds 16 1016 30 16093 7.7 260 21:19 23.03.2020
886 Clouds 16 1016 39 16093 8.2 210 20:55 23.03.2020
887 Clear 15 1016 44 16093 6.7 220 20:36 23.03.2020
888 Clouds 16 1015 36 16093 7.2 230 20:18 23.03.2020
889 Clouds 16 1015 36 16093 7.2 230 20:18 23.03.2020
890 Thunderstorm 15 1016 48 16093 7.2 200 19:41 23.03.2020
891 Rain 15 1015 38 16093 7.7 220 19:22 23.03.2020
892 Rain 14 1016 58 16093 5.7 240 18:56 23.03.2020
893 Rain 13 1016 58 16093 5.7 240 18:38 23.03.2020
894 Rain 13 1015 62 16093 6.2 250 18:18 23.03.2020
895 Rain 12 1016 87 16093 2.6 230 17:41 23.03.2020
896 Clouds 12 1015 51 16093 6.2 230 17:20 23.03.2020
897 Clouds 12 1015 51 16093 6.2 230 16:55 23.03.2020
898 Clouds 11 1014 82 16093 2.6 190 16:37 23.03.2020
899 Clouds 11 1014 82 16093 2.6 190 16:18 23.03.2020
900 Drizzle 11 1015 81 16093 2.1 90 15:40 23.03.2020
901 Clouds 11 1014 71 16093 3.1 100 15:19 23.03.2020
902 Rain 11 1014 62 16093 3.6 200 14:38 23.03.2020
903 Rain 11 1014 62 16093 3.6 200 14:19 23.03.2020
904 Drizzle 11 1015 81 11265 2.6 80 13:57 23.03.2020
905 Drizzle 11 1015 50 16093 1 120 13:38 23.03.2020
906 Drizzle 11 1015 50 16093 1 120 13:20 23.03.2020
907 Drizzle 11 1015 50 16093 1 120 13:20 23.03.2020
908 Rain 12 1015 71 16093 5.86 186 12:44 23.03.2020
909 Clouds 13 1014 47 16093 2.1 180 12:25 23.03.2020
910 Rain 13 1014 58 16093 3.6 200 11:57 23.03.2020
911 Clouds 14 1015 50 16093 5.1 230 11:38 23.03.2020
912 Clouds 14 1015 50 16093 5.1 230 11:38 23.03.2020
913 Rain 14 1014 47 16093 2.1 210 11:19 23.03.2020
914 Rain 14 1014 47 16093 2.1 210 10:56 23.03.2020
915 Clouds 14 1015 47 16093 4.1 110 10:36 23.03.2020
916 Clouds 14 1015 47 16093 2.6 240 10:18 23.03.2020
917 Clouds 14 1016 54 16093 2.1 70 09:42 23.03.2020
918 Clouds 14 1015 47 16093 1.5 260 09:20 23.03.2020
919 Clouds 14 1016 54 16093 3.28 184 08:40 23.03.2020
920 Clouds 15 1016 41 16093 5.42 179 08:20 23.03.2020
921 Clouds 15 1016 51 16093 5.42 179 07:58 23.03.2020
922 Clear 15 1016 54 16093 5.42 179 07:37 23.03.2020
923 Clouds 15 1017 41 16093 5.1 160 07:18 23.03.2020
924 Clouds 15 1017 51 16093 1.5 200 06:48 23.03.2020
925 Clouds 15 1017 39 16093 3.1 120 05:45 23.03.2020
926 Clouds 16 1016 36 16093 6.27 149 04:41 23.03.2020
927 Clouds 16 1016 31 16093 3.1 110 03:23 23.03.2020
928 Clouds 18 1016 25 16093 4.1 130 01:50 23.03.2020
929 Clouds 18 1017 26 16093 4.1 130 00:50 23.03.2020
930 Clouds 18 1017 26 16093 4.1 130 00:31 23.03.2020
931 Clear 19 1017 25 16093 2.1 0 23:45 22.03.2020
932 Clouds 19 1018 29 16093 1.5 0 23:25 22.03.2020
933 Clear 18 1018 29 16093 3.1 40 22:44 22.03.2020
934 Clouds 18 1018 29 16093 4.1 70 22:22 22.03.2020
935 Clouds 18 1018 34 16093 1.64 147 21:55 22.03.2020
936 Clouds 18 1019 42 16093 1.64 147 21:36 22.03.2020
937 Clouds 17 1020 29 16093 3.1 50 21:18 22.03.2020
938 Clear 17 1020 36 16093 1.64 147 20:45 22.03.2020
939 Clear 17 1020 36 16093 1.64 147 20:24 22.03.2020
940 Clear 16 1020 41 16093 0.66 60 19:57 22.03.2020
941 Clear 15 1021 51 16093 0.66 60 19:39 22.03.2020
942 Clouds 15 1021 41 16093 0.66 60 19:20 22.03.2020
943 Clear 15 1021 54 16093 0.66 60 18:58 22.03.2020
944 Clear 15 1021 62 16093 0.66 60 18:40 22.03.2020
945 Clouds 14 1021 44 16093 0.66 60 18:21 22.03.2020
946 Clear 13 1021 66 16093 0.66 60 17:57 22.03.2020
947 Clear 13 1021 76 16093 0.66 60 17:38 22.03.2020
948 Clouds 12 1021 47 16093 1.5 40 17:20 22.03.2020
949 Clear 12 1021 76 16093 0.38 81 16:57 22.03.2020
950 Clear 11 1021 71 16093 0.38 81 16:39 22.03.2020
951 Clear 11 1021 71 16093 0.38 81 16:39 22.03.2020
952 Clouds 10 1020 50 16093 0.38 81 16:20 22.03.2020
953 Clear 9 1020 75 16093 0.38 81 15:40 22.03.2020
954 Clouds 8 1020 57 16093 2.6 220 15:20 22.03.2020
955 Clear 8 1020 70 16093 0.38 81 14:46 22.03.2020
956 Clear 8 1020 70 16093 0.38 81 14:46 22.03.2020
957 Clouds 8 1020 57 16093 2.1 210 14:18 22.03.2020
958 Clear 9 1019 70 16093 0.47 289 13:44 22.03.2020
959 Clouds 9 1019 53 16093 1.5 180 13:20 22.03.2020
960 Clear 9 1019 70 16093 1.5 20 12:58 22.03.2020
961 Clear 9 1019 75 16093 0.41 275 12:39 22.03.2020
962 Clouds 9 1019 50 16093 0.41 275 12:19 22.03.2020
963 Clear 9 1019 61 16093 0.41 275 11:43 22.03.2020
964 Clouds 9 1019 50 16093 1.5 210 11:25 22.03.2020
965 Clear 10 1019 66 16093 0.63 334 10:58 22.03.2020
966 Clear 10 1020 66 16093 0.63 334 10:39 22.03.2020
967 Clouds 10 1019 46 16093 0.63 334 10:21 22.03.2020
968 Clear 11 1020 58 16093 0.63 334 09:45 22.03.2020
969 Clear 11 1020 58 16093 0.63 334 09:27 22.03.2020
970 Clear 11 1019 66 16093 0.63 334 08:48 22.03.2020
971 Clear 11 1019 66 16093 0.63 334 08:48 22.03.2020
972 Clear 11 1019 66 16093 0.63 334 08:48 22.03.2020
973 Clear 11 1019 66 16093 0.31 314 08:29 22.03.2020
974 Clear 12 1019 66 16093 1.5 10 07:54 22.03.2020
975 Clear 12 1019 54 16093 0.93 2 07:36 22.03.2020
976 Clear 13 1019 50 16093 2.1 80 06:41 22.03.2020
977 Clouds 14 1019 50 16093 1.5 40 05:41 22.03.2020
978 Clouds 15 1019 44 16093 1.52 111 04:34 22.03.2020
979 Clear 17 1017 31 16093 3.6 50 01:36 22.03.2020
980 Clear 17 1017 29 16093 0.82 175 00:49 22.03.2020
981 Clear 17 1017 29 16093 0.82 175 00:29 22.03.2020
982 Clear 17 1018 33 16093 0.82 175 23:45 21.03.2020
983 Clouds 17 1018 27 16093 2.6 40 23:21 21.03.2020
984 Clear 16 1018 33 16093 0.64 358 22:58 21.03.2020
985 Clouds 17 1018 33 16093 0.64 358 22:37 21.03.2020
986 Clouds 17 1019 27 16093 2.1 340 22:18 21.03.2020
987 Clouds 16 1019 36 16093 0.64 358 21:56 21.03.2020
988 Clear 16 1019 36 16093 2.1 0 21:37 21.03.2020
989 Clouds 16 1019 29 16093 1.5 20 21:18 21.03.2020
990 Clear 15 1020 41 16093 2.1 0 20:42 21.03.2020
991 Clouds 15 1020 39 16093 1.5 0 20:20 21.03.2020
992 Clear 14 1021 41 16093 2.1 40 19:45 21.03.2020
993 Clear 14 1021 41 16093 2.1 40 19:25 21.03.2020
994 Clear 14 1021 41 16093 2.1 70 18:59 21.03.2020
995 Clear 13 1021 47 16093 3.1 350 18:40 21.03.2020
996 Clouds 13 1021 50 16093 2.64 21 18:20 21.03.2020
997 Clouds 13 1021 50 16093 2.64 21 17:57 21.03.2020
998 Clear 12 1021 50 16093 4.6 340 17:39 21.03.2020
999 Clouds 12 1021 58 16093 2.1 170 17:21 21.03.2020
1000 Clear 10 1021 57 16093 4.6 350 16:42 21.03.2020
1001 Clouds 10 1021 62 16093 1.72 8 16:22 21.03.2020
1002 Clear 9 1021 61 16093 4.6 350 15:58 21.03.2020
1003 Clouds 9 1021 66 16093 2.6 10 15:39 21.03.2020
1004 Clouds 9 1021 62 16093 1.5 350 15:21 21.03.2020
1005 Clouds 9 1021 66 16093 1.72 8 14:55 21.03.2020
1006 Clouds 9 1021 57 16093 3.1 30 14:37 21.03.2020
1007 Clouds 9 1021 62 16093 1.76 21 14:18 21.03.2020
1008 Clouds 9 1020 61 16093 3.6 20 13:57 21.03.2020
1009 Clouds 9 1020 61 16093 3.1 10 13:38 21.03.2020
1010 Clouds 9 1020 57 16093 1.76 21 13:19 21.03.2020
1011 Clear 9 1021 70 16093 1.73 27 12:41 21.03.2020
1012 Clouds 9 1021 57 16093 2.1 30 12:20 21.03.2020
1013 Clouds 9 1021 57 16093 2.1 30 11:59 21.03.2020
1014 Clouds 9 1021 76 16093 1.73 27 11:39 21.03.2020
1015 Clouds 9 1021 57 16093 2.6 360 11:20 21.03.2020
1016 Clouds 9 1021 57 16093 2.6 360 10:58 21.03.2020
1017 Clouds 9 1021 87 16093 2.03 17 10:39 21.03.2020
1018 Clouds 9 1021 54 16093 2.6 30 10:21 21.03.2020
1019 Clouds 9 1021 76 16093 2.03 17 09:58 21.03.2020
1020 Clouds 9 1021 70 16093 2.03 17 09:39 21.03.2020
1021 Clouds 9 1022 54 16093 2.1 20 09:20 21.03.2020
1022 Clouds 10 1022 70 16093 2.03 17 08:55 21.03.2020
1023 Clouds 10 1022 76 16093 2.03 17 08:37 21.03.2020
1024 Clouds 10 1022 54 16093 3.1 40 08:18 21.03.2020
1025 Clouds 10 1022 87 16093 2.6 240 07:33 21.03.2020
1026 Clouds 10 1022 62 16093 2.1 10 06:56 21.03.2020
1027 Clouds 11 1022 62 16093 2.6 20 06:36 21.03.2020
1028 Clouds 11 1023 62 16093 2.6 30 06:18 21.03.2020
1029 Clouds 11 1022 54 16093 4.1 30 05:23 21.03.2020
1030 Clouds 12 1022 54 16093 4.1 10 03:38 21.03.2020
1031 Clouds 12 1022 47 16093 2.1 30 02:36 21.03.2020
1032 Clouds 13 1022 47 16093 1.21 116 01:42 21.03.2020
1033 Clouds 13 1022 50 16093 3.6 160 01:21 21.03.2020
1034 Clouds 13 1022 50 16093 1.63 168 00:38 21.03.2020
1035 Clouds 14 1021 44 16093 3.6 70 23:59 20.03.2020
1036 Clouds 14 1022 58 16093 3.1 350 23:41 20.03.2020
1037 Rain 13 1022 44 16093 0.94 141 23:20 20.03.2020
1038 Clouds 13 1022 58 16093 2.6 290 22:43 20.03.2020
1039 Clouds 13 1022 58 16093 2.6 290 22:24 20.03.2020
1040 Clouds 13 1023 62 16093 0.94 141 21:58 20.03.2020
1041 Clouds 13 1023 62 16093 2.6 0 21:39 20.03.2020
1042 Rain 12 1023 54 16093 1.5 0 21:19 20.03.2020
1043 Clouds 12 1024 62 16093 0.94 141 20:57 20.03.2020
1044 Clouds 12 1024 66 16093 3.1 40 20:39 20.03.2020
1045 Clouds 11 1024 58 16093 3.1 90 20:18 20.03.2020
1046 Clouds 11 1024 58 16093 3.1 70 19:46 20.03.2020
1047 Clouds 10 1024 71 16093 2.6 110 19:19 20.03.2020
1048 Clouds 10 1024 76 16093 2.1 30 18:57 20.03.2020
1049 Clouds 9 1024 76 16093 2.1 30 18:37 20.03.2020
1050 Clouds 9 1024 76 16093 2.1 30 18:19 20.03.2020
1051 Clouds 8 1024 87 16093 3.1 20 17:41 20.03.2020
1052 Clouds 8 1024 87 16093 2.6 80 17:22 20.03.2020
1053 Clouds 8 1024 87 16093 2.6 80 16:59 20.03.2020
1054 Clouds 7 1023 75 16093 4.1 90 16:41 20.03.2020
1055 Clouds 7 1023 75 16093 3.1 90 16:20 20.03.2020
1056 Clear 7 1022 93 16093 3.1 40 15:44 20.03.2020
1057 Clouds 7 1022 87 16093 2.1 90 15:22 20.03.2020
1058 Clouds 6 1022 81 16093 2.6 110 14:58 20.03.2020
1059 Clouds 6 1022 81 16093 2.6 110 14:58 20.03.2020
1060 Clouds 6 1022 81 16093 2.6 110 14:40 20.03.2020
1061 Clouds 6 1022 93 16093 0.45 133 14:20 20.03.2020
1062 Clouds 6 1022 100 16093 1.5 20 13:48 20.03.2020
1063 Clouds 6 1021 87 16093 2.6 110 13:21 20.03.2020
1064 Clouds 7 1022 93 16093 2.1 40 12:57 20.03.2020
1065 Clouds 7 1021 93 16093 2.1 50 12:37 20.03.2020
1066 Clouds 7 1021 93 16093 2.6 90 12:18 20.03.2020
1067 Clouds 7 1021 87 16093 1.04 76 11:39 20.03.2020
1068 Rain 7 1021 87 16093 1.5 90 11:20 20.03.2020
1069 Rain 7 1021 87 16093 1.5 90 10:54 20.03.2020
1070 Rain 7 1021 87 16093 3.6 80 10:36 20.03.2020
1071 Rain 7 1021 87 16093 3.6 80 10:18 20.03.2020
1072 Rain 7 1021 93 16093 3.1 90 09:43 20.03.2020
1073 Rain 7 1021 87 16093 3.6 90 09:20 20.03.2020
1074 Rain 7 1021 93 16093 2.1 50 08:43 20.03.2020
1075 Rain 7 1020 87 16093 2.6 100 08:23 20.03.2020
1076 Rain 7 1021 93 16093 1.42 254 07:57 20.03.2020
1077 Rain 8 1020 81 16093 4.1 80 07:38 20.03.2020
1078 Rain 8 1020 81 16093 4.1 80 07:19 20.03.2020
1079 Clouds 8 1020 93 16093 3.1 60 06:42 20.03.2020
1080 Clouds 8 1020 70 16093 3.1 90 05:57 20.03.2020
1081 Rain 9 1019 87 16093 2.12 143 04:27 20.03.2020
1082 Clouds 11 1018 81 16093 3.1 40 02:43 20.03.2020
1083 Clouds 12 1015 29 16093 3.1 360 01:50 20.03.2020
1084 Clouds 13 1017 66 16093 5.7 140 00:38 20.03.2020
1085 Rain 13 1016 21 16093 7.7 270 23:58 19.03.2020
1086 Clouds 13 1017 53 16093 7.2 150 23:40 19.03.2020
1087 Rain 14 1016 30 16093 9.3 240 23:19 19.03.2020
1088 Clouds 14 1015 28 16093 7.2 190 22:38 19.03.2020
1089 Clouds 14 1015 28 16093 7.2 190 22:20 19.03.2020
1090 Clouds 13 1016 47 16093 8.2 150 21:57 19.03.2020
1091 Clouds 13 1016 47 16093 7.7 140 21:38 19.03.2020
1092 Clouds 13 1016 35 16093 6.2 200 21:18 19.03.2020
1093 Clouds 12 1016 32 16093 5.1 200 20:42 19.03.2020
1094 Clouds 12 1016 32 16093 5.1 200 20:42 19.03.2020
1095 Clouds 12 1016 32 16093 5.1 200 20:24 19.03.2020
1096 Clouds 12 1016 50 16093 9.3 150 19:57 19.03.2020
1097 Clear 11 1016 50 16093 7.2 150 19:38 19.03.2020
1098 Clouds 11 1015 37 16093 5.7 170 19:20 19.03.2020
1099 Clear 11 1016 53 16093 5.7 160 18:57 19.03.2020
1100 Clear 11 1016 53 16093 5.7 160 18:38 19.03.2020
1101 Clouds 10 1015 37 16093 3.6 180 18:19 19.03.2020
1102 Clear 10 1015 57 16093 6.2 150 17:42 19.03.2020
1103 Clouds 9 1014 39 16093 6.2 190 17:19 19.03.2020
1104 Clouds 9 1014 39 16093 6.2 190 16:55 19.03.2020
1105 Clear 8 1014 65 16093 4.84 190 16:37 19.03.2020
1106 Clouds 8 1013 49 16093 3.1 180 16:19 19.03.2020
1107 Clear 7 1013 75 16093 4.6 130 15:40 19.03.2020
1108 Clouds 6 1011 52 16093 3.1 200 15:18 19.03.2020
1109 Clouds 6 1012 87 16093 1.5 170 14:43 19.03.2020
1110 Clear 6 1011 56 16093 7.7 200 14:21 19.03.2020
1111 Clouds 6 1009 45 16093 4.1 190 13:41 19.03.2020
1112 Clouds 6 1009 45 16093 4.1 190 13:20 19.03.2020
1113 Clouds 7 1008 45 16093 3.1 200 12:58 19.03.2020
1114 Clouds 7 1008 45 16093 3.1 200 12:40 19.03.2020
1115 Clouds 7 1008 45 16093 3.1 200 12:21 19.03.2020
1116 Clouds 7 1008 45 16093 2.6 210 11:43 19.03.2020
1117 Clouds 7 1008 45 16093 2.6 210 11:24 19.03.2020
1118 Clouds 8 1008 45 16093 2.6 210 10:57 19.03.2020
1119 Clouds 8 1007 69 16093 2.6 220 10:38 19.03.2020
1120 Clouds 8 1007 69 16093 2.6 220 10:19 19.03.2020
1121 Clouds 8 1007 66 16093 1.5 220 09:45 19.03.2020
1122 Clouds 8 1007 66 16093 1.5 220 09:27 19.03.2020
1123 Clouds 8 1006 62 16093 1.5 210 08:59 19.03.2020
1124 Clouds 8 1006 62 16093 1.5 210 08:41 19.03.2020
1125 Clouds 9 1006 62 16093 1.5 210 08:19 19.03.2020
1126 Clouds 9 1006 62 16093 2.02 135 07:44 19.03.2020
1127 Clouds 9 1006 62 16093 2.02 135 07:44 19.03.2020
1128 Clouds 9 1006 62 16093 2.02 135 07:23 19.03.2020
1129 Clouds 9 1006 62 16093 2.1 140 06:34 19.03.2020
1130 Clouds 10 1005 62 16093 3.6 80 05:47 19.03.2020
1131 Clouds 10 1005 62 16093 3.6 80 04:54 19.03.2020
1132 Clouds 11 1005 71 16093 2.6 110 04:34 19.03.2020
1133 Clouds 12 1004 54 16093 4.1 40 02:37 19.03.2020
1134 Clouds 13 1005 58 16093 4.6 50 00:58 19.03.2020
1135 Clouds 13 1005 43 16093 3.6 120 00:22 19.03.2020
1136 Clouds 13 1006 50 16093 2.1 70 23:48 18.03.2020
1137 Clouds 13 1006 43 16093 4.1 110 23:27 18.03.2020
1138 Clouds 13 1007 54 16093 2.51 168 22:44 18.03.2020
1139 Clouds 13 1007 40 16093 4.6 100 22:24 18.03.2020
1140 Clouds 12 1007 62 16093 2.6 10 21:59 18.03.2020
1141 Clouds 13 1008 62 16093 5.1 110 21:41 18.03.2020
1142 Clouds 12 1008 35 16093 3.6 70 21:21 18.03.2020
1143 Clouds 12 1008 53 16093 3.1 90 20:57 18.03.2020
1144 Clouds 12 1009 43 16093 1.5 120 20:39 18.03.2020
1145 Clouds 11 1009 37 16093 1.5 50 20:20 18.03.2020
1146 Clouds 11 1009 40 16093 2.42 120 19:55 18.03.2020
1147 Clouds 11 1010 43 16093 2.42 120 19:36 18.03.2020
1148 Clouds 11 1010 40 16093 2.42 120 19:18 18.03.2020
1149 Clouds 10 1010 64 16093 2.42 120 18:41 18.03.2020
1150 Clouds 10 1010 40 16093 2.42 120 18:20 18.03.2020
1151 Clouds 9 1010 40 16093 2.42 120 17:57 18.03.2020
1152 Clouds 9 1010 65 16093 2.42 120 17:39 18.03.2020
1153 Clouds 8 1010 45 16093 2.1 250 17:20 18.03.2020
1154 Clouds 8 1010 70 16093 1.5 110 16:54 18.03.2020
1155 Clouds 7 1010 70 16093 1.5 110 16:36 18.03.2020
1156 Clouds 7 1009 49 16093 4.19 134 16:18 18.03.2020
1157 Clouds 7 1009 87 16093 2.1 70 15:44 18.03.2020
1158 Clouds 6 1009 49 16093 4.1 200 15:20 18.03.2020
1159 Clouds 6 1009 87 16093 2.6 40 14:44 18.03.2020
1160 Clouds 7 1009 49 16093 3.1 190 14:21 18.03.2020
1161 Clouds 7 1010 87 16093 2.6 40 13:42 18.03.2020
1162 Clouds 7 1009 52 16093 3.1 200 13:20 18.03.2020
1163 Clear 7 1010 75 16093 2.6 80 12:59 18.03.2020
1164 Clear 7 1010 81 16093 2.1 40 12:41 18.03.2020
1165 Clouds 8 1009 49 16093 1.5 220 12:19 18.03.2020
1166 Clouds 8 1010 81 16093 2.1 100 11:39 18.03.2020
1167 Clouds 8 1010 49 16093 1.5 120 11:20 18.03.2020
1168 Clouds 8 1010 49 16093 1.5 120 10:58 18.03.2020
1169 Clear 8 1011 70 16093 2.1 20 10:38 18.03.2020
1170 Clouds 9 1010 43 16093 1.5 220 10:20 18.03.2020
1171 Clouds 9 1011 57 16093 2.6 200 09:43 18.03.2020
1172 Clouds 9 1011 57 16093 2.6 200 09:25 18.03.2020
1173 Clear 9 1011 57 16093 3.6 250 08:56 18.03.2020
1174 Clouds 9 1011 57 16093 3.1 130 08:38 18.03.2020
1175 Clouds 10 1010 37 16093 4.6 230 08:20 18.03.2020
1176 Clouds 10 1009 39 16093 3.6 320 07:44 18.03.2020
1177 Clouds 10 1011 37 16093 3.6 190 07:26 18.03.2020
1178 Clear 10 1011 61 16093 2.1 220 06:44 18.03.2020
1179 Clouds 11 1010 40 16093 4.6 200 06:20 18.03.2020
1180 Clear 11 1011 53 16093 2.1 231 05:34 18.03.2020
1181 Clouds 12 1010 46 16093 7.2 210 04:25 18.03.2020
1182 Clouds 13 1010 41 16093 7.2 210 02:44 18.03.2020
1183 Clouds 14 1010 39 16093 7.2 190 01:48 18.03.2020
1184 Clouds 14 1010 28 16093 6.7 250 01:26 18.03.2020
1185 Clouds 14 1010 29 16093 6.7 230 00:24 18.03.2020
1186 Clouds 15 1010 40 16093 4.1 220 23:48 17.03.2020
1187 Clouds 15 1010 33 16093 7.2 210 23:27 17.03.2020
1188 Clouds 14 1008 28 16093 4.1 300 22:55 17.03.2020
1189 Clouds 14 1011 47 16093 4.6 220 22:37 17.03.2020
1190 Clouds 14 1012 47 16093 7.7 240 22:18 17.03.2020
1191 Clouds 14 1012 44 16093 2.1 250 21:39 17.03.2020
1192 Clouds 14 1012 35 16093 6.2 230 21:21 17.03.2020
1193 Clouds 13 1013 50 16093 2.1 230 20:40 17.03.2020
1194 Rain 12 1013 43 16093 7.2 220 20:21 17.03.2020
1195 Clouds 12 1013 54 16093 3.1 270 19:58 17.03.2020
1196 Rain 12 1013 43 16093 6.2 210 19:39 17.03.2020
1197 Rain 12 1013 43 16093 6.2 210 19:18 17.03.2020
1198 Rain 12 1013 43 16093 6.2 210 18:55 17.03.2020
1199 Clouds 12 1013 58 16093 4.1 220 18:37 17.03.2020
1200 Clouds 11 1013 50 16093 5.7 170 18:19 17.03.2020
1201 Clouds 11 1013 62 16093 2.1 180 17:40 17.03.2020
1202 Clouds 11 1013 66 16093 5.7 200 17:21 17.03.2020
1203 Clouds 10 1013 70 16093 2.1 310 16:45 17.03.2020
1204 Clouds 10 1012 57 16093 5.1 180 16:20 17.03.2020
1205 Clouds 10 1013 75 16093 2.6 310 15:58 17.03.2020
1206 Clouds 10 1012 66 16093 3.82 195 15:39 17.03.2020
1207 Rain 9 1011 57 16093 4.6 200 15:18 17.03.2020
1208 Clear 9 1012 75 16093 3.82 195 14:41 17.03.2020
1209 Clouds 9 1011 57 16093 3.6 190 14:21 17.03.2020
1210 Clouds 9 1009 70 16093 9.8 310 13:44 17.03.2020
1211 Clear 10 1011 66 16093 2.1 230 13:26 17.03.2020
1212 Clear 10 1011 58 16093 4.6 170 12:58 17.03.2020
1213 Clear 10 1011 62 16093 3.1 170 12:39 17.03.2020
1214 Clouds 10 1010 54 16093 2.1 210 12:21 17.03.2020
1215 Clouds 11 1011 58 16093 5.1 190 11:45 17.03.2020
1216 Clouds 11 1011 50 16093 3.1 190 11:27 17.03.2020
1217 Clouds 11 1011 50 16093 3.1 190 10:58 17.03.2020
1218 Clouds 11 1011 58 16093 4.6 210 10:37 17.03.2020
1219 Clouds 11 1011 54 16093 1.5 200 10:19 17.03.2020
1220 Clear 12 1011 47 16093 5.1 140 09:55 17.03.2020
1221 Clear 12 1011 54 16093 5.7 190 09:36 17.03.2020
1222 Clouds 12 1011 47 16093 4.1 200 09:18 17.03.2020
1223 Clear 12 1011 50 16093 7.2 200 08:42 17.03.2020
1224 Clouds 12 1010 47 16093 5.7 190 08:21 17.03.2020
1225 Clear 13 1011 50 16093 7.2 200 07:49 17.03.2020
1226 Clouds 13 1010 44 16093 5.1 180 07:24 17.03.2020
1227 Clear 14 1011 50 16093 9.8 200 06:53 17.03.2020
1228 Clouds 14 1010 41 16093 6.7 190 06:27 17.03.2020
1229 Clear 15 1011 47 16093 5.7 210 05:38 17.03.2020
1230 Clear 16 1010 44 16093 4.1 180 03:36 17.03.2020
1231 Clear 17 1010 34 16093 171.3 333 02:38 17.03.2020
1232 Clear 18 1011 36 16093 8.2 160 01:41 17.03.2020
1233 Clouds 18 1010 32 16093 8.2 150 01:18 17.03.2020
1234 Clouds 18 1011 37 16093 6.2 160 00:19 17.03.2020
1235 Clouds 18 1012 39 16093 6.2 150 23:43 16.03.2020
1236 Clouds 18 1011 37 16093 5.7 150 23:22 16.03.2020
1237 Clouds 17 1013 34 16093 8.2 140 22:38 16.03.2020
1238 Clouds 17 1013 36 16093 5.7 140 22:20 16.03.2020
1239 Clouds 17 1012 44 16093 9.3 130 21:45 16.03.2020
1240 Clear 17 1014 45 16093 7.7 160 21:27 16.03.2020
1241 Clouds 16 1015 45 16093 7.7 160 20:59 16.03.2020
1242 Clouds 16 1015 51 16093 6.7 150 20:40 16.03.2020
1243 Clouds 16 1015 44 16093 9.42 161 20:21 16.03.2020
1244 Clear 15 1016 51 16093 6.2 150 19:46 16.03.2020
1245 Clear 15 1016 51 16093 6.2 150 19:25 16.03.2020
1246 Clear 14 1016 51 16093 5.7 170 18:59 16.03.2020
1247 Clear 14 1016 54 16093 4.1 130 18:39 16.03.2020
1248 Clear 13 1017 50 16093 1.5 270 18:20 16.03.2020
1249 Clear 12 1017 62 16093 2.1 70 17:46 16.03.2020
1250 Clouds 12 1017 58 16093 1.5 100 17:25 16.03.2020
1251 Clear 12 1016 62 16093 4.1 90 16:57 16.03.2020
1252 Clouds 11 1017 62 16093 1.7 177 16:39 16.03.2020
1253 Clouds 11 1017 62 16093 1.7 177 16:39 16.03.2020
1254 Clouds 10 1016 62 16093 1.7 177 16:20 16.03.2020
1255 Clear 9 1016 76 16093 1.7 177 15:43 16.03.2020
1256 Clear 9 1016 76 16093 1.7 177 15:23 16.03.2020
1257 Clear 9 1016 76 16093 3.1 80 14:47 16.03.2020
1258 Clear 9 1015 62 16093 2.1 160 14:20 16.03.2020
1259 Clear 9 1016 70 16093 2.1 300 13:48 16.03.2020
1260 Clear 9 1016 70 16093 2.1 300 13:28 16.03.2020
1261 Clear 9 1015 75 16093 2.69 181 12:57 16.03.2020
1262 Clear 9 1015 75 16093 2.69 181 12:38 16.03.2020
1263 Clear 9 1015 58 16093 2.69 181 12:20 16.03.2020
1264 Clear 10 1015 66 16093 2.69 181 11:43 16.03.2020
1265 Clear 10 1015 54 16093 2.1 190 11:23 16.03.2020
1266 Clear 10 1016 66 16093 2.77 171 10:44 16.03.2020
1267 Clear 11 1016 66 16093 2.77 171 10:24 16.03.2020
1268 Clear 11 1016 62 16093 1.5 120 09:49 16.03.2020
1269 Clear 11 1016 62 16093 1.5 120 09:30 16.03.2020
1270 Clear 12 1016 71 16093 2.77 171 08:59 16.03.2020
1271 Clear 12 1016 58 16093 2.1 0 08:39 16.03.2020
1272 Clear 12 1016 50 16093 2.6 240 08:20 16.03.2020
1273 Clear 12 1017 58 16093 2.1 320 07:41 16.03.2020
1274 Clouds 12 1016 50 16093 1.5 250 07:18 16.03.2020
1275 Clear 13 1017 58 16093 4.1 220 06:28 16.03.2020
1276 Clouds 14 1016 44 16093 1.5 170 05:55 16.03.2020
1277 Clear 16 1016 51 16093 4.1 170 03:54 16.03.2020
1278 Clear 19 1015 42 16093 11.3 160 01:44 16.03.2020
1279 Clear 19 1015 32 16093 9.3 180 00:44 16.03.2020
1280 Clouds 19 1014 37 16093 7.7 160 23:56 15.03.2020
1281 Clouds 19 1014 40 16093 9.8 150 23:37 15.03.2020
1282 Clear 19 1015 37 16093 7.2 230 23:18 15.03.2020
1283 Clouds 19 1015 40 16093 11.3 160 22:41 15.03.2020
1284 Clouds 19 1015 32 16093 4.1 200 22:20 15.03.2020
1285 Clouds 18 1016 45 16093 8.7 160 21:39 15.03.2020
1286 Clouds 18 1016 37 16093 3.6 210 21:21 15.03.2020
1287 Clouds 17 1016 48 16093 10.8 160 20:55 15.03.2020
1288 Clouds 17 1017 48 16093 10.3 160 20:36 15.03.2020
1289 Clouds 16 1017 48 16093 4.1 220 20:18 15.03.2020
1290 Clouds 16 1018 59 16093 6.7 150 19:42 15.03.2020
1291 Clouds 16 1018 59 16093 6.7 150 19:24 15.03.2020
1292 Clouds 15 1018 59 16093 7.7 160 18:59 15.03.2020
1293 Clouds 15 1018 62 16093 4.6 170 18:40 15.03.2020
1294 Clouds 15 1017 47 16093 5.1 190 18:22 15.03.2020
1295 Clouds 14 1018 71 16093 2.1 130 17:57 15.03.2020
1296 Clouds 14 1018 71 16093 2.1 130 17:38 15.03.2020
1297 Clouds 13 1017 50 16093 4.1 190 17:18 15.03.2020
1298 Clouds 12 1018 81 16093 2.91 187 16:43 15.03.2020
1299 Clouds 11 1018 81 16093 2.91 187 16:25 15.03.2020
1300 Clouds 11 1018 81 16093 2.1 310 15:58 15.03.2020
1301 Clouds 10 1017 87 16093 2.1 340 15:40 15.03.2020
1302 Clouds 10 1017 66 16093 2.6 160 15:19 15.03.2020
1303 Clouds 10 1017 81 16093 2.91 187 14:46 15.03.2020
1304 Clouds 10 1016 62 16093 3.6 180 14:24 15.03.2020
1305 Clouds 10 1017 81 16093 3.26 170 13:58 15.03.2020
1306 Clouds 10 1017 81 16093 3.26 170 13:38 15.03.2020
1307 Clouds 10 1017 81 16093 3.26 170 13:38 15.03.2020
1308 Clouds 10 1016 62 16093 2.6 170 13:20 15.03.2020
1309 Clear 10 1016 81 16093 2.1 350 12:44 15.03.2020
1310 Clouds 10 1016 66 16093 2.38 172 12:25 15.03.2020
1311 Clear 11 1017 76 16093 1.5 330 11:56 15.03.2020
1312 Clear 11 1017 76 16093 1.5 330 11:38 15.03.2020
1313 Clouds 11 1016 66 16093 1.5 170 11:20 15.03.2020
1314 Clouds 12 1017 71 16093 3.1 120 10:55 15.03.2020
1315 Clouds 12 1017 71 16093 3.1 120 10:36 15.03.2020
1316 Clouds 12 1016 62 16093 2.1 180 10:18 15.03.2020
1317 Clear 12 1017 71 16093 3.6 150 09:39 15.03.2020
1318 Clouds 12 1016 58 16093 2.6 170 09:20 15.03.2020
1319 Clear 13 1017 66 16093 4.1 130 08:42 15.03.2020
1320 Clouds 13 1017 58 16093 3.6 180 08:20 15.03.2020
1321 Clouds 14 1018 66 16093 3.1 210 07:50 15.03.2020
1322 Clouds 14 1018 66 16093 3.1 210 07:23 15.03.2020
1323 Clouds 14 1017 62 16093 4.6 260 06:44 15.03.2020
1324 Clouds 14 1017 67 16093 2.6 250 05:49 15.03.2020
1325 Clouds 15 1017 62 16093 2.6 260 04:58 15.03.2020
1326 Clear 15 1017 58 16093 4.6 160 04:40 15.03.2020
1327 Clouds 15 1015 48 16093 4.1 150 04:20 15.03.2020
1328 Clear 16 1016 58 16093 7.2 160 03:24 15.03.2020
1329 Clouds 17 1016 55 16093 8.2 160 02:28 15.03.2020
1330 Clouds 18 1016 51 16093 10.3 160 00:59 15.03.2020
1331 Clouds 18 1015 48 16093 9.8 150 00:41 15.03.2020
1332 Clouds 18 1015 37 16093 4.1 220 00:19 15.03.2020
1333 Clouds 18 1015 48 16093 10.3 150 23:40 14.03.2020
1334 Clouds 18 1015 39 16093 2.1 220 23:20 14.03.2020
1335 Clear 17 1015 37 16093 6.2 190 22:56 14.03.2020
1336 Clouds 17 1016 51 16093 10.3 160 22:38 14.03.2020
1337 Clouds 18 1015 39 16093 4.6 200 22:19 14.03.2020
1338 Clouds 17 1016 45 16093 9.8 160 21:55 14.03.2020
1339 Clouds 17 1016 45 16093 9.8 160 21:55 14.03.2020
1340 Clouds 17 1016 48 16093 9.3 150 21:36 14.03.2020
1341 Clouds 17 1016 48 16093 9.3 150 21:36 14.03.2020
1342 Clouds 17 1016 42 16093 4.6 210 21:18 14.03.2020
1343 Clouds 17 1016 42 16093 4.6 210 21:18 14.03.2020
1344 Clear 17 1016 48 16093 9.8 160 20:56 14.03.2020
1345 Clear 17 1016 48 16093 9.8 160 20:56 14.03.2020
1346 Clouds 16 1017 51 16093 9.8 160 20:38 14.03.2020
1347 Clouds 16 1016 45 16093 6.2 200 20:18 14.03.2020
1348 Clouds 15 1017 58 16093 7.7 170 19:41 14.03.2020
1349 Clouds 15 1017 48 16093 5.1 180 19:21 14.03.2020
1350 Clouds 15 1017 58 16093 8.7 170 18:41 14.03.2020
1351 Clouds 14 1016 58 16093 6.7 150 18:21 14.03.2020
1352 Clouds 14 1017 67 16093 6.2 160 17:43 14.03.2020
1353 Clouds 13 1016 62 16093 4.6 180 17:24 14.03.2020
1354 Clouds 12 1016 62 16093 4.6 180 16:59 14.03.2020
1355 Clouds 12 1017 76 16093 3.1 180 16:39 14.03.2020
1356 Clouds 12 1015 66 16093 3.6 170 16:20 14.03.2020
1357 Clouds 11 1016 81 16093 4.6 190 15:48 14.03.2020
1358 Clouds 11 1016 81 16093 4.6 190 15:25 14.03.2020
1359 Clear 11 1015 76 16093 4.1 230 14:44 14.03.2020
1360 Clouds 11 1014 66 16093 4.6 200 14:22 14.03.2020
1361 Clear 11 1015 76 16093 6.2 240 13:57 14.03.2020
1362 Clouds 12 1014 71 16093 4.6 210 13:39 14.03.2020
1363 Clouds 12 1013 62 16093 4.6 200 13:20 14.03.2020
1364 Clouds 12 1014 71 16093 4.1 210 12:44 14.03.2020
1365 Clouds 12 1013 58 16093 6.2 200 12:26 14.03.2020
1366 Clouds 12 1013 58 16093 6.2 200 12:26 14.03.2020
1367 Clouds 12 1014 76 16093 6.2 190 11:47 14.03.2020
1368 Clouds 12 1013 58 16093 4.6 190 11:27 14.03.2020
1369 Clouds 13 1013 58 16093 4.6 190 10:59 14.03.2020
1370 Clouds 13 1014 71 16093 5.7 190 10:40 14.03.2020
1371 Clouds 13 1013 58 16093 6.2 200 10:22 14.03.2020
1372 Clouds 13 1014 71 16093 6.32 171 09:43 14.03.2020
1373 Clouds 13 1013 58 16093 4.1 160 09:22 14.03.2020
1374 Clouds 13 1011 76 16093 3.6 130 08:47 14.03.2020
1375 Clouds 13 1014 71 16093 3.1 230 08:28 14.03.2020
1376 Clouds 13 1013 66 16093 4.6 150 07:51 14.03.2020
1377 Clouds 13 1013 66 16093 4.6 150 07:23 14.03.2020
1378 Clouds 13 1013 66 16093 4.6 160 06:59 14.03.2020
1379 Clouds 13 1013 66 16093 4.6 170 06:39 14.03.2020
1380 Clouds 13 1011 58 16093 2.6 180 05:19 14.03.2020
1381 Clouds 13 1011 58 16093 6.7 180 03:42 14.03.2020
1382 Clouds 13 1011 58 16093 6.7 180 03:23 14.03.2020
1383 Rain 14 1009 44 16093 5.7 210 02:20 14.03.2020
1384 Clouds 14 1010 62 16093 5.7 160 00:42 14.03.2020
1385 Clouds 14 1009 67 16093 7.7 160 23:45 13.03.2020
1386 Rain 15 1009 44 16093 7.7 240 23:26 13.03.2020
1387 Clouds 15 1008 66 16093 3.1 130 22:47 13.03.2020
1388 Clouds 15 1009 62 16093 9.3 170 22:25 13.03.2020
1389 Clouds 15 1009 62 16093 11.3 150 21:43 13.03.2020
1390 Clouds 15 1009 44 16093 6.2 220 21:21 13.03.2020
1391 Clouds 14 1008 55 16093 8.7 160 20:57 13.03.2020
1392 Clouds 14 1010 67 16093 10.3 150 20:38 13.03.2020
1393 Clouds 14 1009 51 16093 7.7 200 20:19 13.03.2020
1394 Clouds 14 1010 76 16093 9.3 160 19:45 13.03.2020
1395 Clouds 13 1010 76 16093 9.3 160 19:27 13.03.2020
1396 Clouds 13 1010 71 16093 8.2 160 18:47 13.03.2020
1397 Rain 12 1010 71 16093 8.2 160 18:28 13.03.2020
1398 Clouds 12 1009 76 16093 7.7 160 17:57 13.03.2020
1399 Clouds 12 1009 76 16093 7.7 160 17:37 13.03.2020
1400 Clouds 12 1008 66 16093 5.1 190 17:18 13.03.2020
1401 Rain 11 1007 63 9656 5.7 140 16:41 13.03.2020
1402 Rain 11 1007 63 9656 5.7 140 16:23 13.03.2020
1403 Rain 11 1008 87 16093 5.7 170 15:55 13.03.2020
1404 Rain 11 1008 87 16093 5.1 140 15:37 13.03.2020
1405 Rain 11 1007 76 16093 2.6 190 15:18 13.03.2020
1406 Rain 11 1006 81 16093 2.1 80 14:41 13.03.2020
1407 Rain 11 1007 81 16093 1.5 100 14:22 13.03.2020
1408 Rain 11 1007 93 16093 6.2 150 13:56 13.03.2020
1409 Rain 11 1007 87 16093 2.1 200 13:38 13.03.2020
1410 Rain 11 1006 81 8047 1.5 110 13:18 13.03.2020
1411 Rain 11 1007 93 16093 1.5 140 12:40 13.03.2020
1412 Rain 11 1006 76 16093 2.65 132 12:21 13.03.2020
1413 Rain 11 1006 76 16093 2.65 132 11:57 13.03.2020
1414 Rain 11 1006 93 16093 1.5 320 11:38 13.03.2020
1415 Rain 12 1006 76 16093 3.1 300 11:19 13.03.2020
1416 Rain 11 1006 100 16093 2.6 360 10:47 13.03.2020
1417 Rain 11 1006 100 16093 2.6 360 10:26 13.03.2020
1418 Clouds 12 1007 87 16093 2.46 135 09:56 13.03.2020
1419 Clouds 12 1007 87 16093 1.5 40 09:38 13.03.2020
1420 Clouds 11 1007 76 16093 1.5 290 09:20 13.03.2020
1421 Clouds 12 1007 93 16093 2.46 135 08:42 13.03.2020
1422 Clouds 12 1008 87 16093 2.94 119 08:22 13.03.2020
1423 Clouds 12 1008 93 16093 2.38 74 07:47 13.03.2020
1424 Clouds 12 1008 93 16093 2.38 74 07:27 13.03.2020
1425 Rain 11 1009 93 16093 2.6 70 06:46 13.03.2020
1426 Rain 11 1008 82 16093 3.1 70 06:24 13.03.2020
1427 Rain 12 1008 76 9656 4.6 330 05:46 13.03.2020
1428 Rain 12 1008 76 4023 3.1 330 05:19 13.03.2020
1429 Thunderstorm 13 1008 100 4828 5.7 180 04:35 13.03.2020
1430 Thunderstorm 15 1006 93 8047 4.6 20 02:58 13.03.2020
1431 Rain 16 1005 49 16093 2.6 30 01:41 13.03.2020
1432 Rain 18 1005 49 16093 2.6 30 01:18 13.03.2020
1433 Rain 19 1006 67 8047 3.6 20 00:43 13.03.2020
1434 Clouds 19 1007 40 16093 3.1 70 00:20 13.03.2020
1435 Clouds 20 1007 48 16093 4.1 30 23:40 12.03.2020
1436 Clouds 20 1008 37 16093 4.1 60 23:22 12.03.2020
1437 Clouds 20 1008 29 16093 3.6 120 22:47 12.03.2020
1438 Clear 20 1008 48 16093 7.7 20 22:29 12.03.2020
1439 Clear 20 1009 45 16093 7.7 20 21:59 12.03.2020
1440 Clouds 20 1011 48 16093 6.7 30 21:40 12.03.2020
1441 Clouds 20 1011 42 16093 2.6 0 21:21 12.03.2020
1442 Clouds 19 1013 48 16093 4.1 30 20:42 12.03.2020
1443 Clouds 19 1013 42 16093 4.1 40 20:20 12.03.2020
1444 Clouds 19 1013 42 16093 4.1 40 20:20 12.03.2020
1445 Clear 19 1013 48 16093 5.1 30 19:56 12.03.2020
1446 Clear 18 1013 55 16093 4.1 20 19:37 12.03.2020
1447 Clear 18 1014 59 16093 3.6 70 19:18 12.03.2020
1448 Clear 17 1014 59 16093 3.1 40 18:42 12.03.2020
1449 Clouds 17 1014 59 16093 3.93 14 18:22 12.03.2020
1450 Clouds 16 1014 59 16093 3.93 14 17:56 12.03.2020
1451 Clear 15 1014 72 16093 3.93 14 17:37 12.03.2020
1452 Clear 14 1015 71 16093 1.5 0 17:18 12.03.2020
1453 Clear 13 1014 76 16093 3.1 350 16:41 12.03.2020
1454 Clouds 13 1014 71 16093 1.64 3 16:23 12.03.2020
1455 Clear 12 1014 76 16093 1.64 3 15:49 12.03.2020
1456 Clear 11 1014 76 16093 1.64 3 15:28 12.03.2020
1457 Clear 11 1014 81 16093 1.64 3 14:58 12.03.2020
1458 Clear 11 1014 93 16093 1.64 3 14:38 12.03.2020
1459 Clear 11 1014 93 16093 1.64 3 14:38 12.03.2020
1460 Clouds 11 1014 81 16093 0.73 348 14:18 12.03.2020
1461 Clear 11 1014 93 16093 0.73 348 13:40 12.03.2020
1462 Clouds 12 1014 76 16093 2.1 200 13:21 12.03.2020
1463 Clear 12 1014 87 16093 0.83 10 12:55 12.03.2020
1464 Clear 12 1015 87 16093 0.83 10 12:37 12.03.2020
1465 Clear 12 1015 87 16093 2.6 180 12:18 12.03.2020
1466 Clear 12 1015 87 16093 0.83 10 11:55 12.03.2020
1467 Clear 12 1015 87 16093 0.83 10 11:36 12.03.2020
1468 Clear 12 1016 87 16093 3.6 160 11:18 12.03.2020
1469 Clear 13 1015 87 16093 0.08 271 10:43 12.03.2020
1470 Clear 13 1015 87 16093 0.08 271 10:43 12.03.2020
1471 Clear 13 1015 87 16093 0.08 271 10:24 12.03.2020
1472 Clear 13 1015 87 16093 0.08 271 09:59 12.03.2020
1473 Clear 13 1016 82 16093 2.6 360 09:40 12.03.2020
1474 Clouds 13 1016 72 16093 0.08 271 09:22 12.03.2020
1475 Clear 13 1016 82 16093 2.1 20 08:39 12.03.2020
1476 Clouds 13 1016 72 16093 2.6 310 08:19 12.03.2020
1477 Clear 14 1016 82 16093 1.5 50 07:48 12.03.2020
1478 Clouds 14 1016 63 16093 1.75 127 07:22 12.03.2020
1479 Clouds 14 1016 63 16093 1.5 10 06:26 12.03.2020
1480 Clear 15 1016 76 16093 2.6 20 05:35 12.03.2020
1481 Clear 16 1015 55 16093 2.42 94 03:44 12.03.2020
1482 Clouds 18 1014 55 16093 3.1 100 02:19 12.03.2020
1483 Clear 19 1015 52 16093 3.1 100 01:24 12.03.2020
1484 Clear 19 1015 52 16093 1.5 140 00:42 12.03.2020
1485 Clouds 19 1015 52 16093 4.1 70 23:58 11.03.2020
1486 Clouds 19 1016 52 16093 1.5 0 23:29 11.03.2020
1487 Clouds 18 1016 52 16093 1.5 0 22:59 11.03.2020
1488 Clouds 18 1017 59 16093 1.5 350 22:40 11.03.2020
1489 Clouds 18 1017 59 16093 3.6 90 22:21 11.03.2020
1490 Clouds 18 1017 59 16093 0.46 164 21:58 11.03.2020
1491 Clouds 17 1018 67 16093 2.6 320 21:39 11.03.2020
1492 Clouds 17 1018 67 16093 2.1 60 21:21 11.03.2020
1493 Clouds 17 1018 67 16093 2.1 70 20:56 11.03.2020
1494 Clouds 16 1019 82 16093 2.6 260 20:37 11.03.2020
1495 Clouds 15 1019 82 16093 2.6 110 20:19 11.03.2020
1496 Clouds 15 1020 87 16093 2.1 80 19:42 11.03.2020
1497 Clouds 15 1019 87 16093 0.36 339 19:24 11.03.2020
1498 Clouds 14 1020 87 16093 2.6 70 18:57 11.03.2020
1499 Clouds 14 1020 93 16093 0.36 339 18:37 11.03.2020
1500 Clouds 13 1020 93 16093 0.36 339 18:18 11.03.2020
1501 Clouds 13 1019 87 16093 4.1 50 17:54 11.03.2020
1502 Drizzle 13 1020 87 12874 2.1 100 17:36 11.03.2020
1503 Drizzle 13 1020 87 12874 2.1 100 17:36 11.03.2020
1504 Rain 12 1020 93 4828 2.02 23 17:18 11.03.2020
1505 Rain 12 1020 93 2816 2.02 23 16:41 11.03.2020
1506 Mist 12 1019 87 8047 2.1 180 16:19 11.03.2020
1507 Clouds 12 1019 93 16093 2.1 220 15:43 11.03.2020
1508 Mist 11 1019 100 3219 1.5 40 15:23 11.03.2020
1509 Clouds 12 1019 87 16093 2.6 90 14:46 11.03.2020
1510 Clouds 12 1019 87 16093 2.6 90 14:24 11.03.2020
1511 Mist 11 1019 93 2414 2.03 20 13:59 11.03.2020
1512 Mist 11 1019 93 2012 2.1 250 13:40 11.03.2020
1513 Fog 11 1019 100 14484 2.1 10 13:22 11.03.2020
1514 Rain 11 1019 93 6437 2.48 19 12:55 11.03.2020
1515 Rain 11 1019 100 14484 1.5 0 12:37 11.03.2020
1516 Rain 11 1020 100 16093 2.48 19 12:18 11.03.2020
1517 Rain 11 1019 93 11265 2.1 180 11:40 11.03.2020
1518 Rain 11 1019 93 9656 1.3 29 11:20 11.03.2020
1519 Rain 11 1019 93 12874 1.5 200 10:47 11.03.2020
1520 Rain 11 1019 93 12874 1.3 29 10:20 11.03.2020
1521 Rain 11 1020 93 6437 1.3 29 09:55 11.03.2020
1522 Rain 11 1021 100 4828 2.6 310 09:36 11.03.2020
1523 Rain 11 1021 100 4828 2.6 310 09:18 11.03.2020
1524 Rain 11 1020 87 14484 2.6 300 08:42 11.03.2020
1525 Rain 11 1020 87 14484 2.6 300 08:42 11.03.2020
1526 Rain 11 1020 100 12874 3.6 300 08:23 11.03.2020
1527 Rain 11 1021 100 9656 2.1 350 07:47 11.03.2020
1528 Rain 12 1021 100 12874 2.6 290 07:20 11.03.2020
1529 Rain 12 1021 100 9656 2.6 290 06:49 11.03.2020
1530 Rain 12 1021 93 6437 2.6 270 06:20 11.03.2020
1531 Rain 12 1021 87 9656 2.6 290 05:23 11.03.2020
1532 Clear 14 1020 62 16093 2.6 40 02:36 11.03.2020
1533 Clouds 15 1021 71 16093 4.1 270 01:44 11.03.2020
1534 Clouds 15 1021 67 16093 4.1 320 00:53 11.03.2020
1535 Clouds 14 1021 71 16093 3.1 270 00:21 11.03.2020
1536 Clouds 14 1022 76 16093 1.5 0 23:45 10.03.2020
1537 Clouds 14 1022 82 16093 2.6 320 23:22 10.03.2020
1538 Clouds 13 1022 62 16093 2.1 90 22:41 10.03.2020
1539 Clouds 13 1022 62 16093 2.1 90 22:21 10.03.2020
1540 Clouds 13 1022 67 16093 4.1 20 21:57 10.03.2020
1541 Clouds 13 1023 67 16093 3.6 60 21:39 10.03.2020
1542 Rain 13 1023 76 16093 1.5 110 21:20 10.03.2020
1543 Rain 12 1023 76 16093 3.92 5 20:59 10.03.2020
1544 Drizzle 12 1024 82 16093 4.6 20 20:41 10.03.2020
1545 Drizzle 12 1024 82 16093 4.6 20 20:19 10.03.2020
1546 Clouds 12 1024 67 16093 2.6 90 19:57 10.03.2020
1547 Clouds 12 1024 87 12874 2.6 60 19:39 10.03.2020
1548 Clouds 12 1024 87 12874 2.6 60 19:21 10.03.2020
1549 Clouds 12 1024 87 12874 2.6 60 19:21 10.03.2020
1550 Mist 12 1024 87 9656 3.1 30 18:45 10.03.2020
1551 Mist 12 1024 87 9656 3.1 30 18:45 10.03.2020
1552 Clouds 12 1024 71 16093 2.6 60 18:27 10.03.2020
1553 Rain 12 1024 87 16093 2.6 30 17:58 10.03.2020
1554 Rain 11 1024 87 16093 2.6 30 17:40 10.03.2020
1555 Rain 11 1023 81 16093 3.1 40 17:21 10.03.2020
1556 Rain 11 1023 87 16093 2.1 20 16:40 10.03.2020
1557 Rain 11 1022 81 16093 2.3 128 16:20 10.03.2020
1558 Rain 11 1023 93 16093 2.3 128 15:57 10.03.2020
1559 Rain 11 1022 93 6437 2.6 240 15:39 10.03.2020
1560 Rain 11 1022 76 12874 3.1 190 15:19 10.03.2020
1561 Rain 11 1022 87 6437 3.1 240 14:54 10.03.2020
1562 Rain 12 1021 54 14484 6.7 150 14:36 10.03.2020
1563 Rain 13 1021 54 14484 6.7 150 14:18 10.03.2020
1564 Drizzle 14 1020 71 16093 4.61 160 13:42 10.03.2020
1565 Drizzle 14 1020 71 16093 4.61 160 13:24 10.03.2020
1566 Clouds 14 1019 44 16093 2.1 100 12:42 10.03.2020
1567 Clouds 14 1019 36 16093 4.61 160 12:21 10.03.2020
1568 Clouds 14 1019 47 16093 2.1 60 11:59 10.03.2020
1569 Clouds 14 1019 44 16093 4.61 160 11:41 10.03.2020
1570 Clouds 14 1019 31 16093 4.61 160 11:22 10.03.2020
1571 Clouds 14 1020 41 16093 1.5 60 10:43 10.03.2020
1572 Clouds 14 1019 31 16093 1.89 148 10:23 10.03.2020
1573 Clouds 14 1020 47 16093 1.89 148 09:59 10.03.2020
1574 Clouds 14 1020 41 16093 1.89 148 09:41 10.03.2020
1575 Clouds 14 1019 29 16093 1.5 170 09:19 10.03.2020
1576 Clouds 14 1020 44 16093 1.5 350 08:51 10.03.2020
1577 Clouds 14 1020 44 16093 1.5 350 08:32 10.03.2020
1578 Clear 15 1021 38 16093 1.29 213 07:51 10.03.2020
1579 Clear 15 1021 38 16093 1.29 213 07:32 10.03.2020
1580 Clouds 16 1020 41 16093 2.6 120 06:48 10.03.2020
1581 Clouds 16 1020 41 16093 2.6 120 06:30 10.03.2020
1582 Clouds 16 1020 41 16093 2.6 120 06:30 10.03.2020
1583 Clear 16 1020 41 16093 2.6 160 05:42 10.03.2020
1584 Clouds 17 1020 36 16093 5.1 160 04:49 10.03.2020
1585 Clouds 17 1019 36 16093 5.7 150 03:55 10.03.2020
1586 Clear 18 1018 27 16093 8.2 150 02:41 10.03.2020
1587 Clear 19 1018 25 16093 8.7 160 01:30 10.03.2020
1588 Clear 19 1018 24 16093 8.2 140 00:44 10.03.2020
1589 Clouds 20 1017 16 16093 1.5 0 00:26 10.03.2020
1590 Clear 20 1018 25 16093 9.8 140 23:41 09.03.2020
1591 Clouds 20 1017 19 16093 3.1 160 23:21 09.03.2020
1592 Clear 19 1018 19 16093 6.7 160 23:21 09.03.2020
1593 Clear 20 1018 22 16093 8.2 180 22:43 09.03.2020
1594 Clouds 19 1018 20 16093 3.1 80 22:22 09.03.2020
1595 Clouds 19 1018 20 16093 3.1 80 22:22 09.03.2020
1596 Clear 19 1018 22 16093 6.7 130 21:59 09.03.2020
1597 Clear 19 1019 24 16093 7.2 140 21:40 09.03.2020
1598 Clouds 19 1019 24 16093 3.1 100 21:21 09.03.2020
1599 Clear 18 1020 25 16093 5.7 150 20:56 09.03.2020
1600 Clear 18 1020 25 16093 5.7 150 20:56 09.03.2020
1601 Clear 18 1020 27 16093 7.7 180 20:38 09.03.2020
1602 Clouds 18 1020 27 16093 3.1 50 20:20 09.03.2020
1603 Clear 17 1021 33 16093 7.2 140 19:44 09.03.2020
1604 Clouds 16 1021 27 16093 3.1 0 19:25 09.03.2020
1605 Clear 16 1021 33 16093 6.7 150 18:58 09.03.2020
1606 Clear 16 1021 33 16093 6.7 150 18:58 09.03.2020
1607 Clear 16 1021 33 16093 5.1 150 18:38 09.03.2020
1608 Clouds 15 1020 29 16093 7.91 176 18:20 09.03.2020
1609 Clear 14 1021 35 16093 7.91 176 17:57 09.03.2020
1610 Clear 14 1021 35 16093 7.91 176 17:38 09.03.2020
1611 Clouds 13 1020 32 16093 2.1 300 17:20 09.03.2020
1612 Clouds 12 1020 32 16093 2.1 300 16:58 09.03.2020
1613 Clouds 12 1020 32 16093 2.1 300 16:58 09.03.2020
1614 Clear 11 1019 43 16093 2.6 130 16:39 09.03.2020
1615 Clouds 11 1019 34 16093 2.1 270 16:21 09.03.2020
1616 Clear 10 1019 40 16093 2.1 130 15:58 09.03.2020
1617 Clear 10 1019 40 16093 2.1 130 15:38 09.03.2020
1618 Clouds 10 1018 34 16093 1.5 330 15:19 09.03.2020
1619 Clear 10 1018 49 16093 2.46 150 14:54 09.03.2020
1620 Clouds 10 1017 34 16093 1.5 220 14:36 09.03.2020
1621 Clouds 10 1017 34 16093 1.5 220 14:36 09.03.2020
1622 Clouds 10 1017 34 16093 1.5 220 14:18 09.03.2020
1623 Clear 10 1017 43 16093 2.72 156 13:54 09.03.2020
1624 Clouds 10 1017 32 16093 3.1 200 13:36 09.03.2020
1625 Clouds 10 1017 32 16093 3.1 200 13:18 09.03.2020
1626 Clear 11 1017 43 16093 2.52 164 12:41 09.03.2020
1627 Clouds 11 1016 32 16093 2.1 290 12:20 09.03.2020
1628 Clear 11 1017 30 16093 2.52 164 11:41 09.03.2020
1629 Clouds 11 1016 30 16093 4.1 190 11:21 09.03.2020
1630 Clear 12 1017 40 16093 1.5 40 10:58 09.03.2020
1631 Clear 12 1017 40 16093 1.5 40 10:40 09.03.2020
1632 Clouds 12 1016 28 16093 2.1 200 10:20 09.03.2020
1633 Clear 12 1017 37 16093 3.3 186 09:44 09.03.2020
1634 Clouds 12 1015 26 16093 4.1 200 09:24 09.03.2020
1635 Clear 12 1016 30 16093 2.1 70 08:59 09.03.2020
1636 Clear 12 1016 30 16093 2.1 70 08:39 09.03.2020
1637 Clouds 13 1015 24 16093 3.6 210 08:21 09.03.2020
1638 Clear 13 1016 29 16093 6.55 205 07:39 09.03.2020
1639 Clouds 13 1015 22 16093 5.1 200 07:21 09.03.2020
1640 Clear 13 1016 27 16093 6.55 205 06:43 09.03.2020
1641 Clouds 13 1015 19 16093 6.7 200 06:23 09.03.2020
1642 Clear 14 1015 27 16093 2.6 180 05:46 09.03.2020
1643 Clear 14 1014 26 16093 3.1 200 04:59 09.03.2020
1644 Clear 15 1014 26 16093 3.1 200 04:40 09.03.2020
1645 Clouds 15 1013 21 16093 7.92 223 04:21 09.03.2020
1646 Clear 17 1012 25 16093 6.2 160 02:56 09.03.2020
1647 Clear 19 1012 22 16093 4.6 160 00:46 09.03.2020
1648 Clouds 19 1012 20 16093 5.1 200 00:27 09.03.2020
1649 Clouds 19 1012 22 16093 2.1 230 23:59 08.03.2020
1650 Clouds 19 1012 22 16093 2.1 230 23:39 08.03.2020
1651 Clouds 19 1012 20 16093 6.7 230 23:20 08.03.2020
1652 Clouds 18 1012 24 16093 2.6 180 22:42 08.03.2020
1653 Clouds 18 1013 22 16093 5.1 210 22:22 08.03.2020
1654 Clear 18 1013 27 16093 3.6 220 21:59 08.03.2020
1655 Clear 18 1013 27 16093 3.6 220 21:41 08.03.2020
1656 Clouds 18 1013 23 16093 7.2 200 21:23 08.03.2020
1657 Clear 17 1014 25 16093 2.6 210 20:58 08.03.2020
1658 Clear 17 1014 27 16093 6.79 224 20:38 08.03.2020
1659 Clear 17 1014 27 16093 5.47 220 20:20 08.03.2020
1660 Clear 16 1014 26 16093 1.5 0 19:40 08.03.2020
1661 Clouds 16 1013 29 16093 5.7 180 19:19 08.03.2020
1662 Clouds 15 1013 29 16093 5.7 180 18:56 08.03.2020
1663 Clear 15 1014 33 16093 4.1 200 18:38 08.03.2020
1664 Clear 14 1014 33 16093 4.1 200 18:19 08.03.2020
1665 Clouds 13 1013 26 16093 6.7 200 17:40 08.03.2020
1666 Clear 13 1014 26 16093 5.1 210 17:22 08.03.2020
1667 Clear 12 1013 47 16093 3.6 190 16:58 08.03.2020
1668 Clear 12 1013 50 16093 2.1 140 16:40 08.03.2020
1669 Clear 12 1013 50 16093 2.1 140 16:22 08.03.2020
1670 Clouds 11 1012 53 16093 4.33 215 15:41 08.03.2020
1671 Clouds 12 1012 53 16093 4.33 215 15:22 08.03.2020
1672 Clouds 12 1013 50 16093 4.33 215 14:59 08.03.2020
1673 Clouds 12 1012 47 16093 2.1 240 14:38 08.03.2020
1674 Clouds 12 1012 47 16093 2.1 240 14:19 08.03.2020
1675 Clouds 12 1012 47 16093 2.6 210 13:42 08.03.2020
1676 Clouds 12 1012 49 16093 2.6 210 13:21 08.03.2020
1677 Clouds 12 1011 49 16093 6.2 160 12:56 08.03.2020
1678 Clouds 13 1012 49 16093 3.1 210 12:36 08.03.2020
1679 Clouds 13 1012 49 16093 3.6 170 12:18 08.03.2020
1680 Clouds 13 1012 49 16093 2.6 180 11:41 08.03.2020
1681 Clouds 13 1012 49 16093 2.6 180 11:21 08.03.2020
1682 Clouds 13 1012 49 16093 2.6 180 11:21 08.03.2020
1683 Clouds 13 1011 46 16093 5.7 220 10:42 08.03.2020
1684 Clouds 13 1011 46 16093 5.7 220 10:42 08.03.2020
1685 Clouds 13 1011 46 16093 5.7 220 10:24 08.03.2020
1686 Clouds 14 1011 46 16093 6.2 220 09:59 08.03.2020
1687 Clouds 14 1011 46 16093 2.1 250 09:38 08.03.2020
1688 Clouds 14 1011 46 16093 2.1 250 09:20 08.03.2020
1689 Clouds 14 1011 46 16093 5.1 220 08:42 08.03.2020
1690 Clear 15 1011 46 16093 4.6 150 08:21 08.03.2020
1691 Clouds 15 1010 33 16093 4.6 220 07:45 08.03.2020
1692 Clouds 15 1010 33 16093 4.6 220 07:45 08.03.2020
1693 Clouds 15 1010 33 16093 5.1 230 07:26 08.03.2020
1694 Clouds 16 1010 31 16093 5.1 220 06:43 08.03.2020
1695 Clouds 16 1010 31 16093 5.1 220 06:24 08.03.2020
1696 Clouds 16 1009 29 16093 6.2 220 05:43 08.03.2020
1697 Clouds 16 1009 29 16093 6.2 220 05:43 08.03.2020
1698 Clouds 18 1008 25 16093 3.1 200 03:52 08.03.2020
1699 Clear 19 1008 16 16093 6.2 200 02:38 08.03.2020
1700 Clear 20 1008 17 16093 9.8 190 01:35 08.03.2020
1701 Clear 21 1008 18 16093 10.3 190 00:58 08.03.2020
1702 Clear 21 1008 18 16093 8.7 170 00:28 08.03.2020
1703 Clear 22 1008 17 16093 11.8 180 23:48 07.03.2020
1704 Clear 22 1008 17 16093 10.8 180 23:26 07.03.2020
1705 Clouds 22 1007 19 16093 8.2 180 22:56 07.03.2020
1706 Clouds 22 1008 18 16093 11.3 180 22:37 07.03.2020
1707 Clouds 22 1008 18 16093 11.3 180 22:19 07.03.2020
1708 Clear 22 1009 21 16093 11.3 160 21:43 07.03.2020
1709 Clouds 22 1010 21 16093 4.6 200 21:19 07.03.2020
1710 Clouds 21 1011 22 16093 8.2 180 20:40 07.03.2020
1711 Clear 21 1011 26 16093 5.7 150 20:20 07.03.2020
1712 Clouds 20 1012 28 16093 7.2 150 19:41 07.03.2020
1713 Clouds 20 1012 28 16093 4.6 200 19:22 07.03.2020
1714 Clear 19 1012 29 16093 6.7 160 18:58 07.03.2020
1715 Clear 18 1012 29 16093 6.7 160 18:39 07.03.2020
1716 Clouds 18 1012 28 16093 3.1 190 18:20 07.03.2020
1717 Clear 17 1013 28 16093 6.7 160 17:41 07.03.2020
1718 Clouds 15 1012 33 16093 2.6 170 17:20 07.03.2020
1719 Clear 15 1013 38 16093 3.28 179 16:56 07.03.2020
1720 Clear 14 1013 38 16093 3.28 179 16:38 07.03.2020
1721 Clouds 14 1011 38 16093 3.1 190 16:19 07.03.2020
1722 Clear 13 1012 33 16093 2.1 150 15:42 07.03.2020
1723 Clouds 13 1011 31 16093 4.6 200 15:22 07.03.2020
1724 Clouds 14 1012 37 16093 2.6 250 14:59 07.03.2020
1725 Clouds 13 1012 37 16093 2.6 250 14:41 07.03.2020
1726 Clouds 13 1011 31 16093 2.1 150 14:23 07.03.2020
1727 Clouds 13 1012 43 16093 2.44 166 13:43 07.03.2020
1728 Clouds 13 1011 35 16093 1.5 230 13:22 07.03.2020
1729 Clear 13 1012 35 16093 2.62 172 12:59 07.03.2020
1730 Clear 13 1012 35 16093 2.62 172 12:38 07.03.2020
1731 Clouds 13 1011 31 16093 2.1 190 12:19 07.03.2020
1732 Clear 14 1012 35 16093 2.62 172 11:44 07.03.2020
1733 Clouds 14 1012 31 16093 3.1 200 11:24 07.03.2020
1734 Clear 14 1013 30 16093 1.5 360 10:57 07.03.2020
1735 Clear 14 1013 30 16093 1.5 360 10:38 07.03.2020
1736 Clouds 15 1012 31 16093 2.1 200 10:18 07.03.2020
1737 Clear 15 1013 43 16093 1.5 360 09:40 07.03.2020
1738 Clouds 15 1013 31 16093 2.1 200 09:20 07.03.2020
1739 Clear 16 1013 30 16093 2.6 300 08:57 07.03.2020
1740 Clear 16 1013 30 16093 2.6 300 08:39 07.03.2020
1741 Clouds 16 1013 29 16093 1.5 170 08:20 07.03.2020
1742 Clouds 17 1014 27 16093 3.4 195 07:46 07.03.2020
1743 Clouds 17 1014 27 16093 3.4 195 07:21 07.03.2020
1744 Clouds 17 1013 24 0 1.34 318 06:43 07.03.2020
1745 Clouds 18 1013 22 16093 2.6 190 06:25 07.03.2020
1746 Clear 19 1014 26 16093 4.1 160 05:40 07.03.2020
1747 Clear 21 1014 22 16093 3.6 130 03:47 07.03.2020
1748 Clear 22 1014 19 16093 4.6 140 02:44 07.03.2020
1749 Clear 23 1014 16 16093 6.7 150 01:56 07.03.2020
1750 Clear 24 1014 16 16093 5.1 140 00:58 07.03.2020
1751 Clouds 24 1014 17 16093 2.1 0 00:24 07.03.2020
1752 Clear 24 1015 16 16093 6.7 170 23:58 06.03.2020
1753 Clear 24 1015 16 16093 6.7 170 23:39 06.03.2020
1754 Clear 24 1015 15 16093 5.1 160 23:21 06.03.2020
1755 Clear 23 1016 16 16093 7.2 130 22:44 06.03.2020
1756 Clear 23 1016 16 16093 7.2 130 22:44 06.03.2020
1757 Clouds 23 1017 20 16093 3.1 0 22:20 06.03.2020
1758 Clear 23 1017 15 16093 6.7 150 21:47 06.03.2020
1759 Clouds 22 1018 19 16093 2.6 50 21:20 06.03.2020
1760 Clear 22 1018 21 16093 0.88 135 20:44 06.03.2020
1761 Clouds 21 1019 21 16093 2.6 90 20:23 06.03.2020
1762 Clear 20 1019 21 16093 2.1 0 19:57 06.03.2020
1763 Clear 20 1019 29 16093 1.31 357 19:39 06.03.2020
1764 Clear 20 1019 29 16093 1.31 357 19:20 06.03.2020
1765 Clouds 19 1020 25 16093 1.5 0 18:42 06.03.2020
1766 Clouds 18 1020 25 16093 1.5 0 18:20 06.03.2020
1767 Clouds 17 1020 21 16093 1.31 357 17:56 06.03.2020
1768 Clear 16 1020 41 16093 1.31 357 17:38 06.03.2020
1769 Clouds 15 1020 36 16093 0.42 300 17:20 06.03.2020
1770 Clear 14 1019 33 16093 0.42 300 16:43 06.03.2020
1771 Clear 13 1019 33 16093 0.42 300 16:22 06.03.2020
1772 Clear 12 1019 53 16093 0.42 300 15:59 06.03.2020
1773 Clear 11 1019 53 16093 0.42 300 15:40 06.03.2020
1774 Clouds 11 1019 46 16093 2.1 210 15:21 06.03.2020
1775 Clear 11 1019 33 16093 1.5 340 14:40 06.03.2020
1776 Clouds 11 1019 33 16093 2.1 240 14:22 06.03.2020
1777 Clear 11 1019 57 16093 0.36 337 13:44 06.03.2020
1778 Clouds 12 1019 46 16093 0.36 337 13:23 06.03.2020
1779 Clouds 12 1019 46 16093 0.36 337 13:23 06.03.2020
1780 Clouds 12 1019 32 16093 0.36 340 12:59 06.03.2020
1781 Clouds 12 1019 32 16093 0.36 340 12:39 06.03.2020
1782 Clouds 13 1019 32 16093 0.36 340 12:20 06.03.2020
1783 Clouds 13 1019 32 16093 2.6 210 11:59 06.03.2020
1784 Clouds 13 1019 32 16093 2.6 210 11:40 06.03.2020
1785 Clouds 12 1019 29 16093 2.6 210 11:20 06.03.2020
1786 Clear 12 1020 53 16093 1.19 274 10:42 06.03.2020
1787 Clouds 12 1019 29 16093 1.19 274 10:21 06.03.2020
1788 Clear 13 1020 50 16093 2.6 60 09:56 06.03.2020
1789 Clear 13 1020 50 16093 2.6 60 09:38 06.03.2020
1790 Clouds 13 1020 33 16093 3.6 280 09:19 06.03.2020
1791 Clear 14 1020 46 16093 1.19 274 08:46 06.03.2020
1792 Clear 14 1020 47 16093 0.96 259 08:27 06.03.2020
1793 Clear 14 1020 47 16093 0.77 279 07:59 06.03.2020
1794 Clear 14 1020 47 16093 0.77 279 07:39 06.03.2020
1795 Clear 15 1021 29 16093 2.1 330 06:59 06.03.2020
1796 Clear 15 1021 29 16093 2.1 330 06:41 06.03.2020
1797 Clear 16 1020 29 16093 1.5 30 05:50 06.03.2020
1798 Clear 17 1020 29 16093 0.77 279 05:31 06.03.2020
1799 Clear 16 1020 22 16093 3.6 30 04:58 06.03.2020
1800 Clear 20 1020 22 16093 3.1 30 02:56 06.03.2020
1801 Clear 22 1020 17 16093 4.1 40 01:41 06.03.2020
1802 Clouds 23 1020 16 16093 2.1 0 01:23 06.03.2020
1803 Clear 23 1021 16 16093 4.6 30 00:37 06.03.2020
1804 Clear 23 1021 16 16093 4.6 30 00:18 06.03.2020
1805 Clear 23 1021 18 16093 5.1 40 23:42 05.03.2020
1806 Clear 23 1021 17 16093 4.6 40 23:19 05.03.2020
1807 Clear 22 1022 17 16093 4.6 40 22:40 05.03.2020
1808 Clouds 22 1023 19 16093 1.97 4 22:22 05.03.2020
1809 Clouds 22 1023 19 16093 1.97 4 22:22 05.03.2020
1810 Clear 22 1023 18 16093 4.6 30 21:57 05.03.2020
1811 Clear 22 1023 18 16093 4.6 30 21:38 05.03.2020
1812 Clouds 21 1024 22 16093 2.1 0 21:20 05.03.2020
1813 Clear 20 1024 22 16093 4.6 30 20:58 05.03.2020
1814 Clear 20 1024 22 16093 4.6 30 20:58 05.03.2020
1815 Clear 20 1024 22 16093 4.6 30 20:39 05.03.2020
1816 Clouds 20 1025 24 16093 3.1 60 20:20 05.03.2020
1817 Clear 19 1025 25 16093 4.6 10 19:58 05.03.2020
1818 Clear 19 1025 25 16093 4.6 10 19:39 05.03.2020
1819 Clouds 19 1025 24 16093 2.1 60 19:19 05.03.2020
1820 Clear 17 1025 23 16093 0.91 10 18:55 05.03.2020
1821 Clouds 17 1025 23 16093 0.91 10 18:36 05.03.2020
1822 Clouds 16 1025 23 16093 0.91 10 18:18 05.03.2020
1823 Clear 15 1025 46 16093 0.91 10 17:42 05.03.2020
1824 Clouds 14 1025 41 16093 0.91 10 17:22 05.03.2020
1825 Haze 12 1025 36 9656 0.39 18 16:57 05.03.2020
1826 Haze 11 1025 36 9656 0.39 18 16:38 05.03.2020
1827 Clouds 10 1024 46 16093 0.39 18 16:19 05.03.2020
1828 Clear 10 1024 61 16093 0.39 18 15:45 05.03.2020
1829 Clouds 10 1024 50 16093 2.6 210 15:23 05.03.2020
1830 Clear 10 1024 36 16093 0.39 18 14:59 05.03.2020
1831 Clear 10 1024 36 16093 0.39 18 14:40 05.03.2020
1832 Clouds 10 1023 50 16093 1.5 230 14:21 05.03.2020
1833 Clear 10 1023 35 16093 0.76 85 13:56 05.03.2020
1834 Clear 10 1023 35 16093 0.76 85 13:37 05.03.2020
1835 Clouds 10 1023 50 16093 3.1 220 13:19 05.03.2020
1836 Clear 11 1023 61 16093 0.75 55 12:41 05.03.2020
1837 Clouds 10 1022 46 16093 0.75 55 12:20 05.03.2020
1838 Clear 10 1022 35 16093 0.75 55 11:57 05.03.2020
1839 Clear 10 1022 35 16093 0.75 55 11:37 05.03.2020
1840 Clouds 11 1022 46 16093 2.6 280 11:19 05.03.2020
1841 Clouds 11 1022 46 16093 2.6 280 11:19 05.03.2020
1842 Clear 11 1022 32 16093 0.84 192 10:57 05.03.2020
1843 Clear 11 1022 32 16093 0.84 192 10:39 05.03.2020
1844 Clear 11 1022 32 16093 0.84 192 10:20 05.03.2020
1845 Clear 11 1022 53 16093 0.84 192 09:45 05.03.2020
1846 Clear 11 1022 53 16093 0.84 192 09:45 05.03.2020
1847 Clear 11 1022 53 16093 0.84 192 09:27 05.03.2020
1848 Clear 12 1022 50 16093 1.5 50 08:48 05.03.2020
1849 Clouds 12 1021 41 16093 2.6 210 08:30 05.03.2020
1850 Clear 13 1021 33 16093 2.1 80 07:50 05.03.2020
1851 Clear 12 1021 33 16093 0.52 187 07:23 05.03.2020
1852 Clear 13 1021 33 16093 0.52 187 06:59 05.03.2020
1853 Clear 14 1021 33 16093 0.52 187 06:41 05.03.2020
1854 Clouds 15 1020 33 16093 0.52 187 06:19 05.03.2020
1855 Clear 14 1021 33 16093 2.1 350 05:32 05.03.2020
1856 Clouds 16 1020 24 16093 1.5 130 04:23 05.03.2020
1857 Clear 17 1020 27 16093 4.6 30 03:58 05.03.2020
1858 Clouds 21 1019 15 16093 3.1 40 02:31 05.03.2020
1859 Clouds 22 1019 15 16093 2.6 80 01:26 05.03.2020
1860 Clear 22 1019 18 16093 2.6 100 00:44 05.03.2020
1861 Clear 22 1020 18 16093 3.1 60 23:56 04.03.2020
1862 Clear 22 1020 18 16093 3.1 60 23:56 04.03.2020
1863 Clear 22 1020 18 16093 3.1 60 23:38 04.03.2020
1864 Clouds 22 1019 18 16093 2.15 3 23:20 04.03.2020
1865 Clear 21 1020 19 16093 2.1 80 22:54 04.03.2020
1866 Clear 21 1020 21 16093 2.15 3 22:36 04.03.2020
1867 Clear 20 1020 21 16093 2.15 3 22:18 04.03.2020
1868 Clear 20 1020 20 16093 2.6 50 21:41 04.03.2020
1869 Clear 19 1021 24 16093 2.1 10 21:21 04.03.2020
1870 Clear 19 1021 24 16093 2.1 60 20:57 04.03.2020
1871 Clear 19 1021 24 16093 2.1 60 20:39 04.03.2020
1872 Clear 18 1022 25 16093 1.5 0 20:21 04.03.2020
1873 Clear 17 1022 25 16093 1.98 2 19:42 04.03.2020
1874 Clear 17 1022 29 16093 2.6 0 19:24 04.03.2020
1875 Clear 16 1022 27 16093 2.6 0 18:58 04.03.2020
1876 Clear 16 1022 27 16093 2.6 0 18:40 04.03.2020
1877 Clear 16 1022 31 16093 2.1 0 18:22 04.03.2020
1878 Clear 15 1021 29 16093 3.1 350 17:56 04.03.2020
1879 Clear 15 1021 29 16093 3.1 350 17:38 04.03.2020
1880 Clear 13 1021 30 16093 3.1 30 17:19 04.03.2020
1881 Clear 12 1021 49 16093 1.02 347 16:44 04.03.2020
1882 Clear 11 1020 50 16093 2.6 210 16:26 04.03.2020
1883 Clear 9 1020 43 16093 3.6 340 15:59 04.03.2020
1884 Clear 9 1020 43 16093 3.6 340 15:41 04.03.2020
1885 Clear 9 1019 57 16093 2.1 220 15:22 04.03.2020
1886 Clear 9 1019 49 16093 3.6 340 14:55 04.03.2020
1887 Clear 9 1019 49 16093 3.6 340 14:37 04.03.2020
1888 Clear 9 1019 53 16093 1.5 200 14:18 04.03.2020
1889 Clear 9 1019 49 16093 2.1 60 13:56 04.03.2020
1890 Clear 9 1018 50 16093 1.5 290 13:37 04.03.2020
1891 Clear 10 1018 50 16093 1.5 290 13:19 04.03.2020
1892 Clear 10 1018 46 16093 0.23 308 12:44 04.03.2020
1893 Clear 11 1018 37 16093 3.1 10 12:25 04.03.2020
1894 Clear 10 1018 46 16093 0.23 308 11:56 04.03.2020
1895 Clear 11 1018 46 16093 0.23 308 11:37 04.03.2020
1896 Clear 10 1018 43 16093 1.5 130 11:19 04.03.2020
1897 Clear 11 1018 40 16093 2.01 45 10:47 04.03.2020
1898 Clear 12 1018 41 16093 2.01 45 10:26 04.03.2020
1899 Clear 12 1018 40 16093 1.5 290 09:58 04.03.2020
1900 Clear 12 1018 40 16093 1.5 290 09:40 04.03.2020
1901 Clear 13 1017 43 16093 2.01 45 09:20 04.03.2020
1902 Clear 13 1017 43 16093 2.01 45 08:43 04.03.2020
1903 Clear 14 1017 33 16093 4.1 30 08:24 04.03.2020
1904 Clear 13 1017 36 16093 3.1 30 07:48 04.03.2020
1905 Clear 14 1017 36 16093 4.1 30 07:30 04.03.2020
1906 Clear 14 1017 36 16093 4.1 40 06:54 04.03.2020
1907 Clear 14 1017 36 16093 4.1 40 06:54 04.03.2020
1908 Clear 14 1016 29 16093 4.6 20 06:27 04.03.2020
1909 Clear 15 1016 29 16093 5.1 40 05:59 04.03.2020
1910 Clear 15 1016 29 16093 5.1 40 05:41 04.03.2020
1911 Clear 17 1015 29 16093 3.1 360 03:58 04.03.2020
1912 Clear 17 1015 29 16093 3.1 360 03:37 04.03.2020
1913 Clear 20 1014 24 16093 3.1 10 02:59 04.03.2020
1914 Clear 21 1014 19 16093 5.1 40 02:31 04.03.2020
1915 Clear 20 1014 19 16093 5.7 20 01:57 04.03.2020
1916 Clear 21 1014 19 16093 5.7 20 01:37 04.03.2020
1917 Clear 22 1014 18 16093 6.7 360 00:42 04.03.2020
1918 Clear 21 1014 18 16093 8.7 30 00:24 04.03.2020
1919 Clear 21 1014 19 16093 6.7 360 23:44 03.03.2020
1920 Clear 21 1015 19 16093 6.7 360 23:24 03.03.2020
1921 Clear 20 1015 19 16093 4.6 360 22:56 03.03.2020
1922 Clear 20 1015 19 16093 4.6 360 22:37 03.03.2020
1923 Clear 20 1015 20 16093 6.7 330 22:19 03.03.2020
1924 Clear 19 1016 19 16093 6.7 10 21:55 03.03.2020
1925 Clear 19 1016 20 16093 6.7 360 21:36 03.03.2020
1926 Clear 19 1016 20 16093 6.7 360 21:18 03.03.2020
1927 Clear 18 1017 18 16093 7.2 20 20:40 03.03.2020
1928 Clear 17 1017 20 16093 6.7 10 20:19 03.03.2020
1929 Clear 17 1017 20 16093 6.7 10 20:19 03.03.2020
1930 Clear 16 1017 21 16093 7.7 360 19:57 03.03.2020
1931 Clear 16 1017 21 16093 7.7 360 19:37 03.03.2020
1932 Clear 16 1018 21 16093 8.2 360 19:19 03.03.2020
1933 Clear 15 1018 22 16093 6.7 340 18:57 03.03.2020
1934 Clear 15 1018 22 16093 6.7 340 18:39 03.03.2020
1935 Clear 14 1018 21 16093 6.7 20 18:19 03.03.2020
1936 Clear 14 1018 21 16093 6.7 20 18:19 03.03.2020
1937 Clear 13 1018 22 16093 6.2 330 17:55 03.03.2020
1938 Clouds 13 1018 20 16093 7.7 10 17:37 03.03.2020
1939 Clouds 12 1018 20 16093 7.7 10 17:18 03.03.2020
1940 Clear 11 1017 23 16093 5.7 340 16:55 03.03.2020
1941 Clear 11 1018 23 16093 6.2 20 16:36 03.03.2020
1942 Clear 10 1018 23 16093 6.2 20 16:18 03.03.2020
1943 Clear 10 1018 23 16093 6.2 20 16:18 03.03.2020
1944 Clear 9 1017 25 16093 6.2 350 15:43 03.03.2020
1945 Clear 9 1017 22 16093 6.7 10 15:21 03.03.2020
1946 Clear 9 1017 22 16093 6.7 10 15:21 03.03.2020
1947 Clear 9 1016 23 16093 7.7 350 14:55 03.03.2020
1948 Clear 8 1016 22 16093 9.8 360 14:36 03.03.2020
1949 Clear 9 1016 22 16093 9.8 360 14:18 03.03.2020
1950 Clear 9 1016 23 16093 5.7 340 13:42 03.03.2020
1951 Clear 9 1016 22 16093 5.7 350 13:24 03.03.2020
1952 Clear 9 1016 21 16093 5.1 350 12:55 03.03.2020
1953 Clear 8 1016 20 16093 8.7 350 12:37 03.03.2020
1954 Clear 9 1016 20 16093 8.7 350 12:18 03.03.2020
1955 Clear 9 1015 18 16093 7.7 350 11:39 03.03.2020
1956 Clear 9 1016 20 16093 7.2 350 11:20 03.03.2020
1957 Clear 9 1015 18 16093 9.3 350 10:57 03.03.2020
1958 Clear 10 1015 18 16093 9.3 350 10:39 03.03.2020
1959 Clear 10 1016 19 16093 7.2 340 10:19 03.03.2020
1960 Clear 10 1015 17 16093 9.3 340 09:59 03.03.2020
1961 Clear 10 1015 17 16093 9.3 340 09:40 03.03.2020
1962 Clear 10 1015 17 16093 10.3 350 09:19 03.03.2020
1963 Clear 11 1015 18 16093 9.3 340 08:41 03.03.2020
1964 Clear 11 1016 24 16093 4.6 350 08:22 03.03.2020
1965 Clear 11 1014 19 16093 9.8 360 07:45 03.03.2020
1966 Clouds 11 1016 20 16093 6.2 360 07:24 03.03.2020
1967 Clear 11 1014 19 16093 12.3 10 06:59 03.03.2020
1968 Clear 12 1014 19 16093 12.3 10 06:39 03.03.2020
1969 Clouds 13 1015 20 16093 5.1 10 06:18 03.03.2020
1970 Clear 13 1014 24 16093 10.8 10 05:39 03.03.2020
1971 Clear 13 1013 26 16093 7.7 360 04:48 03.03.2020
1972 Clear 15 1012 26 16093 8.2 350 02:37 03.03.2020
1973 Clouds 16 1012 25 16093 8.2 330 01:21 03.03.2020
1974 Clouds 16 1012 27 16093 8.2 360 00:40 03.03.2020
1975 Clouds 16 1012 27 16093 8.2 360 00:20 03.03.2020
1976 Clear 16 1011 25 16093 11.8 10 23:43 02.03.2020
1977 Clouds 16 1013 26 16093 7.7 10 23:23 02.03.2020
1978 Clear 16 1012 25 16093 10.3 10 22:56 02.03.2020
1979 Clear 16 1012 25 16093 10.3 10 22:56 02.03.2020
1980 Clear 16 1012 25 16093 10.3 10 22:56 02.03.2020
1981 Clear 15 1012 25 16093 10.3 10 22:38 02.03.2020
1982 Clouds 15 1013 30 16093 5.1 10 22:19 02.03.2020
1983 Clouds 14 1013 28 16093 8.7 350 21:43 02.03.2020
1984 Clouds 14 1015 33 16093 7.2 20 21:24 02.03.2020
1985 Clear 13 1014 30 16093 9.8 360 20:59 02.03.2020
1986 Clear 13 1014 30 16093 9.8 360 20:41 02.03.2020
1987 Clouds 13 1016 35 16093 7.7 10 20:22 02.03.2020
1988 Clouds 12 1015 32 16093 8.2 360 19:57 02.03.2020
1989 Clouds 12 1015 32 16093 8.2 360 19:39 02.03.2020
1990 Clouds 11 1016 37 16093 8.7 10 19:20 02.03.2020
1991 Clouds 11 1015 37 16093 6.7 350 18:55 02.03.2020
1992 Clouds 10 1015 37 16093 6.7 350 18:37 02.03.2020
1993 Clouds 10 1015 39 16093 9.8 340 18:18 02.03.2020
1994 Clouds 9 1015 39 16093 8.7 360 17:56 02.03.2020
1995 Clouds 9 1015 39 16093 8.7 360 17:37 02.03.2020
1996 Clouds 8 1015 42 16093 7.7 350 17:19 02.03.2020
1997 Clouds 8 1014 45 16093 8.2 350 16:41 02.03.2020
1998 Clouds 8 1014 45 16093 8.2 350 16:23 02.03.2020
1999 Clouds 7 1014 56 16093 6.2 350 15:45 02.03.2020
2000 Clouds 7 1014 56 16093 6.2 350 15:45 02.03.2020
2001 Clouds 7 1013 70 16093 5.1 350 15:22 02.03.2020
2002 Clouds 7 1013 47 16093 8.7 350 14:58 02.03.2020
2003 Clouds 6 1013 47 16093 8.7 350 14:37 02.03.2020
2004 Clouds 6 1013 47 16093 8.7 350 14:37 02.03.2020
2005 Clouds 6 1013 75 16093 3.1 10 14:19 02.03.2020
2006 Rain 6 1013 75 16093 6.7 350 13:44 02.03.2020
2007 Rain 6 1013 81 14484 2.6 60 13:20 02.03.2020
2008 Rain 6 1014 86 16093 4.1 30 12:59 02.03.2020
2009 Rain 6 1014 86 16093 4.1 30 12:40 02.03.2020
2010 Rain 6 1013 87 12874 4.1 50 12:18 02.03.2020
2011 Rain 6 1013 81 16093 5.7 340 11:38 02.03.2020
2012 Rain 6 1014 81 14484 3.6 30 11:19 02.03.2020
2013 Rain 6 1013 81 16093 7.2 340 10:55 02.03.2020
2014 Rain 6 1013 81 16093 7.2 340 10:37 02.03.2020
2015 Rain 7 1014 75 14484 4.6 10 10:18 02.03.2020
2016 Rain 6 1013 87 12874 3.6 10 09:47 02.03.2020
2017 Rain 6 1014 87 16093 5.1 20 09:28 02.03.2020
2018 Rain 7 1014 87 16093 3.6 10 08:48 02.03.2020
2019 Rain 7 1013 87 12874 4.6 360 08:22 02.03.2020
2020 Rain 8 1013 87 14484 5.1 20 07:50 02.03.2020
2021 Rain 8 1012 70 14484 5.7 290 07:31 02.03.2020
2022 Rain 8 1012 70 12874 4.6 320 06:50 02.03.2020
2023 Rain 9 1011 87 9656 8.7 200 06:25 02.03.2020
2024 Rain 10 1011 46 16093 9.8 330 05:24 02.03.2020
2025 Rain 13 1008 35 16093 4.1 280 03:27 02.03.2020
2026 Clouds 13 1007 28 16093 6.7 280 02:55 02.03.2020
2027 Rain 13 1007 41 16093 4.6 280 02:30 02.03.2020
2028 Clouds 14 1007 41 16093 6.7 300 01:36 02.03.2020
2029 Rain 15 1007 31 16093 11.3 270 01:18 02.03.2020
2030 Rain 16 1006 25 16093 8.2 240 00:22 02.03.2020
2031 Clouds 17 1006 22 16093 8.7 240 23:42 01.03.2020
2032 Clouds 17 1006 25 16093 10.3 240 23:22 01.03.2020
2033 Clouds 17 1007 22 16093 11.3 240 22:44 01.03.2020
2034 Clouds 17 1006 27 16093 9.8 240 22:21 01.03.2020
2035 Clear 17 1008 20 16093 10.3 240 21:58 01.03.2020
2036 Clear 17 1008 20 16093 10.3 240 21:39 01.03.2020
2037 Clouds 17 1007 27 16093 8.2 230 21:20 01.03.2020
2038 Clouds 17 1009 23 16093 8.2 220 20:45 01.03.2020
2039 Clouds 16 1008 27 16093 5.7 220 20:26 01.03.2020
2040 Clear 16 1009 25 16093 7.7 220 19:59 01.03.2020
2041 Clear 15 1009 25 16093 7.7 220 19:41 01.03.2020
2042 Clouds 16 1008 29 16093 6.7 200 19:21 01.03.2020
2043 Clouds 16 1008 29 16093 6.7 200 19:21 01.03.2020
2044 Clear 15 1009 23 16093 8.7 210 18:56 01.03.2020
2045 Clear 15 1009 23 16093 8.7 210 18:38 01.03.2020
2046 Clouds 15 1008 26 16093 8.7 230 18:18 01.03.2020
2047 Clear 14 1009 21 16093 7.2 190 17:55 01.03.2020
2048 Clouds 14 1007 30 16093 6.7 210 17:36 01.03.2020
2049 Clouds 14 1007 30 16093 6.7 210 17:18 01.03.2020
2050 Clear 13 1009 30 16093 6.09 180 16:40 01.03.2020
2051 Clear 13 1009 30 16093 6.09 180 16:40 01.03.2020
2052 Clear 13 1009 30 16093 6.09 180 16:40 01.03.2020
2053 Clouds 12 1007 30 16093 5.7 210 16:20 01.03.2020
2054 Clear 12 1008 34 16093 4.1 170 15:59 01.03.2020
2055 Clear 12 1008 34 16093 4.1 170 15:40 01.03.2020
2056 Clouds 12 1007 28 16093 5.7 210 15:22 01.03.2020
2057 Clear 13 1008 29 16093 6.09 180 14:58 01.03.2020
2058 Clear 13 1008 29 16093 6.09 180 14:39 01.03.2020
2059 Clouds 13 1006 28 16093 6.7 210 14:21 01.03.2020
2060 Clouds 13 1006 28 16093 6.7 210 14:21 01.03.2020
2061 Clouds 13 1006 28 16093 6.7 210 14:21 01.03.2020
2062 Clear 12 1008 30 16093 2.1 190 13:57 01.03.2020
2063 Clear 12 1008 30 16093 2.1 190 13:38 01.03.2020
2064 Clear 12 1008 30 16093 2.1 190 13:38 01.03.2020
2065 Clouds 13 1007 30 16093 5.7 200 13:19 01.03.2020
2066 Clouds 13 1007 30 16093 5.7 200 13:19 01.03.2020
2067 Clear 13 1008 32 16093 2.1 220 12:44 01.03.2020
2068 Clouds 14 1007 30 16093 4.6 190 12:23 01.03.2020
2069 Clouds 14 1007 30 16093 4.6 190 12:23 01.03.2020
2070 Clear 13 1008 32 16093 2.6 0 11:58 01.03.2020
2071 Clear 14 1008 32 16093 2.6 0 11:39 01.03.2020
2072 Clouds 14 1008 26 16093 6.2 200 11:19 01.03.2020
2073 Clear 14 1009 28 16093 3.1 180 10:56 01.03.2020
2074 Clouds 14 1008 25 16093 5.7 190 10:37 01.03.2020
2075 Clouds 14 1008 25 16093 5.7 190 10:18 01.03.2020
2076 Clear 14 1009 28 16093 2.6 210 09:42 01.03.2020
2077 Clear 14 1009 28 16093 2.6 210 09:42 01.03.2020
2078 Clear 15 1009 26 16093 2.6 210 09:23 01.03.2020
2079 Clear 14 1009 24 16093 3.1 150 08:46 01.03.2020
2080 Clouds 14 1008 21 16093 6.7 200 08:28 01.03.2020
2081 Clear 13 1010 21 16093 2.1 180 07:56 01.03.2020
2082 Clear 13 1010 21 16093 2.1 180 07:38 01.03.2020
2083 Clouds 13 1009 50 16093 1.5 30 07:19 01.03.2020
2084 Clouds 14 1011 19 16093 2.1 180 06:41 01.03.2020
2085 Clouds 14 1010 31 16093 2.1 250 05:35 01.03.2020
2086 Clear 18 1011 22 16093 6.2 160 02:59 01.03.2020
2087 Clouds 18 1011 24 16093 1.5 60 02:18 01.03.2020
2088 Clouds 18 1011 24 16093 2.1 40 01:36 01.03.2020
2089 Clear 19 1012 18 16093 4.6 160 00:49 01.03.2020
2090 Clouds 19 1012 24 16093 1.5 60 00:25 01.03.2020
2091 Clear 19 1013 19 16093 4.6 180 23:58 29.02.2020
2092 Clear 18 1013 19 16093 4.6 180 23:40 29.02.2020
2093 -273 0 0 0 0 0 23:21 29.02.2020
2094 Clouds 18 1013 25 16093 2.1 50 22:38 29.02.2020
2095 Clouds 17 1014 27 16093 2.1 0 22:19 29.02.2020
2096 Clear 17 1015 25 16093 1.5 0 21:39 29.02.2020
2097 Clouds 17 1015 29 16093 2.74 138 21:19 29.02.2020
2098 Clear 16 1016 27 16093 2.74 138 20:41 29.02.2020
2099 Clouds 16 1016 28 16093 1.5 60 20:20 29.02.2020
2100 Clear 15 1017 29 16093 1.5 0 19:55 29.02.2020
2101 Clear 15 1017 29 16093 1.5 0 19:55 29.02.2020
2102 Clouds 15 1017 30 16093 0.81 76 19:36 29.02.2020
2103 Clouds 14 1017 30 16093 0.81 76 19:18 29.02.2020
2104 Clear 14 1017 21 16093 0.81 76 18:42 29.02.2020
2105 Clouds 13 1017 30 16093 1.5 40 18:22 29.02.2020
2106 Clear 13 1017 37 16093 0.81 76 17:56 29.02.2020
2107 Clear 13 1017 37 16093 0.81 76 17:37 29.02.2020
2108 Clear 11 1017 50 16093 0.54 88 17:19 29.02.2020
2109 Clear 10 1017 46 16093 0.54 88 16:44 29.02.2020
2110 Clear 10 1017 33 16093 1.5 30 16:19 29.02.2020
2111 Clear 9 1017 49 16093 1.5 210 15:56 29.02.2020
2112 Clear 9 1017 52 16093 0.54 88 15:36 29.02.2020
2113 Clear 9 1017 52 16093 0.54 88 15:18 29.02.2020
2114 Clear 8 1017 56 16093 1.5 80 14:39 29.02.2020
2115 Clouds 9 1017 39 16093 2.1 300 14:21 29.02.2020
2116 Clear 9 1017 49 16093 0.59 164 13:45 29.02.2020
2117 Clear 9 1017 49 16093 0.59 164 13:45 29.02.2020
2118 Clear 9 1017 52 16093 0.95 180 13:27 29.02.2020
2119 Clear 9 1017 46 16093 0.95 180 12:57 29.02.2020
2120 Clear 9 1017 46 16093 0.95 180 12:38 29.02.2020
2121 Clear 10 1017 49 16093 0.95 180 12:20 29.02.2020
2122 Clear 10 1018 49 16093 1.5 320 11:45 29.02.2020
2123 Clouds 10 1018 34 16093 0.95 180 11:26 29.02.2020
2124 -273 0 0 0 0 0 10:51 29.02.2020
2125 Clear 9 1019 43 16093 1.38 184 10:31 29.02.2020
2126 Clear 9 1019 43 16093 1.38 184 10:31 29.02.2020
2127 Clear 10 1019 45 16093 1.38 184 09:56 29.02.2020
2128 Clear 10 1019 45 16093 1.38 184 09:56 29.02.2020
2129 Clear 10 1019 52 16093 1.38 184 09:37 29.02.2020
2130 Clear 10 1019 52 16093 1.38 184 09:18 29.02.2020
2131 Clear 10 1020 49 16093 1.38 184 08:40 29.02.2020
2132 Clouds 11 1020 32 16093 1.5 210 08:20 29.02.2020
2133 Clear 11 1020 46 16093 0.78 238 07:51 29.02.2020
2134 Clear 11 1020 46 16093 0.78 238 07:22 29.02.2020
2135 Clear 12 1021 40 16093 1.5 310 06:54 29.02.2020
2136 Clear 12 1021 40 16093 0.78 238 06:29 29.02.2020
2137 Clear 13 1021 40 16093 2.6 350 05:50 29.02.2020
2138 Clouds 13 1020 25 16093 1.5 250 05:31 29.02.2020
2139 Clear 15 1021 35 16093 2.6 40 03:55 29.02.2020
2140 Clouds 15 1020 17 16093 0.84 341 03:24 29.02.2020
2141 Clear 18 1021 27 16093 2.6 50 02:52 29.02.2020
2142 Clear 19 1021 19 16093 3.1 40 01:55 29.02.2020
2143 Clear 20 1021 19 16093 4.1 40 00:49 29.02.2020
2144 Clouds 20 1022 15 16093 0.84 353 00:27 29.02.2020
2145 Clear 20 1022 19 16093 3.1 40 23:41 28.02.2020
2146 Clouds 20 1022 15 16093 2.6 90 23:22 28.02.2020
2147 Clear 19 1022 16 16093 5.1 40 22:42 28.02.2020
2148 Clouds 19 1023 16 16093 4.1 30 22:22 28.02.2020
2149 Clear 19 1023 16 16093 5.7 50 21:42 28.02.2020
2150 Clear 19 1023 16 16093 5.1 50 21:22 28.02.2020
2151 Clear 19 1024 20 16093 3.1 0 20:57 28.02.2020
2152 Clear 18 1024 20 16093 3.1 0 20:38 28.02.2020
2153 Clouds 17 1025 18 16093 3.1 70 20:20 28.02.2020
2154 Clear 17 1026 23 16093 3.6 310 19:56 28.02.2020
2155 Clear 17 1026 23 16093 3.6 310 19:38 28.02.2020
2156 Clouds 16 1026 18 16093 2.6 50 19:19 28.02.2020
2157 Clear 15 1026 37 16093 2.01 1 18:46 28.02.2020
2158 Clouds 15 1026 25 16093 1.5 40 18:24 28.02.2020
2159 Clouds 13 1026 30 16093 2.01 1 17:56 28.02.2020
2160 Clouds 13 1026 30 16093 2.01 1 17:36 28.02.2020
2161 Clouds 13 1026 30 16093 2.01 1 17:36 28.02.2020
2162 Clouds 12 1026 30 16093 1.37 336 17:18 28.02.2020
2163 Clear 9 1026 45 16093 1.37 336 16:38 28.02.2020
2164 Clear 10 1025 39 16093 1.37 336 16:19 28.02.2020
2165 Clear 10 1025 39 16093 1.37 336 16:19 28.02.2020
2166 Clear 10 1025 56 16093 1.37 336 15:56 28.02.2020
2167 Clear 9 1025 56 16093 1.37 336 15:37 28.02.2020
2168 Clouds 10 1025 34 16093 2.1 220 15:18 28.02.2020
2169 Clear 10 1025 42 16093 1.37 336 14:45 28.02.2020
2170 Clouds 10 1025 34 16093 2.1 200 14:19 28.02.2020
2171 Clear 9 1025 45 16093 2.1 90 13:58 28.02.2020
2172 Clear 9 1025 45 16093 2.1 90 13:40 28.02.2020
2173 Clouds 9 1025 37 16093 1.5 220 13:19 28.02.2020
2174 Clear 9 1025 49 16093 1.26 341 12:44 28.02.2020
2175 Clouds 10 1026 34 16093 3.1 280 12:26 28.02.2020
2176 Clear 10 1025 45 16093 1.26 341 11:56 28.02.2020
2177 Clear 10 1025 45 16093 2.1 0 11:37 28.02.2020
2178 Clear 10 1025 45 16093 2.1 0 11:19 28.02.2020
2179 Clear 11 1025 42 16093 1.5 220 10:43 28.02.2020
2180 Clouds 11 1025 32 16093 1.5 220 10:23 28.02.2020
2181 Clear 11 1025 39 16093 1.5 320 09:47 28.02.2020
2182 Clouds 11 1025 28 16093 2.1 240 09:22 28.02.2020
2183 Clear 12 1026 32 16093 1.44 352 08:58 28.02.2020
2184 Clear 12 1026 32 16093 1.44 352 08:40 28.02.2020
2185 Clear 12 1026 26 16093 2.1 50 08:20 28.02.2020
2186 Clear 12 1026 34 16093 3.1 20 07:42 28.02.2020
2187 Clouds 12 1026 24 16093 2.1 210 07:24 28.02.2020
2188 Clear 13 1026 34 16093 2.6 10 06:47 28.02.2020
2189 Clouds 13 1026 24 16093 1.5 210 06:26 28.02.2020
2190 Clear 14 1025 28 16093 2.6 360 04:47 28.02.2020
2191 Clear 15 1025 30 16093 1 60 04:19 28.02.2020
2192 Clear 19 1025 18 16093 1.12 305 02:46 28.02.2020
2193 Clouds 20 1024 12 16093 1.5 360 02:27 28.02.2020
2194 Clouds 20 1025 13 16093 2.42 336 01:23 28.02.2020
2195 Clear 20 1025 16 16093 2.42 336 00:28 28.02.2020
2196 Clear 20 1025 16 16093 2.6 40 23:42 27.02.2020
2197 Clear 19 1025 17 16093 2.34 359 23:21 27.02.2020
2198 Clear 19 1026 17 16093 2.34 359 22:46 27.02.2020
2199 Clear 19 1026 17 16093 2.6 30 22:26 27.02.2020
2200 Clear 18 1027 20 16093 3.6 50 21:59 27.02.2020
2201 Clear 18 1027 20 16093 3.6 50 21:39 27.02.2020
2202 Clear 18 1027 20 16093 3.1 50 21:19 27.02.2020
2203 Clear 17 1028 23 16093 3.1 40 20:57 27.02.2020
2204 Clear 17 1028 23 16093 3.1 40 20:38 27.02.2020
2205 Clear 16 1028 25 16093 1.57 350 20:20 27.02.2020
2206 Clear 16 1028 25 16093 1.49 339 20:20 27.02.2020
2207 Clear 16 1028 25 16093 1.49 339 20:20 27.02.2020
2208 Clear 15 1029 28 16093 1.49 339 19:55 27.02.2020
2209 Clear 14 1029 28 16093 1.49 339 19:37 27.02.2020
2210 Clear 14 1029 26 16093 1.49 339 19:18 27.02.2020
2211 Clear 13 1029 27 16093 2.6 220 18:40 27.02.2020
2212 Clouds 13 1029 24 16093 1.49 339 18:22 27.02.2020
2213 Clear 11 1029 39 16093 1.49 339 17:58 27.02.2020
2214 Clear 11 1029 39 16093 1.49 339 17:39 27.02.2020
2215 Clouds 10 1029 31 16093 0.61 307 17:19 27.02.2020
2216 Clear 7 1028 48 16093 0.61 307 16:56 27.02.2020
2217 Clear 6 1028 48 16093 0.61 307 16:37 27.02.2020
2218 Clear 6 1028 39 16093 2.1 210 16:18 27.02.2020
2219 Clear 5 1028 44 16093 0.61 307 15:56 27.02.2020
2220 Clouds 5 1027 41 16093 1.5 210 15:36 27.02.2020
2221 Clouds 5 1027 41 16093 1.5 210 15:18 27.02.2020
2222 Clouds 5 1027 41 16093 1.5 210 15:18 27.02.2020
2223 Clouds 5 1027 41 16093 1.5 210 15:18 27.02.2020
2224 Clear 5 1028 51 16093 0.61 307 14:41 27.02.2020
2225 Clouds 5 1027 41 16093 0.61 307 14:23 27.02.2020
2226 Clear 5 1027 51 16093 0.78 337 13:57 27.02.2020
2227 Clear 6 1027 51 16093 0.78 337 13:38 27.02.2020
2228 Clear 6 1027 39 16093 2.1 220 13:20 27.02.2020
2229 Clear 6 1027 51 16093 0.7 324 12:45 27.02.2020
2230 Clear 6 1027 39 16093 2.6 210 12:22 27.02.2020
2231 Clear 6 1027 41 16093 0.7 324 11:56 27.02.2020
2232 Clear 6 1027 41 16093 0.7 324 11:37 27.02.2020
2233 Clear 6 1027 39 16093 1.5 210 11:18 27.02.2020
2234 Clear 7 1027 36 16093 0.25 316 10:41 27.02.2020
2235 Clear 7 1027 36 16093 0.25 316 10:20 27.02.2020
2236 Clear 7 1027 52 16093 0.25 316 09:45 27.02.2020
2237 Clear 7 1027 39 16093 0.25 316 09:26 27.02.2020
2238 Clear 7 1027 42 16093 0.25 316 08:55 27.02.2020
2239 Clear 8 1027 42 16093 0.25 316 08:37 27.02.2020
2240 Clear 8 1027 29 16093 1.5 200 08:18 27.02.2020
2241 Clear 8 1028 42 16093 0.58 304 07:42 27.02.2020
2242 Clear 8 1027 27 16093 1.5 280 07:24 27.02.2020
2243 Clear 9 1028 42 16093 3.1 40 06:23 27.02.2020
2244 Clear 10 1028 31 16093 3.6 170 05:19 27.02.2020
2245 Clear 15 1027 20 16093 3.1 40 02:58 27.02.2020
2246 Clear 16 1027 12 16093 2.1 60 01:32 27.02.2020
2247 Clear 16 1028 14 16093 2.1 50 00:41 27.02.2020
2248 Clear 16 1028 14 16093 2.1 40 23:42 26.02.2020
2249 Clear 15 1029 14 16093 1.5 290 23:23 26.02.2020
2250 Clear 15 1029 15 16093 3.6 40 22:59 26.02.2020
2251 Clear 14 1029 15 16093 3.6 40 22:41 26.02.2020
2252 Clear 14 1030 16 16093 2.25 14 22:22 26.02.2020
2253 Clear 14 1030 16 16093 2.1 80 21:59 26.02.2020
2254 Clear 14 1030 16 16093 2.1 80 21:39 26.02.2020
2255 Clear 14 1031 17 16093 2.1 40 21:20 26.02.2020
2256 Clear 14 1032 17 16093 2.1 40 20:56 26.02.2020
2257 Clear 14 1032 17 16093 2.1 40 20:38 26.02.2020
2258 Clear 14 1032 17 16093 2.1 40 20:38 26.02.2020
2259 Clear 12 1033 19 16093 1.52 350 20:19 26.02.2020
2260 Clear 11 1033 17 16093 2.1 70 19:55 26.02.2020
2261 Clear 11 1034 20 16093 2.6 30 19:36 26.02.2020
2262 Clear 11 1034 20 16093 2.6 30 19:18 26.02.2020
2263 Clear 10 1033 20 16093 4.1 60 18:54 26.02.2020
2264 Clear 11 1033 25 16093 2.1 40 18:36 26.02.2020
2265 Clear 10 1033 25 16093 2.1 40 18:18 26.02.2020
2266 Clear 9 1034 36 16093 2.1 230 17:40 26.02.2020
2267 Clear 7 1034 29 16093 1.5 0 17:19 26.02.2020
2268 Clear 6 1034 41 16093 0.97 320 16:56 26.02.2020
2269 Clear 6 1034 41 16093 0.97 320 16:37 26.02.2020
2270 Clear 5 1033 39 16093 0.97 320 16:18 26.02.2020
2271 Clear 4 1033 44 16093 1.5 140 15:43 26.02.2020
2272 Clear 3 1033 51 16093 0.5 30 15:25 26.02.2020
2273 Clear 4 1033 44 16093 0.97 320 14:43 26.02.2020
2274 Clear 4 1033 44 16093 0.97 320 14:43 26.02.2020
2275 Clear 4 1033 41 16093 0.97 320 14:23 26.02.2020
2276 Clear 4 1033 41 16093 1.06 3 13:44 26.02.2020
2277 Clear 5 1032 36 16093 1.06 3 13:25 26.02.2020
2278 Clear 4 1032 33 16093 3.6 10 12:59 26.02.2020
2279 Clear 5 1032 33 16093 3.6 10 12:38 26.02.2020
2280 Clear 5 1032 36 16093 1.08 15 12:18 26.02.2020
2281 Clear 5 1032 33 16093 4.1 20 11:43 26.02.2020
2282 Clear 5 1033 33 16093 4.1 350 11:23 26.02.2020
2283 Clear 6 1033 30 16093 5.7 350 10:59 26.02.2020
2284 Clear 6 1033 30 16093 5.7 350 10:39 26.02.2020
2285 Clear 6 1033 26 16093 1.5 70 10:21 26.02.2020
2286 Clear 6 1033 33 16093 3.6 10 09:43 26.02.2020
2287 Clear 6 1032 30 16093 4.6 350 09:23 26.02.2020
2288 Clear 6 1033 30 16093 5.1 340 08:56 26.02.2020
2289 Clear 7 1033 25 16093 1.69 25 08:36 26.02.2020
2290 Clear 7 1033 25 16093 3.43 8 08:18 26.02.2020
2291 Clear 7 1032 28 16093 3.6 340 07:42 26.02.2020
2292 Clear 7 1033 38 16093 1.5 160 07:23 26.02.2020
2293 Clear 8 1032 21 16093 4.58 22 06:50 26.02.2020
2294 Clear 8 1031 20 16093 4.6 10 06:31 26.02.2020
2295 Clear 9 1031 18 16093 3.1 20 05:49 26.02.2020
2296 Clear 9 1031 29 16093 1.5 70 05:20 26.02.2020
2297 Clear 10 1030 16 16093 7.2 40 04:19 26.02.2020
2298 Clear 12 1029 20 16093 6.7 40 02:21 26.02.2020
2299 Clear 13 1029 20 16093 6.7 30 01:40 26.02.2020
2300 Clear 14 1029 17 16093 8.2 50 00:48 26.02.2020
2301 Clear 14 1029 15 16093 5.1 60 00:22 26.02.2020
2302 Clear 14 1029 16 16093 7.7 40 23:45 25.02.2020
2303 Clear 14 1029 16 16093 3.1 0 23:26 25.02.2020
2304 Clear 14 1029 15 16093 9.8 40 22:59 25.02.2020
2305 Clear 14 1029 15 16093 9.8 40 22:41 25.02.2020
2306 Clear 14 1030 16 16093 6.2 40 22:19 25.02.2020
2307 Clear 14 1030 16 16093 8.7 50 21:39 25.02.2020
2308 Clear 14 1030 16 16093 8.7 50 21:39 25.02.2020
2309 Clear 14 1030 16 16093 6.7 60 21:21 25.02.2020
2310 Clear 13 1030 17 16093 11.8 40 20:58 25.02.2020
2311 Clear 13 1030 17 16093 11.8 40 20:39 25.02.2020
2312 Clear 12 1031 17 16093 8.7 40 20:20 25.02.2020
2313 Clear 12 1030 18 16093 13.9 40 19:59 25.02.2020
2314 Clear 11 1030 18 16093 13.9 40 19:40 25.02.2020
2315 Clear 11 1031 18 16093 8.2 50 19:19 25.02.2020
2316 Clear 11 1030 21 16093 8.2 30 18:42 25.02.2020
2317 Clear 11 1029 18 16093 9.3 70 18:21 25.02.2020
2318 Clear 11 1029 25 16093 11.3 30 17:58 25.02.2020
2319 Clear 11 1029 25 16093 11.3 30 17:38 25.02.2020
2320 Clear 10 1029 20 16093 9.3 50 17:19 25.02.2020
2321 Clear 10 1028 18 16093 6.7 70 16:58 25.02.2020
2322 Clear 9 1028 18 16093 6.7 70 16:39 25.02.2020
2323 Clear 9 1027 17 16093 7.2 50 16:21 25.02.2020
2324 Clear 9 1027 24 16093 3.1 350 15:56 25.02.2020
2325 Clear 9 1027 24 16093 3.1 350 15:37 25.02.2020
2326 Clear 9 1026 18 16093 5.1 50 15:18 25.02.2020
2327 Clear 9 1026 18 16093 5.1 350 14:54 25.02.2020
2328 Clear 9 1025 18 16093 5.1 50 14:36 25.02.2020
2329 Clear 9 1025 18 16093 5.1 50 14:18 25.02.2020
2330 Clear 9 1025 15 16093 5.1 360 13:54 25.02.2020
2331 Clear 10 1024 20 16093 3.1 40 13:36 25.02.2020
2332 Clear 10 1024 20 16093 3.1 40 13:18 25.02.2020
2333 Clear 11 1024 13 16093 5.7 340 12:39 25.02.2020
2334 Clear 11 1023 14 16093 7.7 340 12:20 25.02.2020
2335 Clear 10 1023 14 16093 8.2 350 11:56 25.02.2020
2336 Clear 9 1024 17 16093 4.6 350 11:38 25.02.2020
2337 Clear 10 1024 17 16093 4.6 350 11:18 25.02.2020
2338 Clear 10 1024 29 16093 4.6 340 10:56 25.02.2020
2339 Clear 11 1024 29 16093 4.6 340 10:38 25.02.2020
2340 Clear 11 1024 32 16093 5.7 330 10:19 25.02.2020
2341 Clear 11 1024 37 16093 4.6 340 09:40 25.02.2020
2342 Clear 11 1023 34 16093 4.1 10 09:19 25.02.2020
2343 Clear 11 1023 30 16093 4.6 30 08:43 25.02.2020
2344 Clear 11 1023 24 16093 3.1 20 08:24 25.02.2020
2345 Clear 11 1023 32 16093 3.6 350 07:50 25.02.2020
2346 Clear 11 1023 37 16093 3.6 10 07:25 25.02.2020
2347 Clear 12 1022 40 16093 2.1 0 06:57 25.02.2020
2348 Clear 12 1022 24 16093 1.87 27 06:26 25.02.2020
2349 Clear 12 1022 37 16093 2.6 290 05:23 25.02.2020
2350 Clear 17 1021 31 16093 2.6 10 02:38 25.02.2020
2351 Clear 19 1021 24 16093 5.1 50 00:59 25.02.2020
2352 Clouds 20 1021 30 16093 5.1 110 00:33 25.02.2020
2353 Clouds 20 1021 28 16093 3.6 110 23:56 24.02.2020
2354 Clouds 20 1021 28 16093 3.6 110 23:37 24.02.2020
2355 Clouds 20 1021 28 16093 3.6 110 23:18 24.02.2020
2356 Clear 19 1022 34 16093 6.7 40 22:37 24.02.2020
2357 Clouds 20 1022 24 16093 4.6 90 22:19 24.02.2020
2358 Clear 19 1022 21 16093 3.1 20 21:55 24.02.2020
2359 Clear 20 1022 21 16093 3.1 20 21:37 24.02.2020
2360 Clouds 19 1023 29 16093 4.1 70 21:18 24.02.2020
2361 Clear 19 1023 45 16093 6.2 60 20:55 24.02.2020
2362 Clear 18 1023 45 16093 6.2 60 20:37 24.02.2020
2363 Clear 17 1024 45 16093 3.1 100 20:18 24.02.2020
2364 Clear 16 1024 51 16093 3.6 40 19:55 24.02.2020
2365 Clear 16 1024 51 16093 3.6 40 19:37 24.02.2020
2366 Clouds 16 1024 51 16093 2.6 90 19:19 24.02.2020
2367 Clear 16 1024 54 16093 3.6 40 18:41 24.02.2020
2368 Clear 15 1024 62 16093 3.6 50 18:23 24.02.2020
2369 Clear 15 1024 76 16093 2 1 17:57 24.02.2020
2370 Clear 14 1024 76 16093 2 1 17:38 24.02.2020
2371 Clear 13 1024 71 16093 1.09 326 17:19 24.02.2020
2372 -273 0 0 0 0 0 16:55 24.02.2020
2373 Clouds 10 1022 50 16093 2.6 210 16:36 24.02.2020
2374 Clouds 10 1022 50 16093 2.6 210 16:18 24.02.2020
2375 Clouds 10 1022 50 16093 2.6 210 16:18 24.02.2020
2376 Clear 10 1022 81 16093 3.6 40 15:55 24.02.2020
2377 Clear 9 1022 76 16093 4.1 30 15:37 24.02.2020
2378 Clear 9 1022 76 16093 4.1 30 15:18 24.02.2020
2379 Clear 10 1021 33 16093 7.7 320 14:40 24.02.2020
2380 Clear 10 1022 81 16093 3.6 10 14:22 24.02.2020
2381 Clear 10 1021 81 16093 3.6 60 13:58 24.02.2020
2382 Clear 10 1021 81 16093 3.6 60 13:40 24.02.2020
2383 Clouds 10 1021 61 16093 2.1 200 13:22 24.02.2020
2384 Clear 10 1021 76 16093 2.6 30 12:57 24.02.2020
2385 Clear 10 1021 76 16093 2.6 30 12:39 24.02.2020
2386 Clear 9 1021 81 16093 2.1 20 12:21 24.02.2020
2387 Clear 9 1021 76 16093 3.1 50 11:46 24.02.2020
2388 Clear 9 1021 81 16093 2.6 30 11:28 24.02.2020
2389 Clear 9 1022 76 16093 2.1 30 10:48 24.02.2020
2390 Clear 10 1022 81 16093 2.31 225 10:30 24.02.2020
2391 Clear 10 1022 81 16093 2.31 225 09:55 24.02.2020
2392 Clear 10 1023 62 16093 1.5 220 09:37 24.02.2020
2393 Clear 10 1023 62 16093 1.5 220 09:18 24.02.2020
2394 Clear 10 1022 81 16093 2.1 50 08:47 24.02.2020
2395 Clear 11 1022 76 16093 2.31 225 08:28 24.02.2020
2396 Clear 11 1022 76 16093 2.41 223 07:48 24.02.2020
2397 Clouds 11 1021 62 16093 1.5 280 07:28 24.02.2020
2398 Clear 12 1022 76 16093 2.1 50 06:37 24.02.2020
2399 Clear 12 1022 71 16093 2.41 223 06:18 24.02.2020
2400 Clouds 12 1021 58 16093 1.5 90 05:30 24.02.2020
2401 Clear 13 1021 58 16093 3.1 60 04:42 24.02.2020
2402 Clear 16 1021 45 16093 2.1 110 02:56 24.02.2020
2403 Clear 17 1021 39 16093 3.6 110 01:47 24.02.2020
2404 Clear 18 1020 30 16093 1.5 0 01:18 24.02.2020
2405 Clouds 18 1020 34 16093 3.1 0 00:36 24.02.2020
2406 Clouds 19 1020 34 16093 3.1 0 00:18 24.02.2020
2407 Clear 18 1021 39 16093 2.1 30 23:41 23.02.2020
2408 Clouds 18 1020 45 16093 3.1 60 23:20 23.02.2020
2409 Clear 18 1020 39 16093 2.6 20 22:57 23.02.2020
2410 Clear 18 1020 39 16093 2.6 20 22:39 23.02.2020
2411 Clouds 17 1020 45 16093 2.1 0 22:19 23.02.2020
2412 Clear 17 1021 48 16093 1.5 0 21:45 23.02.2020
2413 Clouds 17 1021 48 16093 1.5 0 21:20 23.02.2020
2414 Clear 16 1022 48 16093 5.7 330 20:57 23.02.2020
2415 Clear 16 1022 48 16093 5.7 330 20:57 23.02.2020
2416 Clear 16 1022 48 16093 5.7 330 20:39 23.02.2020
2417 Clouds 15 1021 51 16093 1.5 80 20:20 23.02.2020
2418 Clear 14 1022 54 16093 3.6 330 19:57 23.02.2020
2419 Clear 14 1022 54 16093 3.6 330 19:38 23.02.2020
2420 Clouds 13 1021 58 16093 0.92 268 19:18 23.02.2020
2421 Clear 13 1022 66 16093 3.1 350 18:56 23.02.2020
2422 Clouds 12 1021 62 16093 1.5 0 18:36 23.02.2020
2423 Clouds 12 1021 62 16093 1.5 0 18:18 23.02.2020
2424 Clear 12 1021 76 16093 2.1 110 17:56 23.02.2020
2425 Clouds 11 1021 76 16093 0.92 268 17:37 23.02.2020
2426 Clouds 10 1021 76 16093 2.63 223 17:18 23.02.2020
2427 Clear 9 1021 87 16093 2.63 223 16:45 23.02.2020
2428 Clouds 9 1019 81 16093 2.1 240 16:26 23.02.2020
2429 Clear 8 1019 93 16093 2.6 60 15:58 23.02.2020
2430 Clear 8 1019 93 16093 2.6 60 15:38 23.02.2020
2431 Clouds 8 1018 87 16093 2.1 0 15:20 23.02.2020
2432 Clouds 8 1018 87 16093 2.1 0 15:20 23.02.2020
2433 Clear 8 1018 87 16093 2.6 60 14:56 23.02.2020
2434 Clear 8 1018 87 16093 2.6 60 14:38 23.02.2020
2435 Clouds 8 1017 87 16093 2.1 310 14:20 23.02.2020
2436 Clouds 9 1017 87 16093 1.5 260 13:57 23.02.2020
2437 Clouds 9 1017 87 16093 1.5 260 13:38 23.02.2020
2438 Clouds 9 1017 87 16093 3.6 200 13:20 23.02.2020
2439 Rain 8 1017 81 16093 4.1 320 12:42 23.02.2020
2440 Rain 8 1016 87 16093 2.6 230 12:21 23.02.2020
2441 Drizzle 8 1017 87 14484 7.2 310 11:54 23.02.2020
2442 Rain 9 1017 76 16093 1.66 235 11:36 23.02.2020
2443 Rain 9 1017 76 16093 1.65 290 11:18 23.02.2020
2444 Rain 9 1017 87 9656 3.1 330 10:41 23.02.2020
2445 Drizzle 9 1016 93 16093 2.1 330 10:23 23.02.2020
2446 Clouds 9 1016 93 16093 1.65 290 09:56 23.02.2020
2447 Clouds 9 1016 93 16093 1.65 290 09:56 23.02.2020
2448 Clouds 9 1016 93 16093 1.65 290 09:38 23.02.2020
2449 Clouds 9 1016 93 16093 1.65 290 09:20 23.02.2020
2450 Clouds 9 1016 93 16093 2.1 360 08:50 23.02.2020
2451 Rain 9 1015 81 16093 1.65 290 08:29 23.02.2020
2452 Clouds 9 1016 100 16093 1.34 276 07:48 23.02.2020
2453 Clouds 9 1015 87 16093 1.34 276 07:30 23.02.2020
2454 Clouds 9 1015 81 16093 1.34 276 06:27 23.02.2020
2455 Rain 9 1015 87 16093 2.1 10 05:39 23.02.2020
2456 Clouds 9 1014 81 16093 2.6 50 04:24 23.02.2020
2457 Clouds 11 1014 81 16093 3.6 40 02:58 23.02.2020
2458 Thunderstorm 11 1013 81 16093 5.1 40 01:48 23.02.2020
2459 Thunderstorm 11 1013 76 16093 3.6 40 01:22 23.02.2020
2460 Rain 11 1014 76 2012 3.56 44 00:45 23.02.2020
2461 Thunderstorm 11 1013 66 16093 4.1 110 00:23 23.02.2020
2462 Rain 12 1014 71 16093 2.1 60 23:44 22.02.2020
2463 Clouds 13 1012 62 16093 5.7 50 23:25 22.02.2020
2464 Drizzle 13 1014 76 11265 6.2 20 22:46 22.02.2020
2465 Clouds 13 1013 58 16093 3.6 30 22:22 22.02.2020
2466 Rain 12 1014 81 16093 3.6 340 21:59 22.02.2020
2467 Rain 12 1014 81 16093 3.6 340 21:59 22.02.2020
2468 Rain 13 1014 81 16093 3.6 340 21:40 22.02.2020
2469 Rain 13 1014 66 16093 3.6 30 21:21 22.02.2020
2470 Rain 12 1015 87 14484 1.5 0 20:41 22.02.2020
2471 Rain 11 1015 66 16093 2.6 310 20:23 22.02.2020
2472 Rain 10 1015 87 14484 2.1 350 19:43 22.02.2020
2473 Rain 11 1015 58 16093 2.1 150 19:25 22.02.2020
2474 Rain 12 1014 26 11265 4.6 20 18:59 22.02.2020
2475 Rain 13 1014 26 11265 4.6 20 18:39 22.02.2020
2476 Rain 13 1014 26 11265 4.6 20 18:20 22.02.2020
2477 Thunderstorm 14 1014 44 16093 2.6 300 17:55 22.02.2020
2478 Thunderstorm 13 1014 44 16093 2.6 300 17:37 22.02.2020
2479 Thunderstorm 13 1014 44 16093 2.6 300 17:37 22.02.2020
2480 Thunderstorm 13 1014 44 16093 2.6 300 17:37 22.02.2020
2481 Clouds 13 1015 50 16093 0.45 209 17:19 22.02.2020
2482 Clouds 12 1015 39 16093 1.5 240 16:54 22.02.2020
2483 Clouds 12 1014 62 16093 2.1 280 16:36 22.02.2020
2484 Clouds 12 1014 62 16093 2.1 280 16:18 22.02.2020
2485 Rain 11 1015 36 16093 1.5 320 15:42 22.02.2020
2486 Rain 11 1014 58 16093 1.5 210 15:22 22.02.2020
2487 Clouds 12 1015 37 16093 1.5 20 14:43 22.02.2020
2488 Clouds 12 1015 50 16093 1.5 270 14:22 22.02.2020
2489 Rain 12 1015 24 16093 2.1 170 13:55 22.02.2020
2490 Rain 12 1015 24 16093 2.1 170 13:55 22.02.2020
2491 Rain 11 1015 50 16093 1.5 300 13:36 22.02.2020
2492 Rain 11 1015 50 16093 1.5 300 13:18 22.02.2020
2493 Clouds 12 1015 32 16093 2.6 120 12:41 22.02.2020
2494 Clouds 12 1015 32 16093 0.76 60 12:22 22.02.2020
2495 Clouds 12 1016 32 16093 0.76 60 11:44 22.02.2020
2496 Clouds 12 1016 26 16093 2.1 210 11:26 22.02.2020
2497 Clouds 12 1016 34 16093 0.76 320 10:56 22.02.2020
2498 Clouds 12 1016 34 16093 0.76 320 10:38 22.02.2020
2499 Clouds 12 1016 24 16093 1.5 210 10:19 22.02.2020
2500 Clouds 11 1017 29 16093 2.6 340 09:56 22.02.2020
2501 Clouds 12 1017 29 16093 2.6 340 09:37 22.02.2020
2502 Clouds 12 1017 29 16093 2.6 340 09:37 22.02.2020
2503 Clouds 12 1017 24 16093 2.1 210 09:19 22.02.2020
2504 Clouds 12 1018 32 16093 0.76 320 08:44 22.02.2020
2505 Clouds 12 1018 20 16093 1.5 280 08:26 22.02.2020
2506 Clouds 12 1018 20 16093 1.5 280 08:26 22.02.2020
2507 Clouds 12 1018 32 16093 1.06 299 07:43 22.02.2020
2508 Clouds 12 1018 22 16093 1.5 250 07:19 22.02.2020
2509 Clear 13 1019 32 16093 1.06 299 06:46 22.02.2020
2510 Clouds 13 1019 32 16093 1.06 299 05:44 22.02.2020
2511 Clouds 14 1018 18 16093 4.1 10 04:29 22.02.2020
2512 Clear 19 1018 16 16093 2.6 40 02:44 22.02.2020
2513 Clouds 19 1018 13 16093 2.6 50 01:57 22.02.2020
2514 Clouds 19 1018 13 16093 2.6 50 01:39 22.02.2020
2515 Clouds 20 1018 12 16093 1.5 0 01:21 22.02.2020
2516 Clouds 20 1018 12 16093 3.6 30 00:39 22.02.2020
2517 Clouds 20 1019 11 16093 2.1 350 00:19 22.02.2020
2518 Clouds 20 1019 11 16093 3.1 80 23:38 21.02.2020
2519 Clouds 20 1019 11 16093 1.5 100 23:20 21.02.2020
2520 Clear 19 1019 12 16093 4.6 70 22:42 21.02.2020
2521 Clouds 19 1020 11 16093 2.6 0 22:24 21.02.2020
2522 Clear 18 1021 12 16093 5.7 20 21:56 21.02.2020
2523 Clear 18 1021 12 16093 5.7 20 21:37 21.02.2020
2524 Clouds 17 1022 11 16093 3.1 70 21:19 21.02.2020
2525 Clear 17 1022 12 16093 3.6 30 20:43 21.02.2020
2526 Clouds 16 1023 14 16093 2.1 0 20:25 21.02.2020
2527 Clear 14 1023 15 16093 4.1 330 19:40 21.02.2020
2528 Clouds 14 1023 16 16093 2.1 90 19:21 21.02.2020
2529 Clear 14 1024 25 16093 2.34 2 18:44 21.02.2020
2530 Clouds 13 1024 20 16093 1.5 180 18:24 21.02.2020
2531 Clear 12 1024 29 16093 2.1 240 17:57 21.02.2020
2532 Clear 11 1024 29 16093 2.1 240 17:38 21.02.2020
2533 Clouds 10 1024 25 16093 1.04 304 17:19 21.02.2020
2534 Clear 6 1024 33 16093 1.04 304 16:54 21.02.2020
2535 Clouds 6 1023 28 16093 1.5 200 16:36 21.02.2020
2536 Clouds 6 1023 28 16093 1.5 200 16:18 21.02.2020
2537 Clouds 6 1023 31 16093 1.04 304 15:39 21.02.2020
2538 Clouds 6 1023 31 16093 1.04 304 15:19 21.02.2020
2539 Clear 6 1023 30 16093 1.04 304 14:43 21.02.2020
2540 Clouds 6 1022 28 16093 1.04 304 14:22 21.02.2020
2541 Haze 6 1022 35 6437 1.39 341 13:59 21.02.2020
2542 Haze 6 1022 35 6437 1.39 341 13:39 21.02.2020
2543 Haze 6 1022 35 6437 1.39 341 13:39 21.02.2020
2544 Clouds 6 1022 33 16093 1.5 230 13:20 21.02.2020
2545 Clear 6 1022 26 16093 1.27 348 12:43 21.02.2020
2546 Clouds 6 1022 28 16093 2.1 210 12:24 21.02.2020
2547 Clear 7 1022 33 16093 1.27 348 11:56 21.02.2020
2548 Clear 7 1022 33 16093 1.27 348 11:37 21.02.2020
2549 Clouds 7 1022 31 16093 2.6 200 11:19 21.02.2020
2550 Clear 8 1023 23 16093 1.83 353 10:42 21.02.2020
2551 Clear 8 1023 23 16093 1.83 353 10:42 21.02.2020
2552 Clear 8 1023 23 16093 1.83 353 10:42 21.02.2020
2553 Clear 8 1023 26 16093 1.83 353 10:20 21.02.2020
2554 Clear 8 1023 23 16093 1.83 353 09:58 21.02.2020
2555 Clear 9 1023 23 16093 1.83 353 09:39 21.02.2020
2556 Clear 9 1023 23 16093 1.83 353 09:20 21.02.2020
2557 Clear 9 1023 21 16093 1.83 353 08:54 21.02.2020
2558 Clouds 8 1023 21 16093 1.5 230 08:36 21.02.2020
2559 Clouds 8 1023 21 16093 1.5 230 08:18 21.02.2020
2560 Clear 9 1023 28 16093 1.2 298 07:41 21.02.2020
2561 Clouds 9 1023 23 16093 1.5 200 07:20 21.02.2020
2562 Clear 10 1023 23 16093 1.5 220 06:55 21.02.2020
2563 Clear 10 1023 22 16093 2.1 270 06:31 21.02.2020
2564 Clear 11 1023 16 16093 3.1 10 05:55 21.02.2020
2565 Clear 11 1023 18 16093 3.1 350 04:50 21.02.2020
2566 Clear 12 1023 18 16093 3.6 360 04:25 21.02.2020
2567 Clear 13 1023 18 16093 4.1 350 03:46 21.02.2020
2568 Clear 15 1022 16 16093 2.6 340 02:58 21.02.2020
2569 Clouds 17 1022 11 16093 2.1 60 01:29 21.02.2020
2570 Clear 17 1022 12 16093 3.6 10 00:46 21.02.2020
2571 Clear 17 1023 11 16093 3.6 50 00:24 21.02.2020
2572 Clear 17 1023 12 16093 4.6 40 23:57 20.02.2020
2573 Clear 17 1023 12 16093 4.6 40 23:39 20.02.2020
2574 Clear 17 1024 11 16093 3.1 50 23:20 20.02.2020
2575 Clear 16 1024 13 16093 5.1 30 22:39 20.02.2020
2576 Clear 16 1025 12 16093 4.6 80 22:21 20.02.2020
2577 Clear 16 1025 12 16093 4.6 80 22:21 20.02.2020
2578 Clear 16 1025 12 16093 4.6 80 22:21 20.02.2020
2579 Clear 15 1025 13 16093 6.2 40 21:57 20.02.2020
2580 Clear 15 1025 13 16093 6.2 40 21:57 20.02.2020
2581 Clear 15 1025 13 16093 6.2 40 21:37 20.02.2020
2582 Clear 15 1025 13 16093 6.2 40 21:37 20.02.2020
2583 Clear 15 1026 12 16093 2.1 0 21:19 20.02.2020
2584 Clear 14 1026 13 16093 3.6 30 20:56 20.02.2020
2585 Clear 14 1026 13 16093 3.6 30 20:56 20.02.2020
2586 Clear 14 1026 13 16093 3.6 30 20:37 20.02.2020
2587 Clear 13 1027 15 16093 1.5 10 20:19 20.02.2020
2588 Clear 13 1027 12 16093 3.1 20 19:58 20.02.2020
2589 Clear 13 1027 12 16093 3.1 20 19:58 20.02.2020
2590 Clear 12 1027 12 16093 3.1 20 19:40 20.02.2020
2591 Clear 12 1027 13 16093 4.1 20 19:21 20.02.2020
2592 Clear 11 1027 14 16093 5.7 340 18:40 20.02.2020
2593 Clear 11 1027 15 16093 6.2 350 18:20 20.02.2020
2594 Clear 10 1027 16 16093 5.1 340 17:56 20.02.2020
2595 Clear 9 1027 16 16093 5.1 340 17:38 20.02.2020
2596 Clear 8 1027 16 16093 5.1 340 17:18 20.02.2020
2597 Clear 7 1026 20 16093 3.6 350 16:55 20.02.2020
2598 Clear 6 1026 33 16093 1.5 220 16:37 20.02.2020
2599 Clear 6 1026 33 16093 1.5 220 16:18 20.02.2020
2600 Clear 5 1026 25 16093 3.1 340 15:42 20.02.2020
2601 Clear 5 1025 33 16093 1.5 210 15:21 20.02.2020
2602 Clear 5 1025 22 16093 3.6 350 14:57 20.02.2020
2603 Clear 5 1025 22 16093 3.6 350 14:39 20.02.2020
2604 Clear 5 1025 33 16093 2.1 220 14:20 20.02.2020
2605 Clear 6 1024 20 16093 5.1 20 13:46 20.02.2020
2606 Clear 6 1024 24 16093 3.1 60 13:20 20.02.2020
2607 Clear 6 1024 20 16093 4.6 360 12:59 20.02.2020
2608 Clear 7 1024 20 16093 4.6 360 12:40 20.02.2020
2609 Clear 7 1024 28 16093 1.5 20 12:19 20.02.2020
2610 Clear 8 1024 19 16093 5.7 360 11:56 20.02.2020
2611 Clear 9 1024 19 16093 5.7 360 11:37 20.02.2020
2612 Clear 7 1024 19 16093 5.1 350 11:19 20.02.2020
2613 Clear 8 1024 21 16093 3.6 20 10:42 20.02.2020
2614 Clear 8 1024 20 16093 1.5 110 10:22 20.02.2020
2615 Clear 8 1023 21 16093 4.1 330 09:55 20.02.2020
2616 Clear 8 1023 21 16093 4.1 330 09:55 20.02.2020
2617 Clear 9 1023 18 16093 4.6 360 09:37 20.02.2020
2618 Clear 10 1023 18 16093 4.6 360 09:19 20.02.2020
2619 Clear 10 1023 21 16093 4.6 350 08:40 20.02.2020
2620 Clear 10 1023 23 16093 2.6 150 08:22 20.02.2020
2621 Clear 9 1023 20 16093 4.6 30 07:47 20.02.2020
2622 Clear 10 1022 20 16093 6.7 20 07:26 20.02.2020
2623 Clear 10 1022 20 16093 6.7 20 06:56 20.02.2020
2624 Clear 10 1021 20 16093 6.2 20 06:30 20.02.2020
2625 Clear 11 1021 19 16093 7.2 30 05:47 20.02.2020
2626 Clear 11 1021 22 16093 5.1 30 05:18 20.02.2020
2627 Clear 11 1020 20 16093 4.1 30 04:28 20.02.2020
2628 Clear 13 1020 20 16093 2.6 40 03:40 20.02.2020
2629 Clear 17 1019 18 16093 3.6 20 02:37 20.02.2020
2630 Clear 17 1018 12 16093 1.5 0 01:21 20.02.2020
2631 Clear 18 1018 12 16093 3.1 0 00:34 20.02.2020
2632 Clear 18 1018 13 16093 5.1 30 23:54 19.02.2020
2633 Clear 18 1018 13 16093 3.6 40 23:23 19.02.2020
2634 Clear 17 1019 13 16093 2.6 60 22:56 19.02.2020
2635 Clear 17 1019 13 16093 2.6 60 22:38 19.02.2020
2636 Clear 16 1019 13 16093 2.6 60 22:20 19.02.2020
2637 Clear 16 1019 17 16093 2.6 0 21:55 19.02.2020
2638 Clear 16 1020 15 16093 3.1 40 21:37 19.02.2020
2639 Clear 15 1020 15 16093 3.1 40 21:18 19.02.2020
2640 Clear 15 1020 15 16093 4.6 350 20:55 19.02.2020
2641 Clear 14 1021 17 16093 3.6 40 20:36 19.02.2020
2642 Clear 14 1021 17 16093 3.6 40 20:18 19.02.2020
2643 Clear 13 1021 22 16093 4.1 30 19:55 19.02.2020
2644 Clear 13 1021 19 16093 2.6 90 19:36 19.02.2020
2645 Clear 13 1021 19 16093 2.6 90 19:18 19.02.2020
2646 Clear 12 1021 25 16093 1.93 350 18:55 19.02.2020
2647 Clear 12 1021 25 16093 1.93 350 18:37 19.02.2020
2648 Clear 11 1021 31 16093 1.93 350 18:19 19.02.2020
2649 Clear 9 1020 36 16093 1.93 350 17:42 19.02.2020
2650 Clouds 8 1020 26 16093 1 309 17:19 19.02.2020
2651 Clear 6 1020 38 16093 1 309 16:44 19.02.2020
2652 Clouds 5 1019 33 16093 2.6 210 16:19 19.02.2020
2653 Clear 5 1019 47 16093 1 309 15:58 19.02.2020
2654 Clear 4 1019 47 16093 1 309 15:39 19.02.2020
2655 Clouds 4 1019 33 16093 2.1 210 15:20 19.02.2020
2656 Clear 5 1018 35 16093 1 309 14:42 19.02.2020
2657 Clouds 5 1018 35 16093 1.5 220 14:23 19.02.2020
2658 Clear 5 1018 38 16093 0.9 337 13:59 19.02.2020
2659 Clear 5 1018 38 16093 0.9 337 13:39 19.02.2020
2660 Clouds 5 1017 33 16093 0.74 341 13:19 19.02.2020
2661 Clear 5 1017 38 16093 0.74 341 12:39 19.02.2020
2662 Clouds 5 1017 33 16093 1.5 250 12:19 19.02.2020
2663 Clear 5 1017 44 16093 1.5 70 11:55 19.02.2020
2664 Clouds 5 1017 30 16093 1.5 210 11:37 19.02.2020
2665 Clouds 5 1017 30 16093 1.5 210 11:18 19.02.2020
2666 Clear 6 1018 38 16093 0.56 273 10:56 19.02.2020
2667 Clouds 6 1018 31 16093 2.1 220 10:37 19.02.2020
2668 Clouds 6 1018 31 16093 2.1 220 10:18 19.02.2020
2669 Clear 6 1018 41 16093 1.5 20 09:54 19.02.2020
2670 Clouds 6 1017 31 16093 2.6 220 09:36 19.02.2020
2671 Clouds 7 1017 31 16093 2.6 220 09:18 19.02.2020
2672 Clear 7 1018 45 16093 0.56 273 08:42 19.02.2020
2673 Clear 7 1018 45 16093 0.56 273 08:42 19.02.2020
2674 Clouds 7 1017 29 16093 1.5 230 08:23 19.02.2020
2675 Clear 8 1018 45 16093 1.5 350 07:41 19.02.2020
2676 Clouds 8 1017 25 16093 2.1 240 07:20 19.02.2020
2677 Clear 9 1018 31 16093 1.5 320 06:46 19.02.2020
2678 Clear 10 1017 25 16093 0.64 280 05:40 19.02.2020
2679 Clear 11 1017 25 16093 2.6 20 03:59 19.02.2020
2680 Clear 15 1017 19 16093 3.1 30 02:48 19.02.2020
2681 Clear 14 1017 16 16093 2.6 30 01:54 19.02.2020
2682 Clouds 15 1017 13 16093 1.5 0 01:23 19.02.2020
2683 Clear 16 1017 16 16093 2.6 50 00:42 19.02.2020
2684 Clear 16 1017 16 16093 3.6 40 00:23 19.02.2020
2685 Clear 15 1017 16 16093 2.6 40 23:41 18.02.2020
2686 Clouds 15 1018 14 16093 1.5 340 23:20 18.02.2020
2687 Clear 14 1018 16 16093 4.6 350 22:55 18.02.2020
2688 Clouds 14 1019 17 16093 2.6 0 22:37 18.02.2020
2689 Clouds 14 1019 17 16093 2.6 0 22:19 18.02.2020
2690 Clear 14 1019 17 16093 3.1 0 21:55 18.02.2020
2691 Clouds 13 1020 17 16093 4.1 40 21:36 18.02.2020
2692 Clouds 13 1020 17 16093 4.1 40 21:18 18.02.2020
2693 Clear 13 1020 19 16093 5.1 340 20:54 18.02.2020
2694 Clouds 12 1022 20 16093 3.1 330 20:36 18.02.2020
2695 Clouds 12 1022 20 16093 3.1 330 20:18 18.02.2020
2696 Clear 11 1021 20 16093 5.7 350 19:42 18.02.2020
2697 Clouds 11 1022 22 16093 3.1 30 19:19 18.02.2020
2698 Clear 10 1022 21 16093 6.2 350 18:57 18.02.2020
2699 Clear 10 1022 21 16093 6.2 350 18:39 18.02.2020
2700 Clear 10 1022 25 16093 4.6 360 18:18 18.02.2020
2701 Clear 9 1022 25 16093 4.6 340 17:41 18.02.2020
2702 Clear 8 1021 26 16093 4.1 350 17:19 18.02.2020
2703 Clear 8 1021 26 16093 7.2 340 16:40 18.02.2020
2704 Clouds 7 1021 28 16093 5.1 70 16:22 18.02.2020
2705 Clear 7 1020 30 16093 4.1 30 15:58 18.02.2020
2706 Clear 7 1020 30 16093 4.1 30 15:39 18.02.2020
2707 Clouds 7 1020 28 16093 6.2 70 15:19 18.02.2020
2708 Clouds 7 1020 28 16093 2.6 0 14:56 18.02.2020
2709 Clouds 7 1020 28 16093 2.6 0 14:56 18.02.2020
2710 Clouds 7 1020 28 16093 2.6 0 14:37 18.02.2020
2711 Clouds 7 1020 26 16093 6.7 50 14:19 18.02.2020
2712 Clear 8 1019 28 16093 5.1 340 13:41 18.02.2020
2713 Clouds 8 1019 25 16093 7.7 60 13:21 18.02.2020
2714 Clear 8 1018 26 16093 4.1 10 12:54 18.02.2020
2715 Clear 8 1018 26 16093 4.1 10 12:54 18.02.2020
2716 Clouds 8 1018 23 16093 8.2 60 12:36 18.02.2020
2717 Clouds 9 1018 23 16093 8.2 60 12:18 18.02.2020
2718 Clear 9 1018 25 16093 4.1 360 11:42 18.02.2020
2719 Clear 10 1018 23 16093 3.6 10 11:23 18.02.2020
2720 Clear 11 1017 20 16093 8.2 10 10:46 18.02.2020
2721 Clear 11 1017 19 16093 7.7 10 10:25 18.02.2020
2722 Clear 11 1016 17 16093 11.3 360 09:58 18.02.2020
2723 Clear 11 1016 17 16093 11.3 360 09:58 18.02.2020
2724 Clear 11 1016 17 16093 11.3 360 09:39 18.02.2020
2725 Clouds 11 1016 11 16093 5.7 50 09:20 18.02.2020
2726 Clear 11 1016 25 16093 3.77 25 08:59 18.02.2020
2727 Clear 11 1016 25 16093 3.77 25 08:40 18.02.2020
2728 Clouds 11 1015 14 16093 4.6 320 08:20 18.02.2020
2729 Clear 12 1016 23 16093 4.1 350 07:55 18.02.2020
2730 Clear 12 1016 23 16093 4.1 350 07:55 18.02.2020
2731 Clear 12 1016 19 16093 2.6 10 07:29 18.02.2020
2732 Clear 12 1016 36 16093 2.6 350 06:55 18.02.2020
2733 Clouds 12 1015 20 16093 3.1 300 06:32 18.02.2020
2734 Clear 13 1015 23 16093 1.39 313 05:56 18.02.2020
2735 Clear 13 1015 27 16093 2.1 350 05:23 18.02.2020
2736 Clear 15 1014 17 16093 1.5 60 03:57 18.02.2020
2737 Clear 19 1014 13 16093 2.1 60 02:58 18.02.2020
2738 Clear 19 1014 10 16093 2.6 50 01:58 18.02.2020
2739 Clear 20 1014 9 16093 3.77 8 00:45 18.02.2020
2740 Clouds 20 1014 13 16093 2.1 60 00:19 18.02.2020
2741 Clear 21 1014 10 16093 3.6 50 23:44 17.02.2020
2742 Clear 21 1014 9 16093 6.2 20 23:25 17.02.2020
2743 Clear 20 1015 11 16093 5.7 10 22:59 17.02.2020
2744 Clear 20 1015 11 16093 5.7 10 22:40 17.02.2020
2745 Clouds 20 1015 15 16093 3.6 60 22:20 17.02.2020
2746 Clouds 20 1015 15 16093 3.6 60 22:20 17.02.2020
2747 Clouds 19 1016 19 16093 2.1 70 21:40 17.02.2020
2748 Clouds 19 1016 19 16093 2.1 70 21:19 17.02.2020
2749 Clouds 19 1016 17 16093 3.6 10 20:57 17.02.2020
2750 Clouds 19 1016 17 16093 3.6 10 20:38 17.02.2020
2751 Clouds 18 1017 20 16093 3.6 90 20:20 17.02.2020
2752 Clouds 17 1017 18 16093 4.1 20 19:54 17.02.2020
2753 Clouds 17 1017 25 16093 3.1 80 19:36 17.02.2020
2754 Clouds 17 1017 25 16093 3.1 80 19:18 17.02.2020
2755 Clouds 16 1017 29 16093 4.1 40 18:37 17.02.2020
2756 Clouds 15 1017 29 16093 4.1 40 18:19 17.02.2020
2757 Clear 14 1017 46 16093 2.91 5 17:54 17.02.2020
2758 Clouds 13 1017 35 16093 2.91 5 17:36 17.02.2020
2759 Clouds 12 1017 35 16093 0.82 313 17:18 17.02.2020
2760 Clear 10 1016 45 16093 0.82 313 16:43 17.02.2020
2761 Clear 9 1016 49 16093 0.82 313 16:22 17.02.2020
2762 Clear 9 1016 45 16093 1.5 120 15:58 17.02.2020
2763 Clear 9 1016 45 16093 1.5 120 15:40 17.02.2020
2764 Clear 9 1015 49 16093 0.82 313 15:21 17.02.2020
2765 Clear 9 1016 52 16093 0.82 313 14:44 17.02.2020
2766 Clouds 9 1015 40 16093 3.1 210 14:26 17.02.2020
2767 Clouds 10 1015 37 16093 2.1 260 13:58 17.02.2020
2768 Clouds 10 1015 37 16093 2.1 260 13:39 17.02.2020
2769 Clouds 10 1015 37 16093 2.1 260 13:19 17.02.2020
2770 Clear 10 1015 40 16093 1.08 289 12:47 17.02.2020
2771 Clear 10 1015 40 16093 1.08 289 12:47 17.02.2020
2772 Clouds 10 1015 40 16093 2.1 210 12:26 17.02.2020
2773 Clear 10 1015 37 16093 1.08 289 11:59 17.02.2020
2774 Clear 11 1015 37 16093 1.08 289 11:40 17.02.2020
2775 Clear 11 1015 37 16093 1.08 289 11:21 17.02.2020
2776 Clear 11 1015 40 16093 2.6 10 10:55 17.02.2020
2777 Clear 11 1015 37 16093 3.6 360 10:37 17.02.2020
2778 Clear 11 1015 37 16093 3.6 360 10:19 17.02.2020
2779 Clear 11 1015 37 16093 3.6 20 09:42 17.02.2020
2780 Clouds 11 1015 40 16093 3.1 40 09:23 17.02.2020
2781 Clear 12 1015 40 16093 1.5 10 08:59 17.02.2020
2782 Clear 12 1015 40 16093 1.5 10 08:40 17.02.2020
2783 Clear 12 1015 35 16093 3.1 330 08:20 17.02.2020
2784 Clear 12 1015 34 16093 1.5 340 07:47 17.02.2020
2785 Clear 12 1015 34 16093 0.79 70 07:24 17.02.2020
2786 Clear 13 1015 35 16093 0.79 70 06:52 17.02.2020
2787 Clear 12 1015 37 16093 3.1 20 06:33 17.02.2020
2788 Clear 13 1015 33 16093 1.5 130 05:58 17.02.2020
2789 Clear 14 1015 33 16093 1.5 130 05:38 17.02.2020
2790 Clouds 16 1014 23 16093 2.1 160 03:22 17.02.2020
2791 Clear 19 1014 20 16093 2.6 160 01:59 17.02.2020
2792 Clear 20 1014 19 16093 4.6 150 00:51 17.02.2020
2793 Clouds 20 1015 19 16093 3.1 30 00:22 17.02.2020
2794 Clear 20 1015 18 16093 5.1 150 23:54 16.02.2020
2795 Clouds 19 1015 22 16093 1.79 350 23:32 16.02.2020
2796 Clear 19 1015 19 16093 3.6 150 22:58 16.02.2020
2797 Clear 18 1015 19 16093 3.6 150 22:39 16.02.2020
2798 Clouds 18 1016 20 16093 3.1 360 22:21 16.02.2020
2799 Clear 18 1017 22 16093 2.1 0 21:58 16.02.2020
2800 Clear 17 1017 22 16093 2.1 0 21:40 16.02.2020
2801 Clear 17 1017 22 16093 3.1 150 21:21 16.02.2020
2802 Clear 17 1018 22 16093 2.6 0 20:57 16.02.2020
2803 Clear 16 1018 22 16093 2.6 0 20:39 16.02.2020
2804 Clouds 16 1019 26 16093 1.5 0 20:21 16.02.2020
2805 Clear 15 1019 25 16093 2.6 0 19:58 16.02.2020
2806 Clouds 14 1020 28 16093 1.5 30 19:38 16.02.2020
2807 Clouds 14 1020 28 16093 1.5 30 19:19 16.02.2020
2808 Clear 14 1020 26 16093 2.6 80 18:43 16.02.2020
2809 Clear 13 1020 28 16093 1.47 178 18:23 16.02.2020
2810 Clear 12 1020 34 16093 1.47 178 17:55 16.02.2020
2811 Clear 12 1020 34 16093 1.47 178 17:55 16.02.2020
2812 Clouds 11 1020 37 16093 1.47 178 17:36 16.02.2020
2813 Clouds 10 1020 37 16093 0.19 22 17:18 16.02.2020
2814 Clouds 10 1020 37 16093 0.19 22 17:18 16.02.2020
2815 Clear 8 1020 34 16093 0.19 22 16:54 16.02.2020
2816 Clear 7 1020 39 11265 3.1 40 16:36 16.02.2020
2817 Clear 7 1020 39 11265 3.1 40 16:18 16.02.2020
2818 Clear 7 1019 52 16093 2.6 20 15:41 16.02.2020
2819 Clear 7 1019 45 16093 1.5 40 15:21 16.02.2020
2820 Clear 7 1019 48 16093 2.6 40 14:44 16.02.2020
2821 Clear 7 1019 45 16093 0.19 22 14:23 16.02.2020
2822 Clear 7 1019 42 16093 1.5 300 13:57 16.02.2020
2823 Clear 7 1019 42 16093 1.5 300 13:38 16.02.2020
2824 Clouds 7 1019 39 16093 2.6 220 13:20 16.02.2020
2825 Clear 7 1019 39 16093 2.6 30 12:39 16.02.2020
2826 Clear 7 1019 42 16093 2.1 340 12:39 16.02.2020
2827 Clear 7 1019 42 16093 2.1 340 12:19 16.02.2020
2828 Clear 7 1019 42 16093 2.1 340 12:19 16.02.2020
2829 Clear 8 1019 45 16093 2.1 40 11:40 16.02.2020
2830 Clouds 8 1019 37 16093 2.1 260 11:20 16.02.2020
2831 Clear 8 1019 39 16093 0.37 238 10:58 16.02.2020
2832 Clear 8 1019 39 16093 0.37 238 10:58 16.02.2020
2833 Clear 8 1019 39 16093 0.37 238 10:58 16.02.2020
2834 Clear 8 1019 39 16093 0.37 238 10:40 16.02.2020
2835 Clouds 9 1020 34 16093 1.5 280 10:22 16.02.2020
2836 Clear 9 1019 39 16093 0.37 238 09:59 16.02.2020
2837 Clear 9 1019 39 16093 0.37 238 09:38 16.02.2020
2838 Clear 9 1019 39 16093 0.37 238 09:38 16.02.2020
2839 Clear 9 1019 39 16093 0.37 238 09:38 16.02.2020
2840 Clear 9 1019 39 16093 1.5 30 09:20 16.02.2020
2841 Clear 9 1019 39 16093 0.37 238 08:56 16.02.2020
2842 Clear 10 1019 39 16093 0.37 238 08:38 16.02.2020
2843 Clouds 10 1021 32 16093 3.1 280 08:18 16.02.2020
2844 Clear 10 1020 37 16093 1.55 222 07:41 16.02.2020
2845 Clear 10 1020 34 16093 2.1 310 06:54 16.02.2020
2846 Clear 11 1019 30 16093 2.6 230 06:29 16.02.2020
2847 Clouds 13 1019 23 16093 0.28 127 04:37 16.02.2020
2848 Clouds 15 1018 21 16093 2.1 80 03:20 16.02.2020
2849 Clear 17 1018 17 16093 3.1 170 01:58 16.02.2020
2850 Clear 18 1018 17 16093 3.1 170 01:38 16.02.2020
2851 Clouds 18 1018 18 16093 2.1 90 01:19 16.02.2020
2852 Clear 18 1019 16 16093 3.6 110 00:42 16.02.2020
2853 Clear 18 1019 16 16093 3.6 120 00:22 16.02.2020
2854 Haze 18 1019 16 9656 3.6 110 23:43 15.02.2020
2855 Clouds 18 1019 16 16093 3.6 90 23:25 15.02.2020
2856 Clear 17 1019 17 16093 3.6 80 22:57 15.02.2020
2857 Clear 17 1019 17 16093 3.6 80 22:39 15.02.2020
2858 Clouds 17 1020 17 16093 1.5 70 22:19 15.02.2020
2859 Clear 16 1021 20 16093 2.6 80 21:56 15.02.2020
2860 Clouds 16 1021 19 16093 1.5 0 21:37 15.02.2020
2861 Clouds 16 1021 19 16093 1.5 0 21:19 15.02.2020
2862 Clear 15 1022 23 16093 1.08 19 20:38 15.02.2020
2863 Clouds 15 1022 21 16093 0.26 33 20:20 15.02.2020
2864 Clear 14 1022 26 16093 2.1 30 19:43 15.02.2020
2865 Clouds 13 1022 24 16093 2.1 20 19:22 15.02.2020
2866 Clear 12 1022 32 16093 0.26 33 18:43 15.02.2020
2867 Clouds 12 1022 25 16093 0.26 33 18:22 15.02.2020
2868 Clear 10 1021 39 16093 0.26 33 17:57 15.02.2020
2869 Clear 10 1021 39 16093 0.26 33 17:57 15.02.2020
2870 Clear 9 1021 39 16093 0.26 33 17:37 15.02.2020
2871 Clouds 8 1021 31 16093 1.31 189 17:19 15.02.2020
2872 Clear 6 1021 41 16093 1.31 189 16:42 15.02.2020
2873 Clouds 6 1020 39 16093 1.31 189 16:24 15.02.2020
2874 Clear 6 1020 44 16093 1.31 189 15:57 15.02.2020
2875 Clear 5 1020 44 16093 1.31 189 15:39 15.02.2020
2876 Clouds 5 1020 38 16093 1.5 300 15:20 15.02.2020
2877 Clear 5 1020 48 16093 1.31 189 14:43 15.02.2020
2878 Clouds 6 1020 36 16093 2.1 210 14:19 15.02.2020
2879 Clear 6 1020 48 16093 0.66 232 13:43 15.02.2020
2880 Clouds 6 1020 39 16093 2.6 210 13:25 15.02.2020
2881 Clear 6 1020 48 16093 0.94 220 12:59 15.02.2020
2882 Clear 6 1020 48 16093 0.94 220 12:41 15.02.2020
2883 Clear 6 1020 48 16093 0.94 220 12:41 15.02.2020
2884 Clouds 6 1020 39 16093 1.5 230 12:22 15.02.2020
2885 Clear 6 1020 41 16093 1.5 320 11:48 15.02.2020
2886 Clear 6 1020 33 16093 0.94 220 11:29 15.02.2020
2887 Clear 7 1020 41 16093 0.98 212 10:51 15.02.2020
2888 Clear 7 1019 33 16093 2.1 220 10:30 15.02.2020
2889 Clear 7 1019 41 16093 0.98 212 09:58 15.02.2020
2890 Clear 7 1019 41 16093 0.98 212 09:39 15.02.2020
2891 Clear 7 1019 41 16093 0.98 212 09:21 15.02.2020
2892 Clear 8 1019 42 16093 0.98 212 08:43 15.02.2020
2893 Clouds 8 1019 29 16093 1.5 200 08:25 15.02.2020
2894 Clear 8 1019 42 16093 0.45 273 07:51 15.02.2020
2895 Clouds 9 1019 27 16093 2.6 210 07:31 15.02.2020
2896 Clear 9 1019 39 16093 0.45 273 06:54 15.02.2020
2897 Clouds 9 1019 27 16093 2.1 240 06:36 15.02.2020
2898 Clear 10 1019 45 16093 0.45 273 05:41 15.02.2020
2899 Clear 11 1018 27 16093 0.35 34 04:46 15.02.2020
2900 Clouds 13 1017 21 16093 1.5 120 03:39 15.02.2020
2901 Clouds 15 1016 18 16093 1.5 50 02:50 15.02.2020
2902 Clouds 16 1016 18 16093 1.5 50 02:22 15.02.2020
2903 Clear 17 1017 17 16093 1.5 0 01:40 15.02.2020
2904 Clear 18 1016 17 16093 2.1 220 00:42 15.02.2020
2905 Clouds 18 1016 17 16093 2.6 0 00:21 15.02.2020
2906 Clear 18 1017 17 16093 2.1 0 23:40 14.02.2020
2907 Clouds 17 1017 17 16093 2.1 30 23:19 14.02.2020
2908 Clear 17 1017 18 16093 2.1 30 22:44 14.02.2020
2909 Clouds 16 1018 19 16093 2.1 100 22:23 14.02.2020
2910 Clear 15 1018 21 16093 3.6 70 21:52 14.02.2020
2911 Clouds 15 1019 21 16093 0.24 81 21:34 14.02.2020
2912 Clear 15 1019 22 16093 2.6 0 20:59 14.02.2020
2913 Clear 15 1019 22 16093 2.6 0 20:40 14.02.2020
2914 Clouds 14 1020 22 16093 1.5 10 20:19 14.02.2020
2915 Clear 12 1020 30 16093 0.96 325 19:43 14.02.2020
2916 Clouds 12 1020 25 16093 1.5 100 19:25 14.02.2020
2917 Clear 11 1020 34 16093 0.96 325 18:59 14.02.2020
2918 Clear 11 1020 34 16093 0.96 325 18:41 14.02.2020
2919 Clouds 11 1020 29 16093 0.96 325 18:22 14.02.2020
2920 Clear 9 1020 41 16093 0.96 325 17:59 14.02.2020
2921 Clear 8 1020 41 16093 0.96 325 17:40 14.02.2020
2922 Clouds 8 1020 34 16093 0.31 11 17:18 14.02.2020
2923 Clear 4 1019 48 16093 0.31 11 16:42 14.02.2020
2924 Clear 5 1019 48 16093 0.31 11 16:42 14.02.2020
2925 Clouds 4 1019 41 14484 2.1 270 16:24 14.02.2020
2926 Clear 4 1019 55 16093 1.5 80 15:58 14.02.2020
2927 Clear 4 1019 55 16093 1.5 80 15:39 14.02.2020
2928 Clouds 4 1019 44 16093 1.5 200 15:21 14.02.2020
2929 Clear 4 1019 55 16093 0.31 11 14:59 14.02.2020
2930 Clear 4 1019 55 16093 0.31 11 14:41 14.02.2020
2931 Clear 4 1019 64 16093 0.31 11 14:22 14.02.2020
2932 Clear 4 1019 51 16093 0.33 324 13:56 14.02.2020
2933 Clear 4 1019 51 16093 0.33 324 13:38 14.02.2020
2934 Clear 4 1018 44 16093 1.5 240 13:19 14.02.2020
2935 Clear 4 1018 51 16093 0.45 323 12:56 14.02.2020
2936 Clear 4 1018 51 16093 0.45 323 12:38 14.02.2020
2937 Clear 4 1018 41 16093 0.45 323 12:19 14.02.2020
2938 Clear 5 1018 51 16093 0.45 323 11:55 14.02.2020
2939 Clear 5 1018 39 16093 2.1 220 11:36 14.02.2020
2940 Clear 5 1018 39 16093 2.1 220 11:18 14.02.2020
2941 Clear 6 1018 44 16093 2.1 30 10:41 14.02.2020
2942 Clear 6 1018 39 16093 2.1 210 10:22 14.02.2020
2943 Clear 6 1018 44 16093 0.6 300 09:45 14.02.2020
2944 Clear 7 1018 36 16093 2.6 220 09:24 14.02.2020
2945 Clear 6 1018 41 16093 2.1 30 08:57 14.02.2020
2946 Clear 6 1018 41 16093 2.1 30 08:39 14.02.2020
2947 Clear 7 1018 34 16093 0.59 336 08:20 14.02.2020
2948 Clear 7 1018 36 16093 0.41 338 07:49 14.02.2020
2949 Clear 8 1018 34 16093 2.1 220 07:29 14.02.2020
2950 Clear 8 1018 31 16093 3.1 50 06:39 14.02.2020
2951 Clear 8 1018 34 16093 2.6 30 06:20 14.02.2020
2952 Clear 9 1018 34 16093 3.6 20 05:29 14.02.2020
2953 Clear 12 1018 25 16093 2.6 60 03:49 14.02.2020
2954 Clear 15 1017 18 16093 2.1 70 02:56 14.02.2020
2955 Clear 15 1017 17 16093 3.1 0 01:57 14.02.2020
2956 Clear 16 1018 16 16093 1.5 70 00:46 14.02.2020
2957 Clear 17 1018 17 16093 1.5 30 00:27 14.02.2020
2958 Clear 16 1018 17 16093 2.1 0 23:57 13.02.2020
2959 Clear 16 1018 17 16093 2.1 0 23:38 13.02.2020
2960 Clear 16 1018 17 16093 2.6 50 23:18 13.02.2020
2961 Clear 16 1019 17 16093 1.5 0 22:40 13.02.2020
2962 Clear 16 1019 17 16093 2.6 60 22:19 13.02.2020
2963 Clear 15 1020 19 16093 1.5 60 21:57 13.02.2020
2964 Clear 15 1020 19 16093 1.5 60 21:37 13.02.2020
2965 Clear 14 1020 20 16093 0.8 40 21:19 13.02.2020
2966 Clear 14 1021 20 16093 2.6 90 20:42 13.02.2020
2967 Clear 13 1021 20 16093 0.8 40 20:22 13.02.2020
2968 Clear 12 1021 25 16093 0.82 326 19:57 13.02.2020
2969 Clear 11 1021 25 16093 0.82 326 19:38 13.02.2020
2970 Clear 11 1021 25 16093 0.82 326 19:38 13.02.2020
2971 Clear 11 1021 25 16093 0.82 326 19:20 13.02.2020
2972 Clear 11 1021 29 16093 0.82 326 18:57 13.02.2020
2973 Clear 11 1021 29 16093 0.82 326 18:39 13.02.2020
2974 Clear 10 1021 27 16093 1.5 80 18:20 13.02.2020
2975 Clear 8 1021 31 16093 0.82 326 17:57 13.02.2020
2976 Clear 8 1021 36 16093 0.82 326 17:37 13.02.2020
2977 Clear 7 1021 36 16093 1.09 1 17:18 13.02.2020
2978 Clear 4 1021 48 16093 1.09 1 16:42 13.02.2020
2979 Clear 3 1020 38 16093 1.09 1 16:21 13.02.2020
2980 Clear 3 1020 55 16093 1.5 70 15:57 13.02.2020
2981 Clear 4 1020 55 16093 1.5 70 15:39 13.02.2020
2982 Clear 4 1020 38 16093 2.1 230 15:19 13.02.2020
2983 Clear 4 1020 51 16093 1.09 1 14:59 13.02.2020
2984 Clear 4 1020 51 16093 1.09 1 14:39 13.02.2020
2985 Clear 4 1019 38 16093 0.72 29 14:21 13.02.2020
2986 Clear 4 1019 47 16093 0.72 29 13:48 13.02.2020
2987 Clear 4 1019 38 16093 0.72 29 13:19 13.02.2020
2988 Clear 4 1019 47 16093 0.96 52 12:58 13.02.2020
2989 Clear 4 1019 47 16093 0.96 52 12:40 13.02.2020
2990 Clear 4 1019 38 16093 0.96 52 12:22 13.02.2020
2991 Clear 5 1019 44 16093 0.96 52 11:55 13.02.2020
2992 Clear 5 1019 36 16093 2.1 290 11:37 13.02.2020
2993 Clear 5 1019 36 16093 2.1 290 11:18 13.02.2020
2994 Clear 5 1019 41 16093 0.59 86 10:41 13.02.2020
2995 Clear 5 1019 36 16093 2.1 280 10:22 13.02.2020
2996 Clear 6 1019 41 16093 0.59 86 09:44 13.02.2020
2997 Clear 6 1019 33 16093 2.1 230 09:23 13.02.2020
2998 Clear 6 1019 44 16093 2.1 40 08:46 13.02.2020
2999 Clear 7 1018 31 16093 1.5 250 08:19 13.02.2020
3000 Clear 7 1018 31 16093 1.5 250 08:19 13.02.2020
3001 Clear 7 1018 31 16093 1.5 250 08:19 13.02.2020
3002 Clear 7 1018 41 16093 0.67 146 07:43 13.02.2020
3003 Clear 7 1018 29 16093 1.5 230 07:23 13.02.2020
3004 Clear 7 1018 39 16093 0.67 146 06:53 13.02.2020
3005 Clear 8 1018 36 16093 2.6 200 06:33 13.02.2020
3006 Clear 8 1018 33 16093 2.6 180 05:50 13.02.2020
3007 Clear 9 1018 27 16093 3.1 220 04:48 13.02.2020
3008 Clear 9 1018 27 16093 3.1 220 04:22 13.02.2020
3009 Clear 12 1017 29 16093 2.1 70 03:41 13.02.2020
3010 Clear 16 1016 17 16093 3.1 90 02:58 13.02.2020
3011 Clear 14 1016 17 16093 3.1 90 02:20 13.02.2020
3012 Clear 16 1016 15 16093 3.6 70 01:41 13.02.2020
3013 Clear 16 1016 17 16093 4.6 60 00:57 13.02.2020
3014 Clouds 16 1017 14 16093 3.1 60 00:27 13.02.2020
3015 Clear 16 1017 17 16093 4.1 40 23:43 12.02.2020
3016 Clouds 16 1017 13 16093 2.1 50 23:23 12.02.2020
3017 Clouds 16 1017 13 16093 2.1 50 23:23 12.02.2020
3018 Clear 15 1017 17 16093 4.1 60 22:59 12.02.2020
3019 Clear 15 1017 17 16093 4.1 60 22:41 12.02.2020
3020 Clouds 15 1018 14 16093 2.6 70 22:22 12.02.2020
3021 Clear 15 1018 17 16093 2.1 0 21:55 12.02.2020
3022 Clouds 15 1019 14 16093 2.1 120 21:37 12.02.2020
3023 Clouds 15 1019 14 16093 2.1 120 21:18 12.02.2020
3024 Clear 14 1019 16 16093 0.81 16 20:43 12.02.2020
3025 Clouds 14 1019 15 16093 1.5 0 20:25 12.02.2020
3026 Clear 11 1020 18 16093 1.4 45 19:57 12.02.2020
3027 Clear 11 1020 18 16093 1.4 45 19:39 12.02.2020
3028 Clouds 10 1019 18 16093 1.5 0 19:21 12.02.2020
3029 Clear 11 1019 22 16093 1.14 39 18:50 12.02.2020
3030 Clear 9 1019 28 16093 1.14 39 18:20 12.02.2020
3031 Clear 9 1019 28 16093 1.4 45 18:20 12.02.2020
3032 Clear 8 1019 26 16093 1.5 220 17:59 12.02.2020
3033 Clear 8 1019 26 16093 1.5 220 17:39 12.02.2020
3034 Clear 6 1019 27 16093 0.72 322 17:19 12.02.2020
3035 Clear 4 1018 32 16093 0.72 322 16:56 12.02.2020
3036 Clear 4 1018 32 16093 0.72 322 16:36 12.02.2020
3037 Clear 3 1018 32 16093 0.28 10 16:18 12.02.2020
3038 Clear 3 1018 32 16093 0.28 10 16:18 12.02.2020
3039 Clear 2 1018 40 16093 0.72 322 15:38 12.02.2020
3040 Clouds 2 1017 32 16093 1.5 230 15:19 12.02.2020
3041 Clear 3 1017 27 16093 0.28 10 14:43 12.02.2020
3042 Clouds 3 1017 26 16093 1.5 240 14:21 12.02.2020
3043 Clear 3 1017 37 16093 0.83 61 13:59 12.02.2020
3044 Clear 3 1017 37 16093 0.83 61 13:40 12.02.2020
3045 Clear 3 1016 32 16093 2.1 210 13:22 12.02.2020
3046 Clear 3 1017 31 16093 0.58 54 12:58 12.02.2020
3047 Clear 3 1017 31 16093 0.58 54 12:39 12.02.2020
3048 Clear 4 1017 32 16093 2.6 210 12:19 12.02.2020
3049 Clear 4 1017 37 16093 1.5 50 11:59 12.02.2020
3050 Clear 4 1017 37 16093 1.5 50 11:40 12.02.2020
3051 Clear 4 1017 26 16093 2.1 210 11:21 12.02.2020
3052 Clear 5 1017 25 16093 0.73 306 10:58 12.02.2020
3053 Clear 5 1017 25 16093 0.73 306 10:39 12.02.2020
3054 Clear 5 1017 24 16093 2.6 240 10:20 12.02.2020
3055 Clear 5 1017 34 16093 0.73 306 09:42 12.02.2020
3056 Clear 5 1017 34 16093 0.73 306 09:42 12.02.2020
3057 Clear 5 1017 34 16093 0.73 306 09:42 12.02.2020
3058 Clear 5 1018 22 16093 3.1 270 09:24 12.02.2020
3059 Clear 5 1018 23 16093 0.73 306 08:59 12.02.2020
3060 Clear 5 1018 23 16093 0.73 306 08:38 12.02.2020
3061 Clear 6 1018 22 16093 1.5 220 08:20 12.02.2020
3062 Clear 6 1018 24 16093 1.03 309 07:58 12.02.2020
3063 Clear 6 1018 24 16093 1.03 309 07:58 12.02.2020
3064 Clear 6 1018 24 16093 1.03 309 07:39 12.02.2020
3065 Clear 5 1018 32 16093 1.03 309 07:19 12.02.2020
3066 Clear 5 1018 32 16093 1.03 309 07:19 12.02.2020
3067 Clear 6 1018 30 16093 2.1 350 06:41 12.02.2020
3068 Clear 6 1018 32 16093 2.1 360 06:18 12.02.2020
3069 Clouds 8 1017 27 16093 4.15 320 05:21 12.02.2020
3070 Clouds 8 1018 15 16093 1.5 320 04:42 12.02.2020
3071 Clear 9 1018 19 16093 2.6 310 03:57 12.02.2020
3072 Clouds 10 1017 12 16093 1.5 160 03:28 12.02.2020
3073 Clear 12 1017 15 16093 3.1 40 02:43 12.02.2020
3074 Clear 12 1017 13 16093 3.6 40 02:24 12.02.2020
3075 Clouds 13 1018 9 16093 4.1 90 01:29 12.02.2020
3076 Clear 14 1017 10 16093 6.2 340 00:40 12.02.2020
3077 Clear 14 1018 10 16093 4.6 50 00:21 12.02.2020
3078 Clear 14 1018 9 16093 6.7 10 23:47 11.02.2020
3079 Clear 14 1018 9 16093 8.2 10 23:29 11.02.2020
3080 Clear 13 1019 9 16093 5.7 350 22:56 11.02.2020
3081 Clear 13 1019 9 16093 5.7 350 22:56 11.02.2020
3082 Clear 13 1019 9 16093 8.2 360 22:38 11.02.2020
3083 Clear 13 1019 9 16093 8.2 360 22:20 11.02.2020
3084 Clear 13 1020 9 16093 9.3 360 21:56 11.02.2020
3085 Clear 12 1020 9 16093 9.3 360 21:38 11.02.2020
3086 Clear 12 1020 10 16093 9.8 10 21:18 11.02.2020
3087 Clear 11 1022 12 16093 7.7 10 20:57 11.02.2020
3088 Clear 11 1022 12 16093 7.7 10 20:38 11.02.2020
3089 Clear 11 1022 12 16093 7.7 10 20:19 11.02.2020
3090 Clear 10 1022 13 16093 10.3 10 19:54 11.02.2020
3091 Clear 10 1022 13 16093 9.3 10 19:36 11.02.2020
3092 Clear 10 1022 13 16093 9.3 10 19:18 11.02.2020
3093 Clear 9 1022 14 16093 11.3 360 18:42 11.02.2020
3094 Clear 9 1023 18 16093 9.3 360 18:24 11.02.2020
3095 -273 0 0 0 0 0 17:55 11.02.2020
3096 Clear 8 1022 20 16093 9.8 350 17:37 11.02.2020
3097 Clear 7 1022 20 16093 9.8 350 17:18 11.02.2020
3098 Clear 7 1022 20 16093 9.8 350 17:18 11.02.2020
3099 Clear 7 1022 17 16093 6.7 350 16:57 11.02.2020
3100 Clear 7 1022 17 16093 6.7 350 16:57 11.02.2020
3101 Clear 6 1022 17 16093 6.7 350 16:38 11.02.2020
3102 Clear 6 1022 22 16093 12.9 360 16:19 11.02.2020
3103 Clear 6 1022 20 16093 7.2 330 15:45 11.02.2020
3104 Clear 6 1021 22 16093 6.2 360 15:26 11.02.2020
3105 Clear 6 1021 22 16093 7.2 350 14:58 11.02.2020
3106 Clear 6 1021 22 16093 7.2 350 14:39 11.02.2020
3107 Clear 7 1020 22 16093 8.2 360 14:18 11.02.2020
3108 Clear 7 1019 20 16093 10.3 10 13:42 11.02.2020
3109 Clear 7 1020 22 16093 9.3 330 13:22 11.02.2020
3110 Clear 7 1019 22 16093 7.7 350 12:59 11.02.2020
3111 Clear 7 1019 22 16093 7.7 350 12:40 11.02.2020
3112 Clear 7 1020 24 16093 8.7 360 12:21 11.02.2020
3113 Clear 7 1019 20 16093 8.7 10 11:55 11.02.2020
3114 Clear 8 1020 24 16093 5.1 360 11:36 11.02.2020
3115 Clear 8 1020 24 16093 5.1 360 11:18 11.02.2020
3116 Clear 8 1018 22 16093 12.3 360 10:39 11.02.2020
3117 Clouds 9 1019 24 16093 12.3 30 10:20 11.02.2020
3118 Clear 9 1018 24 16093 9.8 360 09:57 11.02.2020
3119 Clear 9 1018 24 16093 9.8 360 09:38 11.02.2020
3120 Clouds 9 1019 25 16093 8.2 40 09:20 11.02.2020
3121 Clear 9 1019 23 16093 6.7 40 08:48 11.02.2020
3122 Clear 9 1018 23 16093 9.8 20 08:24 11.02.2020
3123 Clear 10 1017 25 16093 9.3 30 07:49 11.02.2020
3124 Clear 10 1018 23 16093 9.3 40 07:27 11.02.2020
3125 Clear 12 1016 21 16093 12.3 30 06:55 11.02.2020
3126 Clear 12 1017 18 16093 6.2 60 06:37 11.02.2020
3127 Clear 11 1017 18 16093 6.2 60 06:19 11.02.2020
3128 Clear 12 1015 16 16093 8.7 50 05:26 11.02.2020
3129 Clear 12 1014 15 16093 8.2 30 04:53 11.02.2020
3130 Clear 14 1014 17 16093 4.6 350 03:26 11.02.2020
3131 Clear 17 1014 10 16093 4.1 330 02:33 11.02.2020
3132 Thunderstorm 16 1013 13 16093 6.7 10 01:39 11.02.2020
3133 Clear 17 1013 14 16093 6.7 10 00:43 11.02.2020
3134 Clouds 17 1014 16 16093 3.1 60 00:22 11.02.2020
3135 Clear 17 1013 16 16093 8.7 360 23:39 10.02.2020
3136 Clouds 17 1015 18 16093 6.2 40 23:20 10.02.2020
3137 Clear 16 1014 17 16093 7.7 10 22:42 10.02.2020
3138 Clouds 16 1015 21 16093 4.6 10 22:21 10.02.2020
3139 Clear 16 1015 19 16093 6.7 10 21:57 10.02.2020
3140 Clear 15 1015 19 16093 6.7 10 21:39 10.02.2020
3141 Clear 15 1015 19 16093 6.7 10 21:39 10.02.2020
3142 Clouds 15 1016 21 16093 6.7 360 21:20 10.02.2020
3143 Clear 14 1016 20 16093 7.7 20 20:54 10.02.2020
3144 Clear 13 1016 22 16093 6.2 330 20:36 10.02.2020
3145 Clouds 13 1017 20 16093 8.2 360 20:18 10.02.2020
3146 Clear 13 1016 22 16093 9.8 350 19:54 10.02.2020
3147 Clouds 12 1017 23 16093 8.7 350 19:36 10.02.2020
3148 Clouds 12 1017 23 16093 8.7 350 19:36 10.02.2020
3149 Clouds 12 1017 23 16093 8.7 350 19:36 10.02.2020
3150 Clouds 12 1017 23 16093 8.7 350 19:18 10.02.2020
3151 Clear 11 1016 23 16093 7.7 360 18:41 10.02.2020
3152 Clouds 11 1017 25 16093 8.7 350 18:22 10.02.2020
3153 Clear 10 1016 27 16093 7.2 360 17:59 10.02.2020
3154 Clear 9 1016 27 16093 7.2 360 17:39 10.02.2020
3155 Clouds 8 1017 27 16093 7.2 350 17:21 10.02.2020
3156 Clear 8 1016 29 16093 6.2 360 16:59 10.02.2020
3157 Clear 7 1016 29 16093 6.2 360 16:40 10.02.2020
3158 Clouds 7 1016 31 16093 6.7 360 16:20 10.02.2020
3159 Clear 6 1016 33 16093 4.6 360 15:58 10.02.2020
3160 Clear 6 1016 33 16093 4.6 360 15:39 10.02.2020
3161 Clouds 6 1016 39 16093 7.7 350 15:20 10.02.2020
3162 Clear 6 1015 33 16093 5.1 350 14:56 10.02.2020
3163 Clear 6 1015 33 16093 5.1 350 14:38 10.02.2020
3164 Clouds 6 1015 36 16093 6.7 360 14:18 10.02.2020
3165 Clouds 6 1015 39 16093 6.7 360 13:43 10.02.2020
3166 Clouds 6 1015 49 16093 5.7 350 13:24 10.02.2020
3167 Clouds 6 1015 55 16093 5.7 330 12:56 10.02.2020
3168 Clouds 6 1015 52 16093 7.2 340 12:37 10.02.2020
3169 Clouds 6 1015 52 16093 7.2 340 12:19 10.02.2020
3170 Clouds 6 1015 70 16093 6.2 330 11:45 10.02.2020
3171 Clouds 6 1016 65 16093 8.7 330 11:21 10.02.2020
3172 Rain 6 1015 70 16093 7.7 340 10:48 10.02.2020
3173 Rain 6 1016 65 16093 9.8 320 10:29 10.02.2020
3174 Rain 6 1016 70 14484 4.6 320 09:48 10.02.2020
3175 Rain 6 1016 70 11265 7.2 10 09:27 10.02.2020
3176 Rain 7 1016 70 16093 6.7 360 08:59 10.02.2020
3177 Rain 7 1016 70 16093 6.7 360 08:38 10.02.2020
3178 Rain 7 1016 65 14484 7.7 360 08:20 10.02.2020
3179 Rain 7 1014 70 16093 10.8 340 07:52 10.02.2020
3180 Rain 8 1016 49 16093 6.7 20 07:32 10.02.2020
3181 Rain 8 1015 61 11265 10.3 350 06:44 10.02.2020
3182 Clouds 8 1013 45 16093 8.2 340 04:51 10.02.2020
3183 Clouds 8 1013 45 16093 10.8 340 03:53 10.02.2020
3184 Clouds 9 1012 37 16093 8.7 340 02:57 10.02.2020
3185 Clouds 10 1013 43 16093 10.3 340 02:36 10.02.2020
3186 Rain 10 1012 37 16093 8.7 340 01:21 10.02.2020
3187 Clouds 10 1012 32 16093 9.8 340 00:37 10.02.2020
3188 Clouds 11 1011 32 16093 10.3 360 23:59 09.02.2020
3189 Clouds 11 1011 32 16093 10.3 360 23:41 09.02.2020
3190 Clouds 11 1012 32 16093 7.7 350 23:23 09.02.2020
3191 Clouds 11 1012 32 16093 7.7 350 23:23 09.02.2020
3192 Clouds 12 1011 32 16093 12.3 350 22:43 09.02.2020
3193 Clouds 12 1012 26 16093 7.2 350 22:22 09.02.2020
3194 Clouds 12 1011 30 16093 10.8 10 21:54 09.02.2020
3195 Clouds 12 1013 28 16093 9.3 350 21:36 09.02.2020
3196 Clouds 12 1013 28 16093 9.3 350 21:18 09.02.2020
3197 Clear 12 1012 26 16093 7.7 360 20:43 09.02.2020
3198 Clouds 12 1013 28 16093 10.3 350 20:20 09.02.2020
3199 Clear 12 1012 30 16093 6.7 30 19:54 09.02.2020
3200 Clouds 12 1012 28 16093 7.2 360 19:36 09.02.2020
3201 Clouds 12 1012 28 16093 7.2 360 19:18 09.02.2020
3202 Clear 11 1012 30 16093 9.8 10 18:41 09.02.2020
3203 Clouds 10 1012 23 16093 6.2 30 18:23 09.02.2020
3204 Clear 10 1012 32 16093 5.1 10 17:43 09.02.2020
3205 Clouds 10 1012 25 16093 6.2 60 17:23 09.02.2020
3206 Clear 9 1011 34 16093 5.7 350 16:57 09.02.2020
3207 Clear 9 1011 34 16093 5.7 350 16:39 09.02.2020
3208 Clouds 8 1012 25 16093 5.1 10 16:20 09.02.2020
3209 Clear 8 1011 34 16093 6.7 360 15:57 09.02.2020
3210 Clear 8 1011 34 16093 6.7 360 15:39 09.02.2020
3211 Clouds 8 1011 25 16093 7.2 360 15:20 09.02.2020
3212 Clouds 8 1009 29 16093 8.7 350 14:42 09.02.2020
3213 Clouds 8 1009 29 16093 8.7 350 14:42 09.02.2020
3214 Clouds 9 1010 27 16093 10.3 350 14:23 09.02.2020
3215 Clouds 9 1009 31 16093 7.7 340 13:55 09.02.2020
3216 Clouds 9 1009 27 16093 7.2 30 13:37 09.02.2020
3217 Clouds 9 1009 27 16093 7.2 30 13:18 09.02.2020
3218 Clear 9 1009 30 16093 6.2 310 12:42 09.02.2020
3219 Clear 9 1009 30 16093 6.2 310 12:42 09.02.2020
3220 Clouds 9 1008 37 16093 4.6 40 12:20 09.02.2020
3221 Clear 10 1007 39 16093 4.6 310 11:58 09.02.2020
3222 Clear 10 1007 39 16093 4.6 310 11:39 09.02.2020
3223 Clear 10 1008 37 16093 2.6 50 11:19 09.02.2020
3224 Clear 10 1007 37 16093 3.76 194 10:42 09.02.2020
3225 Clear 10 1007 37 16093 3.6 310 10:23 09.02.2020
3226 Clear 11 1007 33 16093 3.1 170 09:57 09.02.2020
3227 Clear 11 1007 33 16093 3.1 170 09:38 09.02.2020
3228 Clear 11 1007 33 16093 3.1 170 09:38 09.02.2020
3229 Clear 11 1007 30 16093 3.6 180 09:19 09.02.2020
3230 Clear 11 1007 28 16093 5.7 180 08:39 09.02.2020
3231 Clear 11 1006 34 16093 3.1 320 08:20 09.02.2020
3232 Clear 11 1007 26 16093 4.6 190 07:51 09.02.2020
3233 Clear 12 1007 28 16093 4.6 200 06:59 09.02.2020
3234 Clear 13 1007 28 16093 3.1 230 06:36 09.02.2020
3235 Clouds 13 1008 28 16093 4.1 170 05:52 09.02.2020
3236 Clouds 13 1008 28 16093 4.1 170 05:52 09.02.2020
3237 Clear 13 1007 33 16093 2.6 210 05:32 09.02.2020
3238 Clear 13 1007 29 16093 2.1 260 04:23 09.02.2020
3239 Clear 17 1008 25 16093 5.7 150 02:49 09.02.2020
3240 Clouds 18 1008 24 16093 1.5 50 02:30 09.02.2020
3241 Clouds 18 1009 24 16093 2.1 60 01:36 09.02.2020
3242 Clear 19 1009 19 16093 6.2 150 00:55 09.02.2020
3243 Clouds 19 1010 22 16093 7.79 232 00:29 09.02.2020
3244 Clear 19 1010 18 16093 7.7 150 23:48 08.02.2020
3245 Clouds 19 1011 23 16093 1.5 70 23:24 08.02.2020
3246 Clear 18 1011 19 16093 5.7 160 22:56 08.02.2020
3247 Clear 18 1011 19 16093 5.7 160 22:38 08.02.2020
3248 Clear 17 1012 20 16093 6.2 100 22:20 08.02.2020
3249 Clear 16 1012 20 16093 4.1 170 21:44 08.02.2020
3250 Clouds 16 1014 25 16093 2.1 90 21:25 08.02.2020
3251 Clear 15 1014 23 16093 3.6 110 20:59 08.02.2020
3252 Clear 15 1014 23 16093 3.6 110 20:39 08.02.2020
3253 Clear 15 1015 28 16093 3.1 70 20:19 08.02.2020
3254 Clear 14 1015 26 16093 0.96 85 19:56 08.02.2020
3255 Clear 14 1015 26 16093 0.96 85 19:38 08.02.2020
3256 Clear 14 1015 30 16093 0.96 85 19:19 08.02.2020
3257 Clear 13 1016 34 16093 0.96 85 18:44 08.02.2020
3258 Clear 12 1016 34 16093 1.5 20 18:26 08.02.2020
3259 Clear 10 1016 42 16093 0.96 85 17:59 08.02.2020
3260 Clear 9 1016 42 16093 0.96 85 17:41 08.02.2020
3261 Clear 8 1016 42 16093 0.56 122 17:19 08.02.2020
3262 Clear 6 1017 56 16093 0.56 122 16:41 08.02.2020
3263 Clear 6 1016 39 16093 2.6 210 16:22 08.02.2020
3264 Clear 5 1017 59 16093 0.56 122 15:57 08.02.2020
3265 Clear 5 1017 59 16093 0.56 122 15:39 08.02.2020
3266 Clear 5 1016 48 16093 2.6 220 15:18 08.02.2020
3267 Clear 5 1016 55 16093 1.5 360 14:44 08.02.2020
3268 Clear 5 1016 55 16093 0.55 114 14:20 08.02.2020
3269 Clear 6 1016 56 16093 0.55 114 13:56 08.02.2020
3270 Clear 6 1016 56 16093 0.55 114 13:37 08.02.2020
3271 Clear 6 1016 45 16093 1.5 240 13:19 08.02.2020
3272 Clear 6 1016 48 16093 1.5 280 12:39 08.02.2020
3273 Clear 6 1016 42 16093 1.5 230 12:20 08.02.2020
3274 Clear 6 1016 48 16093 0.38 81 11:48 08.02.2020
3275 Clear 7 1017 42 16093 1.5 220 11:22 08.02.2020
3276 Clouds 7 1017 42 16093 0.79 153 10:59 08.02.2020
3277 Clouds 7 1017 42 16093 0.79 153 10:40 08.02.2020
3278 Clear 8 1017 39 16093 1.5 240 10:20 08.02.2020
3279 Clear 8 1017 48 16093 1.5 20 09:51 08.02.2020
3280 Clear 8 1018 34 16093 2.6 210 09:26 08.02.2020
3281 Clear 9 1018 39 16093 0.79 153 08:49 08.02.2020
3282 Clear 9 1018 32 16093 1.5 250 08:29 08.02.2020
3283 Clear 10 1018 42 16093 0.58 227 07:59 08.02.2020
3284 Clear 10 1018 42 16093 0.58 227 07:39 08.02.2020
3285 Clear 10 1018 42 16093 0.58 227 06:56 08.02.2020
3286 Clear 11 1018 45 16093 2.1 330 06:23 08.02.2020
3287 Clear 12 1018 37 16093 0.58 227 05:39 08.02.2020
3288 Clear 11 1018 34 16093 0.5 208 05:21 08.02.2020
3289 Clear 12 1017 32 16093 2.1 340 04:31 08.02.2020
3290 Clear 14 1017 30 16093 2.1 20 03:39 08.02.2020
3291 Clear 18 1017 26 16093 2.6 50 02:43 08.02.2020
3292 Clear 19 1017 20 16093 2.6 90 01:35 08.02.2020
3293 Clear 20 1017 18 16093 2.6 50 00:57 08.02.2020
3294 Clouds 20 1017 18 16093 1.5 120 00:25 08.02.2020
3295 Clear 20 1017 19 16093 3.1 40 23:59 07.02.2020
3296 Clear 19 1017 19 16093 3.1 40 23:39 07.02.2020
3297 Clouds 19 1017 20 16093 3.1 80 23:20 07.02.2020
3298 Clouds 19 1018 23 16093 4.6 100 22:55 07.02.2020
3299 Clouds 18 1018 23 16093 4.6 100 22:37 07.02.2020
3300 Clouds 18 1018 23 16093 4.6 100 22:18 07.02.2020
3301 Clear 18 1018 17 16093 2.6 340 21:41 07.02.2020
3302 Clouds 18 1019 22 16093 3.1 80 21:21 07.02.2020
3303 Clear 17 1019 25 16093 1.78 341 20:40 07.02.2020
3304 Clouds 16 1020 25 16093 1.5 150 20:21 07.02.2020
3305 Clear 14 1020 33 16093 1.5 140 19:56 07.02.2020
3306 Clear 14 1020 33 16093 1.5 140 19:37 07.02.2020
3307 Clouds 13 1020 28 16093 0.86 48 19:19 07.02.2020
3308 Clear 13 1020 37 16093 0.86 48 18:45 07.02.2020
3309 Clouds 13 1020 34 16093 0.86 48 18:25 07.02.2020
3310 Clear 10 1020 52 16093 0.86 48 17:55 07.02.2020
3311 Clouds 10 1020 45 16093 3.6 100 17:37 07.02.2020
3312 Clouds 8 1020 45 16093 3.6 100 17:19 07.02.2020
3313 Clear 7 1019 56 16093 0.55 303 16:46 07.02.2020
3314 Clear 6 1019 60 16093 0.55 303 16:23 07.02.2020
3315 Clear 6 1019 64 16093 0.55 303 15:55 07.02.2020
3316 Clear 5 1019 59 16093 0.55 303 15:29 07.02.2020
3317 Clear 5 1018 59 16093 0.55 303 14:57 07.02.2020
3318 Clear 6 1018 59 16093 0.55 303 14:38 07.02.2020
3319 Clear 6 1018 52 16093 3.1 280 14:19 07.02.2020
3320 Clear 6 1018 55 16093 0.28 205 13:57 07.02.2020
3321 Clear 6 1018 55 16093 0.28 205 13:38 07.02.2020
3322 Clear 6 1018 52 16093 2.1 200 13:20 07.02.2020
3323 Clear 6 1018 52 16093 0.36 242 12:42 07.02.2020
3324 Clear 6 1017 49 16093 1.5 200 12:23 07.02.2020
3325 Clear 6 1017 49 16093 1.5 200 12:23 07.02.2020
3326 Clear 7 1017 52 16093 2.1 60 11:45 07.02.2020
3327 Clear 7 1017 52 16093 1.5 190 11:24 07.02.2020
3328 Clear 7 1018 52 16093 3.1 60 10:59 07.02.2020
3329 Clear 7 1018 52 16093 3.1 60 10:39 07.02.2020
3330 Clear 7 1017 42 16093 1.5 0 10:20 07.02.2020
3331 Clear 7 1017 48 16093 0.98 98 09:45 07.02.2020
3332 Clouds 7 1018 45 16093 2.1 290 09:25 07.02.2020
3333 Clear 7 1017 48 16093 2.1 40 08:57 07.02.2020
3334 Clouds 8 1018 45 16093 0.98 98 08:36 07.02.2020
3335 Clouds 8 1018 45 16093 1.05 149 08:18 07.02.2020
3336 Clear 8 1017 39 16093 3.6 40 07:40 07.02.2020
3337 Clouds 8 1017 37 16093 0.79 158 07:19 07.02.2020
3338 Clear 9 1017 37 16093 4.1 40 06:42 07.02.2020
3339 Clouds 9 1017 37 16093 1.5 250 06:22 07.02.2020
3340 Clear 9 1016 32 16093 3.6 60 05:43 07.02.2020
3341 Clear 12 1016 34 16093 3.1 30 03:55 07.02.2020
3342 Clouds 16 1016 26 16093 2.1 100 02:28 07.02.2020
3343 Clouds 16 1016 26 16093 2.6 90 01:22 07.02.2020
3344 Clouds 16 1016 26 16093 2.1 100 00:37 07.02.2020
3345 Clear 16 1016 21 16093 3.6 90 23:39 06.02.2020
3346 Clear 16 1016 21 16093 3.6 90 23:39 06.02.2020
3347 Clouds 16 1016 26 16093 3.6 80 23:20 06.02.2020
3348 Clear 16 1016 23 16093 4.6 80 22:57 06.02.2020
3349 Clear 16 1016 23 16093 4.6 80 22:39 06.02.2020
3350 Clouds 16 1017 24 16093 2.1 90 22:20 06.02.2020
3351 Clear 15 1017 29 16093 4.1 340 21:37 06.02.2020
3352 Clouds 14 1018 26 16093 1.5 0 21:19 06.02.2020
3353 Clear 13 1019 22 16093 2.02 33 20:56 06.02.2020
3354 Clouds 13 1019 27 16093 2.02 33 20:37 06.02.2020
3355 Clouds 12 1019 27 16093 1.42 99 20:18 06.02.2020
3356 Clear 10 1020 21 16093 1.58 89 19:57 06.02.2020
3357 Clear 11 1020 21 16093 1.58 89 19:38 06.02.2020
3358 Clouds 10 1020 29 16093 1.5 70 19:20 06.02.2020
3359 Clear 9 1020 26 16093 1.58 89 18:44 06.02.2020
3360 Clouds 8 1020 33 16093 2.1 80 18:26 06.02.2020
3361 Clear 7 1020 32 16093 1.58 89 17:59 06.02.2020
3362 Clear 7 1020 32 16093 1.58 89 17:59 06.02.2020
3363 Clear 7 1020 32 16093 1.58 89 17:41 06.02.2020
3364 Clouds 5 1020 35 16093 0.48 86 17:20 06.02.2020
3365 Clouds 5 1020 35 16093 0.48 86 17:20 06.02.2020
3366 Clear 3 1020 35 16093 0.48 86 16:43 06.02.2020
3367 Clouds 3 1020 41 16093 2.6 270 16:25 06.02.2020
3368 Clear 2 1020 50 16093 2.1 260 15:58 06.02.2020
3369 Clear 2 1020 50 16093 2.1 260 15:40 06.02.2020
3370 Clear 2 1019 44 16093 0.48 86 15:20 06.02.2020
3371 Clear 2 1019 43 16093 1.5 350 14:46 06.02.2020
3372 Clear 2 1019 41 16093 1.5 90 14:25 06.02.2020
3373 Clear 2 1019 40 16093 2.6 310 13:46 06.02.2020
3374 Clouds 3 1019 41 16093 1.5 220 13:27 06.02.2020
3375 Clear 2 1019 47 16093 2.1 50 12:56 06.02.2020
3376 Clouds 3 1019 44 16093 0.81 101 12:37 06.02.2020
3377 Clouds 3 1019 44 16093 0.81 101 12:37 06.02.2020
3378 Clouds 2 1019 44 16093 0.81 101 12:18 06.02.2020
3379 Clear 2 1019 43 16093 0.81 101 11:55 06.02.2020
3380 Clouds 2 1019 38 16093 1.5 230 11:37 06.02.2020
3381 Clouds 2 1019 38 16093 1.5 230 11:37 06.02.2020
3382 Clouds 2 1019 38 16093 1.5 230 11:18 06.02.2020
3383 Clear 2 1019 40 16093 0.44 119 10:41 06.02.2020
3384 Clear 2 1019 37 16093 1 60 10:22 06.02.2020
3385 Clear 3 1019 43 16093 0.44 119 09:59 06.02.2020
3386 Clear 3 1019 43 16093 0.44 119 09:40 06.02.2020
3387 Clouds 3 1019 35 16093 0.44 119 09:20 06.02.2020
3388 Clouds 3 1019 40 16093 0.44 119 08:45 06.02.2020
3389 Clear 3 1019 37 16093 2.6 30 08:23 06.02.2020
3390 Clouds 3 1019 37 16093 0.97 115 07:55 06.02.2020
3391 Clouds 3 1019 37 16093 0.97 115 07:55 06.02.2020
3392 Clear 3 1019 35 16093 2.6 10 07:29 06.02.2020
3393 Clouds 4 1019 37 16093 0.97 115 06:48 06.02.2020
3394 Clouds 4 1019 26 16093 0.97 115 06:19 06.02.2020
3395 Clear 5 1018 32 16093 3.6 10 05:32 06.02.2020
3396 Clear 6 1018 30 16093 1.5 350 03:47 06.02.2020
3397 Clear 8 1018 24 16093 1.52 215 02:58 06.02.2020
3398 Clear 9 1018 19 16093 0.25 313 01:55 06.02.2020
3399 Clouds 10 1018 17 16093 2.1 150 01:24 06.02.2020
3400 Clouds 10 1019 19 16093 2.1 200 00:29 06.02.2020
3401 Clear 10 1019 18 16093 2.6 0 23:56 05.02.2020
3402 Clear 10 1019 18 16093 2.6 0 23:38 05.02.2020
3403 Clear 9 1019 18 16093 2.1 20 23:19 05.02.2020
3404 Clear 8 1020 19 16093 2.1 0 22:41 05.02.2020
3405 Clear 8 1020 19 16093 2.1 0 22:41 05.02.2020
3406 Clouds 8 1021 19 16093 2.1 170 22:23 05.02.2020
3407 Clear 7 1021 19 16093 4.6 30 21:57 05.02.2020
3408 Clear 8 1021 19 16093 4.6 30 21:39 05.02.2020
3409 Clear 7 1021 19 16093 3.6 30 21:20 05.02.2020
3410 Clear 7 1022 19 16093 3.6 50 20:39 05.02.2020
3411 Clear 7 1022 19 16093 3.6 50 20:39 05.02.2020
3412 Clear 6 1022 19 16093 4.6 30 20:21 05.02.2020
3413 Clear 5 1023 18 16093 5.7 20 19:59 05.02.2020
3414 Clear 5 1023 18 16093 5.7 20 19:40 05.02.2020
3415 Clear 4 1024 20 16093 4.6 40 19:19 05.02.2020
3416 Clear 4 1024 21 16093 5.1 30 18:57 05.02.2020
3417 Clear 4 1024 21 16093 5.1 30 18:57 05.02.2020
3418 Clear 4 1024 21 16093 5.1 30 18:39 05.02.2020
3419 Clear 3 1023 20 16093 4.6 360 18:19 05.02.2020
3420 Clear 2 1023 27 16093 2.6 110 17:38 05.02.2020
3421 Clear 1 1023 27 16093 2.6 110 17:20 05.02.2020
3422 Clear 0 1023 34 16093 0.81 342 16:57 05.02.2020
3423 Clouds -1 1023 33 16093 0.81 342 16:39 05.02.2020
3424 Clouds -2 1023 33 16093 0.81 342 16:20 05.02.2020
3425 Clear -2 1023 30 16093 0.81 342 15:46 05.02.2020
3426 Clouds -2 1023 33 16093 1.5 190 15:20 05.02.2020
3427 Clear -2 1023 28 16093 0.81 342 14:59 05.02.2020
3428 Clear -2 1023 28 16093 0.81 342 14:59 05.02.2020
3429 Clear -2 1023 28 16093 0.81 342 14:40 05.02.2020
3430 Clouds -1 1022 35 16093 2.6 120 14:21 05.02.2020
3431 Clear -1 1022 24 16093 3.6 10 13:43 05.02.2020
3432 Clear -1 1023 26 16093 2.1 30 13:23 05.02.2020
3433 Clear -1 1023 22 16093 1.32 20 12:58 05.02.2020
3434 Clear -1 1023 24 16093 2.1 80 12:36 05.02.2020
3435 Clear 0 1023 24 16093 2.1 80 12:18 05.02.2020
3436 Clear -1 1022 24 16093 3.1 10 11:41 05.02.2020
3437 Clear 0 1023 22 16093 3.1 90 11:23 05.02.2020
3438 Clear 0 1023 19 16093 1.5 10 10:57 05.02.2020
3439 Clear 0 1023 21 16093 1.5 80 10:39 05.02.2020
3440 Clear 0 1023 21 16093 1.5 80 10:18 05.02.2020
3441 Clear 1 1023 17 16093 7.2 30 09:40 05.02.2020
3442 Clear 1 1023 17 16093 4.6 30 09:21 05.02.2020
3443 Clear 0 1023 17 16093 6.7 30 08:55 05.02.2020
3444 Clear 0 1024 21 16093 3.1 50 08:37 05.02.2020
3445 Clear 1 1024 21 16093 3.1 50 08:18 05.02.2020
3446 Clear 1 1023 22 16093 4.1 10 07:42 05.02.2020
3447 Clear 2 1023 23 16093 5.1 20 07:18 05.02.2020
3448 Clear 2 1023 23 16093 7.7 40 06:39 05.02.2020
3449 Clear 2 1023 23 16093 7.7 40 06:39 05.02.2020
3450 Clear 3 1023 21 16093 8.7 30 06:20 05.02.2020
3451 Clear 3 1022 21 16093 7.7 30 05:20 05.02.2020
3452 Clear 4 1022 18 16093 7.2 40 04:58 05.02.2020
3453 Clear 4 1022 15 16093 6.2 20 04:22 05.02.2020
3454 Clear 7 1021 14 16093 6.7 40 02:52 05.02.2020
3455 Clear 7 1020 8 16093 8.2 20 02:21 05.02.2020
3456 Clear 8 1020 8 16093 6.2 40 01:28 05.02.2020
3457 Clear 8 1020 8 16093 6.7 360 00:24 05.02.2020
3458 Clear 8 1020 8 16093 8.7 360 23:40 04.02.2020
3459 Clear 8 1020 8 16093 11.3 10 23:20 04.02.2020
3460 Clear 8 1020 9 16093 7.2 350 22:57 04.02.2020
3461 Clear 8 1020 9 16093 7.2 350 22:57 04.02.2020
3462 Clear 8 1020 10 16093 8.2 360 22:39 04.02.2020
3463 Clear 8 1020 10 16093 8.2 360 22:20 04.02.2020
3464 Clear 7 1020 11 16093 10.3 20 21:56 04.02.2020
3465 Clear 7 1021 12 16093 8.2 350 21:37 04.02.2020
3466 Clear 7 1021 12 16093 8.2 350 21:18 04.02.2020
3467 Clear 6 1022 13 16093 9.8 360 20:54 04.02.2020
3468 Clear 6 1023 13 16093 8.7 340 20:36 04.02.2020
3469 Clear 6 1023 13 16093 8.7 340 20:18 04.02.2020
3470 Clear 6 1022 14 16093 9.8 350 19:42 04.02.2020
3471 Clear 5 1022 14 16093 7.2 360 19:24 04.02.2020
3472 Clear 5 1022 15 16093 8.7 10 18:59 04.02.2020
3473 Clear 5 1022 15 16093 8.7 10 18:59 04.02.2020
3474 Clear 4 1022 15 16093 8.7 10 18:39 04.02.2020
3475 Clear 4 1022 18 16093 8.2 340 18:19 04.02.2020
3476 Clear 3 1022 19 16093 7.7 340 17:54 04.02.2020
3477 Clear 2 1021 21 16093 8.2 330 17:36 04.02.2020
3478 Clear 2 1021 21 16093 8.2 330 17:18 04.02.2020
3479 Clear 1 1021 22 16093 7.7 340 16:38 04.02.2020
3480 Clear 1 1021 22 16093 7.7 340 16:38 04.02.2020
3481 Clear 1 1021 22 16093 7.7 340 16:20 04.02.2020
3482 Clear 0 1020 24 16093 5.7 320 15:56 04.02.2020
3483 Clear 0 1020 24 16093 5.7 320 15:38 04.02.2020
3484 Clear 0 1020 22 16093 6.7 330 15:19 04.02.2020
3485 Clear 1 1020 24 16093 6.7 320 14:45 04.02.2020
3486 Clear 1 1020 24 16093 9.8 340 14:26 04.02.2020
3487 Clear 1 1019 24 16093 7.2 320 13:59 04.02.2020
3488 Clear 1 1019 24 16093 7.2 320 13:59 04.02.2020
3489 Clear 1 1019 24 16093 7.2 320 13:40 04.02.2020
3490 Clear 1 1019 23 16093 9.8 340 13:22 04.02.2020
3491 Clear 1 1019 24 16093 7.2 320 12:54 04.02.2020
3492 Clear 1 1019 21 16093 8.7 350 12:36 04.02.2020
3493 Clear 1 1019 21 16093 8.7 350 12:18 04.02.2020
3494 Clear 2 1019 22 16093 6.7 330 11:54 04.02.2020
3495 Clear 2 1019 21 16093 8.7 350 11:36 04.02.2020
3496 Clear 1 1019 21 16093 8.7 350 11:18 04.02.2020
3497 Clear 1 1018 22 16093 6.7 340 10:41 04.02.2020
3498 Clear 2 1018 21 16093 10.3 340 10:22 04.02.2020
3499 Clear 2 1018 24 16093 5.7 360 09:42 04.02.2020
3500 Clear 2 1018 21 16093 9.3 340 09:23 04.02.2020
3501 Clear 1 1018 21 16093 6.2 340 08:58 04.02.2020
3502 Clear 2 1018 21 16093 6.2 340 08:39 04.02.2020
3503 Clear 2 1018 21 16093 6.7 340 08:21 04.02.2020
3504 Clear 2 1017 21 16093 6.2 340 07:46 04.02.2020
3505 Clear 2 1017 19 16093 7.7 340 07:22 04.02.2020
3506 Clear 2 1017 19 16093 6.7 350 06:43 04.02.2020
3507 Clear 2 1017 19 16093 7.7 340 06:18 04.02.2020
3508 Clear 3 1017 18 16093 5.7 360 05:28 04.02.2020
3509 Clear 4 1015 14 16093 5.7 30 03:52 04.02.2020
3510 Clear 4 1015 14 16093 7.7 20 03:32 04.02.2020
3511 Clear 5 1014 13 16093 7.7 20 02:55 04.02.2020
3512 Clouds 5 1014 10 16093 10.3 340 02:31 04.02.2020
3513 Clear 6 1013 9 16093 8.7 10 01:53 04.02.2020
3514 Clouds 6 1013 8 16093 12.9 340 01:35 04.02.2020
3515 Clouds 6 1013 8 16093 12.9 340 01:35 04.02.2020
3516 Clear 7 1013 8 16093 8.2 330 00:44 04.02.2020
3517 Clouds 7 1013 10 16093 10.3 10 00:21 04.02.2020
3518 Clouds 7 1013 10 16093 11.3 340 23:39 03.02.2020
3519 Clouds 7 1012 13 16093 8.2 360 23:19 03.02.2020
3520 Clear 7 1012 10 16093 9.3 320 22:39 03.02.2020
3521 Clear 7 1012 12 16093 7.2 300 22:20 03.02.2020
3522 Clear 7 1012 12 16093 7.2 280 21:54 03.02.2020
3523 Clear 7 1012 12 16093 7.2 280 21:36 03.02.2020
3524 Clouds 7 1013 14 16093 10.3 330 21:18 03.02.2020
3525 Clear 6 1013 12 16093 6.7 320 20:41 03.02.2020
3526 Clouds 6 1014 14 16093 9.8 350 20:19 03.02.2020
3527 Clear 6 1013 13 16093 10.3 320 19:56 03.02.2020
3528 Clear 5 1013 13 16093 10.3 320 19:38 03.02.2020
3529 Clouds 5 1014 15 16093 10.3 350 19:19 03.02.2020
3530 Clear 5 1013 15 16093 10.8 310 18:43 03.02.2020
3531 Clouds 5 1014 14 16093 9.8 350 18:24 03.02.2020
3532 Clear 4 1013 17 16093 10.8 330 17:59 03.02.2020
3533 Clear 4 1013 17 16093 10.8 330 17:39 03.02.2020
3534 Clear 4 1013 15 16093 9.3 340 17:20 03.02.2020
3535 Clear 4 1013 15 16093 9.3 340 17:20 03.02.2020
3536 Clear 4 1013 15 16093 9.3 340 17:20 03.02.2020
3537 Clear 4 1012 23 16093 8.2 340 16:55 03.02.2020
3538 Clouds 3 1011 25 16093 11.3 340 16:37 03.02.2020
3539 Clouds 3 1011 25 16093 11.3 340 16:18 03.02.2020
3540 Clear 3 1011 25 16093 12.9 330 15:54 03.02.2020
3541 Clouds 4 1011 27 16093 9.3 350 15:36 03.02.2020
3542 Clouds 4 1011 27 16093 9.3 350 15:18 03.02.2020
3543 Clouds 4 1011 27 16093 9.3 350 15:18 03.02.2020
3544 Clouds 4 1009 27 16093 13.4 320 14:39 03.02.2020
3545 Clear 4 1009 28 16093 9.3 330 14:21 03.02.2020
3546 Clouds 4 1008 30 16093 14.4 320 13:55 03.02.2020
3547 Clouds 5 1007 28 16093 15.9 320 13:36 03.02.2020
3548 Clouds 5 1007 28 16093 15.9 320 13:18 03.02.2020
3549 Clouds 6 1007 28 16093 13.9 320 12:40 03.02.2020
3550 -273 0 0 0 0 0 12:21 03.02.2020
3551 Clouds 7 1006 20 16093 12.3 320 11:58 03.02.2020
3552 Clouds 8 1006 18 16093 9.8 340 11:37 03.02.2020
3553 Clouds 8 1006 18 16093 9.8 340 11:18 03.02.2020
3554 Clouds 9 1006 15 16093 11.8 320 10:41 03.02.2020
3555 Clouds 9 1005 16 16093 10.3 330 10:23 03.02.2020
3556 Clouds 9 1005 16 16093 10.3 330 10:23 03.02.2020
3557 Clouds 10 1005 18 16093 12.3 320 09:49 03.02.2020
3558 Clouds 10 1004 21 16093 8.2 350 09:25 03.02.2020
3559 Clouds 12 1003 26 16093 7.7 280 08:57 03.02.2020
3560 Clouds 12 1003 26 16093 7.7 280 08:39 03.02.2020
3561 Clouds 12 1003 26 16093 7.7 280 08:39 03.02.2020
3562 Clouds 12 1002 26 16093 8.2 240 08:21 03.02.2020
3563 Clear 14 1001 21 16093 12.9 290 07:41 03.02.2020
3564 Clouds 15 999 26 14484 8.7 210 07:21 03.02.2020
3565 Clear 17 1000 25 16093 7.7 230 06:51 03.02.2020
3566 Clouds 17 1000 25 16093 7.7 210 06:30 03.02.2020
3567 Clouds 18 998 19 14484 9.8 220 05:37 03.02.2020
3568 Clouds 18 998 19 14484 9.8 220 05:18 03.02.2020
3569 Clouds 19 1001 23 16093 10.3 160 04:30 03.02.2020
3570 Clouds 21 1002 14 16093 8.2 210 02:37 03.02.2020
3571 Clouds 20 1002 14 16093 8.2 210 02:18 03.02.2020
3572 Clear 22 1005 21 16093 12.3 160 00:48 03.02.2020
3573 Clouds 22 1005 11 16093 6.7 220 00:25 03.02.2020
3574 Clear 21 1006 21 16093 10.3 170 23:39 02.02.2020
3575 Clear 20 1007 21 16093 9.8 160 23:21 02.02.2020
3576 Clear 19 1008 19 16093 8.2 150 22:58 02.02.2020
3577 Clear 19 1008 19 16093 8.2 150 22:39 02.02.2020
3578 Clear 19 1008 19 16093 8.2 150 22:39 02.02.2020
3579 Clouds 19 1009 27 16093 2.1 50 22:21 02.02.2020
3580 Clear 17 1010 24 16093 5.1 160 21:56 02.02.2020
3581 Clear 17 1010 24 16093 5.1 160 21:38 02.02.2020
3582 Clouds 17 1012 29 16093 2.6 70 21:20 02.02.2020
3583 Clear 16 1012 27 16093 3.6 80 20:56 02.02.2020
3584 Clear 15 1013 29 16093 4.1 70 20:37 02.02.2020
3585 Clear 15 1013 29 16093 4.1 70 20:19 02.02.2020
3586 Clear 15 1013 29 16093 4.1 70 20:19 02.02.2020
3587 Clear 15 1014 30 16093 1.19 120 19:55 02.02.2020
3588 Clouds 14 1015 32 16093 2.6 70 19:37 02.02.2020
3589 Clouds 14 1015 32 16093 2.6 70 19:18 02.02.2020
3590 Clear 13 1016 37 16093 1.19 120 18:39 02.02.2020
3591 Clouds 12 1016 34 16093 1.19 120 18:21 02.02.2020
3592 Clear 11 1017 52 16093 1.19 120 17:58 02.02.2020
3593 Clear 10 1017 52 16093 1.19 120 17:38 02.02.2020
3594 Clouds 8 1017 42 16093 0.47 190 17:19 02.02.2020
3595 Clear 7 1017 52 16093 0.47 190 16:58 02.02.2020
3596 Clear 6 1017 52 16093 0.47 190 16:39 02.02.2020
3597 Clouds 5 1017 48 16093 1.5 240 16:19 02.02.2020
3598 Clear 6 1018 64 16093 0.47 190 15:59 02.02.2020
3599 Clear 6 1018 64 16093 0.47 190 15:39 02.02.2020
3600 Clear 6 1018 39 16093 0.47 190 15:20 02.02.2020
3601 Clear 6 1018 56 16093 0.47 190 14:57 02.02.2020
3602 Clear 6 1018 56 16093 0.47 190 14:39 02.02.2020
3603 Clear 6 1018 36 16093 0.59 332 14:18 02.02.2020
3604 Clear 7 1018 64 16093 1.5 20 13:55 02.02.2020
3605 Clear 7 1018 45 16093 1.5 210 13:36 02.02.2020
3606 Clear 7 1018 45 16093 1.5 210 13:18 02.02.2020
3607 Clear 7 1019 65 16093 0.55 322 12:42 02.02.2020
3608 Clear 7 1019 42 16093 2.1 250 12:22 02.02.2020
3609 Clear 7 1020 56 16093 2.1 100 11:56 02.02.2020
3610 Clear 7 1020 56 16093 2.1 100 11:38 02.02.2020
3611 Clear 7 1020 49 16093 2.1 220 11:18 02.02.2020
3612 Clear 8 1021 52 16093 2.1 150 10:55 02.02.2020
3613 Clear 8 1021 52 16093 2.1 150 10:55 02.02.2020
3614 Clear 8 1021 42 16093 2.1 280 10:36 02.02.2020
3615 Clear 8 1021 42 16093 2.1 280 10:18 02.02.2020
3616 Clear 8 1021 52 16093 0.29 295 09:41 02.02.2020
3617 Clear 8 1022 42 16093 1.5 230 09:21 02.02.2020
3618 Clear 9 1022 45 16093 0.29 295 08:57 02.02.2020
3619 Clear 9 1022 42 16093 0.4 289 08:39 02.02.2020
3620 Clear 9 1022 37 16093 1.5 240 08:20 02.02.2020
3621 Clear 10 1022 42 16093 0.51 314 07:44 02.02.2020
3622 Clear 10 1023 34 16093 2.1 240 07:26 02.02.2020
3623 Clear 10 1023 42 16093 1.5 340 06:39 02.02.2020
3624 Clear 11 1023 37 16093 2.1 240 06:21 02.02.2020
3625 Clear 11 1023 43 16093 1.5 330 05:47 02.02.2020
3626 Clear 12 1023 40 16093 3.6 350 04:34 02.02.2020
3627 Clear 16 1023 39 16093 3.1 30 03:24 02.02.2020
3628 Clear 18 1024 24 16093 0.69 290 02:24 02.02.2020
3629 Clear 19 1024 25 16093 1.28 340 01:52 02.02.2020
3630 Clear 19 1024 21 16093 1.31 1 01:19 02.02.2020
3631 Clear 20 1024 22 16093 3.1 40 00:41 02.02.2020
3632 Clear 20 1025 21 16093 1.5 50 00:19 02.02.2020
3633 Clear 20 1025 22 16093 2.1 0 23:45 01.02.2020
3634 Clear 20 1026 22 16093 1.5 60 23:21 01.02.2020
3635 Clear 19 1026 24 16093 1.46 343 22:45 01.02.2020
3636 Clear 19 1027 25 16093 1.5 70 22:19 01.02.2020
3637 Clear 18 1027 25 16093 2.6 0 21:44 01.02.2020
3638 Clouds 18 1028 27 16093 2.6 90 21:20 01.02.2020
3639 Clouds 18 1028 27 16093 2.6 90 21:20 01.02.2020
3640 Clear 17 1028 27 16093 1.5 0 20:57 01.02.2020
3641 Clear 17 1028 27 16093 1.5 0 20:39 01.02.2020
3642 Clouds 16 1029 25 16093 2.6 80 20:20 01.02.2020
3643 Clear 15 1029 30 16093 1.53 311 19:56 01.02.2020
3644 Clouds 15 1030 28 16093 1.5 260 19:37 01.02.2020
3645 Clouds 14 1030 28 16093 1.5 260 19:19 01.02.2020
3646 Clear 13 1030 39 16093 1.53 311 18:56 01.02.2020
3647 Clouds 13 1030 37 16093 1.5 230 18:37 01.02.2020
3648 Clouds 12 1030 37 16093 1.5 230 18:19 01.02.2020
3649 Clear 11 1030 45 16093 2.6 180 17:55 01.02.2020
3650 Clouds 10 1030 42 16093 2.1 300 17:37 01.02.2020
3651 Clouds 8 1030 42 16093 2.1 300 17:18 01.02.2020
3652 Clear 6 1030 52 16093 1.5 170 16:41 01.02.2020
3653 Clouds 6 1029 48 16093 2.1 220 16:22 01.02.2020
3654 Clear 5 1029 55 16093 2.1 130 15:55 01.02.2020
3655 Clouds 5 1029 48 16093 2.6 270 15:37 01.02.2020
3656 Clouds 6 1029 48 16093 2.6 270 15:18 01.02.2020
3657 Clear 6 1029 56 16093 2.6 360 14:40 01.02.2020
3658 Clouds 6 1029 48 16093 3.6 220 14:20 01.02.2020
3659 Clear 6 1029 56 16093 2.1 70 13:45 01.02.2020
3660 Clouds 6 1029 48 16093 1.5 290 13:24 01.02.2020
3661 Clear 6 1029 55 16093 1.05 339 12:56 01.02.2020
3662 Clear 6 1029 55 16093 1.05 339 12:38 01.02.2020
3663 Clear 7 1029 42 16093 2.1 300 12:20 01.02.2020
3664 Clear 7 1029 42 16093 2.1 300 12:20 01.02.2020
3665 Clouds 7 1029 52 16093 1.5 20 11:39 01.02.2020
3666 Clouds 7 1029 45 16093 2.1 210 11:21 01.02.2020
3667 Clouds 8 1029 39 16093 0.89 306 10:58 01.02.2020
3668 Clouds 8 1029 39 16093 0.89 306 10:39 01.02.2020
3669 Clear 8 1029 42 16093 0.89 306 10:21 01.02.2020
3670 Clear 8 1029 48 16093 0.89 306 09:58 01.02.2020
3671 Clear 8 1029 48 16093 0.89 306 09:39 01.02.2020
3672 Clear 8 1029 45 16093 0.89 306 09:20 01.02.2020
3673 Clear 8 1029 42 16093 0.89 306 08:48 01.02.2020
3674 Clear 9 1029 34 16093 1.41 301 07:51 01.02.2020
3675 Clear 9 1029 34 16093 1.41 301 07:27 01.02.2020
3676 Clear 9 1028 37 16093 2.6 350 06:58 01.02.2020
3677 Clear 9 1028 37 16093 2.6 350 06:38 01.02.2020
3678 Clear 10 1028 37 16093 1.41 301 05:52 01.02.2020
3679 Clear 10 1028 37 16093 1.41 301 05:52 01.02.2020
3680 Clear 11 1028 32 16093 2.1 10 04:20 01.02.2020
3681 Clouds 12 1027 26 16093 1.5 210 03:22 01.02.2020
3682 Clear 14 1027 30 16093 2.6 20 02:46 01.02.2020
3683 Clear 15 1027 28 16093 0.48 259 02:28 01.02.2020
3684 Clear 15 1027 23 16093 1.5 20 01:55 01.02.2020
3685 Clouds 16 1027 25 16093 1.15 27 01:33 01.02.2020
3686 Clear 17 1027 21 16093 2.6 360 00:30 01.02.2020
3687 Clear 16 1027 21 16093 2.1 350 23:59 31.01.2020
3688 Clouds 17 1027 23 16093 3.1 0 23:37 31.01.2020
3689 Clouds 17 1027 23 16093 3.1 0 23:18 31.01.2020
3690 Clear 16 1027 25 16093 1.5 0 22:41 31.01.2020
3691 Clouds 16 1028 25 16093 1.5 0 22:23 31.01.2020
3692 Clear 15 1028 21 16093 3.1 350 21:59 31.01.2020
3693 Clear 15 1028 21 16093 3.1 350 21:39 31.01.2020
3694 Clear 15 1028 21 16093 3.1 20 21:20 31.01.2020
3695 Clear 15 1029 22 16093 4.1 350 20:57 31.01.2020
3696 Clear 15 1029 22 16093 4.1 350 20:57 31.01.2020
3697 Clear 15 1029 22 16093 4.1 350 20:39 31.01.2020
3698 Clear 13 1030 26 16093 3.6 300 20:20 31.01.2020
3699 Clear 13 1030 26 16093 3.6 330 19:56 31.01.2020
3700 Clear 12 1030 26 16093 3.6 330 19:38 31.01.2020
3701 Clouds 12 1030 34 16093 1.76 325 19:19 31.01.2020
3702 Clear 11 1030 32 16093 2.1 250 18:43 31.01.2020
3703 Clouds 11 1031 37 16093 1.76 325 18:25 31.01.2020
3704 Clear 9 1030 45 16093 1.76 325 17:56 31.01.2020
3705 Clouds 8 1030 45 16093 2.6 220 17:37 31.01.2020
3706 Clouds 6 1030 45 16093 2.6 220 17:19 31.01.2020
3707 Clear 6 1029 48 16093 1.08 330 16:56 31.01.2020
3708 Clouds 6 1029 52 16093 2.1 220 16:37 31.01.2020
3709 Clouds 5 1029 52 16093 2.1 220 16:18 31.01.2020
3710 Clear 4 1029 55 16093 1.08 330 15:41 31.01.2020
3711 Clear 4 1028 52 16093 2.6 210 15:21 31.01.2020
3712 Clear 4 1028 55 16093 1.5 350 14:58 31.01.2020
3713 Clear 5 1028 55 16093 1.5 350 14:39 31.01.2020
3714 Clear 5 1028 52 16093 2.1 200 14:20 31.01.2020
3715 Clear 5 1027 45 16093 3.6 30 13:43 31.01.2020
3716 Clear 5 1027 52 16093 0.59 12 13:25 31.01.2020
3717 Clear 6 1027 45 16093 1.5 30 12:45 31.01.2020
3718 Clear 6 1027 45 16093 2.1 290 12:26 31.01.2020
3719 Clear 6 1026 42 16093 2.1 360 11:56 31.01.2020
3720 Clear 6 1026 42 16093 2.1 360 11:38 31.01.2020
3721 Clouds 6 1026 45 16093 2.1 270 11:20 31.01.2020
3722 Clear 7 1026 39 16093 3.1 40 10:55 31.01.2020
3723 Clouds 7 1026 42 16093 1.5 280 10:37 31.01.2020
3724 Clouds 7 1026 42 16093 1.5 280 10:18 31.01.2020
3725 Clear 8 1025 42 16093 1.01 40 09:42 31.01.2020
3726 Clear 8 1025 42 16093 1.01 40 09:42 31.01.2020
3727 Clouds 8 1026 42 16093 1.01 40 09:22 31.01.2020
3728 Clear 9 1026 37 16093 3.1 20 08:56 31.01.2020
3729 Clear 9 1026 37 16093 3.1 20 08:38 31.01.2020
3730 Clouds 9 1026 37 16093 0.96 18 08:20 31.01.2020
3731 Clear 9 1026 37 16093 1.5 10 07:47 31.01.2020
3732 Clouds 9 1026 34 16093 1.42 37 07:19 31.01.2020
3733 Clouds 9 1026 34 16093 1.42 37 07:19 31.01.2020
3734 Clouds 10 1025 34 16093 1.5 140 06:37 31.01.2020
3735 Clear 11 1024 35 16093 4.1 30 05:55 31.01.2020
3736 Clouds 10 1024 32 16093 5.1 40 05:20 31.01.2020
3737 Clouds 11 1023 24 16093 3.1 320 04:20 31.01.2020
3738 Clear 14 1022 30 16093 2.6 70 02:49 31.01.2020
3739 Clouds 16 1021 20 16093 6.07 11 01:30 31.01.2020
3740 Clear 16 1021 20 16093 4.6 10 00:39 31.01.2020
3741 Clouds 17 1021 18 16093 2.1 120 00:20 31.01.2020
3742 Clear 17 1021 20 16093 5.1 360 23:40 30.01.2020
3743 Clear 17 1021 20 16093 5.1 360 23:40 30.01.2020
3744 Clear 17 1021 20 16093 5.1 360 23:40 30.01.2020
3745 Clouds 16 1021 18 16093 2.1 80 23:21 30.01.2020
3746 Clear 15 1021 21 16093 4.1 340 22:38 30.01.2020
3747 Clouds 15 1022 19 16093 1.5 0 22:20 30.01.2020
3748 Clear 15 1022 22 16093 2.1 0 21:58 30.01.2020
3749 Clear 15 1022 22 16093 2.1 0 21:40 30.01.2020
3750 Clear 14 1022 21 16093 6.2 350 21:18 30.01.2020
3751 Clear 14 1023 21 16093 6.7 350 20:56 30.01.2020
3752 Clear 13 1023 21 16093 5.7 340 20:37 30.01.2020
3753 Clear 13 1023 21 16093 5.7 340 20:19 30.01.2020
3754 Clear 11 1023 22 16093 4.6 20 19:42 30.01.2020
3755 Clouds 11 1023 27 16093 2.07 345 19:19 30.01.2020
3756 Clear 11 1023 27 16093 3.6 330 18:58 30.01.2020
3757 Clear 11 1023 27 16093 3.6 330 18:58 30.01.2020
3758 Clouds 10 1023 34 16093 1.5 0 18:36 30.01.2020
3759 Clouds 9 1023 34 16093 1.5 0 18:18 30.01.2020
3760 Clear 8 1023 42 16093 2.07 345 17:41 30.01.2020
3761 Clouds 7 1022 36 16093 2.1 180 17:19 30.01.2020
3762 Clear 6 1022 39 16093 2.1 260 16:58 30.01.2020
3763 Clear 5 1022 39 16093 2.1 260 16:39 30.01.2020
3764 Clouds 4 1022 41 16093 2.1 250 16:21 30.01.2020
3765 Clear 4 1022 44 16093 1.36 349 15:44 30.01.2020
3766 Clouds 4 1022 41 16093 2.6 270 15:21 30.01.2020
3767 Clear 4 1021 41 16093 1.36 349 14:57 30.01.2020
3768 Clear 4 1021 41 16093 1.36 349 14:37 30.01.2020
3769 Clouds 4 1021 41 16093 2.1 220 14:19 30.01.2020
3770 Clear 5 1021 33 16093 3.6 350 13:41 30.01.2020
3771 Clouds 5 1022 41 16093 1.5 210 13:22 30.01.2020
3772 Clear 6 1021 33 16093 5.7 350 12:55 30.01.2020
3773 Clouds 6 1022 36 16093 2.6 30 12:36 30.01.2020
3774 Clouds 6 1022 36 16093 2.6 30 12:18 30.01.2020
3775 Clear 7 1021 36 16093 2.6 0 11:40 30.01.2020
3776 Clouds 7 1022 39 16093 1.5 150 11:22 30.01.2020
3777 Clear 7 1021 34 16093 5.1 350 10:58 30.01.2020
3778 Clear 8 1021 34 16093 5.1 350 10:38 30.01.2020
3779 Clouds 7 1022 34 16093 1.5 0 10:19 30.01.2020
3780 Clear 8 1021 34 16093 5.7 340 09:44 30.01.2020
3781 Clouds 8 1021 29 16093 3.1 70 09:24 30.01.2020
3782 Clear 8 1021 31 16093 7.2 350 08:42 30.01.2020
3783 Clouds 8 1022 29 16093 3.6 90 08:22 30.01.2020
3784 Clear 8 1021 34 16093 5.1 350 07:57 30.01.2020
3785 Clear 9 1021 34 16093 5.1 350 07:39 30.01.2020
3786 Clear 10 1021 36 16093 3.6 340 06:57 30.01.2020
3787 Clouds 10 1022 27 16093 3.1 60 06:36 30.01.2020
3788 Clear 10 1021 34 16093 3.1 0 05:59 30.01.2020
3789 Clouds 11 1021 26 16093 2.6 120 05:28 30.01.2020
3790 Clouds 12 1020 26 16093 2.6 90 04:49 30.01.2020
3791 Clear 13 1020 37 16093 6.2 360 03:47 30.01.2020
3792 Clear 13 1019 32 16093 4.6 20 02:56 30.01.2020
3793 Clouds 15 1018 18 16093 10.8 40 01:23 30.01.2020
3794 Clouds 16 1018 18 16093 10.8 40 00:30 30.01.2020
3795 Clear 16 1017 21 16093 9.3 20 23:56 29.01.2020
3796 Clear 16 1017 21 16093 9.3 20 23:38 29.01.2020
3797 Clouds 16 1018 20 16093 8.7 40 23:20 29.01.2020
3798 Clear 16 1017 23 16093 6.7 10 22:55 29.01.2020
3799 Clouds 16 1018 20 16093 6.7 30 22:37 29.01.2020
3800 Clouds 15 1018 20 16093 6.7 30 22:18 29.01.2020
3801 Clear 15 1018 23 16093 8.7 40 21:54 29.01.2020
3802 Clouds 15 1019 21 16093 8.7 360 21:36 29.01.2020
3803 Clouds 15 1019 21 16093 8.7 360 21:18 29.01.2020
3804 Clouds 15 1019 21 16093 8.7 360 21:18 29.01.2020
3805 Clear 14 1018 26 16093 12.3 360 20:40 29.01.2020
3806 Clouds 14 1020 24 16093 8.2 340 20:21 29.01.2020
3807 Clouds 14 1020 24 16093 8.2 340 20:21 29.01.2020
3808 Clear 14 1019 28 16093 9.3 10 19:58 29.01.2020
3809 Clear 14 1019 28 16093 9.3 10 19:38 29.01.2020
3810 Clear 14 1019 28 16093 9.3 10 19:38 29.01.2020
3811 Clouds 13 1020 28 16093 12.9 360 19:20 29.01.2020
3812 Clouds 12 1019 32 16093 9.8 340 18:58 29.01.2020
3813 Clouds 13 1019 30 16093 9.3 340 18:37 29.01.2020
3814 Clouds 12 1019 30 16093 9.3 340 18:18 29.01.2020
3815 Clear 11 1018 30 16093 10.8 340 17:40 29.01.2020
3816 Clouds 11 1018 30 16093 9.8 350 17:22 29.01.2020
3817 Clouds 10 1018 34 16093 6.2 340 16:43 29.01.2020
3818 Clouds 9 1018 42 16093 3.1 330 16:23 29.01.2020
3819 Clouds 7 1018 56 16093 3.88 324 15:59 29.01.2020
3820 Clouds 7 1018 56 16093 3.88 324 15:38 29.01.2020
3821 Clouds 7 1017 48 16093 2.6 220 15:20 29.01.2020
3822 Clouds 7 1017 48 16093 2.6 280 14:45 29.01.2020
3823 Clouds 7 1017 45 16093 3.88 324 14:22 29.01.2020
3824 Clear 7 1017 42 16093 3.6 40 13:57 29.01.2020
3825 Clear 7 1017 42 16093 3.6 40 13:38 29.01.2020
3826 Clear 7 1017 52 16093 2.1 210 13:20 29.01.2020
3827 Clouds 6 1016 52 16093 1.08 309 12:56 29.01.2020
3828 Clear 6 1017 52 16093 2.6 280 12:37 29.01.2020
3829 Clear 6 1017 52 16093 2.6 280 12:19 29.01.2020
3830 Clear 6 1017 52 16093 1.08 309 11:45 29.01.2020
3831 Clear 7 1017 45 16093 3.1 210 11:22 29.01.2020
3832 Clear 7 1017 52 16093 0.44 297 10:47 29.01.2020
3833 Clouds 7 1017 49 16093 1.5 250 10:27 29.01.2020
3834 Clouds 7 1018 49 16093 2.1 270 09:59 29.01.2020
3835 Clouds 7 1018 49 16093 2.1 270 09:40 29.01.2020
3836 Clouds 7 1018 49 16093 2.1 270 09:20 29.01.2020
3837 Clear 7 1017 42 16093 0.44 297 08:56 29.01.2020
3838 Clear 7 1017 42 16093 0.44 297 08:38 29.01.2020
3839 Clear 7 1017 42 16093 0.44 297 08:38 29.01.2020
3840 Clouds 8 1018 45 16093 0.7 269 08:18 29.01.2020
3841 Clear 8 1018 42 16093 0.7 269 07:43 29.01.2020
3842 Clouds 8 1018 40 16093 2.1 240 07:23 29.01.2020
3843 Clear 9 1018 42 16093 2.1 340 06:38 29.01.2020
3844 Clouds 9 1018 37 16093 0.7 269 06:20 29.01.2020
3845 Clear 10 1018 37 16093 2.1 300 05:52 29.01.2020
3846 Clear 10 1018 37 16093 2.1 300 05:52 29.01.2020
3847 Clouds 10 1018 33 16093 0.7 269 05:34 29.01.2020
3848 Clouds 11 1018 33 16093 1.07 4 04:39 29.01.2020
3849 Clear 11 1018 30 16093 4.6 30 03:59 29.01.2020
3850 Clear 14 1018 28 16093 2.6 50 02:39 29.01.2020
3851 Clouds 15 1019 25 16093 3.6 80 01:27 29.01.2020
3852 Clear 16 1019 23 16093 2.1 130 00:39 29.01.2020
3853 Clouds 16 1019 25 16093 3.1 70 00:21 29.01.2020
3854 Clear 16 1020 23 16093 2.6 90 23:41 28.01.2020
3855 Clouds 16 1020 26 16093 2.1 170 23:20 28.01.2020
3856 Clear 16 1020 25 16093 1.5 60 22:56 28.01.2020
3857 Clouds 16 1021 23 16093 1.5 0 22:36 28.01.2020
3858 Clouds 16 1021 23 16093 1.5 0 22:18 28.01.2020
3859 Clouds 16 1021 23 16093 1.5 0 22:18 28.01.2020
3860 Clear 16 1022 25 16093 1.36 13 21:39 28.01.2020
3861 Clouds 15 1023 26 16093 1.36 13 21:20 28.01.2020
3862 Clear 15 1023 30 16093 1.5 0 20:46 28.01.2020
3863 Clouds 14 1024 30 16093 1.36 13 20:27 28.01.2020
3864 Clear 14 1024 30 16093 0.98 360 19:57 28.01.2020
3865 Clear 13 1024 30 16093 0.98 360 19:38 28.01.2020
3866 Clouds 13 1025 28 16093 0.98 360 19:19 28.01.2020
3867 Clear 12 1025 34 16093 0.98 360 18:54 28.01.2020
3868 Clouds 12 1024 34 16093 1.5 0 18:36 28.01.2020
3869 Clouds 12 1024 34 16093 1.5 0 18:18 28.01.2020
3870 Clear 10 1024 42 16093 0.98 360 17:54 28.01.2020
3871 Clouds 9 1024 39 16093 0.98 360 17:36 28.01.2020
3872 Clouds 8 1024 39 16093 0.77 344 17:18 28.01.2020
3873 Clear 6 1024 48 16093 2.1 120 16:44 28.01.2020
3874 Clouds 6 1024 45 16093 0.77 344 16:25 28.01.2020
3875 Clear 5 1024 48 16093 0.77 344 15:57 28.01.2020
3876 Clear 5 1024 48 16093 0.77 344 15:38 28.01.2020
3877 Clear 5 1024 52 16093 0.77 344 15:18 28.01.2020
3878 Clear 6 1023 39 16093 0.77 344 14:44 28.01.2020
3879 Clouds 6 1024 45 16093 2.6 270 14:20 28.01.2020
3880 Clear 6 1024 39 16093 0.77 326 13:42 28.01.2020
3881 Clouds 7 1024 42 16093 2.1 210 13:24 28.01.2020
3882 Clear 6 1024 42 16093 1.5 290 12:45 28.01.2020
3883 Clouds 7 1024 42 16093 3.1 200 12:25 28.01.2020
3884 Clear 7 1024 39 16093 0.91 334 11:59 28.01.2020
3885 Clear 7 1024 39 16093 0.91 334 11:41 28.01.2020
3886 Clear 8 1025 42 16093 2.6 200 11:21 28.01.2020
3887 Clear 8 1024 39 16093 0.47 328 10:44 28.01.2020
3888 Clear 8 1024 34 16093 2.6 300 10:26 28.01.2020
3889 Clear 8 1024 34 16093 4.1 330 09:59 28.01.2020
3890 Clear 8 1024 34 16093 4.1 330 09:59 28.01.2020
3891 Clear 8 1024 34 16093 4.1 330 09:39 28.01.2020
3892 Clear 9 1024 37 16093 2.1 200 09:20 28.01.2020
3893 Clear 9 1024 32 16093 3.1 330 08:44 28.01.2020
3894 Clouds 9 1025 34 16093 1.5 220 08:25 28.01.2020
3895 Clear 10 1024 32 16093 1.5 0 07:44 28.01.2020
3896 Clouds 10 1024 32 16093 0.96 7 07:26 28.01.2020
3897 Clear 10 1024 34 16093 4.1 10 06:47 28.01.2020
3898 Clouds 11 1024 28 16093 2.1 240 06:24 28.01.2020
3899 Clouds 12 1023 22 16093 3.1 270 05:37 28.01.2020
3900 Clear 11 1023 34 16093 3.1 40 05:19 28.01.2020
3901 Clear 13 1023 26 16093 3.6 10 03:47 28.01.2020
3902 Clear 16 1023 24 16093 3.1 10 02:44 28.01.2020
3903 Clear 16 1023 24 16093 3.1 10 02:44 28.01.2020
3904 Clear 17 1022 21 16093 1.5 290 02:24 28.01.2020
3905 Clear 17 1022 17 16093 3.1 10 01:52 28.01.2020
3906 Clouds 18 1023 16 16093 6.7 20 01:20 28.01.2020
3907 Clear 18 1022 16 16093 4.1 10 00:41 28.01.2020
3908 Clouds 19 1022 15 16093 4.6 10 00:19 28.01.2020
3909 Clear 18 1022 17 16093 2.6 340 23:42 27.01.2020
3910 Clouds 19 1023 14 16093 6.2 20 23:19 27.01.2020
3911 Clear 19 1022 18 16093 4.1 320 22:45 27.01.2020
3912 Clouds 18 1023 15 16093 8.7 10 22:20 27.01.2020
3913 Clouds 18 1023 15 16093 8.7 10 22:20 27.01.2020
3914 Clouds 18 1023 15 16093 8.7 10 22:20 27.01.2020
3915 Clear 18 1023 17 16093 4.1 310 21:57 27.01.2020
3916 Clear 18 1023 17 16093 4.1 310 21:39 27.01.2020
3917 Clouds 18 1023 15 16093 6.7 360 21:19 27.01.2020
3918 Clear 17 1024 18 16093 5.7 340 20:56 27.01.2020
3919 Clear 17 1024 17 16093 7.2 20 20:37 27.01.2020
3920 Clear 17 1024 17 16093 7.2 20 20:19 27.01.2020
3921 Clear 16 1024 23 16093 6.2 320 19:42 27.01.2020
3922 Clear 16 1025 25 16093 5.7 30 19:23 27.01.2020
3923 Clear 14 1024 24 16093 7.2 360 19:00 27.01.2020
3924 Clear 14 1024 24 16093 7.2 360 18:39 27.01.2020
3925 Clear 13 1024 37 16093 2.7 343 18:21 27.01.2020
3926 Clear 13 1024 28 16093 5.7 350 17:57 27.01.2020
3927 Clear 12 1024 43 16093 2.1 170 17:37 27.01.2020
3928 Clear 10 1024 49 16093 1.5 160 17:18 27.01.2020
3929 Clear 10 1023 47 16093 5.1 350 16:42 27.01.2020
3930 Clear 9 1023 40 16093 2.6 130 16:24 27.01.2020
3931 Clear 8 1022 47 16093 4.1 340 15:59 27.01.2020
3932 Clear 9 1022 47 16093 4.1 340 15:40 27.01.2020
3933 Clouds 9 1022 37 16093 4.1 330 15:19 27.01.2020
3934 Clear 9 1021 61 16093 2.1 130 14:55 27.01.2020
3935 Clouds 9 1023 37 16093 4.6 320 14:37 27.01.2020
3936 Clouds 9 1023 37 16093 4.6 320 14:18 27.01.2020
3937 Clear 9 1021 57 16093 3.17 318 13:42 27.01.2020
3938 Clouds 9 1021 32 16093 7.2 330 13:21 27.01.2020
3939 Clear 9 1021 61 16093 1.43 295 12:56 27.01.2020
3940 Clouds 9 1021 32 16093 7.2 340 12:37 27.01.2020
3941 Clouds 9 1021 32 16093 7.2 340 12:19 27.01.2020
3942 Clouds 9 1021 32 16093 7.2 340 12:19 27.01.2020
3943 Clear 9 1020 57 16093 1.43 295 11:42 27.01.2020
3944 Clear 10 1020 37 16093 5.7 330 11:21 27.01.2020
3945 Clear 10 1020 37 16093 5.7 330 11:21 27.01.2020
3946 Clear 10 1020 53 16093 4.6 350 10:44 27.01.2020
3947 Clear 10 1020 40 16093 4.1 20 10:25 27.01.2020
3948 Clear 10 1020 57 16093 1.49 307 09:58 27.01.2020
3949 Clear 10 1020 57 16093 1.49 307 09:39 27.01.2020
3950 Clear 9 1019 61 16093 1.49 307 09:18 27.01.2020
3951 Clear 10 1019 53 16093 2.6 350 08:46 27.01.2020
3952 Clear 10 1019 57 16093 2.6 20 08:22 27.01.2020
3953 Clear 11 1019 46 16093 4.1 360 07:54 27.01.2020
3954 Clear 10 1019 46 16093 4.6 330 07:35 27.01.2020
3955 Clear 11 1018 50 16093 4.6 340 06:55 27.01.2020
3956 Clouds 11 1018 47 16093 2.1 260 06:27 27.01.2020
3957 Clouds 12 1018 47 16093 3.6 320 05:28 27.01.2020
3958 Clear 13 1017 38 16093 3.6 350 03:58 27.01.2020
3959 Clouds 15 1016 36 16093 3.1 210 02:42 27.01.2020
3960 Clouds 17 1016 34 16093 1.5 120 01:31 27.01.2020
3961 Clouds 17 1016 34 16093 2.6 70 00:58 27.01.2020
3962 Clouds 17 1016 34 16093 2.6 70 00:37 27.01.2020
3963 Clouds 18 1016 34 16093 2.6 70 00:18 27.01.2020
3964 Clouds 17 1017 38 16093 1.5 90 23:41 26.01.2020
3965 Clouds 17 1017 38 16093 1.5 90 23:41 26.01.2020
3966 Clouds 16 1017 38 16093 1.5 90 23:19 26.01.2020
3967 Clear 16 1017 31 16093 6.7 160 22:55 26.01.2020
3968 Clouds 16 1018 36 16093 2.6 90 22:36 26.01.2020
3969 Clouds 16 1018 36 16093 2.6 90 22:18 26.01.2020
3970 Clouds 16 1018 36 16093 2.6 90 22:18 26.01.2020
3971 Clear 16 1018 27 16093 5.7 130 21:55 26.01.2020
3972 Clear 16 1016 33 16093 2.17 156 21:37 26.01.2020
3973 Clouds 15 1019 41 16093 3.6 100 21:19 26.01.2020
3974 Clear 15 1019 38 16093 3.1 90 20:55 26.01.2020
3975 Clouds 14 1020 41 16093 2.6 80 20:36 26.01.2020
3976 Clouds 14 1020 41 16093 2.6 80 20:18 26.01.2020
3977 Clear 13 1020 41 16093 0.69 93 19:56 26.01.2020
3978 Clear 13 1021 41 16093 0.69 93 19:36 26.01.2020
3979 Clear 13 1021 41 16093 0.69 93 19:18 26.01.2020
3980 Clear 12 1021 50 16093 0.69 93 18:41 26.01.2020
3981 Clouds 12 1021 34 16093 0.69 93 18:22 26.01.2020
3982 Clear 10 1020 34 16093 0.69 93 17:58 26.01.2020
3983 Clear 10 1020 34 16093 0.69 93 17:38 26.01.2020
3984 Clouds 9 1020 50 16093 0.32 112 17:19 26.01.2020
3985 Clear 7 1020 50 16093 0.32 112 16:58 26.01.2020
3986 Clear 6 1020 50 16093 0.32 112 16:39 26.01.2020
3987 Clouds 6 1020 56 16093 1.5 220 16:20 26.01.2020
3988 Clouds 6 1020 52 16093 1.5 220 15:55 26.01.2020
3989 Clouds 6 1020 52 16093 1.5 220 15:37 26.01.2020
3990 Clear 6 1020 56 16093 3.1 190 15:18 26.01.2020
3991 Clouds 7 1017 56 0 0.32 112 14:40 26.01.2020
3992 Clear 7 1020 56 16093 3.6 180 14:19 26.01.2020
3993 Clear 7 1020 56 16093 3.6 180 13:43 26.01.2020
3994 Clear 7 1020 56 16093 3.6 180 13:20 26.01.2020
3995 Clear 8 1020 52 16093 4.1 160 12:58 26.01.2020
3996 Clear 7 1020 52 16093 4.1 160 12:39 26.01.2020
3997 Clear 8 1020 52 16093 4.1 160 12:21 26.01.2020
3998 Clouds 8 1020 66 0 0.92 137 11:57 26.01.2020
3999 Clouds 8 1020 66 0 0.92 137 11:57 26.01.2020
4000 Clouds 8 1018 51 0 0.92 137 11:38 26.01.2020
4001 Clouds 8 1020 46 16093 3.1 240 11:18 26.01.2020
4002 Clouds 8 1020 46 16093 3.1 240 10:58 26.01.2020
4003 Clouds 8 1020 46 16093 3.1 240 10:38 26.01.2020
4004 Clouds 8 1020 46 16093 3.1 240 10:38 26.01.2020
4005 Clouds 8 1020 46 16093 3.1 240 10:38 26.01.2020
4006 Clouds 9 1020 46 16093 3.1 240 10:20 26.01.2020
4007 Clear 9 1020 43 16093 1.5 30 09:56 26.01.2020
4008 Clear 8 1020 43 16093 1.5 30 09:38 26.01.2020
4009 Clouds 9 1020 46 16093 1.5 220 09:20 26.01.2020
4010 Clear 9 1021 43 16093 2.1 40 08:42 26.01.2020
4011 Clouds 9 1021 43 16093 1.5 210 08:22 26.01.2020
4012 Clear 10 1021 43 16093 0.7 248 07:54 26.01.2020
4013 Clouds 10 1020 40 16093 2.1 250 07:36 26.01.2020
4014 Clouds 10 1020 40 16093 2.1 250 07:36 26.01.2020
4015 Clouds 10 1020 40 16093 2.1 250 07:18 26.01.2020
4016 Clouds 10 1020 37 16093 0.7 248 06:26 26.01.2020
4017 Clouds 11 1020 37 16093 0.7 248 05:29 26.01.2020
4018 Clear 12 1020 42 16093 1.1 256 04:43 26.01.2020
4019 Clear 15 1019 43 16093 2.1 40 02:38 26.01.2020
4020 Clear 17 1019 29 16093 0.97 357 01:46 26.01.2020
4021 Clouds 17 1019 24 16093 2.1 100 01:23 26.01.2020
4022 Clear 18 1019 27 16093 0.76 327 00:43 26.01.2020
4023 Clouds 18 1019 24 16093 0.76 327 00:25 26.01.2020
4024 Clouds 18 1017 32 0 0.76 327 23:40 25.01.2020
4025 Clouds 18 1019 32 0 0.45 111 23:21 25.01.2020
4026 Clouds 18 1019 32 0 1.34 105 22:56 25.01.2020
4027 Clouds 18 1019 32 0 1.34 105 22:56 25.01.2020
4028 Clouds 18 1018 33 0 1.94 352 22:37 25.01.2020
4029 Clouds 18 1018 33 0 1.94 352 22:37 25.01.2020
4030 Clouds 18 1019 30 0 1.79 162 22:18 25.01.2020
4031 Clouds 17 1020 29 0 1.94 352 21:55 25.01.2020
4032 Clouds 17 1020 32 0 0.45 186 21:37 25.01.2020
4033 Clouds 17 1018 31 0 1.94 352 21:19 25.01.2020
4034 Clouds 17 1020 33 0 0.89 95 20:43 25.01.2020
4035 Clouds 16 1020 35 0 0.89 135 20:24 25.01.2020
4036 Clouds 15 1019 35 0 1.38 311 19:48 25.01.2020
4037 Clouds 15 1019 35 0 1.38 311 19:48 25.01.2020
4038 Clouds 14 1021 40 0 1.38 311 19:20 25.01.2020
4039 Clouds 14 1021 40 0 1.38 311 19:20 25.01.2020
4040 Clouds 14 1021 40 0 1.34 281 18:59 25.01.2020
4041 Clouds 14 1021 40 0 1.65 312 18:41 25.01.2020
4042 Clouds 13 1020 43 0 1.65 312 18:20 25.01.2020
4043 Clouds 12 1021 42 0 1.38 311 17:54 25.01.2020
4044 Clouds 11 1022 43 0 0.89 316 17:36 25.01.2020
4045 Clear 8 1021 69 16093 3.6 160 17:18 25.01.2020
4046 Clear 7 1021 69 16093 3.6 160 16:42 25.01.2020
4047 Clear 6 1021 69 16093 3.6 160 16:22 25.01.2020
4048 Clear 6 1021 69 16093 3.6 160 15:56 25.01.2020
4049 Clear 6 1020 69 16093 4.6 170 15:37 25.01.2020
4050 Clear 5 1019 69 16093 3.6 200 15:19 25.01.2020
4051 Clouds 7 1019 66 0 1.17 308 14:41 25.01.2020
4052 Clouds 7 1019 65 0 0.45 267 14:19 25.01.2020
4053 Clouds 7 1016 54 0 0.93 24 13:44 25.01.2020
4054 Clouds 7 1017 58 0 0.57 28 13:25 25.01.2020
4055 Clear 7 1018 47 16093 0.57 28 12:50 25.01.2020
4056 Clear 7 1018 47 16093 0.57 28 12:30 25.01.2020
4057 Clear 7 1018 47 16093 0.57 28 11:57 25.01.2020
4058 Clear 7 1018 47 16093 0.57 28 11:38 25.01.2020
4059 Clouds 7 1019 52 16093 2.1 220 11:19 25.01.2020
4060 Clear 7 1019 46 16093 0.17 235 10:42 25.01.2020
4061 Clouds 7 1018 46 16093 1.5 250 10:21 25.01.2020
4062 Clear 8 1018 46 16093 0.17 235 09:59 25.01.2020
4063 Clouds 8 1018 46 16093 0.17 235 09:38 25.01.2020
4064 Clouds 8 1018 46 16093 0.17 235 09:19 25.01.2020
4065 Clear 8 1018 46 16093 0.17 235 08:42 25.01.2020
4066 Clear 8 1018 46 16093 0.17 235 08:42 25.01.2020
4067 Clear 9 1018 45 16093 0.81 248 07:54 25.01.2020
4068 Clouds 9 1018 43 16093 1.5 180 07:21 25.01.2020
4069 Clouds 9 1017 45 16093 2.1 210 06:31 25.01.2020
4070 Clear 10 1017 45 16093 0.81 248 05:51 25.01.2020
4071 Clouds 10 1017 45 16093 2.1 270 05:32 25.01.2020
4072 Clear 11 1016 43 16093 2.6 20 03:56 25.01.2020
4073 Clouds 13 1016 31 16093 0.92 259 03:37 25.01.2020
4074 Clouds 15 1016 29 16093 1.5 100 02:35 25.01.2020
4075 Clear 16 1016 32 16093 2.6 40 01:56 25.01.2020
4076 Clear 17 1016 32 16093 3.1 50 00:59 25.01.2020
4077 Clouds 17 1016 25 16093 1.06 23 00:37 25.01.2020
4078 Clouds 18 1016 25 16093 1.06 23 00:18 25.01.2020
4079 Clouds 18 1016 25 16093 1.06 23 00:18 25.01.2020
4080 Clear 17 1016 33 16093 3.1 50 23:41 24.01.2020
4081 Clear 17 1016 33 16093 3.1 50 23:41 24.01.2020
4082 Clear 17 1016 33 16093 3.1 50 23:41 24.01.2020
4083 Clouds 17 1016 27 16093 1.5 70 23:23 24.01.2020
4084 Clouds 17 1016 27 16093 1.5 70 23:23 24.01.2020
4085 Clear 17 1017 33 16093 1.44 17 22:46 24.01.2020
4086 Clouds 17 1017 29 16093 1.5 70 22:26 24.01.2020
4087 Clear 17 1017 33 16093 2.1 0 21:57 24.01.2020
4088 Clear 17 1017 33 16093 2.1 0 21:39 24.01.2020
4089 Clouds 16 1018 27 16093 1.44 17 21:18 24.01.2020
4090 Clear 15 1019 36 16093 1.5 0 20:43 24.01.2020
4091 Clouds 15 1019 33 16093 1.44 17 20:22 24.01.2020
4092 Clear 14 1020 43 16093 1.5 270 19:58 24.01.2020
4093 Clear 13 1020 43 16093 1.5 270 19:39 24.01.2020
4094 Clouds 13 1020 35 16093 1.5 50 19:21 24.01.2020
4095 Clear 12 1020 39 16093 1.18 324 18:44 24.01.2020
4096 Clouds 11 1020 50 16093 1.18 324 18:25 24.01.2020
4097 Clear 9 1020 65 16093 1.5 190 17:59 24.01.2020
4098 Clear 8 1020 65 16093 1.5 190 17:41 24.01.2020
4099 Clouds 7 1020 56 16093 0.79 339 17:20 24.01.2020
4100 Clear 6 1019 56 16093 2.6 320 16:40 24.01.2020
4101 Clouds 6 1019 52 16093 0.79 339 16:21 24.01.2020
4102 Clear 6 1019 56 16093 0.79 339 15:56 24.01.2020
4103 Clear 6 1019 56 16093 0.79 339 15:38 24.01.2020
4104 Clouds 5 1019 56 16093 1.5 230 15:19 24.01.2020
4105 Clear 6 1019 56 16093 0.79 339 14:41 24.01.2020
4106 Clouds 6 1019 56 16093 0.79 339 14:23 24.01.2020
4107 Clear 6 1019 52 16093 0.82 344 13:45 24.01.2020
4108 Clouds 6 1019 52 16093 1.5 180 13:24 24.01.2020
4109 Clear 6 1019 53 16093 0.79 358 12:55 24.01.2020
4110 Clouds 6 1019 56 16093 0.79 358 12:36 24.01.2020
4111 Clouds 6 1019 56 16093 0.79 358 12:18 24.01.2020
4112 Clear 7 1019 53 16093 0.79 358 11:42 24.01.2020
4113 Clouds 7 1019 50 16093 0.44 312 11:18 24.01.2020
4114 Clear 8 1019 50 16093 0.44 312 10:43 24.01.2020
4115 Clouds 8 1019 57 16093 2.1 240 10:22 24.01.2020
4116 Clear 8 1019 57 16093 0.44 312 09:56 24.01.2020
4117 Clouds 8 1020 50 16093 2.1 240 09:37 24.01.2020
4118 Clouds 9 1020 50 16093 2.1 240 09:18 24.01.2020
4119 Clear 9 1020 50 16093 0.44 312 08:40 24.01.2020
4120 Clouds 9 1020 50 16093 2.1 200 08:19 24.01.2020
4121 Clear 9 1020 49 16093 0.43 239 07:49 24.01.2020
4122 Clouds 9 1020 50 16093 2.1 210 07:28 24.01.2020
4123 Clear 10 1020 50 16093 0.43 239 06:48 24.01.2020
4124 Clouds 10 1020 46 16093 0.43 239 06:28 24.01.2020
4125 Clear 11 1020 53 16093 0.43 239 05:57 24.01.2020
4126 Clear 11 1020 44 16093 1.5 260 04:52 24.01.2020
4127 Clear 16 1019 43 16093 1.17 268 02:53 24.01.2020
4128 Clouds 17 1019 44 16093 1.17 268 02:23 24.01.2020
4129 Clear 17 1019 33 16093 1.34 4 01:40 24.01.2020
4130 Clouds 18 1019 27 16093 1.69 3 01:19 24.01.2020
4131 Clouds 18 1020 25 16093 2.1 70 00:19 24.01.2020
4132 Clear 17 1020 34 16093 1.69 3 23:45 23.01.2020
4133 Clouds 17 1021 33 16093 1.5 210 23:27 23.01.2020
4134 Clear 17 1020 35 16093 2.1 120 22:59 23.01.2020
4135 Clouds 17 1021 33 16093 1.5 90 22:37 23.01.2020
4136 Clouds 17 1021 33 16093 1.5 90 22:19 23.01.2020
4137 Clear 16 1022 33 16093 3.1 0 21:56 23.01.2020
4138 Clouds 16 1023 33 16093 2.1 50 21:38 23.01.2020
4139 Clouds 16 1023 33 16093 2.1 50 21:19 23.01.2020
4140 Clear 15 1023 38 16093 2.6 0 20:57 23.01.2020
4141 Clear 15 1023 38 16093 2.6 0 20:38 23.01.2020
4142 Clouds 14 1024 36 16093 1.5 0 20:19 23.01.2020
4143 Clear 13 1024 50 16093 2.1 0 19:44 23.01.2020
4144 Clouds 12 1025 41 16093 1.5 50 19:24 23.01.2020
4145 Clear 12 1025 66 16093 1.45 326 18:59 23.01.2020
4146 Clear 11 1025 66 16093 1.45 326 18:40 23.01.2020
4147 Clouds 11 1025 50 16093 1.5 230 18:20 23.01.2020
4148 Clear 9 1025 75 16093 1.45 326 17:57 23.01.2020
4149 Clear 9 1025 75 16093 1.45 326 17:39 23.01.2020
4150 Clear 7 1025 81 16093 1.16 305 17:19 23.01.2020
4151 Clouds 6 1024 57 16093 2.1 310 16:39 23.01.2020
4152 Clouds 6 1024 57 16093 2.1 310 16:20 23.01.2020
4153 Clear 5 1024 80 16093 1.16 305 15:58 23.01.2020
4154 Clear 5 1024 80 16093 1.16 305 15:40 23.01.2020
4155 Clouds 5 1024 65 16093 2.1 300 15:19 23.01.2020
4156 Clouds 5 1024 65 16093 2.1 300 15:19 23.01.2020
4157 Clear 5 1023 86 16093 1.16 305 14:59 23.01.2020
4158 Clear 5 1023 86 16093 1.16 305 14:41 23.01.2020
4159 Clouds 6 1023 70 16093 2.6 210 14:23 23.01.2020
4160 Clear 6 1023 80 16093 0.83 327 13:59 23.01.2020
4161 Clear 6 1023 80 16093 0.83 327 13:38 23.01.2020
4162 Clear 6 1024 70 16093 2.1 200 13:19 23.01.2020
4163 Clear 6 1023 75 16093 0.92 324 12:46 23.01.2020
4164 Clear 6 1023 70 16093 1.5 210 12:25 23.01.2020
4165 Clear 6 1023 80 16093 0.83 318 11:57 23.01.2020
4166 Clear 6 1023 80 16093 0.92 324 11:38 23.01.2020
4167 Clear 6 1023 66 16093 4.6 350 11:19 23.01.2020
4168 Clear 6 1023 81 16093 0.58 309 10:44 23.01.2020
4169 Clear 6 1023 81 16093 0.46 295 10:22 23.01.2020
4170 Clear 7 1023 70 16093 0.58 309 09:57 23.01.2020
4171 Clear 7 1023 75 16093 0.46 295 09:36 23.01.2020
4172 Clear 7 1023 75 16093 0.58 309 09:18 23.01.2020
4173 Clear 7 1023 75 16093 0.58 309 08:41 23.01.2020
4174 Clouds 7 1023 66 16093 1.5 200 08:22 23.01.2020
4175 Clear 8 1023 81 16093 0.71 311 07:45 23.01.2020
4176 Clouds 8 1023 66 16093 1.5 220 07:26 23.01.2020
4177 Clear 8 1023 70 16093 0.71 311 06:52 23.01.2020
4178 Clouds 8 1023 57 16093 2.1 240 06:23 23.01.2020
4179 Clear 9 1022 66 16093 1.5 290 05:57 23.01.2020
4180 Clear 9 1022 57 16093 1.5 0 04:24 23.01.2020
4181 Clouds 13 1021 47 16093 2.6 100 02:34 23.01.2020
4182 Clouds 14 1021 44 16093 1.5 0 01:33 23.01.2020
4183 Clouds 14 1021 44 16093 2.1 70 00:27 23.01.2020
4184 Clear 15 1021 44 16093 3.1 0 23:48 22.01.2020
4185 Clouds 15 1021 44 16093 1.72 28 23:30 22.01.2020
4186 Clear 15 1021 41 16093 3.6 310 22:59 22.01.2020
4187 Clear 14 1021 41 16093 3.6 310 22:40 22.01.2020
4188 Clouds 14 1022 47 16093 1.14 54 22:22 22.01.2020
4189 Clear 14 1022 50 16093 2.1 30 21:40 22.01.2020
4190 Clouds 13 1022 50 16093 2.1 100 21:22 22.01.2020
4191 Clear 13 1022 54 16093 1.14 54 20:57 22.01.2020
4192 Clear 13 1022 54 16093 1.14 54 20:57 22.01.2020
4193 Clear 13 1022 54 16093 1.14 54 20:38 22.01.2020
4194 Clear 13 1022 54 16093 1.14 54 20:38 22.01.2020
4195 Clouds 12 1023 50 16093 0.68 341 20:20 22.01.2020
4196 Clear 12 1023 62 16093 0.68 341 19:56 22.01.2020
4197 Clear 12 1023 62 16093 0.68 341 19:38 22.01.2020
4198 Clouds 11 1023 58 16093 0.68 341 19:18 22.01.2020
4199 Clear 10 1023 70 16093 1.5 180 18:56 22.01.2020
4200 Clear 10 1023 70 16093 1.5 180 18:38 22.01.2020
4201 Clouds 10 1023 61 16093 0.68 341 18:19 22.01.2020
4202 Clouds 10 1023 61 16093 0.68 341 18:19 22.01.2020
4203 Clear 8 1022 81 16093 0.68 341 17:54 22.01.2020
4204 Clouds 8 1022 65 16093 1.5 270 17:36 22.01.2020
4205 Clouds 6 1022 65 16093 1.5 270 17:18 22.01.2020
4206 Clear 5 1022 86 16093 0.39 326 16:42 22.01.2020
4207 Clouds 4 1021 70 16093 1.5 260 16:22 22.01.2020
4208 Clear 4 1021 93 16093 0.39 326 15:58 22.01.2020
4209 Clear 4 1021 93 16093 0.39 326 15:38 22.01.2020
4210 Clouds 4 1021 70 16093 1.5 270 15:20 22.01.2020
4211 Clear 5 1020 86 16093 0.39 326 14:40 22.01.2020
4212 Clear 5 1020 86 16093 0.39 326 14:40 22.01.2020
4213 Clouds 5 1020 70 16093 2.1 240 14:21 22.01.2020
4214 Clear 5 1020 86 16093 2.6 60 13:59 22.01.2020
4215 Clear 5 1020 86 16093 2.6 60 13:38 22.01.2020
4216 Clouds 5 1020 70 16093 1.5 280 13:19 22.01.2020
4217 Clear 5 1020 86 16093 0.24 105 12:57 22.01.2020
4218 Clear 5 1020 86 16093 0.24 105 12:39 22.01.2020
4219 Clear 6 1020 93 16093 0.24 105 12:20 22.01.2020
4220 Clear 6 1020 81 16093 0.24 105 11:58 22.01.2020
4221 Clear 5 1020 81 16093 0.24 105 11:40 22.01.2020
4222 Clouds 5 1020 70 16093 2.6 260 11:19 22.01.2020
4223 Clouds 5 1020 70 16093 2.6 260 11:19 22.01.2020
4224 Clear 6 1020 87 16093 1.18 217 10:54 22.01.2020
4225 Clouds 6 1020 65 16093 2.1 210 10:36 22.01.2020
4226 Clouds 6 1020 65 16093 2.1 210 10:18 22.01.2020
4227 Clear 7 1019 87 16093 1.5 360 09:41 22.01.2020
4228 Clear 7 1020 81 16093 2.1 40 09:23 22.01.2020
4229 Clear 7 1020 81 16093 1.18 217 08:57 22.01.2020
4230 Clear 7 1020 81 16093 1.18 217 08:38 22.01.2020
4231 Clouds 7 1020 61 16093 2.1 200 08:20 22.01.2020
4232 Clear 8 1020 75 16093 2.1 310 07:46 22.01.2020
4233 Clouds 8 1020 57 16093 2.1 270 07:27 22.01.2020
4234 Clear 9 1020 70 16093 1.73 199 06:38 22.01.2020
4235 Clouds 9 1019 57 16093 2.1 250 06:20 22.01.2020
4236 Clouds 9 1019 57 16093 2.1 250 06:20 22.01.2020
4237 Clouds 12 1019 54 16093 2.1 110 04:27 22.01.2020
4238 Clouds 12 1018 44 16093 1.5 220 03:29 22.01.2020
4239 Clouds 13 1018 54 16093 2.1 70 02:49 22.01.2020
4240 Clouds 14 1018 36 16093 2.6 210 01:35 22.01.2020
4241 Clear 15 1017 47 16093 4.1 140 00:42 22.01.2020
4242 Clouds 15 1017 31 16093 3.1 180 00:23 22.01.2020
4243 Clouds 15 1017 31 16093 1.5 100 23:37 21.01.2020
4244 Clouds 15 1017 31 16093 1.5 100 23:19 21.01.2020
4245 Clouds 15 1017 44 16093 3.6 110 22:42 21.01.2020
4246 Clouds 15 1017 31 16093 0.87 274 22:24 21.01.2020
4247 Clouds 14 1018 44 16093 4.1 140 21:59 21.01.2020
4248 Clouds 14 1018 44 16093 4.1 140 21:40 21.01.2020
4249 Clouds 14 1018 29 16093 2.1 50 21:21 21.01.2020
4250 Clouds 14 1019 35 16093 3.1 170 20:59 21.01.2020
4251 Clouds 14 1019 35 16093 3.1 170 20:39 21.01.2020
4252 Clouds 14 1019 35 16093 2.1 140 20:20 21.01.2020
4253 Clouds 13 1019 49 16093 2.1 190 19:58 21.01.2020
4254 Clouds 14 1019 49 16093 2.1 190 19:39 21.01.2020
4255 Clouds 13 1019 37 16093 3.6 60 19:21 21.01.2020
4256 Clouds 13 1019 46 16093 2.43 160 18:57 21.01.2020
4257 Clouds 12 1019 32 16093 2.6 30 18:39 21.01.2020
4258 Clouds 13 1019 46 16093 2.43 160 18:39 21.01.2020
4259 Clouds 12 1019 32 16093 2.6 30 18:20 21.01.2020
4260 Clouds 12 1019 53 16093 2.1 90 17:56 21.01.2020
4261 Clouds 11 1018 34 16093 2.43 160 17:38 21.01.2020
4262 Clouds 11 1018 34 16093 1.82 188 17:18 21.01.2020
4263 Clouds 10 1018 66 16093 3.1 30 16:38 21.01.2020
4264 Clouds 10 1018 40 16093 1.82 188 16:19 21.01.2020
4265 Clouds 10 1018 40 16093 1.82 188 16:19 21.01.2020
4266 Clouds 10 1017 66 16093 1.82 188 15:59 21.01.2020
4267 Clouds 10 1017 66 16093 1.82 188 15:38 21.01.2020
4268 Clouds 10 1017 37 16093 1.82 188 15:19 21.01.2020
4269 Clouds 10 1017 61 16093 1.82 188 14:39 21.01.2020
4270 Clouds 10 1017 61 16093 1.82 188 14:39 21.01.2020
4271 Clouds 10 1016 37 16093 3.1 310 14:21 21.01.2020
4272 Clouds 10 1016 57 16093 2.1 130 13:43 21.01.2020
4273 Rain 10 1016 32 16093 3.1 180 13:20 21.01.2020
4274 Rain 10 1017 65 16093 1.5 140 12:58 21.01.2020
4275 Rain 10 1017 65 16093 1.5 140 12:39 21.01.2020
4276 Rain 10 1017 37 16093 1.5 200 12:21 21.01.2020
4277 Clouds 10 1017 49 16093 2.6 180 11:55 21.01.2020
4278 Clouds 10 1017 40 16093 1.5 170 11:36 21.01.2020
4279 Clouds 10 1017 40 16093 1.5 170 11:18 21.01.2020
4280 Clouds 10 1017 43 16093 0.97 292 10:42 21.01.2020
4281 Rain 10 1017 34 16093 1.5 240 10:22 21.01.2020
4282 Clouds 10 1017 43 16093 0.97 292 09:43 21.01.2020
4283 Clouds 10 1017 34 16093 2.1 220 09:24 21.01.2020
4284 Clouds 10 1017 46 16093 0.97 292 08:58 21.01.2020
4285 Clouds 10 1017 46 16093 0.97 292 08:40 21.01.2020
4286 Clouds 10 1018 32 16093 0.7 330 08:19 21.01.2020
4287 Clouds 11 1017 46 16093 1.19 301 07:42 21.01.2020
4288 Clouds 11 1017 46 16093 1.19 301 07:42 21.01.2020
4289 Clouds 10 1017 34 16093 1.5 220 07:23 21.01.2020
4290 Clouds 10 1017 34 16093 1.5 220 07:23 21.01.2020
4291 Clouds 11 1018 34 16093 1.19 301 06:56 21.01.2020
4292 Clouds 11 1019 34 16093 2.6 220 06:37 21.01.2020
4293 Clouds 11 1018 40 16093 1.19 301 05:50 21.01.2020
4294 Clouds 11 1018 32 16093 0.25 311 04:41 21.01.2020
4295 Clear 12 1018 28 16093 0.25 311 03:40 21.01.2020
4296 Clouds 13 1018 22 16093 3.1 290 02:26 21.01.2020
4297 Clouds 14 1018 19 16093 2.1 300 01:31 21.01.2020
4298 Clear 15 1017 22 16093 2.6 340 00:41 21.01.2020
4299 Clouds 15 1018 21 16093 0.93 84 00:21 21.01.2020
4300 Clear 15 1018 22 16093 2.6 360 23:41 20.01.2020
4301 Clouds 15 1019 19 16093 1.5 90 23:19 20.01.2020
4302 Clear 15 1019 22 16093 4.6 30 22:59 20.01.2020
4303 Clear 15 1019 22 16093 4.6 30 22:38 20.01.2020
4304 Clear 15 1019 22 16093 4.6 30 22:38 20.01.2020
4305 Clouds 15 1020 21 16093 1.5 60 22:20 20.01.2020
4306 Clouds 15 1020 21 16093 1.5 60 22:20 20.01.2020
4307 Clear 15 1020 19 16093 4.1 20 21:58 20.01.2020
4308 Clouds 15 1021 21 16093 2.6 40 21:37 20.01.2020
4309 Clouds 15 1021 21 16093 2.6 40 21:19 20.01.2020
4310 Clear 14 1021 26 16093 2.08 349 20:57 20.01.2020
4311 Clear 14 1021 26 16093 2.08 349 20:38 20.01.2020
4312 Clouds 14 1022 24 16093 1.5 10 20:19 20.01.2020
4313 Clear 14 1022 28 16093 1.37 334 19:56 20.01.2020
4314 Clear 13 1022 28 16093 1.37 334 19:38 20.01.2020
4315 Clouds 13 1023 24 16093 3.1 70 19:18 20.01.2020
4316 Clear 12 1023 34 16093 1.37 334 18:44 20.01.2020
4317 Clouds 12 1023 26 16093 3.1 320 18:22 20.01.2020
4318 Clear 11 1023 37 16093 1.37 334 17:58 20.01.2020
4319 Clouds 11 1022 27 16093 3.1 30 17:36 20.01.2020
4320 Clouds 10 1022 27 16093 3.1 30 17:18 20.01.2020
4321 Clear 9 1022 36 16093 2.1 0 16:39 20.01.2020
4322 Clouds 9 1022 27 16093 1.68 308 16:19 20.01.2020
4323 Clear 9 1022 36 16093 1.68 308 15:57 20.01.2020
4324 Clear 9 1022 36 16093 1.68 308 15:39 20.01.2020
4325 Clouds 9 1022 29 16093 1.5 20 15:20 20.01.2020
4326 Clear 9 1022 36 16093 1.68 308 14:41 20.01.2020
4327 Clouds 9 1022 25 16093 2.6 360 14:22 20.01.2020
4328 Clear 9 1022 36 16093 1.52 340 13:58 20.01.2020
4329 Clear 9 1022 36 16093 1.52 340 13:40 20.01.2020
4330 Clouds 10 1022 25 16093 2.1 350 13:21 20.01.2020
4331 Clear 10 1021 31 16093 1.29 346 12:46 20.01.2020
4332 Clouds 10 1022 29 16093 1.29 346 12:28 20.01.2020
4333 Clear 10 1022 29 16093 1.29 346 11:58 20.01.2020
4334 Clear 10 1022 29 16093 1.29 346 11:39 20.01.2020
4335 Clouds 10 1022 27 16093 1.35 353 11:20 20.01.2020
4336 Clear 10 1022 25 16093 1.35 353 10:48 20.01.2020
4337 -273 0 0 0 0 0 10:22 20.01.2020
4338 Clear 11 1023 27 16093 2.6 270 09:57 20.01.2020
4339 Clear 11 1023 27 16093 2.6 270 09:39 20.01.2020
4340 Clouds 11 1023 24 16093 3.1 40 09:20 20.01.2020
4341 Clear 11 1023 27 16093 2.6 310 08:44 20.01.2020
4342 Clouds 11 1024 22 16093 3.6 10 08:26 20.01.2020
4343 Clear 11 1023 25 16093 1.75 344 07:45 20.01.2020
4344 Clouds 11 1024 30 16093 1.75 344 07:25 20.01.2020
4345 Clear 12 1023 21 16093 6.2 20 06:48 20.01.2020
4346 Clouds 12 1024 30 16093 1.75 344 06:27 20.01.2020
4347 Clear 12 1024 21 16093 4.1 360 05:42 20.01.2020
4348 Clouds 12 1024 24 16093 2.1 270 05:22 20.01.2020
4349 Clear 13 1023 21 16093 1.5 0 04:42 20.01.2020
4350 Clear 15 1024 21 16093 1.05 319 02:57 20.01.2020
4351 Clear 15 1023 19 16093 2.6 360 01:54 20.01.2020
4352 Clouds 16 1024 18 16093 5.1 40 01:35 20.01.2020
4353 Clear 17 1024 18 16093 3.6 320 00:44 20.01.2020
4354 Clouds 17 1024 17 16093 5.1 40 00:23 20.01.2020
4355 Clear 17 1024 18 16093 4.1 10 23:39 19.01.2020
4356 Clouds 17 1025 18 16093 2.6 20 23:20 19.01.2020
4357 Clear 17 1025 17 16093 6.2 30 22:56 19.01.2020
4358 Clear 16 1025 17 16093 6.2 30 22:38 19.01.2020
4359 Clouds 16 1026 18 16093 2.6 40 22:20 19.01.2020
4360 Clear 16 1025 17 16093 5.1 30 21:56 19.01.2020
4361 Clear 16 1025 17 16093 5.1 30 21:38 19.01.2020
4362 Clouds 15 1027 18 16093 1.5 0 21:20 19.01.2020
4363 Clear 14 1027 21 16093 4.1 30 20:57 19.01.2020
4364 Clear 14 1027 21 16093 4.1 30 20:38 19.01.2020
4365 Clouds 14 1028 20 16093 1.99 3 20:20 19.01.2020
4366 Clear 12 1028 22 16093 3.1 20 19:57 19.01.2020
4367 Clear 12 1028 22 16093 3.1 20 19:38 19.01.2020
4368 Clouds 12 1029 25 16093 2.1 180 19:20 19.01.2020
4369 Clear 11 1028 29 16093 2.1 150 18:56 19.01.2020
4370 Clouds 11 1028 29 16093 1.99 3 18:37 19.01.2020
4371 Clouds 10 1028 29 16093 1.99 3 18:19 19.01.2020
4372 Clear 9 1028 25 16093 3.6 360 17:58 19.01.2020
4373 Clear 8 1028 25 16093 3.6 360 17:39 19.01.2020
4374 Clouds 5 1028 41 16093 2.1 210 17:20 19.01.2020
4375 Clear 5 1027 31 16093 3.6 300 16:58 19.01.2020
4376 Clear 4 1027 31 16093 3.6 300 16:38 19.01.2020
4377 Clouds 4 1028 41 16093 2.1 280 16:19 19.01.2020
4378 Clear 4 1027 35 16093 2.1 320 15:58 19.01.2020
4379 Clear 4 1027 35 16093 2.6 320 15:37 19.01.2020
4380 Clear 4 1027 35 16093 2.6 320 15:19 19.01.2020
4381 Clear 4 1027 33 16093 3.6 310 14:57 19.01.2020
4382 Clear 4 1027 33 16093 3.6 310 14:38 19.01.2020
4383 Clouds 4 1027 38 16093 1.5 230 14:18 19.01.2020
4384 Clouds 4 1027 38 16093 1.5 230 14:18 19.01.2020
4385 Clear 4 1027 35 16093 3.1 310 13:56 19.01.2020
4386 Clear 4 1026 28 16093 2.6 350 13:37 19.01.2020
4387 Clear 4 1026 28 16093 2.6 350 13:19 19.01.2020
4388 Clear 4 1027 30 16093 4.1 320 12:54 19.01.2020
4389 Clouds 4 1027 38 16093 2.6 220 12:36 19.01.2020
4390 Clouds 4 1027 38 16093 2.6 220 12:18 19.01.2020
4391 Clear 5 1027 30 16093 4.6 320 11:39 19.01.2020
4392 Clouds 5 1027 36 16093 2.1 250 11:20 19.01.2020
4393 Clear 5 1027 30 16093 3.1 350 10:56 19.01.2020
4394 Clear 5 1027 30 16093 3.1 350 10:56 19.01.2020
4395 Clouds 5 1027 36 16093 2.6 290 10:37 19.01.2020
4396 Clouds 5 1027 36 16093 2.6 290 10:19 19.01.2020
4397 Clear 5 1027 30 16093 3.1 330 09:45 19.01.2020
4398 Clear 5 1027 30 16093 3.1 330 09:45 19.01.2020
4399 Clouds 5 1027 36 16093 1.5 250 09:27 19.01.2020
4400 Clear 5 1027 30 16093 3.6 310 08:58 19.01.2020
4401 Clear 5 1027 30 16093 3.6 310 08:39 19.01.2020
4402 Clouds 6 1027 39 16093 2.6 200 08:21 19.01.2020
4403 Clear 6 1027 28 16093 4.1 340 07:42 19.01.2020
4404 Clouds 6 1027 36 16093 2.6 200 07:22 19.01.2020
4405 Clear 6 1027 30 16093 4.6 310 06:51 19.01.2020
4406 Clear 7 1027 21 16093 1.3 314 05:41 19.01.2020
4407 Clear 11 1026 23 16093 2.1 340 02:44 19.01.2020
4408 Clouds 11 1026 19 16093 2.65 355 02:21 19.01.2020
4409 Clouds 13 1026 16 16093 2.54 360 01:25 19.01.2020
4410 Clear 13 1026 14 16093 5.7 340 00:46 19.01.2020
4411 Clouds 13 1027 16 16093 2.1 340 00:28 19.01.2020
4412 Clear 13 1026 15 16093 5.1 350 23:56 18.01.2020
4413 Clouds 13 1027 16 16093 2.1 40 23:38 18.01.2020
4414 Clear 13 1026 15 16093 5.1 350 23:38 18.01.2020
4415 Clouds 13 1027 16 16093 2.1 40 23:18 18.01.2020
4416 Clear 13 1026 17 16093 2.1 0 22:55 18.01.2020
4417 Clouds 13 1027 19 16093 3.41 1 22:36 18.01.2020
4418 Clouds 13 1027 19 16093 3.41 1 22:18 18.01.2020
4419 Clear 12 1027 19 16093 3.1 0 21:56 18.01.2020
4420 Clouds 12 1028 22 16093 3.41 1 21:36 18.01.2020
4421 Clouds 12 1028 22 16093 3.41 1 21:18 18.01.2020
4422 Clear 12 1028 18 16093 3.6 350 20:42 18.01.2020
4423 Clouds 11 1029 23 16093 2.09 343 20:20 18.01.2020
4424 Clear 10 1029 21 16093 6.7 360 19:55 18.01.2020
4425 Clouds 10 1030 27 16093 1.5 100 19:37 18.01.2020
4426 Clouds 10 1030 27 16093 1.5 100 19:37 18.01.2020
4427 Clouds 10 1030 27 16093 1.5 100 19:37 18.01.2020
4428 Clouds 10 1030 27 16093 1.5 100 19:18 18.01.2020
4429 Clear 9 1029 23 16093 4.6 350 18:41 18.01.2020
4430 Clouds 8 1029 36 16093 2.09 343 18:21 18.01.2020
4431 Clear 6 1029 26 16093 5.1 340 17:41 18.01.2020
4432 Clouds 4 1029 41 16093 2.6 280 17:21 18.01.2020
4433 Clear 3 1028 30 16093 3.6 340 16:59 18.01.2020
4434 Clear 3 1028 30 16093 3.6 340 16:41 18.01.2020
4435 Clouds 2 1028 47 16093 1.11 329 16:22 18.01.2020
4436 Clouds 2 1028 47 16093 1.11 329 16:22 18.01.2020
4437 Clear 2 1028 35 16093 1.11 329 15:58 18.01.2020
4438 Clear 2 1028 35 16093 1.11 329 15:40 18.01.2020
4439 Clouds 2 1028 41 16093 2.1 200 15:21 18.01.2020
4440 Clear 2 1027 40 16093 1.11 329 14:44 18.01.2020
4441 Clouds 2 1027 47 16093 1.5 210 14:21 18.01.2020
4442 Clear 3 1027 26 16093 5.7 360 13:59 18.01.2020
4443 Clear 3 1027 26 16093 5.7 360 13:41 18.01.2020
4444 Clouds 3 1027 44 16093 2.1 280 13:20 18.01.2020
4445 Clear 3 1027 28 16093 4.1 340 12:55 18.01.2020
4446 Clouds 3 1027 44 16093 2.1 210 12:36 18.01.2020
4447 Clouds 3 1027 44 16093 2.1 210 12:18 18.01.2020
4448 Clear 3 1027 41 16093 1.17 326 11:43 18.01.2020
4449 Clouds 3 1027 38 16093 1.49 6 11:21 18.01.2020
4450 Clear 4 1027 32 16093 4.6 350 10:45 18.01.2020
4451 Clouds 4 1027 38 16093 1.49 6 10:22 18.01.2020
4452 Clear 4 1027 41 16093 1.49 6 09:59 18.01.2020
4453 Clear 4 1027 41 16093 1.49 6 09:41 18.01.2020
4454 Clouds 5 1027 36 16093 1.49 6 09:19 18.01.2020
4455 Clear 5 1027 38 16093 2.6 30 08:42 18.01.2020
4456 Clouds 5 1027 31 16093 1.5 250 08:20 18.01.2020
4457 Clear 5 1026 28 16093 1.1 331 07:59 18.01.2020
4458 Clear 6 1026 28 16093 1.1 331 07:40 18.01.2020
4459 Clouds 6 1026 26 16093 1.1 331 07:18 18.01.2020
4460 Clear 6 1026 30 16093 1.1 331 06:44 18.01.2020
4461 Clear 7 1025 30 16093 3.1 350 05:52 18.01.2020
4462 Clouds 8 1025 23 16093 1.5 200 04:25 18.01.2020
4463 Clear 11 1025 26 16093 2.1 70 02:38 18.01.2020
4464 Clear 12 1024 17 16093 3.23 26 01:40 18.01.2020
4465 Clear 13 1023 16 16093 3.6 50 00:39 18.01.2020
4466 Clear 13 1024 17 16093 2.1 0 00:20 18.01.2020
4467 Clear 13 1023 20 16093 2.6 80 23:58 17.01.2020
4468 Clear 13 1023 20 16093 2.6 80 23:39 17.01.2020
4469 Clouds 13 1023 16 16093 2.1 0 23:18 17.01.2020
4470 Clear 13 1023 24 16093 3.6 30 22:41 17.01.2020
4471 Clouds 13 1023 19 16093 4.6 50 22:20 17.01.2020
4472 Clear 13 1023 27 16093 5.1 40 21:56 17.01.2020
4473 Clouds 12 1024 19 16093 4.1 30 21:37 17.01.2020
4474 Clouds 12 1024 19 16093 4.1 30 21:19 17.01.2020
4475 Clear 12 1024 30 16093 5.1 30 20:41 17.01.2020
4476 Clouds 12 1025 22 16093 5.1 360 20:21 17.01.2020
4477 Clear 11 1025 32 16093 5.1 320 19:58 17.01.2020
4478 Clear 11 1025 32 16093 5.1 320 19:38 17.01.2020
4479 Clear 10 1024 34 16093 6.7 320 19:20 17.01.2020
4480 Clear 10 1024 37 16093 5.1 340 18:58 17.01.2020
4481 Clear 10 1024 37 16093 5.1 340 18:39 17.01.2020
4482 Clouds 10 1023 39 16093 2.58 342 18:21 17.01.2020
4483 Clear 8 1022 45 16093 2.58 342 17:40 17.01.2020
4484 Clouds 7 1021 45 16093 3.1 220 17:22 17.01.2020
4485 Clear 7 1021 48 16093 2.52 289 16:57 17.01.2020
4486 Clear 6 1021 48 16093 2.52 289 16:38 17.01.2020
4487 Clouds 6 1020 45 16093 2.52 289 16:19 17.01.2020
4488 Clear 5 1020 52 16093 2.52 289 15:45 17.01.2020
4489 Clouds 6 1018 45 16093 4.1 230 15:26 17.01.2020
4490 Clear 6 1018 45 16093 4.1 270 14:45 17.01.2020
4491 Clouds 7 1017 42 16093 5.1 240 14:27 17.01.2020
4492 Clear 7 1017 69 16093 3.1 220 13:58 17.01.2020
4493 Clouds 7 1016 39 16093 7.7 270 13:37 17.01.2020
4494 Clouds 7 1016 39 16093 7.7 270 13:19 17.01.2020
4495 Clouds 7 1016 61 16093 8.7 220 12:44 17.01.2020
4496 Clouds 7 1014 67 16093 7.2 190 12:21 17.01.2020
4497 Clouds 8 1017 61 16093 4.6 250 11:38 17.01.2020
4498 Clouds 7 1015 65 16093 5.1 170 11:18 17.01.2020
4499 Clouds 8 1016 61 16093 9.3 250 10:44 17.01.2020
4500 Rain 8 1015 61 16093 5.1 200 10:23 17.01.2020
4501 Clouds 8 1015 45 16093 4.6 240 09:58 17.01.2020
4502 Clouds 9 1015 45 16093 4.6 240 09:39 17.01.2020
4503 Clouds 9 1015 45 16093 4.6 240 09:39 17.01.2020
4504 Rain 9 1014 43 16093 6.7 210 09:19 17.01.2020
4505 Clouds 10 1014 37 16093 5.7 200 08:43 17.01.2020
4506 Clouds 11 1014 34 16093 2.1 210 08:25 17.01.2020
4507 Clear 11 1014 34 16093 2.6 0 07:54 17.01.2020
4508 Clouds 11 1013 27 16093 2.6 210 07:31 17.01.2020
4509 Clear 11 1013 37 16093 8.2 160 06:58 17.01.2020
4510 Clear 11 1013 37 16093 8.2 160 06:58 17.01.2020
4511 Clear 11 1013 37 16093 8.2 160 06:40 17.01.2020
4512 Clear 11 1012 34 16093 6.2 170 05:53 17.01.2020
4513 Clouds 11 1011 40 16093 2.6 260 03:39 17.01.2020
4514 Clouds 12 1011 35 16093 7.54 171 02:52 17.01.2020
4515 Clear 12 1013 35 16093 2.1 20 01:47 17.01.2020
4516 Clear 13 1013 35 16093 2.1 20 01:29 17.01.2020
4517 Clear 13 1013 35 16093 2.1 30 00:49 17.01.2020
4518 Clouds 14 1013 33 16093 1.5 40 00:23 17.01.2020
4519 Clouds 14 1013 33 16093 1.5 40 23:44 16.01.2020
4520 Clouds 14 1013 33 16093 1.5 40 23:25 16.01.2020
4521 Clouds 14 1014 35 16093 3.1 60 22:56 16.01.2020
4522 Clear 14 1013 29 16093 6.2 130 22:38 16.01.2020
4523 Clouds 13 1014 35 16093 3.1 60 22:19 16.01.2020
4524 Clear 13 1014 35 16093 4.1 90 21:54 16.01.2020
4525 Clouds 13 1015 37 16093 2.1 90 21:36 16.01.2020
4526 Clouds 13 1015 37 16093 2.1 90 21:18 16.01.2020
4527 Clear 12 1016 40 16093 2.1 70 20:40 16.01.2020
4528 Clouds 11 1017 37 16093 2.6 90 20:21 16.01.2020
4529 Clear 10 1017 45 16093 0.16 338 19:58 16.01.2020
4530 Clear 10 1017 45 16093 0.16 338 19:40 16.01.2020
4531 Clouds 10 1018 40 16093 1.5 80 19:22 16.01.2020
4532 Clear 9 1018 52 16093 0.16 338 18:57 16.01.2020
4533 Clouds 9 1017 49 16093 0.16 338 18:37 16.01.2020
4534 Clouds 8 1017 49 16093 0.16 338 18:18 16.01.2020
4535 Clear 7 1017 69 16093 0.16 338 17:58 16.01.2020
4536 Clear 5 1017 69 16093 0.16 338 17:39 16.01.2020
4537 Clouds 4 1017 56 16093 0.56 197 17:20 16.01.2020
4538 Clear 3 1017 74 16093 0.56 197 16:41 16.01.2020
4539 Clouds 3 1017 60 16093 0.56 197 16:23 16.01.2020
4540 Clear 2 1017 80 16093 0.56 197 15:57 16.01.2020
4541 Clear 2 1017 80 16093 0.56 197 15:38 16.01.2020
4542 Clouds 2 1017 60 16093 1.5 240 15:20 16.01.2020
4543 Clear 2 1017 80 16093 0.56 197 14:42 16.01.2020
4544 Clouds 2 1017 64 16093 2.6 210 14:24 16.01.2020
4545 Clear 2 1017 80 16093 1.5 60 13:49 16.01.2020
4546 Clouds 2 1017 60 16093 0.44 309 13:30 16.01.2020
4547 Clear 3 1017 80 16093 0.28 306 12:59 16.01.2020
4548 Clear 3 1017 80 16093 0.28 306 12:40 16.01.2020
4549 Clouds 3 1017 60 16093 2.1 280 12:21 16.01.2020
4550 Clear 3 1017 74 16093 0.28 306 11:42 16.01.2020
4551 Clear 3 1017 74 16093 0.28 306 11:42 16.01.2020
4552 Clouds 4 1017 60 16093 2.6 200 11:24 16.01.2020
4553 Clear 4 1017 74 16093 0.39 263 10:57 16.01.2020
4554 Clouds 4 1017 60 16093 2.1 220 10:37 16.01.2020
4555 Clouds 4 1017 60 16093 2.1 220 10:19 16.01.2020
4556 Clear 4 1017 69 16093 0.39 263 09:43 16.01.2020
4557 Clouds 4 1017 56 16093 2.1 220 09:24 16.01.2020
4558 Clear 4 1017 69 16093 0.39 263 08:58 16.01.2020
4559 Clear 5 1017 69 16093 0.39 263 08:40 16.01.2020
4560 Clouds 5 1018 52 16093 2.1 230 08:20 16.01.2020
4561 Clear 5 1018 69 16093 0.55 227 07:43 16.01.2020
4562 Clouds 5 1018 48 16093 1.5 220 07:24 16.01.2020
4563 Clear 6 1018 47 16093 2.1 20 06:54 16.01.2020
4564 Clouds 6 1018 45 16093 2.1 220 06:34 16.01.2020
4565 Clear 6 1018 60 16093 2.6 320 05:51 16.01.2020
4566 Clear 8 1017 52 16093 0.99 254 04:51 16.01.2020
4567 Clouds 8 1017 40 16093 2.1 210 04:21 16.01.2020
4568 Clouds 9 1017 37 16093 0.99 254 03:27 16.01.2020
4569 Clouds 10 1017 34 16093 1.5 90 02:21 16.01.2020
4570 Clear 13 1017 32 16093 2.1 40 00:44 16.01.2020
4571 Clouds 13 1017 30 16093 2.1 50 00:23 16.01.2020
4572 Rain 13 1017 32 16093 2.1 40 23:45 15.01.2020
4573 Rain 13 1017 32 16093 0.64 345 23:22 15.01.2020
4574 Clear 13 1017 35 16093 2.6 50 22:57 15.01.2020
4575 Clear 13 1017 35 16093 2.6 50 22:38 15.01.2020
4576 Clouds 13 1017 32 16093 1.5 70 22:18 15.01.2020
4577 Clear 12 1017 35 16093 0.78 345 21:56 15.01.2020
4578 Clear 12 1017 35 16093 0.78 345 21:56 15.01.2020
4579 Clouds 12 1018 34 16093 0.78 345 21:37 15.01.2020
4580 Clouds 12 1018 34 16093 0.78 345 21:18 15.01.2020
4581 Clear 12 1019 40 16093 0.78 345 20:55 15.01.2020
4582 Clouds 12 1020 37 16093 1.5 60 20:37 15.01.2020
4583 Clouds 11 1020 37 16093 1.5 60 20:18 15.01.2020
4584 Clear 10 1020 45 16093 1.33 332 19:54 15.01.2020
4585 Clouds 9 1020 43 16093 2.1 0 19:36 15.01.2020
4586 Clouds 9 1020 43 16093 2.1 0 19:18 15.01.2020
4587 Clear 8 1020 56 16093 1.33 332 18:55 15.01.2020
4588 Clear 8 1020 56 16093 1.33 332 18:55 15.01.2020
4589 Clear 8 1020 56 16093 1.33 332 18:55 15.01.2020
4590 Clouds 8 1020 52 16093 1.33 332 18:37 15.01.2020
4591 Clouds 8 1020 52 16093 1.33 332 18:37 15.01.2020
4592 Clouds 7 1020 52 16093 1.33 332 18:19 15.01.2020
4593 Clear 5 1019 64 16093 1.33 332 17:41 15.01.2020
4594 Clouds 4 1019 64 16093 1.5 210 17:23 15.01.2020
4595 Clear 2 1018 74 16093 1.21 296 16:59 15.01.2020
4596 Clear 1 1018 74 16093 1.21 296 16:39 15.01.2020
4597 Clouds 2 1018 69 16093 1.21 296 16:21 15.01.2020
4598 Clear 1 1018 74 16093 1.21 296 15:43 15.01.2020
4599 Clouds 1 1018 64 16093 2.1 230 15:21 15.01.2020
4600 Clouds 1 1018 64 16093 2.1 230 15:21 15.01.2020
4601 Clear 2 1017 80 16093 1.21 296 14:58 15.01.2020
4602 Clear 1 1017 80 16093 1.21 296 14:39 15.01.2020
4603 Clouds 2 1017 64 16093 2.1 220 14:18 15.01.2020
4604 Clouds 2 1017 64 16093 2.1 220 14:18 15.01.2020
4605 Clear 2 1017 74 16093 1.5 10 13:45 15.01.2020
4606 Clouds 2 1017 64 16093 1.5 220 13:24 15.01.2020
4607 Clear 2 1017 69 16093 0.71 329 12:57 15.01.2020
4608 Clear 2 1017 69 16093 0.71 329 12:39 15.01.2020
4609 Clouds 2 1017 64 16093 2.6 220 12:19 15.01.2020
4610 Clear 3 1017 64 16093 0.71 329 11:55 15.01.2020
4611 Clouds 3 1017 60 16093 0.71 329 11:36 15.01.2020
4612 Clouds 3 1017 60 16093 0.71 329 11:36 15.01.2020
4613 Clouds 3 1017 60 16093 0.41 330 11:18 15.01.2020
4614 Clouds 3 1017 60 16093 0.41 330 11:18 15.01.2020
4615 Clear 3 1017 60 16093 1.5 360 10:41 15.01.2020
4616 Clouds 3 1017 56 16093 2.1 240 10:21 15.01.2020
4617 Clear 4 1017 60 16093 0.41 330 09:42 15.01.2020
4618 Clear 3 1017 60 16093 2.1 350 09:22 15.01.2020
4619 Clear 4 1017 65 16093 2.1 60 08:46 15.01.2020
4620 Clouds 4 1017 52 16093 2.1 200 08:28 15.01.2020
4621 Clear 5 1017 65 16093 2.6 20 07:59 15.01.2020
4622 Clear 5 1017 65 16093 2.6 20 07:40 15.01.2020
4623 Clouds 5 1017 52 16093 2.6 200 07:21 15.01.2020
4624 Clear 6 1017 52 16093 2.1 60 06:43 15.01.2020
4625 Clear 6 1016 49 16093 2.1 60 05:52 15.01.2020
4626 Clear 9 1016 39 16093 3.6 40 03:44 15.01.2020
4627 Clouds 12 1015 30 16093 2.6 30 01:50 15.01.2020
4628 Clouds 13 1015 30 16093 2.53 313 01:22 15.01.2020
4629 Clear 13 1014 25 16093 5.1 160 00:44 15.01.2020
4630 Clouds 13 1015 33 16093 1.5 0 00:25 15.01.2020
4631 Clear 13 1014 26 16093 6.2 190 23:47 14.01.2020
4632 Clouds 13 1015 35 16093 3.1 40 23:29 14.01.2020
4633 Clear 13 1014 25 16093 6.7 170 22:58 14.01.2020
4634 Clouds 12 1015 35 16093 2.1 40 22:40 14.01.2020
4635 Clouds 12 1015 35 16093 2.1 40 22:19 14.01.2020
4636 Clouds 11 1016 37 16093 2.1 40 21:58 14.01.2020
4637 Clouds 11 1016 37 16093 2.1 40 21:39 14.01.2020
4638 Clouds 11 1016 37 16093 2.1 40 21:20 14.01.2020
4639 Clear 11 1016 33 16093 1.5 0 20:56 14.01.2020
4640 Clouds 10 1018 39 16093 1.5 30 20:38 14.01.2020
4641 Clear 9 1017 37 16093 2.6 180 20:18 14.01.2020
4642 Clear 9 1017 37 16093 2.6 180 19:55 14.01.2020
4643 Clouds 8 1018 49 16093 0.48 131 19:37 14.01.2020
4644 Clouds 8 1018 49 16093 0.48 131 19:18 14.01.2020
4645 Clear 7 1018 43 16093 2.1 60 18:41 14.01.2020
4646 Clear 6 1018 56 16093 1.5 340 18:20 14.01.2020
4647 Clear 5 1017 52 16093 1.5 40 17:58 14.01.2020
4648 Clouds 5 1017 60 16093 0.48 131 17:37 14.01.2020
4649 Clouds 3 1017 60 16093 0.15 185 17:18 14.01.2020
4650 Clear 2 1017 60 16093 2.1 320 16:43 14.01.2020
4651 Clouds 2 1016 64 16093 0.15 185 16:23 14.01.2020
4652 Clouds 2 1016 64 16093 0.15 185 16:23 14.01.2020
4653 Clear 2 1017 69 16093 1.5 30 15:58 14.01.2020
4654 Clear 2 1017 69 16093 1.5 30 15:40 14.01.2020
4655 Clear 2 1017 64 16093 1.5 210 15:19 14.01.2020
4656 Clear 2 1017 60 16093 0.15 185 14:44 14.01.2020
4657 Clear 3 1017 56 16093 3.1 120 14:21 14.01.2020
4658 Clear 3 1017 64 16093 2.1 30 13:57 14.01.2020
4659 Clear 3 1017 64 16093 2.1 30 13:38 14.01.2020
4660 Clear 3 1017 60 16093 1.5 250 13:18 14.01.2020
4661 Clear 3 1017 60 16093 1.5 250 13:18 14.01.2020
4662 Clear 3 1017 52 16093 3.1 90 12:42 14.01.2020
4663 Clear 3 1017 52 16093 4.1 80 12:21 14.01.2020
4664 Clear 4 1017 56 16093 3.1 60 11:55 14.01.2020
4665 Clear 4 1017 52 16093 2.1 250 11:36 14.01.2020
4666 Clear 4 1017 52 16093 2.1 250 11:18 14.01.2020
4667 Clear 4 1017 48 16093 2.6 90 10:40 14.01.2020
4668 Clear 4 1016 52 16093 2.1 280 10:20 14.01.2020
4669 Clear 4 1017 56 16093 2.6 60 09:58 14.01.2020
4670 Clear 5 1017 56 16093 2.6 60 09:40 14.01.2020
4671 Clear 5 1017 52 16093 2.6 280 09:21 14.01.2020
4672 Clear 5 1017 64 16093 2.6 40 08:48 14.01.2020
4673 Clear 5 1017 52 16093 2.6 270 08:26 14.01.2020
4674 Clear 6 1017 48 16093 2.1 360 07:56 14.01.2020
4675 Clear 6 1017 48 16093 2.6 280 07:34 14.01.2020
4676 Clear 6 1017 65 16093 2.1 10 06:57 14.01.2020
4677 Clear 6 1017 65 16093 2.1 10 06:39 14.01.2020
4678 Clear 7 1017 42 16093 2.48 181 05:28 14.01.2020
4679 Clear 8 1017 37 16093 4.1 140 03:57 14.01.2020
4680 Clear 8 1017 37 16093 1.31 110 03:35 14.01.2020
4681 Clear 11 1017 28 16093 3.1 130 01:58 14.01.2020
4682 Clear 12 1017 28 16093 3.6 170 00:53 14.01.2020
4683 Clear 12 1017 28 16093 4.6 170 00:35 14.01.2020
4684 Clear 12 1017 28 16093 2.1 80 23:56 13.01.2020
4685 Clear 12 1018 30 16093 3.1 90 23:37 13.01.2020
4686 Clear 12 1018 30 16093 3.1 90 23:18 13.01.2020
4687 Clear 12 1018 30 16093 3.1 90 23:18 13.01.2020
4688 Clear 11 1018 30 16093 2.1 120 22:43 13.01.2020
4689 Clear 11 1019 27 16093 2.1 70 22:22 13.01.2020
4690 Clear 11 1019 34 16093 2.6 0 21:57 13.01.2020
4691 Clear 11 1019 34 16093 2.6 0 21:38 13.01.2020
4692 Clear 11 1019 29 16093 2.1 50 21:19 13.01.2020
4693 Clear 10 1019 34 16093 0.34 117 20:59 13.01.2020
4694 Clear 10 1019 34 16093 0.34 117 20:59 13.01.2020
4695 Clear 10 1019 34 16093 0.34 117 20:59 13.01.2020
4696 Clear 10 1019 34 16093 0.34 117 20:41 13.01.2020
4697 Clear 9 1020 31 16093 1.5 20 20:22 13.01.2020
4698 Clear 9 1020 31 16093 1.5 20 20:22 13.01.2020
4699 Clear 8 1020 42 16093 0.37 272 19:59 13.01.2020
4700 Clear 8 1020 42 16093 0.37 272 19:40 13.01.2020
4701 Clear 8 1020 34 16093 0.37 272 19:20 13.01.2020
4702 Clear 8 1020 34 16093 0.37 272 19:20 13.01.2020
4703 Clear 7 1020 52 16093 0.37 272 18:56 13.01.2020
4704 Clear 7 1020 48 16093 0.37 272 18:37 13.01.2020
4705 Clear 7 1020 48 16093 0.37 272 18:19 13.01.2020
4706 Clear 5 1019 52 16093 0.37 272 17:43 13.01.2020
4707 Clear 3 1018 55 16093 0.37 272 17:25 13.01.2020
4708 Clear 2 1018 64 16093 0.66 312 16:57 13.01.2020
4709 Clear 1 1017 59 16093 2.1 210 16:38 13.01.2020
4710 Clear 1 1017 80 16093 3.6 160 16:20 13.01.2020
4711 Clouds 1 1007 64 0 0.66 312 15:44 13.01.2020
4712 Clouds 1 1007 64 0 0.66 312 15:24 13.01.2020
4713 Clouds 1 1018 70 0 0.45 217 14:59 13.01.2020
4714 Clouds 1 1018 71 0 0.45 217 14:39 13.01.2020
4715 Clouds 1 1018 71 0 0.45 217 14:39 13.01.2020
4716 Clouds 1 1018 71 0 0.45 217 14:39 13.01.2020
4717 Clear 1 1018 72 0 0.26 228 14:20 13.01.2020
4718 Clear 1 1005 58 0 0.26 228 13:55 13.01.2020
4719 Clear 2 1005 59 0 0.26 228 13:37 13.01.2020
4720 Clear 2 1017 69 0 0.32 355 13:19 13.01.2020
4721 Clear 2 1015 55 16093 3.6 50 12:43 13.01.2020
4722 Clear 2 1015 55 16093 3.6 50 12:23 13.01.2020
4723 Clear 2 1015 55 16093 3.6 50 11:58 13.01.2020
4724 Clear 3 1015 55 16093 2.1 230 11:38 13.01.2020
4725 Clear 2 1015 55 16093 2.1 230 11:19 13.01.2020
4726 Clear 3 1015 55 16093 3.6 30 10:56 13.01.2020
4727 Clear 3 1014 55 16093 2.1 200 10:38 13.01.2020
4728 Clear 2 1014 55 16093 2.1 200 10:19 13.01.2020
4729 Clear 3 1014 55 16093 2.6 20 09:44 13.01.2020
4730 Clear 3 1014 55 16093 2.1 320 09:24 13.01.2020
4731 Clear 3 1015 55 16093 2.1 10 08:57 13.01.2020
4732 Clouds 3 1014 48 16093 2.1 200 08:37 13.01.2020
4733 Clouds 3 1014 48 16093 2.1 200 08:18 13.01.2020
4734 Clear 4 1015 55 16093 0.8 5 07:44 13.01.2020
4735 Clouds 4 1015 48 16093 2.1 240 07:26 13.01.2020
4736 Clear 5 1015 42 16093 2.1 100 06:39 13.01.2020
4737 Clear 6 1015 42 16093 2.1 60 05:42 13.01.2020
4738 Clouds 6 1015 39 16093 1.1 359 05:19 13.01.2020
4739 Clear 8 1016 31 16093 2.1 90 03:44 13.01.2020
4740 Clear 9 1016 31 16093 2.1 80 02:51 13.01.2020
4741 Clouds 9 1016 34 16093 1.5 120 02:30 13.01.2020
4742 Clouds 10 1016 29 16093 1.19 34 01:33 13.01.2020
4743 Clear 11 1016 32 16093 3.1 30 00:46 13.01.2020
4744 Clouds 11 1016 27 16093 1.5 60 00:26 13.01.2020
4745 Clear 11 1016 32 16093 3.1 20 23:58 12.01.2020
4746 Clear 11 1016 32 16093 3.1 20 23:40 12.01.2020
4747 Clouds 11 1016 29 16093 2.6 80 23:21 12.01.2020
4748 Clouds 11 1016 29 16093 2.6 80 23:21 12.01.2020
4749 Clear 10 1016 29 16093 2.6 60 22:56 12.01.2020
4750 Clouds 10 1017 29 16093 3.1 100 22:37 12.01.2020
4751 Clouds 10 1017 29 16093 3.1 100 22:18 12.01.2020
4752 Clear 9 1017 31 16093 2.6 70 21:42 12.01.2020
4753 Clouds 9 1018 31 16093 2.1 70 21:20 12.01.2020
4754 Clear 9 1018 34 16093 3.6 40 20:59 12.01.2020
4755 Clear 9 1018 34 16093 3.6 40 20:59 12.01.2020
4756 Clear 9 1018 34 16093 3.6 40 20:40 12.01.2020
4757 Clouds 8 1019 36 16093 0.9 94 20:21 12.01.2020
4758 Clear 8 1020 36 16093 3.6 40 19:57 12.01.2020
4759 Clear 8 1020 36 16093 3.6 40 19:38 12.01.2020
4760 Clouds 7 1020 39 16093 1.5 60 19:19 12.01.2020
4761 Clouds 7 1020 39 16093 1.5 60 19:19 12.01.2020
4762 Clouds 7 1020 39 16093 1.5 60 19:19 12.01.2020
4763 Clear 7 1020 48 16093 0.9 94 18:58 12.01.2020
4764 Clear 6 1020 48 16093 0.9 94 18:40 12.01.2020
4765 Clouds 6 1020 41 16093 0.9 94 18:22 12.01.2020
4766 Clear 4 1020 55 16093 0.9 94 17:59 12.01.2020
4767 Clear 4 1020 55 16093 0.9 94 17:41 12.01.2020
4768 Clouds 2 1019 48 16093 0.68 108 17:19 12.01.2020
4769 Clear 1 1019 59 16093 1.5 170 16:56 12.01.2020
4770 Clear 1 1019 59 16093 1.5 170 16:56 12.01.2020
4771 Clouds 1 1019 55 16093 0.68 108 16:37 12.01.2020
4772 Clouds 0 1019 55 16093 0.68 108 16:19 12.01.2020
4773 Clear 0 1018 64 16093 2.6 10 15:43 12.01.2020
4774 Clouds 0 1018 51 16093 2.1 300 15:24 12.01.2020
4775 Clear 0 1019 74 16093 2.1 360 14:57 12.01.2020
4776 Clear 0 1019 74 16093 2.1 360 14:38 12.01.2020
4777 Clouds 1 1019 55 16093 2.6 210 14:20 12.01.2020
4778 Clear 1 1019 59 16093 2.1 280 13:54 12.01.2020
4779 Clouds 1 1019 51 16093 0.72 252 13:36 12.01.2020
4780 Clouds 1 1019 51 16093 0.72 252 13:18 12.01.2020
4781 Clear 1 1018 64 16093 2.1 360 12:42 12.01.2020
4782 Clouds 1 1018 51 16093 0.72 252 12:20 12.01.2020
4783 Clear 2 1019 64 16093 1.5 300 11:59 12.01.2020
4784 Clear 2 1019 64 16093 1.5 300 11:59 12.01.2020
4785 Clear 2 1019 64 16093 1.5 300 11:39 12.01.2020
4786 Clouds 2 1019 51 16093 2.6 200 11:20 12.01.2020
4787 Clear 2 1019 64 16093 2.6 300 10:42 12.01.2020
4788 Clouds 2 1019 48 16093 2.6 250 10:22 12.01.2020
4789 Clear 3 1019 55 16093 0.32 332 09:57 12.01.2020
4790 Clear 3 1019 55 16093 0.32 332 09:39 12.01.2020
4791 Clouds 3 1019 38 16093 0.32 332 09:20 12.01.2020
4792 Clear 3 1019 60 16093 0.32 332 08:45 12.01.2020
4793 Clear 4 1019 48 16093 3.6 100 08:21 12.01.2020
4794 Clear 3 1019 59 16093 3.1 20 07:42 12.01.2020
4795 Clear 3 1018 41 16093 1.5 250 07:24 12.01.2020
4796 Clear 4 1018 55 16093 1.2 266 06:49 12.01.2020
4797 Clouds 4 1018 38 16093 1.5 230 06:30 12.01.2020
4798 Clouds 4 1017 36 16093 2.6 220 05:37 12.01.2020
4799 Clear 5 1017 41 16093 3.1 350 04:51 12.01.2020
4800 Clear 6 1016 29 16093 0.67 342 03:27 12.01.2020
4801 Clear 8 1015 27 16093 3.1 30 02:34 12.01.2020
4802 Clear 9 1014 25 16093 3.6 160 01:55 12.01.2020
4803 Clear 10 1015 25 16093 3.6 30 01:29 12.01.2020
4804 Clear 10 1015 23 16093 3.1 190 00:42 12.01.2020
4805 Clear 10 1015 23 16093 2.1 70 00:20 12.01.2020
4806 Clear 10 1015 23 16093 3.1 180 23:42 11.01.2020
4807 Clear 10 1015 23 16093 3.1 180 23:42 11.01.2020
4808 Clear 10 1015 25 16093 0.61 354 23:20 11.01.2020
4809 Clear 10 1015 25 16093 0.61 354 22:59 11.01.2020
4810 Clear 10 1015 25 16093 0.61 354 22:41 11.01.2020
4811 Clear 9 1016 26 16093 0.61 354 22:21 11.01.2020
4812 Clear 9 1016 25 16093 0.61 354 21:58 11.01.2020
4813 Clear 9 1016 25 16093 0.61 354 21:40 11.01.2020
4814 Clear 8 1017 29 16093 1.5 0 21:18 11.01.2020
4815 Clear 8 1017 26 16093 0.61 354 20:42 11.01.2020
4816 Clouds 7 1019 33 16093 1.5 140 20:22 11.01.2020
4817 Clear 7 1019 36 16093 2.1 80 19:59 11.01.2020
4818 Clear 7 1019 36 16093 2.1 80 19:39 11.01.2020
4819 Clear 7 1019 36 16093 2.1 80 19:39 11.01.2020
4820 Clear 7 1020 33 16093 3.1 30 19:21 11.01.2020
4821 Clouds 6 1021 33 16093 4.6 10 18:59 11.01.2020
4822 Clouds 6 1021 33 16093 4.6 10 18:39 11.01.2020
4823 Clouds 5 1020 38 16093 2.1 0 18:20 11.01.2020
4824 Clear 4 1019 41 16093 3.1 50 17:58 11.01.2020
4825 Clouds 3 1018 47 16093 1.91 27 17:39 11.01.2020
4826 Clouds 3 1018 47 16093 1.1 56 17:19 11.01.2020
4827 Clear 1 1019 47 16093 4.1 60 16:46 11.01.2020
4828 Clear 1 1019 47 16093 4.1 60 16:46 11.01.2020
4829 Clouds 1 1019 47 16093 2.1 260 16:27 11.01.2020
4830 Clear 0 1019 39 16093 1.5 60 15:59 11.01.2020
4831 Clear 0 1019 39 16093 1.5 60 15:41 11.01.2020
4832 Clear 0 1019 51 16093 1.5 250 15:22 11.01.2020
4833 Clear 0 1019 39 16093 1.1 56 14:58 11.01.2020
4834 Clear 0 1019 39 16093 1.1 56 14:39 11.01.2020
4835 Clear 0 1019 59 16093 0.86 124 14:20 11.01.2020
4836 Clear 1 1020 37 16093 2.1 30 13:41 11.01.2020
4837 Clear 1 1020 44 16093 0.88 104 13:20 11.01.2020
4838 Clear 1 1021 37 16093 1.5 60 12:59 11.01.2020
4839 Clear 1 1021 37 16093 1.5 60 12:41 11.01.2020
4840 Clear 2 1021 50 16093 0.88 104 12:23 11.01.2020
4841 Clear 2 1021 47 16093 0.88 104 11:48 11.01.2020
4842 Clouds 2 1022 44 16093 2.1 210 11:26 11.01.2020
4843 Clear 2 1022 55 16093 3.1 20 10:55 11.01.2020
4844 Clouds 3 1022 38 16093 1.5 230 10:36 11.01.2020
4845 Clouds 2 1022 38 16093 1.5 230 10:18 11.01.2020
4846 Clear 2 1022 47 16093 1.43 166 09:39 11.01.2020
4847 Clouds 2 1023 38 16093 2.1 240 09:20 11.01.2020
4848 Clear 3 1023 51 16093 1.43 166 08:42 11.01.2020
4849 Clear 3 1023 47 16093 1.45 148 08:22 11.01.2020
4850 Clear 4 1024 51 16093 0.9 153 07:44 11.01.2020
4851 Clouds 4 1024 35 16093 1.5 200 07:25 11.01.2020
4852 Clear 5 1024 51 16093 2.1 20 06:51 11.01.2020
4853 Clear 5 1025 44 16093 0.9 153 05:48 11.01.2020
4854 Clear 6 1025 41 16093 2.6 360 04:47 11.01.2020
4855 Clear 6 1025 44 16093 2.6 350 04:28 11.01.2020
4856 Clear 9 1025 33 16093 0.66 171 02:49 11.01.2020
4857 Clouds 9 1025 18 16093 2.1 70 02:27 11.01.2020
4858 Clear 10 1025 23 16093 1.5 40 01:43 11.01.2020
4859 Clouds 10 1024 17 16093 3.1 60 01:19 11.01.2020
4860 Clear 11 1024 20 16093 4.1 30 00:40 11.01.2020
4861 Clouds 11 1024 17 16093 4.6 70 23:59 10.01.2020
4862 Clouds 11 1024 17 16093 4.6 70 23:40 10.01.2020
4863 Clouds 11 1024 16 16093 3.6 20 23:22 10.01.2020
4864 Clear 11 1025 15 16093 5.7 360 22:58 10.01.2020
4865 Clear 11 1025 15 16093 5.7 360 22:40 10.01.2020
4866 Clouds 11 1025 16 16093 2.1 0 22:20 10.01.2020
4867 Clear 10 1025 17 16093 6.2 10 21:57 10.01.2020
4868 Clouds 10 1025 18 16093 4.1 50 21:37 10.01.2020
4869 Clouds 10 1025 18 16093 4.1 50 21:19 10.01.2020
4870 Clear 9 1025 23 16093 6.7 10 20:43 10.01.2020
4871 Clouds 9 1026 18 16093 5.7 10 20:24 10.01.2020
4872 Clear 8 1025 19 16093 7.7 20 19:58 10.01.2020
4873 Clouds 8 1026 23 16093 3.1 40 19:38 10.01.2020
4874 Clouds 8 1026 23 16093 3.1 40 19:19 10.01.2020
4875 Clear 8 1026 18 16093 7.2 10 18:43 10.01.2020
4876 Clear 7 1025 24 16093 7.2 360 18:19 10.01.2020
4877 Clear 6 1024 22 16093 9.8 350 17:57 10.01.2020
4878 Clear 6 1024 24 16093 5.7 360 17:39 10.01.2020
4879 Clear 5 1024 24 16093 5.7 360 17:20 10.01.2020
4880 Clear 5 1023 24 16093 7.7 350 16:58 10.01.2020
4881 Clouds 5 1023 28 16093 8.2 10 16:38 10.01.2020
4882 Clouds 4 1023 28 16093 8.2 10 16:19 10.01.2020
4883 Clear 4 1022 30 16093 2.6 40 15:56 10.01.2020
4884 Clouds 4 1021 22 16093 5.7 10 15:37 10.01.2020
4885 Clouds 4 1021 22 16093 5.7 10 15:18 10.01.2020
4886 Clear 5 1021 33 16093 5.1 360 14:55 10.01.2020
4887 Clear 4 1021 35 16093 2.6 40 14:37 10.01.2020
4888 Clear 5 1021 35 16093 2.6 40 14:18 10.01.2020
4889 Clear 7 1020 33 16093 7.2 340 13:43 10.01.2020
4890 Clear 6 1020 33 16093 7.7 340 13:25 10.01.2020
4891 Clear 7 1019 33 16093 7.7 330 12:58 10.01.2020
4892 Clear 6 1019 33 16093 7.7 330 12:39 10.01.2020
4893 Clear 6 1019 29 16093 6.2 350 12:19 10.01.2020
4894 Clear 7 1018 36 16093 12.3 320 11:55 10.01.2020
4895 Clear 7 1018 31 16093 4.1 330 11:37 10.01.2020
4896 Clear 6 1018 31 16093 4.1 330 11:18 10.01.2020
4897 Clear 7 1017 36 16093 9.3 330 10:57 10.01.2020
4898 Clear 7 1017 31 16093 5.7 310 10:36 10.01.2020
4899 Clear 8 1017 31 16093 5.7 310 10:18 10.01.2020
4900 Clear 8 1016 33 16093 6.2 340 09:42 10.01.2020
4901 Clouds 8 1017 29 16093 5.7 320 09:23 10.01.2020
4902 Clear 7 1016 29 16093 7.2 330 08:43 10.01.2020
4903 Clouds 7 1016 27 16093 5.7 320 08:24 10.01.2020
4904 Clear 8 1016 33 16093 5.7 330 07:48 10.01.2020
4905 Clouds 8 1016 25 16093 5.1 330 07:30 10.01.2020
4906 Clear 8 1015 36 16093 5.1 330 06:56 10.01.2020
4907 Clouds 8 1015 23 16093 6.2 320 06:27 10.01.2020
4908 Clouds 8 1014 45 16093 4.13 317 05:52 10.01.2020
4909 Clouds 9 1012 34 16093 2.1 200 03:47 10.01.2020
4910 Clouds 9 1012 27 16093 1.9 291 03:28 10.01.2020
4911 Clouds 11 1012 42 16093 2.1 20 02:51 10.01.2020
4912 Clouds 11 1011 32 16093 3.1 30 01:52 10.01.2020
4913 Clouds 12 1011 24 16093 3.1 100 01:28 10.01.2020
4914 Clouds 13 1011 19 16093 2.58 19 00:48 10.01.2020
4915 Clouds 13 1010 22 16093 1.5 100 00:30 10.01.2020
4916 Clear 13 1010 20 16093 2.6 140 23:39 09.01.2020
4917 Clear 13 1010 20 16093 2.6 140 23:39 09.01.2020
4918 Clear 13 1010 20 16093 2.6 140 23:39 09.01.2020
4919 Clear 13 1010 20 16093 2.6 140 23:39 09.01.2020
4920 Clouds 13 1009 24 16093 1.5 80 23:21 09.01.2020
4921 Clear 13 1009 20 16093 1.04 69 22:58 09.01.2020
4922 Clear 13 1009 20 16093 1.04 69 22:58 09.01.2020
4923 Clear 13 1009 20 16093 1.04 69 22:39 09.01.2020
4924 Clouds 12 1009 24 16093 2.6 360 22:19 09.01.2020
4925 Clear 12 1009 23 16093 3.1 170 21:57 09.01.2020
4926 Clear 12 1009 23 16093 3.1 170 21:57 09.01.2020
4927 Clear 12 1009 23 16093 3.1 170 21:38 09.01.2020
4928 Clouds 12 1010 23 16093 1.5 50 21:20 09.01.2020
4929 Clear 11 1011 27 16093 2.1 160 20:58 09.01.2020
4930 Clear 11 1011 27 16093 2.1 160 20:39 09.01.2020
4931 Clouds 11 1011 23 16093 3.1 50 20:20 09.01.2020
4932 Clear 10 1011 34 16093 2.1 130 19:58 09.01.2020
4933 Clear 10 1012 43 16093 1.25 220 19:39 09.01.2020
4934 Clouds 10 1012 27 16093 3.6 330 19:20 09.01.2020
4935 Clear 9 1012 34 16093 2.1 120 18:56 09.01.2020
4936 Clear 8 1012 49 16093 2.6 40 18:37 09.01.2020
4937 Clouds 8 1012 39 16093 1.25 220 18:19 09.01.2020
4938 Clear 6 1012 45 16093 1.25 220 17:41 09.01.2020
4939 Clear 7 1012 45 16093 1.25 220 17:41 09.01.2020
4940 Clouds 6 1011 39 16093 2.1 220 17:19 09.01.2020
4941 Clear 5 1012 52 16093 2.02 203 16:56 09.01.2020
4942 Clear 4 1011 56 16093 2.1 40 16:36 09.01.2020
4943 Clouds 4 1011 41 16093 1.5 230 16:18 09.01.2020
4944 Clouds 5 1011 48 16093 2.6 50 15:41 09.01.2020
4945 Clouds 5 1011 48 16093 2.6 50 15:41 09.01.2020
4946 Clouds 5 1011 36 16093 2.02 203 15:20 09.01.2020
4947 Clear 5 1011 48 16093 3.1 40 14:55 09.01.2020
4948 Clouds 5 1011 56 16093 2.1 30 14:36 09.01.2020
4949 Clouds 5 1011 56 16093 2.1 30 14:36 09.01.2020
4950 Clouds 6 1011 36 16093 1.14 227 14:18 09.01.2020
4951 Clouds 5 1011 52 16093 1.14 227 13:54 09.01.2020
4952 Clouds 6 1011 60 16093 1.14 227 13:36 09.01.2020
4953 Clouds 6 1011 36 16093 1.17 237 13:18 09.01.2020
4954 Clouds 6 1011 52 16093 1.17 237 12:41 09.01.2020
4955 Clouds 6 1011 36 16093 1.17 237 12:22 09.01.2020
4956 Clear 6 1011 39 16093 2.6 80 11:58 09.01.2020
4957 Clear 6 1012 45 16093 2.1 70 11:40 09.01.2020
4958 Clouds 6 1012 33 16093 1.17 237 11:22 09.01.2020
4959 Clear 6 1012 48 16093 2.1 360 10:44 09.01.2020
4960 Clouds 7 1012 36 16093 2.1 210 10:23 09.01.2020
4961 Clear 6 1012 42 16093 2.47 204 09:59 09.01.2020
4962 Clear 7 1012 48 16093 2.47 204 09:39 09.01.2020
4963 Clouds 7 1012 33 16093 1.5 230 09:21 09.01.2020
4964 Clear 7 1012 41 16093 2.47 204 08:55 09.01.2020
4965 Clear 7 1012 39 16093 2.47 204 08:37 09.01.2020
4966 Clouds 7 1012 33 16093 2.1 220 08:19 09.01.2020
4967 Clear 7 1012 52 16093 1.46 215 07:42 09.01.2020
4968 Clear 7 1012 52 16093 1.46 215 07:23 09.01.2020
4969 Clear 8 1012 56 16093 1.46 215 06:39 09.01.2020
4970 Clouds 9 1012 27 16093 1.5 240 06:20 09.01.2020
4971 Clear 10 1013 39 16093 1.5 40 05:48 09.01.2020
4972 Clear 11 1012 34 16093 1.5 110 04:44 09.01.2020
4973 Clear 12 1013 37 16093 2.28 305 03:38 09.01.2020
4974 Clear 12 1012 37 16093 2.1 50 02:53 09.01.2020
4975 Clear 13 1012 34 16093 2.28 305 02:24 09.01.2020
4976 Clear 14 1012 24 16093 3.14 336 01:39 09.01.2020
4977 Clear 15 1011 17 16093 3.1 200 00:43 09.01.2020
4978 Clouds 15 1011 18 16093 2.6 180 00:21 09.01.2020
4979 Clouds 15 1011 18 16093 2.6 180 00:21 09.01.2020
4980 Clear 16 1011 17 16093 3.1 330 23:42 08.01.2020
4981 Clear 16 1011 17 16093 3.1 330 23:24 08.01.2020
4982 Clear 16 1011 17 16093 3.6 300 22:59 08.01.2020
4983 Clear 15 1012 15 16093 5.1 300 22:39 08.01.2020
4984 Clouds 15 1012 17 16093 3.1 50 22:20 08.01.2020
4985 Clear 15 1012 17 16093 4.6 260 21:57 08.01.2020
4986 Clear 14 1013 21 16093 3.6 300 21:38 08.01.2020
4987 Clouds 14 1013 22 16093 3.1 200 21:19 08.01.2020
4988 Clear 14 1013 22 16093 3.1 310 20:58 08.01.2020
4989 Clear 13 1013 24 16093 6.7 340 20:38 08.01.2020
4990 Clear 13 1013 24 16093 6.7 340 20:38 08.01.2020
4991 Clear 13 1014 30 16093 1.85 320 20:20 08.01.2020
4992 Clear 12 1014 24 16093 5.7 310 19:56 08.01.2020
4993 Clear 12 1014 24 16093 5.7 310 19:56 08.01.2020
4994 Clear 12 1014 26 16093 1.85 320 19:36 08.01.2020
4995 Clear 12 1014 26 16093 1.85 320 19:36 08.01.2020
4996 Clear 11 1014 37 16093 2.6 0 19:18 08.01.2020
4997 Clear 10 1014 30 16093 7.7 330 18:55 08.01.2020
4998 Clear 10 1014 30 16093 7.7 330 18:55 08.01.2020
4999 Clear 10 1014 30 16093 7.7 330 18:55 08.01.2020
5000 Clear 10 1014 30 16093 4.1 330 18:36 08.01.2020
5001 Clear 9 1014 52 16093 1.85 320 18:18 08.01.2020
5002 Clear 8 1012 37 16093 2.6 240 17:45 08.01.2020
5003 Clear 7 1012 37 16093 2.6 240 17:24 08.01.2020
5004 Clear 5 1012 42 16093 1.89 183 16:57 08.01.2020
5005 Clear 5 1011 39 16093 3.1 120 16:39 08.01.2020
5006 Clouds 4 1012 60 16093 3.1 330 16:19 08.01.2020
5007 Clouds 4 1012 60 16093 3.1 330 16:19 08.01.2020
5008 Clear 4 1012 39 16093 2.1 90 15:57 08.01.2020
5009 Clear 4 1012 52 16093 2.6 70 15:39 08.01.2020
5010 Clouds 5 1012 60 16093 3.6 300 15:18 08.01.2020
5011 Clear 5 1012 52 16093 3.6 70 14:55 08.01.2020
5012 Clear 5 1012 39 16093 3.1 90 14:36 08.01.2020
5013 Clouds 5 1012 56 16093 1.5 280 14:18 08.01.2020
5014 Clear 5 1012 60 16093 1.41 156 13:38 08.01.2020
5015 Clouds 5 1012 60 16093 2.1 300 13:18 08.01.2020
5016 Clear 5 1013 48 16093 4.6 30 12:41 08.01.2020
5017 Clouds 6 1013 52 16093 1.5 220 12:18 08.01.2020
5018 Clear 5 1013 48 16093 4.6 40 11:55 08.01.2020
5019 Clear 5 1014 52 16093 4.1 50 11:36 08.01.2020
5020 Clouds 5 1014 52 16093 2.1 310 11:18 08.01.2020
5021 Clear 6 1015 56 16093 0.38 139 10:41 08.01.2020
5022 Clouds 6 1015 52 16093 0.38 139 10:22 08.01.2020
5023 Clear 6 1015 48 16093 2.6 80 09:58 08.01.2020
5024 Clear 6 1016 48 16093 2.1 120 09:38 08.01.2020
5025 Clouds 6 1016 48 16093 2.1 200 09:18 08.01.2020
5026 Clear 6 1017 56 16093 0.38 139 08:42 08.01.2020
5027 Clear 7 1017 56 16093 0.9 141 08:24 08.01.2020
5028 Clear 7 1017 65 16093 2.1 320 07:59 08.01.2020
5029 Clear 7 1017 60 16093 0.46 238 07:41 08.01.2020
5030 Clear 7 1017 60 16093 0.46 238 07:23 08.01.2020
5031 Clear 7 1018 60 16093 0.46 238 06:44 08.01.2020
5032 Clear 7 1018 60 16093 0.46 238 05:57 08.01.2020
5033 Clear 8 1018 52 16093 0.46 238 05:27 08.01.2020
5034 Clear 8 1019 48 16093 2.1 350 04:39 08.01.2020
5035 Clear 9 1019 39 16093 0.78 273 03:32 08.01.2020
5036 Clear 12 1019 34 16093 2.6 20 02:44 08.01.2020
5037 Clouds 11 1020 24 16093 2.1 130 02:18 08.01.2020
5038 Clear 13 1020 28 16093 3.1 40 01:39 08.01.2020
5039 Clear 14 1020 32 16093 2.6 30 00:53 08.01.2020
5040 Clear 14 1021 28 16093 3.1 30 00:26 08.01.2020
5041 Clear 14 1021 22 16093 0.7 3 23:46 07.01.2020
5042 Clouds 14 1022 21 16093 1.32 354 23:22 07.01.2020
5043 Clear 14 1022 22 16093 2.1 280 22:58 07.01.2020
5044 Clear 14 1022 22 16093 2.1 0 22:38 07.01.2020
5045 Clouds 14 1023 22 16093 1.32 354 22:19 07.01.2020
5046 Clouds 14 1023 22 16093 1.32 354 22:19 07.01.2020
5047 Clear 13 1023 22 16093 3.1 290 21:42 07.01.2020
5048 Clouds 13 1024 22 16093 3.1 80 21:23 07.01.2020
5049 Clear 13 1024 26 16093 3.1 300 20:59 07.01.2020
5050 Clear 12 1025 26 16093 2.6 0 20:41 07.01.2020
5051 Clouds 12 1026 27 16093 1.5 70 20:22 07.01.2020
5052 Clear 11 1025 27 16093 4.1 310 19:58 07.01.2020
5053 Clear 10 1027 42 16093 1.33 334 19:38 07.01.2020
5054 Clouds 10 1027 29 16093 1.33 334 19:19 07.01.2020
5055 Clear 9 1027 45 16093 1.5 160 18:56 07.01.2020
5056 Clear 9 1028 48 16093 1.33 334 18:38 07.01.2020
5057 Clouds 8 1028 34 16093 1.5 220 18:18 07.01.2020
5058 Clear 5 1028 56 16093 2.1 210 17:56 07.01.2020
5059 Clear 4 1028 59 16093 1.33 334 17:37 07.01.2020
5060 Clouds 4 1028 45 16093 1.5 210 17:18 07.01.2020
5061 Clear 2 1028 59 16093 0.81 315 16:55 07.01.2020
5062 Clear 2 1028 59 16093 0.81 315 16:37 07.01.2020
5063 Clouds 2 1028 48 16093 1.5 230 16:18 07.01.2020
5064 Clear 2 1028 44 16093 2.1 250 15:43 07.01.2020
5065 Clear 2 1028 44 16093 2.1 250 15:24 07.01.2020
5066 Clear 2 1027 36 16093 4.1 340 14:58 07.01.2020
5067 Clear 2 1028 55 16093 0.81 315 14:40 07.01.2020
5068 Clear 3 1028 55 16093 2.1 220 14:20 07.01.2020
5069 Clear 3 1028 44 16093 0.89 329 13:46 07.01.2020
5070 Clear 3 1028 64 16093 3.6 200 13:21 07.01.2020
5071 Clear 3 1028 55 16093 0.85 320 12:56 07.01.2020
5072 Clear 3 1028 55 16093 2.1 290 12:37 07.01.2020
5073 Clear 4 1028 48 16093 2.1 250 12:19 07.01.2020
5074 Clear 4 1028 36 16093 4.1 340 11:41 07.01.2020
5075 Clear 4 1029 41 16093 0.85 320 11:23 07.01.2020
5076 Clear 4 1028 36 16093 4.1 350 10:57 07.01.2020
5077 Clear 4 1028 36 16093 4.1 350 10:57 07.01.2020
5078 Clear 4 1029 44 16093 2.1 320 10:39 07.01.2020
5079 Clear 4 1029 45 16093 2.6 220 10:20 07.01.2020
5080 Clear 4 1029 45 16093 1.13 333 09:39 07.01.2020
5081 Clear 4 1029 48 16093 2.1 230 09:21 07.01.2020
5082 Clear 4 1029 48 16093 2.1 230 09:21 07.01.2020
5083 Clear 4 1029 48 16093 1.13 333 08:57 07.01.2020
5084 Clear 5 1029 39 16093 2.1 340 08:38 07.01.2020
5085 Clear 5 1030 48 16093 2.6 200 08:18 07.01.2020
5086 Clear 5 1030 39 16093 1.06 305 07:42 07.01.2020
5087 Clear 6 1030 45 16093 1.5 240 07:18 07.01.2020
5088 Clear 6 1030 39 16093 3.6 330 06:36 07.01.2020
5089 Clear 6 1030 39 16093 1.06 305 05:59 07.01.2020
5090 Clear 6 1030 33 16093 1.06 305 05:40 07.01.2020
5091 Clear 9 1030 31 16093 1.14 304 03:46 07.01.2020
5092 Clear 9 1030 31 16093 1.14 304 03:24 07.01.2020
5093 Clear 11 1030 24 16093 1.56 15 02:18 07.01.2020
5094 Clear 13 1030 19 16093 2.6 330 01:40 07.01.2020
5095 Clear 14 1030 24 16093 2.1 30 00:57 07.01.2020
5096 Clear 14 1030 19 16093 1.5 14 00:21 07.01.2020
5097 Clear 14 1030 20 16093 3.1 50 23:57 06.01.2020
5098 Clear 14 1030 20 16093 2.6 40 23:37 06.01.2020
5099 Clear 14 1030 18 16093 1.5 0 23:19 06.01.2020
5100 Clear 14 1030 20 16093 3.1 330 22:44 06.01.2020
5101 Clear 14 1030 20 16093 3.1 330 22:24 06.01.2020
5102 Clear 13 1031 20 16093 3.1 0 21:58 06.01.2020
5103 Clear 13 1031 20 16093 3.6 350 21:39 06.01.2020
5104 Clear 13 1032 19 16093 2.27 1 21:20 06.01.2020
5105 Clear 13 1032 19 16093 2.27 1 21:20 06.01.2020
5106 Clear 13 1032 19 16093 2.27 1 21:20 06.01.2020
5107 Clear 13 1031 24 16093 2.6 0 20:57 06.01.2020
5108 Clear 12 1032 24 16093 2.1 0 20:39 06.01.2020
5109 Clear 12 1033 24 16093 3.1 80 20:20 06.01.2020
5110 Clear 12 1033 24 16093 3.1 80 20:20 06.01.2020
5111 Clear 11 1033 24 16093 3.1 330 19:57 06.01.2020
5112 Clear 11 1033 25 16093 3.1 30 19:38 06.01.2020
5113 Clear 10 1034 31 16093 2.1 50 19:20 06.01.2020
5114 Clear 9 1033 27 16093 4.6 350 18:48 06.01.2020
5115 Clear 9 1034 34 16093 1.5 60 18:23 06.01.2020
5116 Clear 8 1034 36 16093 1.76 337 17:59 06.01.2020
5117 Clear 7 1033 34 16093 2.6 350 17:38 06.01.2020
5118 Clear 5 1033 42 16093 2.1 190 17:18 06.01.2020
5119 Clear 4 1032 44 16093 0.92 311 16:46 06.01.2020
5120 Clear 4 1032 44 16093 0.92 311 16:46 06.01.2020
5121 Clear 3 1032 44 16093 0.92 311 16:27 06.01.2020
5122 Clear 4 1031 48 16093 3.6 350 15:59 06.01.2020
5123 Clear 3 1031 51 16093 0.92 311 15:39 06.01.2020
5124 Clear 4 1031 51 16093 1.5 200 15:20 06.01.2020
5125 Clear 4 1031 51 16093 0.92 311 14:58 06.01.2020
5126 Clear 4 1031 41 16093 1.5 340 14:40 06.01.2020
5127 Clear 4 1031 59 16093 1.96 310 14:20 06.01.2020
5128 Clear 4 1031 41 16093 2.6 360 13:55 06.01.2020
5129 Clear 4 1030 41 16093 2.1 10 13:37 06.01.2020
5130 Clear 5 1031 55 16093 1.5 190 13:19 06.01.2020
5131 Clear 5 1031 60 16093 1.83 304 12:42 06.01.2020
5132 Clear 6 1031 36 16093 1.5 90 12:20 06.01.2020
5133 Clear 6 1030 36 16093 2.6 360 11:57 06.01.2020
5134 Clear 6 1030 42 16093 5.1 360 11:38 06.01.2020
5135 Clear 6 1031 36 16093 3.1 340 11:20 06.01.2020
5136 Clear 6 1030 56 16093 1.5 30 10:45 06.01.2020
5137 Clear 6 1030 56 16093 1.5 30 10:27 06.01.2020
5138 Clear 6 1030 52 16093 3.1 30 09:59 06.01.2020
5139 Clear 7 1029 42 16093 4.6 10 09:37 06.01.2020
5140 Clear 7 1030 34 16093 3.6 290 09:19 06.01.2020
5141 Clear 8 1029 65 16093 1.5 20 08:42 06.01.2020
5142 Clear 8 1029 65 16093 1.5 20 08:23 06.01.2020
5143 Clear 8 1029 39 16093 4.6 340 07:48 06.01.2020
5144 Clear 8 1029 39 16093 4.6 340 07:23 06.01.2020
5145 Clear 8 1029 34 16093 6.7 330 06:44 06.01.2020
5146 Clear 8 1028 45 16093 2.01 340 05:52 06.01.2020
5147 Clear 8 1028 45 16093 2.01 340 05:33 06.01.2020
5148 Clear 8 1028 52 16093 1.68 322 04:26 06.01.2020
5149 Clear 9 1028 48 16093 1.68 322 03:53 06.01.2020
5150 Clear 11 1026 53 16093 2.6 10 02:32 06.01.2020
5151 Clear 12 1027 53 16093 3.1 20 01:56 06.01.2020
5152 Clear 13 1026 46 16093 2.6 20 01:32 06.01.2020
5153 Clear 13 1026 45 16093 1.5 60 00:57 06.01.2020
5154 Clear 14 1026 35 16093 2.1 300 00:39 06.01.2020
5155 Clouds 14 1026 35 16093 3.1 100 00:18 06.01.2020
5156 Clouds 14 1026 35 16093 2.1 160 23:40 05.01.2020
5157 Clouds 14 1026 35 16093 2.1 160 23:21 05.01.2020
5158 Clear 14 1026 38 16093 4.1 40 22:54 05.01.2020
5159 Clouds 14 1026 37 16093 2.1 160 22:36 05.01.2020
5160 Clouds 14 1026 37 16093 2.1 160 22:18 05.01.2020
5161 Clouds 13 1027 40 16093 0.88 351 21:41 05.01.2020
5162 Clouds 13 1027 40 16093 0.88 351 21:20 05.01.2020
5163 Clouds 12 1028 40 16093 2.6 70 20:58 05.01.2020
5164 Clouds 12 1028 40 16093 2.6 70 20:39 05.01.2020
5165 Clear 10 1028 46 16093 1.23 26 20:19 05.01.2020
5166 Clouds 10 1028 49 16093 1.23 26 19:59 05.01.2020
5167 Clouds 10 1028 49 16093 1.23 26 19:39 05.01.2020
5168 Clouds 9 1028 49 16093 1.23 26 19:20 05.01.2020
5169 Clouds 9 1027 56 16093 1.5 60 18:56 05.01.2020
5170 Clouds 8 1027 56 16093 1.5 60 18:38 05.01.2020
5171 Clouds 7 1027 56 16093 1.5 60 18:19 05.01.2020
5172 Clouds 5 1026 65 16093 1.5 190 17:58 05.01.2020
5173 Clouds 5 1026 65 16093 1.5 190 17:39 05.01.2020
5174 Clouds 4 1026 65 16093 1.5 190 17:20 05.01.2020
5175 Clouds 3 1026 69 16093 1.5 250 16:56 05.01.2020
5176 Clouds 3 1026 69 16093 1.5 250 16:38 05.01.2020
5177 Clouds 3 1026 69 16093 1.5 250 16:19 05.01.2020
5178 Clouds 3 1026 69 16093 0.88 170 15:39 05.01.2020
5179 Clouds 3 1026 69 16093 0.88 170 15:20 05.01.2020
5180 Clouds 3 1026 69 16093 0.88 170 14:56 05.01.2020
5181 Clouds 3 1026 69 16093 0.88 170 14:38 05.01.2020
5182 Clouds 3 1026 69 16093 0.66 240 14:20 05.01.2020
5183 Clouds 3 1026 69 16093 1.5 220 13:56 05.01.2020
5184 Clouds 3 1026 69 16093 1.5 220 13:38 05.01.2020
5185 Clouds 3 1026 69 16093 1.5 220 13:19 05.01.2020
5186 Clouds 3 1026 69 16093 1.5 220 13:19 05.01.2020
5187 Clouds 3 1027 65 16093 1.5 250 12:55 05.01.2020
5188 Clouds 4 1027 65 16093 1.5 250 12:37 05.01.2020
5189 Clouds 3 1027 65 16093 1.5 250 12:18 05.01.2020
5190 Clear 4 1027 58 16093 0.75 248 11:44 05.01.2020
5191 Clouds 4 1027 60 16093 2.6 200 11:20 05.01.2020
5192 Clear 4 1027 56 16093 1.06 260 10:58 05.01.2020
5193 Clear 4 1027 56 16093 1.06 260 10:40 05.01.2020
5194 Clouds 4 1027 60 16093 1.06 260 10:19 05.01.2020
5195 Clear 4 1027 56 16093 1.5 310 09:42 05.01.2020
5196 Clouds 5 1028 60 16093 2.1 230 09:22 05.01.2020
5197 Clear 5 1028 56 16093 1.5 360 08:51 05.01.2020
5198 Clear 5 1028 56 16093 1.5 360 08:32 05.01.2020
5199 Clear 6 1028 54 16093 0.8 278 07:59 05.01.2020
5200 Clear 6 1029 54 16093 1.5 280 07:39 05.01.2020
5201 Clear 6 1029 54 16093 3.1 160 07:20 05.01.2020
5202 Clouds 6 1028 54 16093 0.8 278 06:21 05.01.2020
5203 Clear 7 1028 54 16093 0.8 278 05:34 05.01.2020
5204 Clear 8 1028 49 16093 2.1 310 04:48 05.01.2020
5205 Clouds 8 1028 49 16093 3.1 230 04:18 05.01.2020
5206 Clouds 8 1028 49 16093 3.1 230 04:18 05.01.2020
5207 Clear 11 1027 53 16093 1.39 272 02:50 05.01.2020
5208 Clear 11 1027 53 16093 1.39 272 02:32 05.01.2020
5209 Clear 12 1027 50 16093 3.1 20 01:49 05.01.2020
5210 Clear 12 1027 40 16093 2.6 30 01:19 05.01.2020
5211 Clear 13 1027 43 16093 4.6 30 00:55 05.01.2020
5212 Clear 13 1026 35 16093 3.1 20 00:36 05.01.2020
5213 Clouds 13 1026 33 16093 1.5 80 00:18 05.01.2020
5214 Clear 13 1026 36 16093 2.6 70 23:40 04.01.2020
5215 Clouds 13 1026 33 16093 1.75 12 23:20 04.01.2020
5216 Clear 13 1026 31 16093 2.1 0 22:40 04.01.2020
5217 Clouds 13 1026 35 16093 2.1 80 22:22 04.01.2020
5218 Clouds 13 1026 35 16093 2.1 80 22:22 04.01.2020
5219 Clear 12 1026 31 16093 2.1 10 21:58 04.01.2020
5220 Clear 12 1026 43 16093 3.1 50 21:40 04.01.2020
5221 Clear 11 1027 43 16093 2.6 30 21:20 04.01.2020
5222 Clear 12 1027 31 16093 3.1 80 20:59 04.01.2020
5223 Clear 11 1027 31 16093 1.75 12 20:40 04.01.2020
5224 Clouds 11 1027 40 16093 0.66 13 20:22 04.01.2020
5225 Clear 11 1027 34 16093 2.1 0 19:57 04.01.2020
5226 Clear 10 1028 53 16093 2.6 160 19:38 04.01.2020
5227 Clouds 10 1028 43 16093 0.66 13 19:20 04.01.2020
5228 Clear 9 1028 57 16093 0.66 13 18:56 04.01.2020
5229 Clear 9 1028 34 16093 0.66 13 18:37 04.01.2020
5230 Clouds 9 1028 49 16093 0.66 13 18:18 04.01.2020
5231 Clear 7 1027 34 16093 0.66 13 17:41 04.01.2020
5232 Clouds 5 1027 60 16093 1.5 210 17:23 04.01.2020
5233 Clear 4 1027 50 16093 0.38 39 16:58 04.01.2020
5234 Clear 4 1027 74 16093 1.5 30 16:39 04.01.2020
5235 Clouds 3 1026 69 16093 2.1 210 16:21 04.01.2020
5236 Clear 3 1027 74 16093 1.5 10 15:55 04.01.2020
5237 Clear 3 1027 69 16093 0.38 39 15:37 04.01.2020
5238 Clouds 3 1027 69 16093 3.1 220 15:18 04.01.2020
5239 Clear 3 1027 74 16093 0.38 39 14:42 04.01.2020
5240 Clouds 3 1026 65 16093 0.89 87 14:20 04.01.2020
5241 Clear 3 1026 80 16093 2.1 350 13:59 04.01.2020
5242 Clear 3 1026 80 16093 0.89 87 13:38 04.01.2020
5243 Clouds 3 1026 69 16093 0.51 43 13:19 04.01.2020
5244 Clear 3 1026 74 16093 0.51 43 12:57 04.01.2020
5245 Clear 4 1026 69 16093 0.51 43 12:39 04.01.2020
5246 Clear 4 1026 69 16093 0.51 43 12:39 04.01.2020
5247 Clouds 4 1026 60 16093 1.5 260 12:18 04.01.2020
5248 Clouds 4 1026 60 16093 1.5 260 12:18 04.01.2020
5249 Clear 4 1027 74 16093 2.6 360 11:56 04.01.2020
5250 Clear 5 1027 69 16093 0.51 43 11:37 04.01.2020
5251 Clouds 5 1027 60 16093 2.1 250 11:18 04.01.2020
5252 Clear 5 1027 69 16093 0.28 129 10:40 04.01.2020
5253 Clouds 5 1027 56 16093 2.1 260 10:21 04.01.2020
5254 Clear 5 1027 65 16093 2.1 350 09:47 04.01.2020
5255 Clear 5 1027 65 16093 2.1 350 09:26 04.01.2020
5256 Clear 6 1028 60 16093 1.5 330 08:49 04.01.2020
5257 Clear 6 1028 60 16093 1.5 330 08:29 04.01.2020
5258 Clear 6 1028 60 16093 2.6 320 07:57 04.01.2020
5259 Clear 6 1028 56 16093 3.1 40 07:39 04.01.2020
5260 Clear 7 1028 60 16093 0.17 257 06:44 04.01.2020
5261 Clear 7 1028 56 16093 0.17 257 05:59 04.01.2020
5262 Clear 8 1027 49 16093 2.6 290 04:52 04.01.2020
5263 Clear 9 1027 49 16093 2.6 290 04:31 04.01.2020
5264 Clear 10 1027 49 16093 2.6 20 03:29 04.01.2020
5265 Clear 12 1027 43 16093 2.6 20 02:52 04.01.2020
5266 Clear 11 1026 46 16093 0.58 3 02:18 04.01.2020
5267 Clear 12 1026 37 16093 3.1 40 01:45 04.01.2020
5268 Clear 13 1026 37 16093 3.1 40 01:27 04.01.2020
5269 Clear 14 1026 33 16093 2.6 40 00:29 04.01.2020
5270 Clear 14 1026 33 16093 2.6 40 23:59 03.01.2020
5271 Clear 14 1026 33 16093 1.5 40 23:37 03.01.2020
5272 Clear 14 1026 28 16093 1.5 0 23:18 03.01.2020
5273 Clear 14 1026 30 16093 2.1 0 22:40 03.01.2020
5274 Clouds 14 1026 30 16093 1.44 16 22:19 03.01.2020
5275 Clear 14 1026 30 16093 2.6 40 21:57 03.01.2020
5276 Clear 14 1026 33 16093 1.44 16 21:38 03.01.2020
5277 Clouds 14 1027 30 16093 1.44 16 21:19 03.01.2020
5278 Clear 13 1027 35 16093 2.6 50 20:55 03.01.2020
5279 Clear 13 1027 35 16093 2.6 70 20:37 03.01.2020
5280 Clouds 12 1028 32 16093 1.5 80 20:18 03.01.2020
5281 Clear 11 1027 32 16093 3.1 0 19:54 03.01.2020
5282 Clear 10 1028 30 16093 2.1 0 19:36 03.01.2020
5283 Clouds 10 1028 37 16093 1.25 347 19:18 03.01.2020
5284 Clear 9 1028 43 16093 2.1 260 18:39 03.01.2020
5285 Clear 9 1028 43 16093 2.1 260 18:39 03.01.2020
5286 Clouds 8 1028 45 16093 1.25 347 18:20 03.01.2020
5287 Clear 6 1027 60 16093 1.25 347 17:42 03.01.2020
5288 Clouds 5 1027 48 16093 2.1 220 17:22 03.01.2020
5289 Clear 5 1027 56 16093 0.73 293 16:59 03.01.2020
5290 Clear 4 1026 60 16093 0.73 293 16:40 03.01.2020
5291 Clouds 4 1026 52 16093 0.73 293 16:21 03.01.2020
5292 Clear 4 1025 45 16093 0.73 293 15:42 03.01.2020
5293 Clouds 4 1025 52 16093 2.1 260 15:19 03.01.2020
5294 Clear 4 1024 56 16093 0.73 293 14:40 03.01.2020
5295 Clear 4 1024 56 16093 0.73 293 14:40 03.01.2020
5296 Clouds 4 1025 60 16093 2.1 270 14:21 03.01.2020
5297 Clear 5 1024 45 16093 2.1 20 13:59 03.01.2020
5298 Clear 5 1024 52 16093 2.1 300 13:40 03.01.2020
5299 Clouds 5 1024 56 16093 2.6 220 13:22 03.01.2020
5300 Clear 5 1023 42 16093 5.7 20 12:41 03.01.2020
5301 Clouds 5 1024 52 16093 2.1 210 12:22 03.01.2020
5302 Clear 5 1023 52 16093 2.1 30 11:57 03.01.2020
5303 Clear 5 1023 52 16093 2.1 30 11:57 03.01.2020
5304 Clear 5 1023 52 16093 1.4 319 11:39 03.01.2020
5305 Clear 5 1023 52 16093 3.1 260 10:59 03.01.2020
5306 Clear 6 1023 52 16093 3.1 260 10:59 03.01.2020
5307 Clear 6 1022 45 16093 2.1 30 10:40 03.01.2020
5308 Clouds 6 1022 48 16093 1.5 190 10:22 03.01.2020
5309 Clear 7 1022 45 16093 1.13 333 09:56 03.01.2020
5310 Clouds 7 1022 37 16093 3.6 30 09:38 03.01.2020
5311 Clouds 7 1022 37 16093 3.6 30 09:20 03.01.2020
5312 Clear 7 1022 39 16093 1.13 333 08:45 03.01.2020
5313 Clouds 7 1022 32 16093 3.6 40 08:23 03.01.2020
5314 Clear 7 1022 36 16093 0.65 289 07:57 03.01.2020
5315 Clear 7 1022 48 16093 0.65 289 07:38 03.01.2020
5316 Clear 7 1022 60 16093 4.1 160 07:18 03.01.2020
5317 Clear 8 1021 52 16093 0.65 289 06:42 03.01.2020
5318 Clouds 8 1021 32 16093 2.6 340 06:22 03.01.2020
5319 Clear 9 1021 52 16093 3.6 170 05:20 03.01.2020
5320 Clouds 10 1018 26 16093 1.5 30 03:42 03.01.2020
5321 Clear 12 1018 31 16093 2.6 20 02:53 03.01.2020
5322 Clear 13 1017 28 16093 3.1 40 01:51 03.01.2020
5323 Clear 14 1017 28 16093 3.1 40 01:33 03.01.2020
5324 Clear 15 1017 21 16093 4.1 30 00:43 03.01.2020
5325 Clear 15 1017 21 16093 4.1 30 00:24 03.01.2020
5326 Clear 15 1016 22 16093 4.6 30 23:39 02.01.2020
5327 Clouds 14 1016 19 16093 6.2 10 23:20 02.01.2020
5328 Clear 14 1016 22 16093 5.1 30 22:59 02.01.2020
5329 Clear 14 1016 24 16093 4.1 40 22:41 02.01.2020
5330 Clouds 15 1016 19 16093 5.7 350 22:20 02.01.2020
5331 Clear 15 1016 22 16093 5.7 360 21:56 02.01.2020
5332 Clear 14 1017 26 16093 4.6 40 21:38 02.01.2020
5333 Clear 14 1017 28 16093 5.7 20 21:19 02.01.2020
5334 Clear 14 1017 26 16093 5.1 360 20:56 02.01.2020
5335 Clear 14 1018 26 16093 5.7 30 20:37 02.01.2020
5336 Clouds 14 1017 26 16093 8.7 10 20:18 02.01.2020
5337 Clear 13 1018 26 16093 4.6 30 19:54 02.01.2020
5338 Clear 13 1018 30 16093 5.1 30 19:36 02.01.2020
5339 Clouds 12 1018 30 16093 5.7 40 19:18 02.01.2020
5340 Clear 12 1018 27 16093 3.6 30 18:43 02.01.2020
5341 Clear 11 1018 27 16093 3.6 30 18:24 02.01.2020
5342 Clear 9 1018 37 16093 4.6 30 17:58 02.01.2020
5343 Clear 9 1017 29 16093 8.2 360 17:39 02.01.2020
5344 Clouds 8 1016 37 16093 6.2 330 17:20 02.01.2020
5345 Clear 8 1016 29 16093 7.2 350 16:58 02.01.2020
5346 Clear 8 1015 34 16093 8.2 350 16:40 02.01.2020
5347 Clouds 8 1015 39 16093 7.7 340 16:20 02.01.2020
5348 Clear 7 1015 36 16093 7.2 340 15:57 02.01.2020
5349 Clear 7 1015 34 16093 7.7 350 15:39 02.01.2020
5350 Clear 7 1015 60 16093 2.6 30 15:20 02.01.2020
5351 Clear 6 1014 49 16093 5.1 320 14:57 02.01.2020
5352 Clear 5 1014 49 16093 5.1 320 14:36 02.01.2020
5353 Clear 4 1015 80 16093 1.5 90 14:18 02.01.2020
5354 Clear 5 1014 74 16093 3.1 0 13:48 02.01.2020
5355 Clear 5 1014 74 16093 3.1 0 13:48 02.01.2020
5356 Clear 5 1014 74 16093 3.1 0 13:30 02.01.2020
5357 Clear 4 1013 80 16093 4.48 315 12:46 02.01.2020
5358 Clear 4 1013 80 16093 4.48 315 12:26 02.01.2020
5359 Clear 4 1013 51 16093 1.5 120 11:59 02.01.2020
5360 Clear 4 1013 51 16093 1.5 120 11:40 02.01.2020
5361 Clouds 4 1013 65 16093 2.1 200 11:20 02.01.2020
5362 Clouds 4 1012 56 16093 2.1 180 10:44 02.01.2020
5363 Clouds 4 1012 56 16093 2.1 180 10:44 02.01.2020
5364 Clouds 4 1012 56 16093 2.1 180 10:25 02.01.2020
5365 Clear 5 1012 54 16093 2.1 320 09:48 02.01.2020
5366 Clear 5 1012 54 16093 2.1 320 09:29 02.01.2020
5367 Clear 6 1012 60 16093 2.1 270 08:47 02.01.2020
5368 Clear 6 1012 60 16093 2.1 270 08:27 02.01.2020
5369 Clear 6 1012 60 16093 2.1 270 08:27 02.01.2020
5370 Clear 6 1012 70 16093 2.1 50 07:53 02.01.2020
5371 Clear 6 1012 70 16093 2.1 50 07:30 02.01.2020
5372 Clear 7 1011 49 16093 6.2 30 06:46 02.01.2020
5373 Clear 7 1011 49 16093 6.2 30 06:27 02.01.2020
5374 -273 0 0 0 0 0 05:29 02.01.2020
5375 Clear 7 1010 60 16093 2.1 340 04:32 02.01.2020
5376 Clear 8 1013 52 16093 2.6 350 02:48 02.01.2020
5377 Clear 9 1013 45 16093 3.1 30 01:59 02.01.2020
5378 Clear 9 1013 42 16093 3.6 30 01:37 02.01.2020
5379 Clear 10 1014 39 16093 4.6 30 00:58 02.01.2020
5380 Clear 11 1013 37 16093 3.1 30 00:33 02.01.2020
5381 Clear 11 1014 38 16093 4.6 50 23:52 01.01.2020
5382 Clear 11 1014 38 16093 4.6 50 23:28 01.01.2020
5383 Clear 10 1014 43 16093 2.6 0 22:56 01.01.2020
5384 Clear 10 1015 43 16093 0.93 98 22:38 01.01.2020
5385 Clouds 10 1015 39 16093 0.93 98 22:19 01.01.2020
5386 Clear 9 1015 45 16093 0.93 98 21:56 01.01.2020
5387 Clear 9 1016 49 16093 0.93 98 21:37 01.01.2020
5388 Clouds 9 1016 42 16093 0.93 98 21:18 01.01.2020
5389 Clear 8 1017 49 16093 1.5 220 20:42 01.01.2020
5390 Clouds 8 1017 45 16093 1.38 124 20:22 01.01.2020
5391 Clear 8 1018 52 16093 1.5 260 19:58 01.01.2020
5392 Clear 8 1018 52 16093 2.6 190 19:40 01.01.2020
5393 Clouds 8 1018 45 16093 2.1 80 19:21 01.01.2020
5394 Clear 7 1019 48 16093 0.57 67 18:59 01.01.2020
5395 Clear 6 1019 60 16093 1.5 290 18:39 01.01.2020
5396 Clouds 6 1018 56 16093 0.57 67 18:20 01.01.2020
5397 Clear 5 1019 69 16093 0.57 67 17:59 01.01.2020
5398 Clear 4 1019 64 16093 0.57 67 17:40 01.01.2020
5399 Clear 4 1019 64 16093 0.57 67 17:40 01.01.2020
5400 Clouds 4 1018 60 16093 2.1 210 17:20 01.01.2020
5401 Clear 3 1019 69 16093 0.45 54 16:59 01.01.2020
5402 Clear 2 1019 64 16093 2.1 240 16:38 01.01.2020
5403 Clouds 2 1018 60 16093 1.5 200 16:20 01.01.2020
5404 Clear 2 1019 64 16093 0.45 54 15:57 01.01.2020
5405 Clear 2 1019 69 16093 0.45 54 15:38 01.01.2020
5406 Clouds 2 1018 60 16093 1.5 210 15:20 01.01.2020
5407 Clear 3 1019 69 16093 0.45 54 14:56 01.01.2020
5408 Clear 3 1019 64 16093 0.45 54 14:38 01.01.2020
5409 Clouds 3 1019 60 16093 2.1 230 14:19 01.01.2020
5410 Clouds 3 1019 60 16093 2.1 230 14:19 01.01.2020
5411 Clear 2 1019 69 16093 0.48 71 13:55 01.01.2020
5412 Clear 2 1019 74 16093 0.48 71 13:37 01.01.2020
5413 Smoke 2 1019 64 16093 2.6 210 13:18 01.01.2020
5414 Clear 2 1019 69 16093 0.38 359 12:54 01.01.2020
5415 Clear 2 1019 69 16093 0.38 359 12:54 01.01.2020
5416 Clear 3 1020 48 16093 0.38 359 12:36 01.01.2020
5417 Smoke 2 1020 60 16093 2.1 220 12:18 01.01.2020
5418 Clear 2 1020 52 16093 0.38 359 11:42 01.01.2020
5419 Smoke 2 1019 60 16093 1.5 210 11:21 01.01.2020
5420 Smoke 2 1019 60 16093 1.5 210 11:21 01.01.2020
5421 Clear 3 1020 52 16093 0.86 322 10:56 01.01.2020
5422 Clear 3 1020 69 16093 0.86 322 10:38 01.01.2020
5423 Smoke 3 1019 60 16093 0.86 322 10:19 01.01.2020
5424 Smoke 3 1020 60 16093 1.5 210 09:40 01.01.2020
5425 Smoke 3 1020 60 16093 1.5 210 09:22 01.01.2020
5426 Clear 4 1021 60 16093 0.86 322 08:57 01.01.2020
5427 Clear 4 1021 52 16093 1.5 230 08:38 01.01.2020
5428 Clear 4 1021 52 16093 1.5 230 08:38 01.01.2020
5429 Clouds 4 1021 56 16093 3.6 200 08:20 01.01.2020
5430 Clear 4 1022 48 16093 1.4 287 07:58 01.01.2020
5431 Clear 4 1022 48 16093 3.6 340 07:39 01.01.2020
5432 Clouds 5 1021 52 16093 1.5 200 07:19 01.01.2020
5433 Clear 5 1021 60 16093 2.1 10 06:36 01.01.2020
5434 Clear 5 1021 52 16093 1.4 287 05:51 01.01.2020
5435 Clear 6 1020 52 16093 3.6 10 04:28 01.01.2020
5436 Clear 7 1020 48 16093 2.1 30 03:39 01.01.2020
5437 Clouds 7 1020 34 16093 2.6 50 03:21 01.01.2020
5438 Clear 9 1021 39 16093 2.6 20 02:42 01.01.2020
5439 Clear 9 1021 39 16093 2.6 20 02:23 01.01.2020
5440 Clear 10 1020 32 16093 5.7 10 01:42 01.01.2020
5441 Clouds 11 1020 30 16093 4.1 60 01:22 01.01.2020
5442 Clear 12 1020 30 16093 5.1 30 00:45 01.01.2020
5443 Clear 12 1020 30 16093 5.1 30 00:26 01.01.2020
5444 Clear 12 1020 30 16093 4.1 10 23:56 31.12.2019
5445 Clear 12 1020 30 16093 3.1 40 23:36 31.12.2019
5446 Clouds 12 1020 30 16093 4.6 60 23:18 31.12.2019
5447 Clear 12 1020 30 16093 5.1 30 22:55 31.12.2019
5448 Clear 12 1020 30 16093 4.6 30 22:36 31.12.2019
5449 Clouds 12 1020 32 16093 2.6 60 22:18 31.12.2019
5450 Clear 12 1021 30 16093 7.7 20 21:43 31.12.2019
5451 Clear 11 1021 30 16093 7.7 20 21:25 31.12.2019
5452 Clear 11 1021 32 16093 9.3 20 20:57 31.12.2019
5453 Clear 11 1021 32 16093 9.3 20 20:57 31.12.2019
5454 Clear 11 1022 34 16093 6.2 340 20:38 31.12.2019
5455 Clear 10 1022 34 16093 6.2 340 20:20 31.12.2019
5456 Clear 10 1022 32 16093 6.7 10 19:57 31.12.2019
5457 Clear 9 1023 37 16093 6.7 340 19:39 31.12.2019
5458 Clouds 9 1023 37 16093 4.1 40 19:20 31.12.2019
5459 Clear 9 1023 34 16093 6.7 340 18:56 31.12.2019
5460 Clear 8 1023 36 16093 6.7 360 18:38 31.12.2019
5461 Clouds 8 1023 39 16093 4.1 70 18:19 31.12.2019
5462 Clear 7 1023 36 16093 4.6 10 17:55 31.12.2019
5463 Clear 7 1023 42 16093 3.1 360 17:36 31.12.2019
5464 Clear 7 1023 42 16093 3.1 360 17:36 31.12.2019
5465 Clouds 6 1023 45 16093 3.6 60 17:18 31.12.2019
5466 Clear 5 1023 45 16093 6.2 30 16:56 31.12.2019
5467 Clear 5 1022 52 16093 4.6 350 16:37 31.12.2019
5468 Clouds 5 1022 48 16093 4.1 60 16:18 31.12.2019
5469 Clear 5 1022 48 16093 5.7 340 15:55 31.12.2019
5470 Clear 5 1022 48 16093 5.1 350 15:37 31.12.2019
5471 Clear 5 1022 60 16093 3.1 70 15:19 31.12.2019
5472 Clear 5 1022 48 16093 3.6 10 14:55 31.12.2019
5473 Clear 5 1021 45 16093 2.6 0 14:37 31.12.2019
5474 Clear 5 1021 45 16093 2.6 0 14:37 31.12.2019
5475 Clouds 5 1021 56 16093 4.1 80 14:18 31.12.2019
5476 Clear 5 1021 45 16093 4.1 360 13:55 31.12.2019
5477 Clear 5 1021 42 16093 7.7 10 13:37 31.12.2019
5478 Clouds 4 1021 52 16093 3.6 40 13:19 31.12.2019
5479 Clear 4 1021 42 16093 8.2 10 12:55 31.12.2019
5480 Clear 4 1021 48 16093 3.6 10 12:37 31.12.2019
5481 Clear 4 1021 48 16093 3.6 10 12:37 31.12.2019
5482 Clouds 5 1021 56 16093 4.1 40 12:18 31.12.2019
5483 Clear 5 1021 48 16093 2.1 0 11:54 31.12.2019
5484 Clear 5 1021 48 16093 3.27 23 11:36 31.12.2019
5485 Clouds 5 1021 56 16093 3.48 13 11:18 31.12.2019
5486 Clear 6 1021 45 16093 2.6 280 10:55 31.12.2019
5487 Clear 5 1021 48 16093 1.5 210 10:37 31.12.2019
5488 Clouds 5 1021 52 16093 2.1 20 10:19 31.12.2019
5489 Clear 5 1021 48 16093 3.48 13 09:55 31.12.2019
5490 Clear 5 1020 45 16093 3.6 30 09:37 31.12.2019
5491 Clear 5 1020 45 16093 3.6 30 09:37 31.12.2019
5492 Clouds 5 1021 52 16093 3.48 13 09:18 31.12.2019
5493 Clear 5 1020 49 16093 3.48 13 08:42 31.12.2019
5494 Clear 5 1020 49 16093 3.48 13 08:42 31.12.2019
5495 Clouds 5 1020 56 16093 2.82 356 08:22 31.12.2019
5496 Clear 6 1020 45 16093 3.6 360 07:45 31.12.2019
5497 Clouds 5 1020 49 16093 2.82 356 07:22 31.12.2019
5498 Clear 5 1020 45 16093 2.1 360 06:51 31.12.2019
5499 Clouds 5 1020 49 16093 1.5 0 06:27 31.12.2019
5500 Clear 6 1019 52 16093 2.94 2 04:54 31.12.2019
5501 Clear 6 1019 42 16093 2.1 130 04:24 31.12.2019
5502 Clear 8 1019 45 16093 2.94 2 02:57 31.12.2019
5503 Clouds 8 1019 39 16093 1.5 60 02:20 31.12.2019
5504 Clear 9 1019 37 16093 3.1 30 01:49 31.12.2019
5505 Clear 10 1019 37 16093 3.1 30 01:31 31.12.2019
5506 Clear 10 1018 37 16093 5.1 30 00:48 31.12.2019
5507 Clear 11 1018 37 16093 5.1 30 00:24 31.12.2019
5508 Clear 11 1018 34 16093 4.1 30 23:58 30.12.2019
5509 Clear 10 1019 37 16093 5.1 40 23:39 30.12.2019
5510 Clouds 11 1018 29 16093 4.1 10 23:21 30.12.2019
5511 Clear 10 1019 37 16093 5.1 30 22:59 30.12.2019
5512 Clear 10 1019 34 16093 5.7 20 22:41 30.12.2019
5513 Clouds 10 1019 32 16093 3.1 30 22:21 30.12.2019
5514 Clear 10 1019 32 16093 6.2 340 21:57 30.12.2019
5515 Clear 10 1020 37 16093 5.1 350 21:39 30.12.2019
5516 Clouds 9 1020 31 16093 4.1 40 21:20 30.12.2019
5517 Clear 9 1020 34 16093 5.1 360 20:58 30.12.2019
5518 Clear 9 1021 36 16093 3.6 320 20:40 30.12.2019
5519 Clouds 8 1021 34 16093 2.24 2 20:20 30.12.2019
5520 Clear 7 1021 36 16093 1.5 360 19:58 30.12.2019
5521 Clear 7 1022 39 16093 3.6 330 19:39 30.12.2019
5522 Clouds 7 1022 39 16093 2.21 359 19:19 30.12.2019
5523 Clear 6 1022 39 16093 3.1 340 18:58 30.12.2019
5524 Clear 6 1022 45 16093 4.1 320 18:40 30.12.2019
5525 Clouds 6 1022 45 16093 2.21 359 18:20 30.12.2019
5526 Clear 5 1022 45 16093 4.6 320 17:56 30.12.2019
5527 Clear 4 1022 48 16093 3.6 320 17:38 30.12.2019
5528 Clouds 4 1021 55 16093 0.89 352 17:19 30.12.2019
5529 Clear 3 1022 51 16093 4.1 330 16:58 30.12.2019
5530 Clear 2 1021 51 16093 0.89 352 16:37 30.12.2019
5531 Clear 2 1021 51 16093 0.89 352 16:37 30.12.2019
5532 Clouds 1 1021 59 16093 1.5 280 16:18 30.12.2019
5533 Clouds 1 1021 51 16093 0.89 352 15:55 30.12.2019
5534 Clouds 1 1021 51 16093 2.1 360 15:37 30.12.2019
5535 Clouds 2 1020 64 16093 1.5 280 15:18 30.12.2019
5536 Clouds 2 1021 51 16093 3.1 340 14:43 30.12.2019
5537 Clouds 2 1020 55 16093 1.5 210 14:20 30.12.2019
5538 Clouds 2 1020 48 16093 4.6 340 13:57 30.12.2019
5539 Clouds 2 1020 55 16093 2.1 290 13:39 30.12.2019
5540 Clouds 2 1020 59 16093 1.5 220 13:21 30.12.2019
5541 Clouds 2 1020 51 16093 2.1 320 12:56 30.12.2019
5542 Clouds 2 1020 64 16093 1.43 348 12:36 30.12.2019
5543 Clouds 2 1020 64 16093 1.43 348 12:18 30.12.2019
5544 Clouds 2 1020 55 16093 2.6 360 11:40 30.12.2019
5545 Clouds 2 1020 59 16093 1.06 4 11:19 30.12.2019
5546 Clouds 2 1020 69 16093 1.5 30 10:57 30.12.2019
5547 Clouds 2 1020 64 16093 1.06 4 10:38 30.12.2019
5548 Clouds 2 1020 55 16093 2.1 260 10:18 30.12.2019
5549 Clouds 2 1020 51 16093 1.06 4 09:41 30.12.2019
5550 Clouds 2 1020 44 16093 2.1 290 09:20 30.12.2019
5551 Clouds 2 1020 51 16093 1.06 4 08:55 30.12.2019
5552 Clouds 3 1020 51 16093 2.1 40 08:36 30.12.2019
5553 Clouds 3 1020 52 16093 0.73 62 08:18 30.12.2019
5554 Clouds 3 1020 52 16093 0.73 62 08:18 30.12.2019
5555 Clouds 3 1021 60 16093 0.73 62 07:40 30.12.2019
5556 Clouds 3 1021 56 16093 2.1 10 06:55 30.12.2019
5557 Clouds 4 1020 41 16093 0.73 62 06:23 30.12.2019
5558 Clouds 5 1021 41 16093 2.1 30 03:58 30.12.2019
5559 Clouds 6 1021 38 16093 2.6 30 03:32 30.12.2019
5560 Clouds 6 1021 41 16093 3.1 30 02:40 30.12.2019
5561 Clouds 6 1021 41 16093 2.6 30 01:56 30.12.2019
5562 Clouds 6 1021 41 16093 2.1 40 01:25 30.12.2019
5563 Clear 7 1021 36 16093 3.1 40 00:45 30.12.2019
5564 Clear 7 1021 36 16093 3.1 40 00:23 30.12.2019
5565 Clear 7 1021 36 16093 2.1 50 23:40 29.12.2019
5566 Clouds 7 1021 28 16093 1.2 10 23:21 29.12.2019
5567 Clear 7 1021 36 16093 3.1 20 22:56 29.12.2019
5568 Clear 7 1022 30 16093 1.2 10 22:37 29.12.2019
5569 Clouds 7 1021 28 16093 2.1 60 22:18 29.12.2019
5570 Clear 7 1022 30 16093 3.1 300 21:43 29.12.2019
5571 Clouds 7 1022 30 16093 1.2 10 21:21 29.12.2019
5572 Clear 7 1023 33 16093 1.2 10 20:58 29.12.2019
5573 Clear 7 1023 38 16093 1.5 180 20:39 29.12.2019
5574 Clouds 6 1023 33 16093 0.95 33 20:21 29.12.2019
5575 Clear 6 1024 38 16093 1.5 200 19:59 29.12.2019
5576 Clear 5 1025 51 16093 0.95 33 19:40 29.12.2019
5577 Clear 5 1025 51 16093 0.95 33 19:40 29.12.2019
5578 Clouds 5 1024 35 16093 2.1 200 19:21 29.12.2019
5579 Clear 4 1025 55 16093 2.1 210 18:58 29.12.2019
5580 Clear 4 1025 55 16093 0.95 33 18:39 29.12.2019
5581 Clouds 4 1024 44 16093 0.95 33 18:20 29.12.2019
5582 Clear 3 1025 59 16093 0.95 33 17:58 29.12.2019
5583 Clear 3 1024 51 16093 0.95 33 17:39 29.12.2019
5584 Clear 2 1024 59 16093 3.6 190 17:20 29.12.2019
5585 Clear 0 1024 50 16093 0.63 41 16:57 29.12.2019
5586 Clear 0 1024 50 16093 0.63 41 16:38 29.12.2019
5587 Clouds 0 1023 59 16093 0.63 41 16:20 29.12.2019
5588 Clear 0 1023 48 16093 0.63 41 15:58 29.12.2019
5589 Clear -1 1023 48 16093 0.63 41 15:58 29.12.2019
5590 Clear -1 1023 48 16093 3.6 360 15:39 29.12.2019
5591 Clear 0 1023 59 16093 1.5 280 15:20 29.12.2019
5592 Clear 0 1023 48 16093 0.63 41 14:58 29.12.2019
5593 Clear 0 1023 50 16093 2.6 10 14:39 29.12.2019
5594 Clouds 0 1022 59 16093 0.8 286 14:18 29.12.2019
5595 Clear 0 1023 46 16093 2.6 10 13:57 29.12.2019
5596 Clear 0 1023 46 16093 0.8 286 13:38 29.12.2019
5597 Clouds 0 1022 59 16093 0.51 282 13:20 29.12.2019
5598 Clear 0 1023 55 16093 0.51 282 12:45 29.12.2019
5599 Clear 0 1023 55 16093 0.51 282 12:27 29.12.2019
5600 Clear 0 1023 51 16093 3.1 10 11:58 29.12.2019
5601 Clear 1 1023 47 16093 3.6 350 11:39 29.12.2019
5602 Clear 1 1023 44 16093 2.6 140 11:20 29.12.2019
5603 Clear 1 1023 59 16093 2.1 250 10:43 29.12.2019
5604 Clear 1 1023 59 16093 2.1 250 10:25 29.12.2019
5605 Clear 1 1022 55 16093 0.96 326 09:58 29.12.2019
5606 Clear 1 1022 51 16093 0.96 326 09:39 29.12.2019
5607 Clouds 1 1022 47 16093 0.96 326 09:21 29.12.2019
5608 Clear 2 1022 47 16093 3.1 330 08:48 29.12.2019
5609 Clear 2 1022 47 16093 3.1 330 08:28 29.12.2019
5610 Clear 3 1022 47 16093 1.5 330 07:56 29.12.2019
5611 Clear 2 1022 41 16093 2.56 73 07:28 29.12.2019
5612 Clear 2 1022 41 16093 2.56 73 07:28 29.12.2019
5613 Clear 3 1022 44 16093 1.5 10 06:56 29.12.2019
5614 Clear 3 1021 38 16093 3.6 30 06:26 29.12.2019
5615 Clear 4 1021 33 16093 5.1 20 05:53 29.12.2019
5616 Clear 4 1021 30 16093 5.7 350 04:36 29.12.2019
5617 Clear 5 1020 30 16093 4.6 340 03:58 29.12.2019
5618 Clear 5 1020 33 16093 4.1 30 03:21 29.12.2019
5619 Clouds 6 1019 26 16093 5.1 10 02:21 29.12.2019
5620 Clear 7 1019 24 16093 5.7 10 01:38 29.12.2019
5621 Clouds 8 1019 24 16093 7.7 350 01:19 29.12.2019
5622 Clear 8 1019 23 16093 7.2 360 00:40 29.12.2019
5623 Clouds 9 1018 24 16093 7.2 340 00:22 29.12.2019
5624 Clear 9 1018 21 16093 8.7 10 23:44 28.12.2019
5625 Clouds 8 1018 23 16093 5.1 340 23:18 28.12.2019
5626 Clear 9 1018 21 16093 8.2 360 22:39 28.12.2019
5627 Clouds 9 1018 23 16093 7.2 340 22:21 28.12.2019
5628 Clear 9 1018 21 16093 8.2 10 21:58 28.12.2019
5629 Clear 9 1018 21 16093 8.2 10 21:58 28.12.2019
5630 Clear 8 1019 23 16093 6.2 300 21:39 28.12.2019
5631 Clear 8 1019 23 16093 6.2 300 21:21 28.12.2019
5632 Clear 8 1019 23 16093 6.2 300 21:21 28.12.2019
5633 Clear 8 1019 23 16093 8.7 340 20:57 28.12.2019
5634 Clear 8 1019 26 16093 8.2 360 20:37 28.12.2019
5635 Clear 8 1019 26 16093 8.2 360 20:37 28.12.2019
5636 Clouds 8 1019 24 16093 7.2 340 20:19 28.12.2019
5637 Clear 7 1019 26 16093 7.2 340 19:57 28.12.2019
5638 Clear 7 1019 26 16093 7.2 340 19:57 28.12.2019
5639 Clear 7 1019 26 16093 9.8 340 19:39 28.12.2019
5640 Clear 7 1020 33 16093 7.7 360 19:20 28.12.2019
5641 Clear 7 1019 26 16093 11.8 350 18:57 28.12.2019
5642 Clear 6 1020 30 16093 10.8 350 18:39 28.12.2019
5643 Clear 6 1020 30 16093 8.7 350 18:18 28.12.2019
5644 Clear 6 1020 30 16093 8.7 350 18:18 28.12.2019
5645 Clear 5 1020 30 16093 7.7 350 17:54 28.12.2019
5646 Clear 5 1019 32 16093 7.7 330 17:36 28.12.2019
5647 Clouds 5 1019 33 16093 5.7 360 17:18 28.12.2019
5648 Clear 4 1019 38 16093 7.7 340 16:45 28.12.2019
5649 Clear 3 1019 38 16093 7.7 340 16:24 28.12.2019
5650 Clear 4 1018 38 16093 6.7 340 15:44 28.12.2019
5651 Clear 3 1018 38 16093 6.7 340 15:24 28.12.2019
5652 Clear 3 1018 38 16093 7.2 340 14:58 28.12.2019
5653 Clear 4 1017 35 16093 8.2 340 14:38 28.12.2019
5654 Clear 3 1017 33 16093 7.2 360 14:20 28.12.2019
5655 Clear 4 1017 41 16093 6.2 330 13:43 28.12.2019
5656 Clear 4 1016 35 16093 11.8 340 13:23 28.12.2019
5657 Clear 4 1017 44 16093 6.2 330 12:59 28.12.2019
5658 Clear 4 1016 48 16093 4.1 350 12:41 28.12.2019
5659 Clear 4 1016 33 16093 11.3 350 12:22 28.12.2019
5660 Clear 4 1016 48 16093 4.6 360 11:55 28.12.2019
5661 Clear 4 1016 59 16093 3.1 20 11:37 28.12.2019
5662 Clear 4 1016 64 16093 2.1 140 11:18 28.12.2019
5663 Clear 4 1016 51 16093 4.6 340 10:43 28.12.2019
5664 Clear 4 1015 33 16093 7.7 340 10:20 28.12.2019
5665 Clear 4 1016 48 16093 5.1 340 09:56 28.12.2019
5666 Clear 4 1015 55 16093 4.1 350 09:38 28.12.2019
5667 Clear 4 1015 60 16093 2.6 80 09:18 28.12.2019
5668 Clear 4 1015 52 16093 5.7 320 08:43 28.12.2019
5669 Clear 4 1015 52 16093 5.7 320 08:25 28.12.2019
5670 Clear 5 1015 45 16093 7.2 330 07:49 28.12.2019
5671 Clear 5 1015 45 16093 7.2 330 07:27 28.12.2019
5672 Clear 5 1014 56 16093 5.1 330 05:53 28.12.2019
5673 Clear 6 1013 40 16093 2.1 340 03:52 28.12.2019
5674 Clear 6 1013 40 16093 2.1 340 03:33 28.12.2019
5675 Clear 7 1013 70 16093 2.6 10 02:43 28.12.2019
5676 Clear 7 1013 70 16093 1.5 30 01:59 28.12.2019
5677 Clear 8 1013 49 16093 3.64 348 01:25 28.12.2019
5678 Clear 10 1012 49 16093 3.1 50 00:51 28.12.2019
5679 Clear 10 1012 49 16093 3.1 50 00:32 28.12.2019
5680 Clear 10 1012 49 16093 3.1 40 23:59 27.12.2019
5681 Clear 10 1012 49 16093 3.1 50 23:41 27.12.2019
5682 Clouds 10 1011 34 16093 6.2 360 23:19 27.12.2019
5683 Clear 10 1012 46 16093 2.6 0 22:57 27.12.2019
5684 Clear 10 1012 46 16093 2.6 0 22:57 27.12.2019
5685 Clouds 10 1011 37 16093 6.2 340 22:38 27.12.2019
5686 Clouds 10 1011 37 16093 6.2 340 22:20 27.12.2019
5687 Clear 9 1012 52 16093 3.6 40 21:44 27.12.2019
5688 Clear 9 1012 52 16093 3.6 40 21:25 27.12.2019
5689 Clear 9 1012 52 16093 3.1 10 20:58 27.12.2019
5690 Clouds 9 1013 34 16093 3.1 20 20:40 27.12.2019
5691 Clouds 9 1012 45 16093 5.7 40 20:21 27.12.2019
5692 Rain 8 1013 70 16093 3.1 310 19:42 27.12.2019
5693 Rain 8 1013 42 16093 5.1 20 19:20 27.12.2019
5694 Rain 8 1013 42 16093 5.1 20 19:20 27.12.2019
5695 Clouds 7 1013 81 16093 2.6 230 18:58 27.12.2019
5696 Clouds 6 1013 93 16093 2.6 250 18:37 27.12.2019
5697 Clouds 6 1013 70 16093 4.84 321 18:19 27.12.2019
5698 Clouds 6 1013 86 16093 4.84 321 17:56 27.12.2019
5699 Clouds 5 1013 80 16093 3.1 20 17:38 27.12.2019
5700 Clouds 5 1012 81 16093 3.51 305 17:18 27.12.2019
5701 Clouds 5 1012 60 16093 2.6 200 16:44 27.12.2019
5702 Clouds 5 1012 60 16093 2.6 200 16:26 27.12.2019
5703 Clouds 5 1013 93 14484 3.51 305 15:59 27.12.2019
5704 Clouds 5 1013 93 16093 2.1 270 15:40 27.12.2019
5705 Clouds 5 1012 81 16093 3.51 305 15:20 27.12.2019
5706 Clouds 5 1012 100 16093 2.6 190 14:56 27.12.2019
5707 Clouds 4 1012 93 16093 2.1 240 14:38 27.12.2019
5708 Rain 5 1011 81 16093 1.5 220 14:20 27.12.2019
5709 Rain 5 1011 81 16093 1.5 220 14:20 27.12.2019
5710 Clouds 5 1012 86 16093 1.5 320 13:48 27.12.2019
5711 Clouds 5 1012 86 16093 1.5 320 13:25 27.12.2019
5712 Clouds 5 1012 86 16093 1.5 320 13:25 27.12.2019
5713 Rain 5 1012 86 16093 5.23 351 12:56 27.12.2019
5714 Rain 5 1012 86 16093 4.1 350 12:38 27.12.2019
5715 Rain 4 1012 100 16093 2.1 130 12:20 27.12.2019
5716 Rain 5 1013 93 16093 2.6 90 11:43 27.12.2019
5717 Rain 5 1012 100 16093 1.5 200 11:23 27.12.2019
5718 Rain 5 1012 100 16093 2.6 140 10:55 27.12.2019
5719 Rain 5 1013 100 16093 1.5 170 10:36 27.12.2019
5720 Rain 5 1013 100 16093 1.5 170 10:18 27.12.2019
5721 Rain 5 1013 93 16093 1.5 190 09:42 27.12.2019
5722 Rain 5 1013 93 16093 1.5 190 09:21 27.12.2019
5723 Rain 5 1012 86 9656 7.7 360 08:55 27.12.2019
5724 Rain 5 1013 86 6437 7.2 350 08:35 27.12.2019
5725 Rain 5 1013 93 14484 4.6 10 07:50 27.12.2019
5726 Rain 5 1013 86 14484 7.2 350 07:31 27.12.2019
5727 Rain 5 1013 81 12874 7.7 10 06:36 27.12.2019
5728 Rain 5 1013 87 16093 8.2 350 04:59 27.12.2019
5729 Rain 5 1013 81 6437 7.2 10 03:26 27.12.2019
5730 Rain 5 1013 81 11265 5.7 10 01:59 27.12.2019
5731 Rain 6 1013 75 8047 7.2 30 01:24 27.12.2019
5732 Rain 6 1013 70 12874 5.7 20 00:58 27.12.2019
5733 Rain 6 1013 75 16093 6.7 10 00:40 27.12.2019
5734 Rain 6 1012 70 16093 4.6 320 00:21 27.12.2019
5735 Rain 6 1012 70 11265 7.7 30 23:41 26.12.2019
5736 Clouds 6 1012 61 16093 8.7 40 23:22 26.12.2019
5737 Clouds 7 1012 61 16093 7.2 20 22:45 26.12.2019
5738 Clouds 7 1012 61 16093 7.2 20 22:23 26.12.2019
5739 Clouds 7 1012 61 16093 6.2 20 21:59 26.12.2019
5740 Rain 6 1013 61 16093 7.7 20 21:38 26.12.2019
5741 Rain 6 1013 65 16093 5.7 30 21:20 26.12.2019
5742 Clear 6 1014 61 16093 6.2 20 20:46 26.12.2019
5743 Rain 6 1014 61 16093 6.2 20 20:23 26.12.2019
5744 Rain 6 1014 65 16093 6.2 20 19:59 26.12.2019
5745 Rain 6 1016 86 16093 1.5 350 19:40 26.12.2019
5746 Rain 6 1016 86 16093 1.5 350 19:21 26.12.2019
5747 Rain 6 1015 70 16093 5.7 20 18:58 26.12.2019
5748 Rain 6 1015 100 16093 3.1 50 18:39 26.12.2019
5749 Rain 6 1015 100 16093 3.1 50 18:19 26.12.2019
5750 Rain 5 1015 70 16093 6.7 20 17:55 26.12.2019
5751 Rain 5 1015 100 16093 5.1 20 17:37 26.12.2019
5752 Rain 5 1014 75 16093 3.6 60 17:18 26.12.2019
5753 Clouds 5 1014 70 16093 6.2 20 16:41 26.12.2019
5754 Clouds 5 1014 75 16093 4.1 60 16:22 26.12.2019
5755 Clouds 5 1014 75 16093 6.2 20 15:56 26.12.2019
5756 Clouds 5 1013 75 16093 5.7 20 15:37 26.12.2019
5757 Clouds 5 1014 86 16093 2.07 350 15:18 26.12.2019
5758 Clouds 5 1013 81 16093 5.7 30 14:40 26.12.2019
5759 Clouds 5 1013 75 16093 4.1 30 14:21 26.12.2019
5760 Clouds 5 1014 86 16093 1.5 350 13:43 26.12.2019
5761 Clouds 5 1014 86 16093 1.5 350 13:22 26.12.2019
5762 Clouds 5 1014 81 16093 5.7 30 12:58 26.12.2019
5763 Clouds 5 1014 81 16093 5.7 30 12:58 26.12.2019
5764 Clouds 5 1014 86 16093 1.33 5 12:39 26.12.2019
5765 Clouds 5 1014 75 16093 3.1 10 12:20 26.12.2019
5766 Clouds 5 1014 65 16093 2.6 50 11:57 26.12.2019
5767 Clouds 5 1015 86 16093 1.33 5 11:39 26.12.2019
5768 Clouds 5 1015 86 16093 1.56 6 11:20 26.12.2019
5769 Clouds 5 1014 81 16093 3.1 40 10:47 26.12.2019
5770 Clouds 5 1014 81 16093 1.56 6 10:19 26.12.2019
5771 Clouds 5 1014 81 16093 1.56 6 10:19 26.12.2019
5772 Clouds 5 1014 75 16093 3.6 50 09:50 26.12.2019
5773 Clouds 5 1014 75 16093 3.6 50 09:32 26.12.2019
5774 Clouds 5 1014 70 16093 3.6 50 08:55 26.12.2019
5775 Clouds 5 1014 70 16093 3.1 60 08:36 26.12.2019
5776 Clouds 5 1014 81 16093 2.6 360 08:18 26.12.2019
5777 Clouds 5 1014 81 16093 3.1 40 07:30 26.12.2019
5778 Clouds 5 1014 81 16093 3.1 40 07:30 26.12.2019
5779 Clouds 5 1014 75 16093 3.1 30 06:54 26.12.2019
5780 Clouds 5 1013 75 16093 2.6 30 06:32 26.12.2019
5781 Clouds 6 1014 70 16093 0.53 81 05:46 26.12.2019
5782 Clouds 6 1013 75 16093 2.6 110 04:59 26.12.2019
5783 Clouds 6 1013 81 16093 4.1 100 04:30 26.12.2019
5784 Clouds 7 1012 52 16093 3.52 208 03:18 26.12.2019
5785 Clouds 8 1013 70 16093 2.6 140 02:38 26.12.2019
5786 Clouds 8 1012 45 16093 7.99 224 02:19 26.12.2019
5787 Clear 8 1012 45 16093 3.1 230 01:41 26.12.2019
5788 Clouds 9 1011 43 16093 4.1 230 01:22 26.12.2019
5789 Clouds 9 1012 37 16093 6.2 220 00:41 26.12.2019
5790 Clouds 10 1011 34 16093 3.6 210 00:22 26.12.2019
5791 Clouds 10 1011 66 16093 4.6 120 23:42 25.12.2019
5792 Clouds 10 1011 37 16093 7.7 220 23:21 25.12.2019
5793 Clear 10 1011 66 16093 6.7 120 22:59 25.12.2019
5794 Clouds 10 1011 70 16093 6.7 120 22:40 25.12.2019
5795 Clouds 10 1010 37 16093 5.1 260 22:22 25.12.2019
5796 Clear 9 1011 70 16093 6.7 130 21:59 25.12.2019
5797 Clouds 10 1011 76 16093 5.1 90 21:39 25.12.2019
5798 Clouds 10 1012 45 16093 6.2 220 21:20 25.12.2019
5799 Clouds 9 1011 70 16093 5.7 90 20:56 25.12.2019
5800 Clouds 9 1012 75 16093 5.1 130 20:38 25.12.2019
5801 Clouds 9 1011 46 16093 3.1 0 20:18 25.12.2019
5802 Clouds 9 1013 87 16093 4.1 110 19:43 25.12.2019
5803 Clouds 9 1013 87 16093 4.1 110 19:25 25.12.2019
5804 Clouds 8 1013 75 16093 3.1 110 18:58 25.12.2019
5805 Clouds 8 1013 75 16093 2.6 160 18:37 25.12.2019
5806 Rain 7 1011 52 16093 4.1 190 18:18 25.12.2019
5807 Clouds 6 1012 81 16093 3.1 140 17:41 25.12.2019
5808 Clouds 6 1011 52 16093 3.1 190 17:19 25.12.2019
5809 Clouds 6 1012 81 16093 4.1 120 16:58 25.12.2019
5810 Clouds 5 1011 61 16093 2.1 90 16:37 25.12.2019
5811 Clouds 5 1010 56 16093 2.1 200 16:18 25.12.2019
5812 Clouds 5 1011 61 16093 3.55 204 15:57 25.12.2019
5813 Clouds 5 1011 61 16093 3.55 204 15:57 25.12.2019
5814 Clouds 5 1011 61 16093 2.1 100 15:38 25.12.2019
5815 Clouds 5 1010 56 16093 2.1 160 15:20 25.12.2019
5816 Clouds 5 1011 61 16093 3.1 90 14:57 25.12.2019
5817 Clouds 5 1011 61 16093 1.5 30 14:39 25.12.2019
5818 Clouds 5 1011 61 16093 1.5 30 14:39 25.12.2019
5819 Clouds 5 1009 52 16093 1.5 200 14:20 25.12.2019
5820 Clouds 5 1010 58 16093 4.27 208 13:44 25.12.2019
5821 Clouds 5 1009 56 16093 2.1 240 13:21 25.12.2019
5822 Clear 5 1010 75 16093 2.1 160 12:57 25.12.2019
5823 Clear 5 1010 75 16093 2.6 170 12:38 25.12.2019
5824 Clouds 5 1009 65 16093 2.1 190 12:19 25.12.2019
5825 Clouds 6 1010 75 16093 4.18 211 11:43 25.12.2019
5826 Clouds 5 1009 65 16093 2.6 190 11:22 25.12.2019
5827 Clear 5 1010 80 16093 3.32 209 10:58 25.12.2019
5828 Clouds 6 1009 70 16093 2.1 120 10:36 25.12.2019
5829 Clouds 6 1008 65 16093 3.1 200 10:18 25.12.2019
5830 Clouds 6 1009 80 16093 3.32 209 09:43 25.12.2019
5831 Clouds 6 1009 80 16093 3.32 209 09:25 25.12.2019
5832 Clouds 6 1009 80 16093 3.32 209 09:25 25.12.2019
5833 Clouds 6 1009 86 16093 3.32 209 08:45 25.12.2019
5834 Clouds 6 1009 86 16093 3.32 209 08:25 25.12.2019
5835 Clouds 6 1009 86 16093 3.32 209 08:25 25.12.2019
5836 Clear 6 1009 86 16093 2.1 40 07:45 25.12.2019
5837 Clear 6 1009 86 16093 2.1 40 07:23 25.12.2019
5838 Clear 7 1009 75 16093 2.1 60 06:47 25.12.2019
5839 Clouds 7 1008 60 16093 1.5 160 06:22 25.12.2019
5840 Clear 7 1009 65 16093 2.1 220 04:49 25.12.2019
5841 Clear 8 1009 65 16093 2.1 220 04:25 25.12.2019
5842 Clear 8 1009 70 16093 2.1 220 03:58 25.12.2019
5843 Clear 8 1008 65 16093 4.6 230 03:39 25.12.2019
5844 Clear 9 1008 87 16093 2.1 30 02:32 25.12.2019
5845 Clear 10 1008 71 16093 3.1 110 01:55 25.12.2019
5846 Clear 10 1008 71 16093 3.1 110 01:24 25.12.2019
5847 Clouds 11 1007 76 16093 4.1 110 00:48 25.12.2019
5848 Clouds 11 1007 76 16093 4.1 110 00:28 25.12.2019
5849 Clouds 12 1007 66 16093 3.1 130 23:55 24.12.2019
5850 Clouds 11 1007 66 16093 3.1 130 23:37 24.12.2019
5851 Clear 11 1007 62 16093 3.16 235 23:19 24.12.2019
5852 Clouds 11 1007 71 16093 3.16 235 22:39 24.12.2019
5853 Clouds 11 1007 71 16093 3.16 235 22:20 24.12.2019
5854 Clouds 11 1007 71 16093 3.16 235 22:20 24.12.2019
5855 Clouds 10 1008 87 16093 3.16 235 21:42 24.12.2019
5856 Clouds 10 1007 76 16093 3.16 235 21:22 24.12.2019
5857 Clouds 10 1007 76 16093 3.16 235 21:22 24.12.2019
5858 Mist 9 1009 93 9656 3.16 235 20:45 24.12.2019
5859 Mist 9 1009 93 9656 3.32 242 20:24 24.12.2019
5860 Rain 8 1009 93 11265 1.5 50 19:57 24.12.2019
5861 Rain 8 1010 93 16093 2.1 30 19:39 24.12.2019
5862 Clouds 8 1010 87 16093 1.5 280 19:18 24.12.2019
5863 Mist 8 1011 93 8047 1.5 280 18:42 24.12.2019
5864 Mist 8 1011 93 8047 1.5 280 18:20 24.12.2019
5865 Mist 7 1010 93 8047 1.5 220 17:50 24.12.2019
5866 Mist 7 1010 93 8047 1.46 178 17:24 24.12.2019
5867 Clouds 7 1010 87 12874 1.5 110 16:59 24.12.2019
5868 Clouds 7 1010 87 12874 1.5 110 16:59 24.12.2019
5869 Mist 7 1010 93 4023 1.14 158 16:41 24.12.2019
5870 Clouds 6 1009 93 16093 1.14 158 16:22 24.12.2019
5871 Clouds 6 1009 93 16093 1.14 158 16:22 24.12.2019
5872 Clouds 6 1010 93 16093 1.5 260 15:58 24.12.2019
5873 Rain 6 1010 93 16093 1.14 158 15:38 24.12.2019
5874 Fog 6 1009 93 14484 1.14 158 15:20 24.12.2019
5875 Clouds 6 1010 87 16093 2.1 70 14:59 24.12.2019
5876 Clouds 6 1010 87 16093 2.1 70 14:59 24.12.2019
5877 Clouds 6 1010 87 16093 1.5 40 14:41 24.12.2019
5878 Fog 6 1009 93 16093 1.27 109 14:22 24.12.2019
5879 Clouds 6 1010 81 16093 1.27 109 13:57 24.12.2019
5880 Clouds 7 1010 87 16093 2.1 70 13:39 24.12.2019
5881 Fog 7 1009 93 12874 0.72 306 13:20 24.12.2019
5882 Fog 7 1009 93 12874 0.72 306 13:20 24.12.2019
5883 Fog 7 1010 93 12874 0.72 306 12:57 24.12.2019
5884 Clouds 7 1011 87 16093 3.1 70 12:38 24.12.2019
5885 Fog 7 1010 93 12874 2.1 290 12:19 24.12.2019
5886 Clouds 7 1011 81 16093 2.6 70 11:58 24.12.2019
5887 Clouds 7 1011 87 16093 2.1 30 11:38 24.12.2019
5888 Clouds 7 1011 87 16093 2.1 30 11:38 24.12.2019
5889 Fog 7 1010 93 11265 1.23 68 11:20 24.12.2019
5890 Clouds 7 1011 87 16093 1.23 68 10:57 24.12.2019
5891 Clouds 7 1011 87 16093 3.6 110 10:38 24.12.2019
5892 Clouds 7 1010 93 16093 1.23 68 10:20 24.12.2019
5893 Clouds 7 1011 81 16093 3.6 100 09:58 24.12.2019
5894 Clouds 7 1011 76 16093 3.1 90 09:40 24.12.2019
5895 Clouds 7 1011 93 16093 1.23 68 09:21 24.12.2019
5896 Clouds 7 1012 87 16093 2.1 70 08:47 24.12.2019
5897 Clouds 7 1012 87 16093 2.1 70 08:24 24.12.2019
5898 Clouds 7 1012 87 16093 2.1 70 07:59 24.12.2019
5899 Clouds 7 1012 81 16093 1.9 130 07:39 24.12.2019
5900 Clouds 7 1011 93 16093 2.6 320 07:20 24.12.2019
5901 Clouds 7 1012 76 16093 1.9 130 06:40 24.12.2019
5902 Rain 7 1011 93 16093 2.1 290 06:19 24.12.2019
5903 Rain 7 1009 87 16093 3.1 230 05:51 24.12.2019
5904 Rain 7 1011 93 16093 2.1 300 05:19 24.12.2019
5905 Rain 7 1011 87 16093 2.58 122 04:21 24.12.2019
5906 Rain 8 1009 81 16093 3.1 190 03:46 24.12.2019
5907 Rain 8 1011 76 16093 3.1 90 02:29 24.12.2019
5908 Rain 8 1011 81 14484 2.6 30 01:54 24.12.2019
5909 Rain 8 1011 81 14484 2.6 30 01:26 24.12.2019
5910 Rain 9 1012 71 16093 3.1 100 00:58 24.12.2019
5911 Rain 9 1011 62 16093 2.6 100 00:39 24.12.2019
5912 Rain 9 1011 71 11265 1.5 280 00:19 24.12.2019
5913 Rain 10 1012 54 12874 6.7 160 23:42 23.12.2019
5914 Rain 10 1012 54 12874 6.7 160 23:42 23.12.2019
5915 Rain 10 1012 54 12874 6.7 160 23:24 23.12.2019
5916 Rain 11 1011 62 16093 2.6 360 22:57 23.12.2019
5917 Clouds 11 1011 43 16093 1.5 260 22:38 23.12.2019
5918 Rain 11 1010 40 16093 2.04 36 22:20 23.12.2019
5919 Clouds 11 1011 43 16093 2.1 270 21:56 23.12.2019
5920 Clouds 12 1011 40 16093 1.5 220 21:37 23.12.2019
5921 Clouds 11 1011 37 16093 2.04 36 21:19 23.12.2019
5922 Clouds 11 1012 40 16093 2.04 36 21:19 23.12.2019
5923 Clouds 11 1011 40 16093 2.04 36 20:58 23.12.2019
5924 Clouds 11 1012 37 16093 2.6 230 20:40 23.12.2019
5925 Clouds 11 1012 34 16093 1.5 90 20:19 23.12.2019
5926 Clouds 11 1012 34 16093 1.5 90 20:19 23.12.2019
5927 Clouds 11 1012 34 16093 1.5 90 20:19 23.12.2019
5928 Clouds 11 1012 40 16093 0.73 308 19:57 23.12.2019
5929 Clouds 11 1013 43 16093 0.73 308 19:38 23.12.2019
5930 Clouds 11 1014 37 16093 0.73 308 19:20 23.12.2019
5931 Clear 10 1013 32 16093 0.73 308 18:58 23.12.2019
5932 Clear 10 1013 32 16093 0.73 308 18:58 23.12.2019
5933 Clouds 9 1014 43 16093 1.5 90 18:39 23.12.2019
5934 Clouds 9 1013 46 16093 2.6 190 18:20 23.12.2019
5935 Clouds 8 1014 49 16093 1.5 50 17:58 23.12.2019
5936 Clouds 8 1014 52 16093 0.73 308 17:39 23.12.2019
5937 Clouds 7 1013 49 16093 1.5 230 17:19 23.12.2019
5938 Clouds 7 1013 56 16093 2.6 10 16:57 23.12.2019
5939 Clouds 6 1013 60 16093 0.8 325 16:39 23.12.2019
5940 Clouds 6 1012 49 16093 2.1 200 16:18 23.12.2019
5941 Clouds 6 1013 47 16093 0.8 325 15:56 23.12.2019
5942 Clouds 6 1013 47 16093 0.8 325 15:36 23.12.2019
5943 Clouds 6 1013 49 16093 1.5 210 15:18 23.12.2019
5944 Clouds 6 1013 47 16093 0.8 325 14:56 23.12.2019
5945 Clouds 7 1013 60 16093 0.8 325 14:37 23.12.2019
5946 Clouds 7 1012 49 16093 0.76 302 14:18 23.12.2019
5947 Clouds 7 1013 56 16093 1.5 310 13:55 23.12.2019
5948 Clouds 7 1013 45 16093 3.6 20 13:37 23.12.2019
5949 Clouds 7 1012 52 16093 2.1 220 13:19 23.12.2019
5950 Clear 7 1013 45 16093 4.1 30 12:41 23.12.2019
5951 Clouds 7 1013 52 16093 2.1 200 12:21 23.12.2019
5952 Clear 7 1013 52 16093 4.6 40 11:57 23.12.2019
5953 Clear 7 1013 45 16093 3.1 50 11:38 23.12.2019
5954 Clouds 7 1013 52 16093 3.6 280 11:20 23.12.2019
5955 Clear 7 1013 45 16093 3.1 20 10:55 23.12.2019
5956 Clear 7 1014 45 16093 1.5 30 10:37 23.12.2019
5957 Clouds 7 1013 49 16093 2.1 280 10:18 23.12.2019
5958 Clear 8 1014 45 16093 2.1 20 09:54 23.12.2019
5959 Clear 8 1014 42 16093 3.1 50 09:36 23.12.2019
5960 Clouds 7 1013 49 16093 0.54 97 09:18 23.12.2019
5961 Clear 7 1014 48 16093 0.54 97 08:41 23.12.2019
5962 Clouds 7 1014 49 16093 0.31 346 08:22 23.12.2019
5963 Clear 8 1014 37 16093 0.31 346 07:55 23.12.2019
5964 Clear 8 1014 37 16093 3.6 90 07:37 23.12.2019
5965 Clouds 8 1014 49 16093 2.1 20 07:18 23.12.2019
5966 Clear 7 1014 37 16093 3.1 70 06:32 23.12.2019
5967 Clear 7 1015 39 16093 2.1 60 05:56 23.12.2019
5968 Clouds 7 1014 45 16093 0.31 346 05:33 23.12.2019
5969 Clear 8 1015 45 16093 1.5 20 04:40 23.12.2019
5970 Clear 8 1015 39 16093 1.5 70 03:58 23.12.2019
5971 Clear 9 1014 39 16093 3.1 40 02:46 23.12.2019
5972 Clouds 9 1014 40 16093 0.78 352 02:19 23.12.2019
5973 Clear 10 1015 34 16093 0.78 352 01:46 23.12.2019
5974 Clear 10 1015 34 16093 1.05 6 01:27 23.12.2019
5975 Clear 11 1015 40 16093 3.1 60 00:46 23.12.2019
5976 Clear 11 1015 40 16093 3.1 60 00:25 23.12.2019
5977 Clear 11 1015 53 16093 1.05 6 23:56 22.12.2019
5978 Clear 11 1015 38 16093 1.5 80 23:37 22.12.2019
5979 Clouds 11 1015 34 16093 1.52 28 23:18 22.12.2019
5980 Clear 11 1015 30 16093 1.52 28 22:41 22.12.2019
5981 Clouds 11 1015 34 16093 1.52 28 22:22 22.12.2019
5982 Clear 11 1015 30 16093 1.52 28 21:59 22.12.2019
5983 Clouds 11 1016 40 16093 1.52 28 21:40 22.12.2019
5984 Clouds 11 1016 40 16093 1.52 28 21:22 22.12.2019
5985 Clouds 11 1014 45 16093 4.1 220 20:59 22.12.2019
5986 Clouds 10 1017 43 16093 1.52 28 20:40 22.12.2019
5987 Clouds 10 1017 43 16093 1.33 307 20:19 22.12.2019
5988 Clear 9 1018 65 16093 1.33 307 19:57 22.12.2019
5989 Clear 9 1018 65 16093 1.33 307 19:39 22.12.2019
5990 Clear 9 1019 49 16093 1.5 150 19:20 22.12.2019
5991 Clear 8 1019 34 16093 1.33 307 18:43 22.12.2019
5992 Clear 8 1019 34 16093 1.33 307 18:25 22.12.2019
5993 Clear 7 1019 56 16093 1.33 307 17:57 22.12.2019
5994 Clear 7 1019 56 16093 1.33 307 17:57 22.12.2019
5995 Clear 7 1019 34 16093 1.33 307 17:39 22.12.2019
5996 Clear 6 1019 52 16093 3.1 160 17:19 22.12.2019
5997 Clear 6 1019 65 16093 1.5 70 16:58 22.12.2019
5998 Clear 6 1019 74 16093 0.54 10 16:40 22.12.2019
5999 Clear 6 1019 74 16093 0.54 10 16:40 22.12.2019
6000 Clouds 6 1018 48 16093 2.6 210 16:22 22.12.2019
6001 Clear 5 1019 74 16093 0.54 10 15:57 22.12.2019
6002 Clear 6 1019 69 16093 0.54 10 15:38 22.12.2019
6003 Clouds 6 1018 48 16093 2.6 220 15:20 22.12.2019
6004 Clear 6 1019 69 16093 0.54 10 14:55 22.12.2019
6005 Clear 6 1018 74 16093 1.5 320 14:37 22.12.2019
6006 Clouds 6 1018 48 16093 2.1 220 14:18 22.12.2019
6007 Clouds 6 1018 48 16093 2.1 220 14:18 22.12.2019
6008 Clear 6 1018 69 16093 1.14 314 13:55 22.12.2019
6009 Clear 6 1018 69 16093 1.14 314 13:37 22.12.2019
6010 Clouds 6 1018 48 16093 2.6 220 13:19 22.12.2019
6011 Clear 6 1019 69 16093 0.86 315 12:56 22.12.2019
6012 Clear 6 1019 69 16093 0.86 315 12:37 22.12.2019
6013 Clouds 6 1019 48 16093 2.6 220 12:18 22.12.2019
6014 Clear 6 1019 65 16093 0.86 315 11:56 22.12.2019
6015 Clear 6 1020 69 16093 0.86 315 11:38 22.12.2019
6016 Clouds 6 1019 48 16093 3.1 200 11:18 22.12.2019
6017 Clear 6 1020 65 16093 0.81 321 10:55 22.12.2019
6018 Clear 6 1020 65 16093 0.81 321 10:36 22.12.2019
6019 Clouds 6 1020 48 16093 2.1 220 10:18 22.12.2019
6020 Clear 6 1020 65 16093 0.81 321 09:56 22.12.2019
6021 Clear 6 1021 65 16093 0.81 321 09:37 22.12.2019
6022 Clear 6 1021 65 16093 0.81 321 09:37 22.12.2019
6023 Clouds 6 1020 45 16093 2.6 200 09:19 22.12.2019
6024 Clear 7 1021 60 16093 0.81 321 08:39 22.12.2019
6025 Clouds 7 1021 45 16093 2.6 210 08:21 22.12.2019
6026 Clear 7 1022 60 16093 0.42 310 07:40 22.12.2019
6027 Clouds 7 1022 45 16093 2.6 230 07:21 22.12.2019
6028 Clear 7 1022 60 16093 0.42 310 06:42 22.12.2019
6029 Clouds 7 1022 49 16093 2.1 210 06:21 22.12.2019
6030 Clear 7 1022 56 16093 0.42 310 05:29 22.12.2019
6031 Clear 7 1023 56 16093 1.02 317 04:45 22.12.2019
6032 Clouds 8 1022 43 16093 1.5 220 04:22 22.12.2019
6033 Clear 9 1022 41 16093 2.6 20 02:43 22.12.2019
6034 Clear 9 1022 41 16093 2.6 20 02:43 22.12.2019
6035 Clear 9 1022 41 16093 2.6 20 02:43 22.12.2019
6036 Clear 10 1022 37 16093 2.6 40 01:57 22.12.2019
6037 Clear 11 1023 43 16093 0.99 345 01:31 22.12.2019
6038 Clear 12 1022 32 16093 0.99 345 00:48 22.12.2019
6039 Clear 12 1022 32 16093 0.99 345 00:28 22.12.2019
6040 Clear 13 1023 32 16093 2.1 20 23:57 21.12.2019
6041 Clear 13 1023 32 16093 2.1 20 23:57 21.12.2019
6042 Clear 13 1023 30 16093 2.1 80 23:39 21.12.2019
6043 Clouds 13 1022 26 16093 1.23 5 23:20 21.12.2019
6044 Clear 12 1023 34 16093 1.23 5 22:46 21.12.2019
6045 Clear 12 1023 34 16093 1.23 5 22:46 21.12.2019
6046 Clouds 12 1023 30 16093 1.5 320 22:20 21.12.2019
6047 Clear 12 1023 34 16093 1.23 5 21:58 21.12.2019
6048 Clear 12 1024 37 16093 1.23 5 21:39 21.12.2019
6049 Clouds 12 1024 30 16093 1.5 0 21:20 21.12.2019
6050 Clear 11 1025 37 16093 1.23 5 20:59 21.12.2019
6051 Clear 11 1026 39 16093 1.23 5 20:41 21.12.2019
6052 Clouds 11 1026 34 16093 1.23 333 20:22 21.12.2019
6053 Clear 10 1026 45 16093 1.23 333 19:58 21.12.2019
6054 Clear 10 1027 56 16093 1.23 333 19:40 21.12.2019
6055 Clear 9 1027 34 16093 1.23 333 19:20 21.12.2019
6056 Clear 9 1027 52 16093 1.23 333 18:56 21.12.2019
6057 Clear 9 1027 60 16093 1.23 333 18:37 21.12.2019
6058 Clouds 9 1027 42 16093 1.23 333 18:19 21.12.2019
6059 Clear 7 1027 56 16093 1.23 333 17:55 21.12.2019
6060 Clear 7 1027 60 16093 1.23 333 17:36 21.12.2019
6061 Clouds 6 1027 48 16093 1.5 280 17:18 21.12.2019
6062 Clouds 6 1027 48 16093 1.5 280 17:18 21.12.2019
6063 Clouds 6 1027 48 16093 1.5 280 17:18 21.12.2019
6064 Clear 4 1027 69 16093 0.56 322 16:41 21.12.2019
6065 Clouds 4 1026 56 16093 2.1 220 16:19 21.12.2019
6066 Clear 4 1027 60 16093 1.5 270 15:57 21.12.2019
6067 Clear 4 1027 69 16093 0.56 322 15:39 21.12.2019
6068 Clouds 4 1026 56 16093 1.5 210 15:20 21.12.2019
6069 Clear 3 1026 69 16093 1.5 10 14:57 21.12.2019
6070 Clear 3 1026 69 16093 0.56 322 14:38 21.12.2019
6071 Clouds 3 1026 56 16093 2.6 220 14:19 21.12.2019
6072 Clear 4 1026 64 16093 0.69 348 13:56 21.12.2019
6073 Clear 4 1026 60 16093 0.69 348 13:38 21.12.2019
6074 Clouds 4 1026 52 16093 0.63 342 13:18 21.12.2019
6075 Clear 4 1026 69 16093 1.5 30 12:55 21.12.2019
6076 Clear 4 1027 69 16093 0.63 342 12:37 21.12.2019
6077 Clouds 5 1026 52 16093 1.5 240 12:18 21.12.2019
6078 Clear 5 1027 48 16093 0.63 342 11:43 21.12.2019
6079 Clear 5 1027 48 16093 0.63 342 11:25 21.12.2019
6080 Clouds 5 1027 56 16093 0.69 317 10:56 21.12.2019
6081 Clear 5 1027 64 16093 0.69 317 10:38 21.12.2019
6082 Clouds 5 1026 48 16093 2.1 220 10:19 21.12.2019
6083 Clear 5 1027 52 16093 0.69 317 09:43 21.12.2019
6084 Clouds 5 1027 48 16093 1.5 210 09:21 21.12.2019
6085 Clear 6 1027 52 16093 0.69 317 08:57 21.12.2019
6086 Clear 6 1027 60 16093 0.69 317 08:37 21.12.2019
6087 Clouds 6 1027 45 16093 1.5 240 08:19 21.12.2019
6088 Clear 6 1028 60 16093 0.51 297 07:44 21.12.2019
6089 Clouds 6 1027 45 16093 2.6 210 07:22 21.12.2019
6090 Clear 6 1028 48 16093 1.5 140 06:44 21.12.2019
6091 Clear 6 1028 48 16093 1.5 140 06:25 21.12.2019
6092 Clear 7 1027 42 16093 0.51 297 05:49 21.12.2019
6093 Clear 7 1027 42 16093 2.6 310 04:58 21.12.2019
6094 Clear 8 1027 39 16093 2.6 280 03:57 21.12.2019
6095 Clear 10 1027 42 16093 2.6 10 02:52 21.12.2019
6096 Clear 10 1027 39 16093 2.6 340 01:59 21.12.2019
6097 Clear 11 1027 40 16093 2.1 360 01:28 21.12.2019
6098 Clear 12 1027 30 16093 2.1 60 00:53 21.12.2019
6099 Clear 13 1027 30 16093 2.1 60 00:33 21.12.2019
6100 Clear 13 1027 28 16093 3.6 310 23:59 20.12.2019
6101 Clear 13 1027 30 16093 2.6 40 23:38 20.12.2019
6102 Clouds 13 1026 22 16093 1.5 0 23:18 20.12.2019
6103 Clouds 13 1027 26 16093 1.5 110 22:40 20.12.2019
6104 Clouds 13 1027 26 16093 1.5 110 22:21 20.12.2019
6105 Clear 12 1027 28 16093 1.94 8 21:58 20.12.2019
6106 Clear 13 1028 30 16093 2.1 0 21:39 20.12.2019
6107 Clouds 12 1028 27 16093 1.5 0 21:20 20.12.2019
6108 Clear 11 1029 34 16093 1.94 8 20:41 20.12.2019
6109 Clouds 11 1029 29 16093 1.5 110 20:21 20.12.2019
6110 Clear 10 1029 39 16093 1.63 327 19:59 20.12.2019
6111 Clear 9 1030 52 16093 1.63 327 19:40 20.12.2019
6112 Clouds 8 1030 29 16093 1.63 327 19:20 20.12.2019
6113 Clear 8 1030 56 16093 1.63 327 18:54 20.12.2019
6114 Clear 9 1030 48 16093 1.63 327 18:36 20.12.2019
6115 Clear 9 1030 48 16093 1.63 327 18:36 20.12.2019
6116 Clouds 8 1029 34 16093 1.63 327 18:18 20.12.2019
6117 Clouds 5 1029 41 16093 1.63 327 17:42 20.12.2019
6118 Clouds 4 1029 41 16093 0.79 339 17:21 20.12.2019
6119 Clear 3 1029 48 16093 2.6 340 16:59 20.12.2019
6120 Clear 3 1029 48 16093 2.6 340 16:39 20.12.2019
6121 Clouds 1 1028 48 16093 2.1 210 16:20 20.12.2019
6122 Clear 2 1028 46 16093 0.79 339 15:57 20.12.2019
6123 Clear 1 1028 46 16093 0.79 339 15:38 20.12.2019
6124 Clouds 2 1028 48 16093 0.79 339 15:19 20.12.2019
6125 Clear 2 1028 46 16093 0.79 339 14:55 20.12.2019
6126 Clouds 2 1027 51 16093 2.1 290 14:37 20.12.2019
6127 Clouds 2 1027 51 16093 2.1 290 14:18 20.12.2019
6128 Clear 2 1027 59 16093 0.46 334 13:41 20.12.2019
6129 Clouds 2 1027 48 16093 2.6 200 13:20 20.12.2019
6130 Clear 2 1027 59 16093 0.68 340 12:58 20.12.2019
6131 Clouds 2 1027 51 16093 2.6 230 12:38 20.12.2019
6132 Clouds 2 1027 51 16093 2.6 230 12:19 20.12.2019
6133 Clear 2 1027 48 16093 2.6 140 11:59 20.12.2019
6134 Clear 2 1027 48 16093 2.6 140 11:59 20.12.2019
6135 Clear 3 1027 48 16093 2.6 140 11:39 20.12.2019
6136 Clouds 3 1027 48 16093 2.6 200 11:19 20.12.2019
6137 Clear 3 1027 44 16093 1.08 316 10:58 20.12.2019
6138 Clear 3 1027 44 16093 1.08 316 10:39 20.12.2019
6139 Clouds 3 1027 41 16093 2.1 290 10:20 20.12.2019
6140 Clear 3 1027 55 16093 1.08 316 09:54 20.12.2019
6141 Clouds 3 1026 48 16093 1.08 316 09:36 20.12.2019
6142 Clouds 3 1026 48 16093 1.08 316 09:18 20.12.2019
6143 Clear 3 1026 38 16093 3.1 210 08:42 20.12.2019
6144 Clear 4 1026 38 16093 3.1 210 08:22 20.12.2019
6145 Clear 4 1026 39 16093 0.16 24 07:58 20.12.2019
6146 Clear 4 1026 39 16093 0.16 24 07:39 20.12.2019
6147 Clear 4 1026 41 16093 2.1 210 07:18 20.12.2019
6148 Clear 5 1026 55 16093 0.16 24 06:49 20.12.2019
6149 Clear 5 1025 33 16093 2.1 250 06:30 20.12.2019
6150 Clear 5 1025 52 16093 1.5 350 05:52 20.12.2019
6151 Clear 5 1024 33 16093 2.6 260 05:34 20.12.2019
6152 Clear 7 1024 36 16093 3.1 30 03:57 20.12.2019
6153 Clouds 7 1023 23 16093 0.61 314 03:29 20.12.2019
6154 Clear 9 1023 25 16093 3.1 350 02:41 20.12.2019
6155 Clear 10 1022 25 16093 2.6 330 01:44 20.12.2019
6156 Clear 10 1022 25 16093 2.6 330 01:44 20.12.2019
6157 Clouds 11 1021 17 16093 0.23 352 01:18 20.12.2019
6158 Clear 12 1022 25 16093 0.4 44 00:41 20.12.2019
6159 Clear 12 1021 16 16093 0.4 44 00:19 20.12.2019
6160 Clear 12 1021 19 16093 4.1 350 23:42 19.12.2019
6161 Clear 12 1021 17 16093 1.5 290 23:23 19.12.2019
6162 Clear 12 1021 25 16093 1.31 358 22:56 19.12.2019
6163 Clear 11 1021 19 16093 1.31 358 22:36 19.12.2019
6164 Clear 11 1021 19 16093 1.31 358 22:18 19.12.2019
6165 Clear 11 1021 19 16093 1.31 358 22:18 19.12.2019
6166 Clear 11 1021 23 16093 2.1 40 21:42 19.12.2019
6167 Clear 11 1021 20 16093 1.31 358 21:20 19.12.2019
6168 Rain 10 1022 29 16093 1.5 0 20:58 19.12.2019
6169 Rain 10 1022 29 16093 1.5 0 20:38 19.12.2019
6170 Rain 9 1022 23 16093 1.5 20 20:20 19.12.2019
6171 Rain 9 1022 23 16093 1.5 20 20:20 19.12.2019
6172 Rain 7 1023 29 16093 1.23 325 19:59 19.12.2019
6173 Rain 8 1023 29 16093 1.23 325 19:40 19.12.2019
6174 Rain 8 1023 26 14484 2.6 200 19:20 19.12.2019
6175 Clouds 7 1023 26 16093 3.6 210 18:59 19.12.2019
6176 Clouds 7 1023 26 16093 3.6 210 18:40 19.12.2019
6177 Clouds 7 1023 26 16093 3.6 210 18:40 19.12.2019
6178 Clear 6 1022 33 16093 1.5 190 18:20 19.12.2019
6179 Clear 4 1022 47 16093 1.23 325 17:57 19.12.2019
6180 Clear 4 1021 38 16093 1.5 280 17:38 19.12.2019
6181 Clear 3 1021 38 16093 1.5 280 17:18 19.12.2019
6182 Clear 2 1021 59 16093 0.73 328 16:57 19.12.2019
6183 Clear 2 1020 43 16093 2.1 210 16:38 19.12.2019
6184 Clear 1 1020 43 16093 2.1 210 16:20 19.12.2019
6185 Clear 1 1021 63 16093 0.73 328 15:58 19.12.2019
6186 Clear 1 1021 63 16093 0.73 328 15:38 19.12.2019
6187 Clear 1 1021 63 16093 0.73 328 15:38 19.12.2019
6188 Clear 1 1020 43 16093 2.6 210 15:19 19.12.2019
6189 Clear 1 1020 50 16093 0.73 328 14:57 19.12.2019
6190 Clear 1 1020 50 16093 0.73 328 14:39 19.12.2019
6191 Clear 1 1019 43 16093 3.1 220 14:18 19.12.2019
6192 Clear 1 1019 43 16093 0.49 261 13:39 19.12.2019
6193 Clear 1 1019 43 16093 1.5 210 13:20 19.12.2019
6194 Clear 1 1019 50 16093 1.5 310 12:58 19.12.2019
6195 Clear 2 1019 50 16093 1.5 310 12:40 19.12.2019
6196 Clear 2 1019 40 16093 2.6 210 12:19 19.12.2019
6197 Clouds 2 1019 35 16093 0.6 282 11:59 19.12.2019
6198 Clouds 2 1019 35 16093 0.6 282 11:41 19.12.2019
6199 Clouds 2 1019 38 16093 1.5 260 11:19 19.12.2019
6200 Clear 2 1019 55 16093 1.12 261 10:59 19.12.2019
6201 Clear 2 1019 47 16093 1.5 280 10:38 19.12.2019
6202 Clear 2 1019 47 16093 1.5 280 10:38 19.12.2019
6203 Clear 2 1019 47 16093 1.5 280 10:20 19.12.2019
6204 Clear 3 1018 34 16093 1.12 261 09:56 19.12.2019
6205 Clear 3 1018 51 16093 1.12 261 09:37 19.12.2019
6206 Clear 3 1018 51 16093 1.12 261 09:19 19.12.2019
6207 Clear 3 1018 59 16093 1.12 261 08:55 19.12.2019
6208 Clear 3 1018 51 16093 1.12 261 08:37 19.12.2019
6209 Clear 4 1018 51 16093 1.07 285 08:18 19.12.2019
6210 Clear 4 1018 47 16093 2.1 240 07:41 19.12.2019
6211 Clear 4 1018 47 16093 2.1 240 07:41 19.12.2019
6212 Clear 4 1018 51 16093 1.5 300 07:23 19.12.2019
6213 Clear 5 1018 48 16093 0.57 295 06:58 19.12.2019
6214 Clear 5 1018 48 16093 0.57 295 06:39 19.12.2019
6215 Clouds 5 1018 44 16093 0.57 295 06:21 19.12.2019
6216 Clouds 5 1019 48 16093 0.57 295 05:42 19.12.2019
6217 Clouds 6 1019 52 16093 1.42 318 05:19 19.12.2019
6218 Clouds 6 1018 38 16093 1.42 318 03:51 19.12.2019
6219 Clear 7 1018 48 16093 2.1 300 02:28 19.12.2019
6220 Clear 7 1017 33 16093 1.12 345 01:24 19.12.2019
6221 Clear 8 1018 31 16093 1.12 345 00:57 19.12.2019
6222 Clear 8 1018 31 16093 1.12 345 00:38 19.12.2019
6223 Clear 8 1018 31 16093 1.12 345 00:19 19.12.2019
6224 Clear 8 1018 31 16093 1.12 345 00:19 19.12.2019
6225 Clear 8 1018 28 16093 1.12 345 23:44 18.12.2019
6226 Clear 9 1018 28 16093 1.37 350 23:19 18.12.2019
6227 Clear 9 1018 30 16093 1.37 350 22:56 18.12.2019
6228 Clear 8 1019 33 16093 1.37 350 22:38 18.12.2019
6229 Clear 8 1019 33 16093 1.37 350 22:20 18.12.2019
6230 Clear 8 1019 33 16093 1.37 350 21:58 18.12.2019
6231 Clear 8 1019 33 16093 1.37 350 21:58 18.12.2019
6232 Clear 8 1020 33 16093 2.1 250 21:39 18.12.2019
6233 Clear 8 1020 33 16093 2.1 250 21:20 18.12.2019
6234 Clear 8 1020 33 16093 1.37 350 20:56 18.12.2019
6235 Clear 8 1021 35 16093 1.37 350 20:38 18.12.2019
6236 Clear 7 1021 35 16093 1.32 338 20:19 18.12.2019
6237 Clear 7 1022 38 16093 1.32 338 19:56 18.12.2019
6238 Clear 7 1022 44 16093 1.32 338 19:37 18.12.2019
6239 Clear 6 1022 44 16093 1.32 338 19:18 18.12.2019
6240 Clouds 6 1022 33 16093 1.32 338 18:45 18.12.2019
6241 Clouds 6 1022 33 16093 1.32 338 18:25 18.12.2019
6242 Clear 4 1022 55 16093 1.32 338 17:58 18.12.2019
6243 Clear 4 1023 47 11265 1.5 260 17:39 18.12.2019
6244 Clear 4 1023 47 11265 1.5 260 17:39 18.12.2019
6245 Clear 3 1023 47 11265 1.5 260 17:20 18.12.2019
6246 Clear 2 1023 51 16093 0.96 334 16:58 18.12.2019
6247 Clear 2 1023 50 16093 0.96 334 16:40 18.12.2019
6248 Clear 2 1023 50 16093 0.96 334 16:40 18.12.2019
6249 Clouds 1 1022 43 16093 2.1 210 16:21 18.12.2019
6250 Clear 1 1023 39 16093 0.96 334 15:56 18.12.2019
6251 Clear 1 1023 63 16093 0.96 334 15:38 18.12.2019
6252 Clouds 1 1022 43 16093 2.6 200 15:20 18.12.2019
6253 Clear 2 1023 47 16093 0.96 334 14:43 18.12.2019
6254 Clouds 1 1022 43 16093 1.5 240 14:22 18.12.2019
6255 Clear 2 1023 47 16093 2.6 280 13:58 18.12.2019
6256 Clear 2 1023 34 16093 1.49 349 13:39 18.12.2019
6257 Clouds 2 1022 40 16093 2.6 250 13:21 18.12.2019
6258 Clear 2 1023 43 16093 1.5 0 12:59 18.12.2019
6259 Clear 2 1023 43 16093 1.5 0 12:40 18.12.2019
6260 Clouds 2 1023 44 16093 2.1 210 12:20 18.12.2019
6261 Clear 3 1024 37 16093 1.3 354 11:56 18.12.2019
6262 Clear 3 1024 37 16093 2.6 300 11:38 18.12.2019
6263 Clouds 4 1024 28 16093 2.6 250 11:19 18.12.2019
6264 Clear 4 1025 35 16093 2.1 320 10:57 18.12.2019
6265 Clear 4 1025 38 16093 0.98 58 10:39 18.12.2019
6266 Clouds 4 1025 30 16093 0.98 58 10:20 18.12.2019
6267 Clear 3 1026 38 16093 2.6 350 09:52 18.12.2019
6268 Clouds 3 1025 26 16093 0.98 58 09:19 18.12.2019
6269 Clear 3 1026 44 16093 0.98 58 08:42 18.12.2019
6270 Clear 3 1026 55 16093 0.84 331 08:24 18.12.2019
6271 Clear 3 1027 40 16093 1.17 315 07:55 18.12.2019
6272 Clear 3 1027 32 16093 1.17 315 07:37 18.12.2019
6273 Clear 3 1027 51 16093 2.6 160 07:19 18.12.2019
6274 Clear 3 1027 35 16093 1.5 260 06:50 18.12.2019
6275 Clouds 3 1027 33 16093 1.17 315 06:22 18.12.2019
6276 Clear 3 1027 37 16093 1.5 280 05:27 18.12.2019
6277 Clear 4 1028 35 16093 2.6 360 03:31 18.12.2019
6278 Clear 5 1028 30 16093 2.6 300 02:41 18.12.2019
6279 Clouds 5 1028 24 16093 2.6 20 02:23 18.12.2019
6280 Clear 7 1029 24 16093 2.1 350 01:42 18.12.2019
6281 Clear 7 1029 24 16093 2.1 350 01:24 18.12.2019
6282 Clear 8 1029 18 16093 3.6 30 00:42 18.12.2019
6283 Clouds 8 1029 19 16093 4.1 30 00:23 18.12.2019
6284 Clear 8 1029 18 16093 4.1 30 23:58 17.12.2019
6285 Clear 8 1030 18 16093 4.6 20 23:39 17.12.2019
6286 Clouds 8 1030 16 16093 2.6 20 23:20 17.12.2019
6287 Clear 8 1030 18 16093 4.6 40 22:56 17.12.2019
6288 Clear 8 1030 19 16093 4.6 20 22:38 17.12.2019
6289 Clouds 8 1030 18 16093 2.6 60 22:19 17.12.2019
6290 Clear 8 1031 18 16093 3.6 40 21:55 17.12.2019
6291 Clear 8 1032 20 16093 2.6 40 21:37 17.12.2019
6292 Clear 8 1033 22 16093 2.6 30 21:19 17.12.2019
6293 Clear 7 1032 20 16093 3.6 330 20:57 17.12.2019
6294 Clear 7 1033 24 16093 2.1 0 20:38 17.12.2019
6295 Clouds 6 1034 24 16093 2.6 60 20:18 17.12.2019
6296 Clouds 6 1034 24 16093 2.6 60 20:18 17.12.2019
6297 Clear 6 1034 26 16093 4.1 270 19:56 17.12.2019
6298 Clear 6 1035 28 16093 3.6 310 19:38 17.12.2019
6299 Clouds 5 1035 28 16093 1.97 25 19:18 17.12.2019
6300 Clouds 5 1035 28 16093 1.97 25 19:18 17.12.2019
6301 Clear 5 1035 30 16093 4.6 320 18:54 17.12.2019
6302 Clear 5 1035 30 16093 4.6 320 18:36 17.12.2019
6303 Clouds 4 1034 32 16093 1.97 25 18:18 17.12.2019
6304 Clear 3 1034 29 16093 4.1 350 17:42 17.12.2019
6305 Clear 1 1034 43 16093 1.5 270 17:20 17.12.2019
6306 Clear 0 1034 32 16093 5.1 350 16:56 17.12.2019
6307 Clear 0 1034 32 16093 5.1 350 16:56 17.12.2019
6308 Clear 0 1034 43 16093 4.1 320 16:38 17.12.2019
6309 Clouds -1 1034 50 16093 1.5 290 16:19 17.12.2019
6310 Clear -1 1034 40 16093 4.1 330 15:58 17.12.2019
6311 Clear -1 1034 37 16093 4.1 350 15:37 17.12.2019
6312 Clouds -1 1034 47 16093 1.5 230 15:19 17.12.2019
6313 Clear 0 1034 40 16093 3.6 310 14:55 17.12.2019
6314 Clear 0 1033 40 16093 3.1 310 14:37 17.12.2019
6315 Clouds 0 1033 50 16093 2.1 240 14:18 17.12.2019
6316 Clouds 0 1033 50 16093 2.1 240 14:18 17.12.2019
6317 Clear 0 1033 37 16093 2.6 300 13:55 17.12.2019
6318 Clear 0 1033 34 16093 3.1 20 13:37 17.12.2019
6319 Clouds 0 1033 43 16093 2.1 230 13:18 17.12.2019
6320 Clear 1 1033 32 16093 3.6 30 12:41 17.12.2019
6321 Clear 1 1033 34 16093 3.04 16 12:19 17.12.2019
6322 Clear 1 1033 32 16093 4.1 10 11:59 17.12.2019
6323 Clear 1 1033 32 16093 4.1 10 11:59 17.12.2019
6324 Clear 1 1033 32 16093 5.7 360 11:38 17.12.2019
6325 Clear 1 1034 43 16093 2.6 50 11:19 17.12.2019
6326 Clear 2 1033 32 16093 4.1 20 10:59 17.12.2019
6327 Clear 2 1033 32 16093 4.1 20 10:41 17.12.2019
6328 Clear 2 1033 32 16093 4.1 20 10:41 17.12.2019
6329 Clear 2 1033 38 16093 3.51 11 10:22 17.12.2019
6330 Clear 2 1033 37 16093 5.1 360 09:59 17.12.2019
6331 Clear 2 1033 34 16093 3.6 350 09:41 17.12.2019
6332 Clear 2 1033 43 16093 3.6 70 09:20 17.12.2019
6333 Clear 2 1033 34 16093 4.1 350 08:56 17.12.2019
6334 Clear 2 1033 34 16093 4.1 350 08:56 17.12.2019
6335 Clear 2 1033 35 16093 5.1 350 08:38 17.12.2019
6336 Clear 2 1033 38 16093 3.1 40 08:20 17.12.2019
6337 Clear 2 1033 30 16093 4.6 10 07:54 17.12.2019
6338 Clear 2 1033 30 16093 4.6 10 07:36 17.12.2019
6339 Clear 2 1033 74 16093 1.5 140 07:18 17.12.2019
6340 Clear 3 1033 30 16093 5.1 10 06:35 17.12.2019
6341 Clear 3 1032 26 16093 5.7 10 05:54 17.12.2019
6342 Clear 4 1032 26 16093 5.7 10 05:36 17.12.2019
6343 Clear 4 1031 28 16093 4.1 10 04:31 17.12.2019
6344 Clear 6 1030 33 16093 3.1 20 02:34 17.12.2019
6345 Clear 7 1030 28 16093 2.6 20 01:55 17.12.2019
6346 Clear 8 1029 24 16093 4.6 10 00:59 17.12.2019
6347 Clear 8 1029 23 16093 6.7 30 00:38 17.12.2019
6348 Clear 8 1029 21 16093 5.7 70 00:19 17.12.2019
6349 Clear 9 1028 24 16093 6.2 40 23:42 16.12.2019
6350 Clear 9 1029 26 16093 6.7 50 23:19 16.12.2019
6351 Clear 9 1029 26 16093 6.7 50 23:19 16.12.2019
6352 Clear 9 1029 26 16093 6.7 50 23:19 16.12.2019
6353 Clear 9 1029 26 16093 6.7 50 23:19 16.12.2019
6354 Clear 9 1029 24 16093 6.2 20 22:56 16.12.2019
6355 Clear 9 1029 24 16093 6.2 20 22:37 16.12.2019
6356 Clear 8 1028 21 16093 7.7 60 22:19 16.12.2019
6357 Clear 8 1028 21 16093 7.7 60 22:19 16.12.2019
6358 Clear 8 1028 21 16093 7.7 60 22:19 16.12.2019
6359 Clear 9 1029 23 16093 7.7 30 21:55 16.12.2019
6360 Clear 9 1029 23 16093 7.7 30 21:55 16.12.2019
6361 Clear 9 1029 24 16093 6.7 20 21:37 16.12.2019
6362 Clouds 8 1029 23 16093 7.2 50 21:19 16.12.2019
6363 Clear 9 1029 23 16093 6.7 30 20:57 16.12.2019
6364 Clear 8 1029 26 16093 6.2 360 20:37 16.12.2019
6365 Clouds 8 1030 23 16093 8.2 40 20:19 16.12.2019
6366 Clear 8 1030 26 16093 6.7 360 19:56 16.12.2019
6367 Clear 8 1030 26 16093 6.7 360 19:56 16.12.2019
6368 Clear 8 1030 26 16093 6.7 10 19:37 16.12.2019
6369 Clouds 7 1030 31 16093 4.6 20 19:18 16.12.2019
6370 Clear 7 1030 28 16093 7.2 360 18:56 16.12.2019
6371 Clear 7 1030 28 16093 7.2 360 18:37 16.12.2019
6372 Clear 6 1030 38 16093 4.1 40 18:19 16.12.2019
6373 Clear 6 1030 28 16093 7.2 360 17:57 16.12.2019
6374 Clear 5 1029 33 16093 7.2 360 17:38 16.12.2019
6375 Clear 5 1029 44 16093 3.1 50 17:19 16.12.2019
6376 Clear 4 1028 32 16093 4.6 20 16:55 16.12.2019
6377 Clear 4 1028 32 16093 4.6 20 16:37 16.12.2019
6378 Clouds 3 1028 44 16093 2.1 130 16:19 16.12.2019
6379 Clear 3 1028 32 16093 5.7 10 15:57 16.12.2019
6380 Clear 3 1027 35 16093 5.7 20 15:38 16.12.2019
6381 Clouds 3 1027 44 16093 2.6 40 15:20 16.12.2019
6382 Clear 4 1026 30 16093 5.7 30 14:55 16.12.2019
6383 Clear 4 1026 30 16093 5.7 30 14:36 16.12.2019
6384 Clouds 4 1025 48 16093 1.5 70 14:18 16.12.2019
6385 Clear 4 1025 30 16093 5.1 20 13:55 16.12.2019
6386 Clear 4 1025 33 16093 5.1 30 13:36 16.12.2019
6387 Clouds 5 1025 38 16093 3.1 20 13:18 16.12.2019
6388 Clear 5 1024 33 16093 6.7 20 12:54 16.12.2019
6389 Clear 5 1024 33 16093 6.7 20 12:36 16.12.2019
6390 Clear 5 1025 44 16093 2.6 50 12:18 16.12.2019
6391 Clear 5 1024 35 16093 5.7 10 11:55 16.12.2019
6392 Clear 5 1024 35 16093 5.7 10 11:37 16.12.2019
6393 Clear 5 1024 41 16093 3.6 50 11:19 16.12.2019
6394 Clear 5 1023 35 16093 6.7 350 10:40 16.12.2019
6395 Clear 6 1023 39 16093 5.1 10 10:21 16.12.2019
6396 Clear 5 1023 33 16093 5.1 350 09:56 16.12.2019
6397 Clear 6 1022 30 16093 5.1 10 09:37 16.12.2019
6398 Clear 6 1022 39 16093 4.6 60 09:19 16.12.2019
6399 Clear 6 1022 39 16093 6.7 360 08:39 16.12.2019
6400 Clear 7 1021 36 16093 3.6 40 08:19 16.12.2019
6401 Clear 7 1021 36 16093 3.6 40 08:19 16.12.2019
6402 Clear 7 1021 52 16093 3.1 350 07:51 16.12.2019
6403 Clear 7 1021 52 16093 3.1 350 07:31 16.12.2019
6404 Clear 7 1021 52 16093 3.1 350 07:31 16.12.2019
6405 Clear 7 1020 52 16093 4.6 330 06:48 16.12.2019
6406 Clouds 7 1020 39 16093 3.6 60 06:27 16.12.2019
6407 Clear 8 1019 45 16093 4.1 30 05:58 16.12.2019
6408 Clear 8 1019 45 16093 4.1 30 05:39 16.12.2019
6409 Clouds 8 1019 42 16093 3.1 60 05:21 16.12.2019
6410 Clouds 10 1017 61 16093 2.6 30 02:50 16.12.2019
6411 Clear 11 1016 32 16093 3.6 50 01:45 16.12.2019
6412 Clear 12 1016 25 16093 3.1 40 00:55 16.12.2019
6413 Clear 12 1015 28 16093 7.7 320 00:36 16.12.2019
6414 Clear 12 1015 30 16093 5.7 340 00:18 16.12.2019
6415 Clear 13 1015 28 16093 7.7 330 23:40 15.12.2019
6416 Clouds 13 1014 26 16093 8.7 310 23:21 15.12.2019
6417 Clear 13 1014 28 16093 10.3 330 22:56 15.12.2019
6418 Clear 13 1014 28 16093 10.3 330 22:38 15.12.2019
6419 Clouds 13 1014 28 16093 10.3 320 22:18 15.12.2019
6420 Clear 13 1014 28 16093 10.3 320 21:57 15.12.2019
6421 Clear 12 1014 30 16093 7.2 310 21:38 15.12.2019
6422 Clouds 12 1014 30 16093 9.8 350 21:19 15.12.2019
6423 Clouds 12 1014 24 16093 5.1 310 20:56 15.12.2019
6424 Clear 12 1014 46 16093 5.1 310 20:37 15.12.2019
6425 Clouds 12 1014 50 16093 2.22 314 20:19 15.12.2019
6426 Clear 11 1014 53 16093 3.1 290 19:57 15.12.2019
6427 Clear 10 1014 57 16093 2.1 190 19:39 15.12.2019
6428 Clouds 10 1014 57 16093 3.72 296 19:18 15.12.2019
6429 Clear 9 1014 61 16093 3.72 296 18:56 15.12.2019
6430 Clear 9 1014 61 16093 3.72 296 18:56 15.12.2019
6431 Clear 9 1014 66 16093 3.72 296 18:38 15.12.2019
6432 Clear 9 1014 66 16093 3.72 296 18:38 15.12.2019
6433 Clear 9 1014 49 16093 1.5 200 18:18 15.12.2019
6434 Clouds 8 1013 75 16093 3.72 296 17:56 15.12.2019
6435 Clouds 8 1013 75 16093 3.72 296 17:37 15.12.2019
6436 Rain 7 1013 65 16093 2.6 190 17:18 15.12.2019
6437 Rain 7 1012 93 16093 0.81 6 16:55 15.12.2019
6438 Rain 6 1012 93 16093 0.86 124 16:55 15.12.2019
6439 Rain 7 1012 93 16093 0.81 6 16:55 15.12.2019
6440 Rain 6 1012 93 16093 0.81 6 16:37 15.12.2019
6441 Rain 6 1011 81 16093 3.6 200 16:19 15.12.2019
6442 Rain 6 1012 93 16093 2.6 270 15:54 15.12.2019
6443 Rain 6 1012 93 16093 2.6 270 15:54 15.12.2019
6444 Rain 7 1010 81 16093 2.1 200 15:36 15.12.2019
6445 Rain 6 1010 81 16093 2.1 200 15:18 15.12.2019
6446 Rain 7 1009 100 16093 4.1 100 14:55 15.12.2019
6447 Rain 7 1009 75 16093 6.2 310 14:36 15.12.2019
6448 Rain 7 1009 75 16093 6.2 310 14:18 15.12.2019
6449 Rain 8 1009 57 16093 6.2 290 13:54 15.12.2019
6450 Rain 8 1008 87 8047 3.6 110 13:36 15.12.2019
6451 Clouds 8 1007 75 16093 2.1 250 13:18 15.12.2019
6452 Clouds 8 1007 100 16093 4.6 70 12:55 15.12.2019
6453 Clouds 8 1007 70 16093 1.1 262 12:37 15.12.2019
6454 Clouds 8 1007 70 16093 1.1 262 12:37 15.12.2019
6455 Clouds 8 1008 59 16093 4.6 190 12:19 15.12.2019
6456 Clouds 8 1008 66 16093 1.1 262 11:38 15.12.2019
6457 Clear 9 1008 61 16093 7.7 190 11:19 15.12.2019
6458 Clouds 8 1007 70 16093 2.6 320 10:56 15.12.2019
6459 Clouds 8 1007 70 16093 2.6 320 10:38 15.12.2019
6460 Clouds 9 1006 81 16093 2.1 220 10:19 15.12.2019
6461 Clouds 8 1007 61 16093 1.63 222 09:58 15.12.2019
6462 Clouds 8 1007 81 16093 4.1 50 09:37 15.12.2019
6463 Clouds 8 1007 81 16093 1.63 222 09:19 15.12.2019
6464 Rain 9 1007 81 6437 1.5 360 08:54 15.12.2019
6465 Clear 9 1007 71 16093 3.6 30 08:36 15.12.2019
6466 Clear 9 1008 70 16093 2.1 160 08:18 15.12.2019
6467 Rain 10 1008 71 16093 2.6 20 07:43 15.12.2019
6468 Rain 10 1007 71 16093 4.6 60 07:25 15.12.2019
6469 Rain 11 1008 76 8047 4.6 300 06:26 15.12.2019
6470 Rain 11 1007 76 16093 3.6 50 05:42 15.12.2019
6471 Clear 11 1008 62 16093 2.1 190 05:21 15.12.2019
6472 Clouds 11 1007 62 16093 1.5 170 04:20 15.12.2019
6473 Clouds 13 1008 58 16093 3.6 30 02:50 15.12.2019
6474 Clouds 13 1008 58 16093 3.6 30 02:31 15.12.2019
6475 Clouds 14 1008 58 16093 3.1 30 01:40 15.12.2019
6476 Clouds 14 1008 48 16093 2.1 100 01:18 15.12.2019
6477 Clouds 16 1008 48 16093 2.6 30 00:49 15.12.2019
6478 Clouds 16 1008 48 16093 2.6 30 00:31 15.12.2019
6479 Clear 15 1009 51 16093 1.76 35 23:41 14.12.2019
6480 Clouds 15 1008 51 16093 1.5 90 23:22 14.12.2019
6481 Clouds 15 1009 51 16093 2.1 0 22:59 14.12.2019
6482 Clear 15 1009 51 16093 3.1 70 22:41 14.12.2019
6483 Clouds 15 1009 47 16093 1.34 346 22:22 14.12.2019
6484 Clear 14 1009 51 16093 2.1 0 21:57 14.12.2019
6485 Clear 14 1010 51 16093 3.1 40 21:38 14.12.2019
6486 Clouds 14 1010 54 16093 1.34 346 21:19 14.12.2019
6487 Clouds 14 1010 54 16093 1.34 346 21:19 14.12.2019
6488 Clear 14 1010 54 16093 3.1 360 20:59 14.12.2019
6489 Clear 13 1011 58 16093 4.6 30 20:40 14.12.2019
6490 Clouds 13 1011 50 16093 2.1 40 20:20 14.12.2019
6491 Clouds 13 1011 50 16093 2.1 40 20:20 14.12.2019
6492 Clear 12 1011 54 16093 4.1 30 19:57 14.12.2019
6493 Clear 12 1011 54 16093 4.1 30 19:57 14.12.2019
6494 Clear 12 1012 58 16093 2.1 60 19:37 14.12.2019
6495 Clouds 11 1012 54 16093 2.1 320 19:19 14.12.2019
6496 Clear 11 1012 62 16093 3.1 60 18:56 14.12.2019
6497 Clear 11 1012 66 16093 3.1 70 18:38 14.12.2019
6498 Clouds 11 1012 58 16093 1.16 351 18:19 14.12.2019
6499 Clear 9 1011 71 16093 3.6 50 17:44 14.12.2019
6500 Clouds 8 1011 70 16093 1.5 310 17:24 14.12.2019
6501 Clear 7 1011 71 16093 3.1 30 16:58 14.12.2019
6502 Clear 6 1011 81 16093 2.6 50 16:39 14.12.2019
6503 Clouds 6 1010 75 16093 2.1 290 16:18 14.12.2019
6504 Clear 6 1011 81 16093 0.34 14 15:43 14.12.2019
6505 Clouds 6 1010 75 16093 2.6 280 15:22 14.12.2019
6506 Clear 6 1011 81 16093 2.6 60 14:59 14.12.2019
6507 Clear 6 1011 81 16093 2.1 70 14:38 14.12.2019
6508 Clouds 6 1010 75 16093 0.82 37 14:19 14.12.2019
6509 Clear 6 1011 75 16093 2.6 70 13:55 14.12.2019
6510 Clear 6 1011 81 16093 0.82 37 13:37 14.12.2019
6511 Clouds 6 1010 70 16093 0.79 79 13:18 14.12.2019
6512 Clear 6 1012 81 16093 2.1 20 12:54 14.12.2019
6513 Clear 6 1012 81 16093 2.1 20 12:36 14.12.2019
6514 Clear 7 1012 81 16093 3.6 180 12:18 14.12.2019
6515 Clear 7 1012 81 16093 2.6 330 11:54 14.12.2019
6516 Clear 7 1012 81 16093 2.6 330 11:36 14.12.2019
6517 Clear 7 1013 81 16093 2.6 180 11:18 14.12.2019
6518 Clear 7 1013 81 16093 2.1 300 10:55 14.12.2019
6519 Clear 7 1013 81 16093 2.1 300 10:36 14.12.2019
6520 Clear 8 1013 81 16093 3.6 160 10:18 14.12.2019
6521 Clear 8 1013 71 16093 2.1 50 09:40 14.12.2019
6522 Clouds 8 1013 61 16093 1.5 210 09:20 14.12.2019
6523 Clear 9 1014 71 16093 3.1 20 08:43 14.12.2019
6524 Clouds 9 1014 61 16093 2.6 270 08:20 14.12.2019
6525 Clear 9 1014 66 16093 3.6 30 07:55 14.12.2019
6526 Clear 9 1014 66 16093 4.1 40 07:36 14.12.2019
6527 Clouds 9 1014 66 16093 2.6 290 07:18 14.12.2019
6528 Clear 9 1014 62 16093 3.6 50 06:39 14.12.2019
6529 Clear 9 1015 75 16093 1.5 180 06:18 14.12.2019
6530 Clear 10 1014 58 16093 0.91 35 04:48 14.12.2019
6531 Clear 11 1015 54 16093 3.1 50 02:41 14.12.2019
6532 Clouds 12 1014 54 16093 2.1 110 02:19 14.12.2019
6533 Clear 13 1015 50 16093 2.6 80 01:37 14.12.2019
6534 Clear 14 1016 44 16093 6.2 160 00:49 14.12.2019
6535 Clouds 14 1015 44 16093 3.1 50 00:28 14.12.2019
6536 Clear 15 1016 41 16093 4.6 160 23:57 13.12.2019
6537 Clear 15 1016 41 16093 4.6 160 23:57 13.12.2019
6538 Clear 15 1016 41 16093 2.6 150 23:37 13.12.2019
6539 Clear 15 1017 47 16093 2.6 10 23:18 13.12.2019
6540 Clear 15 1018 47 16093 2.1 0 22:41 13.12.2019
6541 Clouds 14 1018 41 16093 4.1 80 22:19 13.12.2019
6542 Clear 14 1018 44 16093 2.6 140 21:56 13.12.2019
6543 Clear 14 1020 54 16093 1.38 88 21:38 13.12.2019
6544 Clear 14 1020 47 16093 3.1 30 21:20 13.12.2019
6545 Clear 13 1020 58 16093 1.38 88 20:42 13.12.2019
6546 Clouds 13 1020 50 16093 3.1 70 20:23 13.12.2019
6547 Clear 12 1022 62 16093 2.1 200 19:59 13.12.2019
6548 Clear 12 1022 62 16093 2.1 200 19:41 13.12.2019
6549 Clear 12 1022 62 16093 1.02 44 19:22 13.12.2019
6550 Clear 11 1023 70 16093 1.02 44 18:59 13.12.2019
6551 Clear 10 1023 70 16093 1.02 44 18:40 13.12.2019
6552 Clear 10 1023 81 16093 1.02 44 18:19 13.12.2019
6553 Clear 8 1023 81 16093 1.02 44 17:55 13.12.2019
6554 Clear 7 1023 81 16093 1.02 44 17:37 13.12.2019
6555 Clear 7 1023 81 16093 0.5 341 17:18 13.12.2019
6556 Clear 7 1023 81 16093 0.5 341 17:18 13.12.2019
6557 Clear 6 1023 86 16093 2.1 260 16:54 13.12.2019
6558 Clear 5 1023 81 16093 2.1 360 16:36 13.12.2019
6559 Clear 5 1023 81 16093 2.1 360 16:18 13.12.2019
6560 Clear 5 1023 93 16093 0.5 341 15:38 13.12.2019
6561 Clear 5 1023 93 16093 0.5 341 15:20 13.12.2019
6562 Clear 5 1023 86 16093 0.5 341 14:41 13.12.2019
6563 Clouds 5 1022 70 16093 1.12 271 14:21 13.12.2019
6564 Clear 5 1023 93 16093 3.6 330 13:58 13.12.2019
6565 Clear 5 1023 93 16093 3.6 330 13:58 13.12.2019
6566 Clear 5 1023 93 16093 3.6 330 13:39 13.12.2019
6567 Clear 5 1023 86 16093 0.48 300 13:21 13.12.2019
6568 Clear 5 1024 75 16093 0.48 300 12:42 13.12.2019
6569 Clouds 5 1024 70 16093 1.5 330 12:20 13.12.2019
6570 Clear 5 1023 86 16093 0.48 300 11:57 13.12.2019
6571 Clear 5 1023 86 16093 0.48 300 11:57 13.12.2019
6572 Clear 6 1023 81 16093 0.48 300 11:39 13.12.2019
6573 Clear 6 1023 81 16093 0.52 354 11:21 13.12.2019
6574 Clear 5 1023 86 16093 2.6 340 10:43 13.12.2019
6575 Clear 5 1023 86 16093 1.5 320 10:23 13.12.2019
6576 Clear 6 1024 81 16093 0.52 354 09:56 13.12.2019
6577 Clear 6 1023 81 16093 0.52 354 09:38 13.12.2019
6578 Clear 6 1023 81 16093 0.52 354 09:18 13.12.2019
6579 Clear 6 1023 81 16093 0.52 354 09:18 13.12.2019
6580 Clear 7 1024 81 16093 2.1 320 08:41 13.12.2019
6581 Clear 7 1023 81 16093 0.52 354 08:23 13.12.2019
6582 Clear 7 1023 75 16093 0.41 321 07:46 13.12.2019
6583 Clear 7 1024 75 16093 0.41 321 07:21 13.12.2019
6584 Clear 7 1024 75 16093 3.1 320 06:54 13.12.2019
6585 Clear 7 1023 70 16093 3.1 310 06:28 13.12.2019
6586 Clear 8 1023 66 16093 2.1 10 05:46 13.12.2019
6587 Clear 8 1024 70 16093 3.1 20 05:26 13.12.2019
6588 Clear 9 1023 66 16093 3.1 20 04:35 13.12.2019
6589 Clouds 9 1022 50 16093 2.6 210 03:39 13.12.2019
6590 Clouds 11 1023 50 16093 1.5 160 02:33 13.12.2019
6591 Clear 12 1024 57 16093 2.1 50 01:43 13.12.2019
6592 Clear 13 1024 54 16093 2.1 30 00:55 13.12.2019
6593 Clear 13 1023 50 16093 0.82 42 00:36 13.12.2019
6594 Clear 13 1023 50 16093 1.5 110 23:57 12.12.2019
6595 Clear 13 1023 50 16093 3.1 130 23:37 12.12.2019
6596 Clear 13 1023 50 16093 3.1 130 23:19 12.12.2019
6597 Clear 13 1024 47 16093 0.77 49 22:54 12.12.2019
6598 Clear 13 1024 47 16093 0.77 49 22:36 12.12.2019
6599 Clear 13 1024 47 16093 0.77 49 22:18 12.12.2019
6600 Clear 13 1024 47 16093 0.77 49 21:54 12.12.2019
6601 Clear 13 1025 47 16093 0.77 49 21:36 12.12.2019
6602 Clear 13 1025 47 16093 0.77 49 21:18 12.12.2019
6603 Clear 13 1025 50 16093 0.77 49 20:55 12.12.2019
6604 Clear 13 1025 54 16093 0.77 49 20:37 12.12.2019
6605 Clear 13 1025 54 16093 0.3 338 20:19 12.12.2019
6606 Clear 12 1026 57 16093 0.3 338 19:42 12.12.2019
6607 Clear 11 1026 61 16093 0.3 338 19:22 12.12.2019
6608 Clear 10 1026 70 16093 0.3 338 18:58 12.12.2019
6609 Clear 10 1026 70 16093 0.3 338 18:39 12.12.2019
6610 Clear 10 1026 70 16093 0.3 338 18:20 12.12.2019
6611 Clear 9 1026 70 16093 0.3 338 17:57 12.12.2019
6612 Clear 8 1026 81 16093 0.3 338 17:39 12.12.2019
6613 Clear 7 1026 81 16093 0.4 316 17:20 12.12.2019
6614 Clear 6 1025 75 16093 0.4 316 16:57 12.12.2019
6615 Clear 5 1025 80 16093 0.4 316 16:39 12.12.2019
6616 Clear 5 1025 80 16093 0.4 316 16:20 12.12.2019
6617 Clear 5 1025 86 16093 0.4 316 15:56 12.12.2019
6618 Clear 5 1025 86 16093 0.4 316 15:37 12.12.2019
6619 Clear 5 1025 86 16093 0.4 316 15:18 12.12.2019
6620 Clear 5 1024 86 16093 0.4 316 14:38 12.12.2019
6621 Clear 5 1024 86 16093 0.4 301 14:20 12.12.2019
6622 Clear 5 1024 86 16093 0.4 301 13:58 12.12.2019
6623 Clear 6 1024 86 16093 0.4 301 13:39 12.12.2019
6624 Clear 6 1024 80 16093 0.69 351 13:21 12.12.2019
6625 Clear 6 1024 80 16093 0.69 351 13:21 12.12.2019
6626 Clear 6 1024 80 16093 1.5 120 12:58 12.12.2019
6627 Clear 6 1024 80 16093 1.5 120 12:40 12.12.2019
6628 Clear 6 1024 75 16093 0.69 351 12:21 12.12.2019
6629 Clear 5 1024 80 16093 0.69 351 11:56 12.12.2019
6630 Clear 5 1024 80 16093 0.69 351 11:38 12.12.2019
6631 Clear 5 1024 80 16093 0.58 36 11:19 12.12.2019
6632 Clear 5 1024 80 16093 0.58 36 10:55 12.12.2019
6633 Clear 6 1024 75 16093 0.58 36 10:37 12.12.2019
6634 Clear 6 1024 75 16093 0.58 36 10:19 12.12.2019
6635 Clear 6 1024 75 16093 0.58 36 09:42 12.12.2019
6636 Clear 6 1024 75 16093 0.58 36 09:24 12.12.2019
6637 Clear 6 1024 70 16093 0.58 36 08:59 12.12.2019
6638 Clear 6 1024 70 16093 0.58 36 08:40 12.12.2019
6639 Haze 6 1023 57 16093 0.35 213 08:22 12.12.2019
6640 Clear 7 1024 75 16093 0.35 213 07:47 12.12.2019
6641 Haze 7 1023 61 16093 2.1 210 07:25 12.12.2019
6642 Clear 7 1024 61 16093 0.35 213 06:54 12.12.2019
6643 Clear 7 1024 70 16093 0.35 213 06:34 12.12.2019
6644 Clear 7 1024 61 16093 0.35 213 05:41 12.12.2019
6645 Clear 8 1023 61 16093 0.25 286 04:54 12.12.2019
6646 Clear 9 1023 53 16093 3.6 30 03:37 12.12.2019
6647 Clear 10 1022 61 16093 2.1 30 02:39 12.12.2019
6648 Clear 11 1022 61 16093 2.1 30 02:20 12.12.2019
6649 Clear 12 1022 53 16093 3.1 30 01:43 12.12.2019
6650 Clouds 12 1022 35 16093 2.1 60 01:24 12.12.2019
6651 Clear 13 1022 43 16093 1.06 5 00:47 12.12.2019
6652 Clear 13 1022 43 16093 2.1 50 00:20 12.12.2019
6653 Clear 14 1022 43 16093 1.5 30 23:44 11.12.2019
6654 Clouds 14 1022 35 16093 2.1 100 23:21 11.12.2019
6655 Clear 14 1022 34 16093 1.41 21 22:58 11.12.2019
6656 Clouds 14 1022 33 16093 2.1 0 22:39 11.12.2019
6657 Clouds 14 1022 33 16093 2.1 0 22:20 11.12.2019
6658 Clear 14 1023 43 16093 1.5 0 21:57 11.12.2019
6659 Clear 14 1023 34 16093 1.5 150 21:38 11.12.2019
6660 Clear 13 1023 34 16093 1.5 150 21:20 11.12.2019
6661 Clear 13 1024 46 16093 1.41 21 20:56 11.12.2019
6662 Clouds 13 1024 37 16093 2.1 130 20:37 11.12.2019
6663 Clouds 12 1024 37 16093 2.1 130 20:19 11.12.2019
6664 Clear 11 1025 57 16093 1.5 230 19:58 11.12.2019
6665 Clear 11 1025 61 16093 1.08 290 19:39 11.12.2019
6666 Clear 11 1025 61 16093 1.08 290 19:19 11.12.2019
6667 Clear 10 1025 61 16093 1.5 190 18:42 11.12.2019
6668 Clear 9 1025 61 14484 1.08 290 18:21 11.12.2019
6669 Clear 8 1024 75 16093 1.08 290 17:57 11.12.2019
6670 Clear 8 1024 75 16093 1.08 290 17:57 11.12.2019
6671 Clear 8 1024 80 16093 1.08 290 17:39 11.12.2019
6672 Clear 7 1024 80 16093 1.04 328 17:18 11.12.2019
6673 Clear 6 1024 80 16093 1.04 328 16:57 11.12.2019
6674 Clouds 6 1024 65 16093 1.5 210 16:38 11.12.2019
6675 Clouds 5 1024 65 16093 1.5 210 16:20 11.12.2019
6676 Clear 5 1024 80 16093 1.04 328 15:59 11.12.2019
6677 Clear 5 1024 80 16093 1.04 328 15:39 11.12.2019
6678 Clouds 5 1023 65 16093 1.04 328 15:21 11.12.2019
6679 Clear 5 1023 80 16093 1.04 328 14:56 11.12.2019
6680 Clear 5 1023 80 16093 1.04 328 14:37 11.12.2019
6681 Clear 5 1023 80 16093 0.35 56 14:19 11.12.2019
6682 Clear 5 1023 80 16093 0.35 56 13:54 11.12.2019
6683 Clear 5 1023 80 16093 2.1 300 13:36 11.12.2019
6684 Clear 5 1023 80 16093 2.1 300 13:36 11.12.2019
6685 Clear 5 1023 80 16093 2.1 300 13:18 11.12.2019
6686 Clear 5 1023 80 16093 2.1 300 13:18 11.12.2019
6687 Clear 5 1023 80 16093